<?xml version="1.0" encoding="UTF-8" standalone="no" ?>
<gpx xmlns="http://www.topografix.com/GPX/1/1" xmlns:xsi="http://www.w3.org/2001/XMLSchema-instance" xsi:schemaLocation="http://www.topografix.com/GPX/1/1 http://www.topografix.com/GPX/1/1/gpx.xsd" version="1.1" creator="VisuGPX - https://www.visugpx.com">
  <metadata>
    <name>61 CCC  Flémalle - Andenne - Flémalle</name>
    <desc><![CDATA[Randonnée au départ de l'Auto5 de Flémalle.
Flémalle - Mons - Cahottes - Hozémont - Haneffe - Borlez - Les Waleffes - Tourinne - Lens St Servais - Lens St Remy - Avennes - Waseiges - Hemptinne - Landenne - Andenne - Huy - Amay - Awirs - Chokier - Flémalle.]]></desc>
  </metadata>
  <trk>
    <name><![CDATA[61 CCC]]></name>
    <extensions>
      <line xmlns="http://www.topografix.com/GPX/gpx_style/0/2">
        <color>0000FF</color>
        <width>4</width>
      </line>
    </extensions>
    <trkseg>
      <trkpt lat="50.60433" lon="5.48425">
        <ele>65.3</ele>
        <time>2019-04-23T06:55:11.000Z</time>
      </trkpt>
      <trkpt lat="50.60433" lon="5.48425">
        <ele>65.3</ele>
        <time>2019-04-23T06:55:11.000Z</time>
      </trkpt>
      <trkpt lat="50.604" lon="5.48445">
        <ele>65</ele>
        <time>2019-04-23T06:55:16.000Z</time>
      </trkpt>
      <trkpt lat="50.6035" lon="5.48515">
        <ele>64</ele>
        <time>2019-04-23T07:06:55.000Z</time>
      </trkpt>
      <trkpt lat="50.60367" lon="5.48548">
        <ele>63</ele>
        <time>2019-04-23T07:06:58.000Z</time>
      </trkpt>
      <trkpt lat="50.60372" lon="5.48536">
        <ele>64</ele>
        <time>2019-04-23T07:06:59.000Z</time>
      </trkpt>
      <trkpt lat="50.60377" lon="5.4853">
        <ele>64</ele>
        <time>2019-04-23T07:07:01.000Z</time>
      </trkpt>
      <trkpt lat="50.60449" lon="5.48443">
        <ele>65</ele>
        <time>2019-04-23T07:07:02.000Z</time>
      </trkpt>
      <trkpt lat="50.60491" lon="5.48394">
        <ele>67</ele>
        <time>2019-04-23T07:07:06.000Z</time>
      </trkpt>
      <trkpt lat="50.60496" lon="5.48396">
        <ele>67</ele>
        <time>2019-04-23T07:07:10.000Z</time>
      </trkpt>
      <trkpt lat="50.60502" lon="5.48393">
        <ele>67</ele>
        <time>2019-04-23T07:07:11.000Z</time>
      </trkpt>
      <trkpt lat="50.60504" lon="5.48385">
        <ele>67</ele>
        <time>2019-04-23T07:07:14.000Z</time>
      </trkpt>
      <trkpt lat="50.60506" lon="5.48375">
        <ele>67.5</ele>
        <time>2019-04-23T07:07:18.000Z</time>
      </trkpt>
      <trkpt lat="50.60529" lon="5.48355">
        <ele>67.6</ele>
        <time>2019-04-23T07:07:26.000Z</time>
      </trkpt>
      <trkpt lat="50.60602" lon="5.483">
        <ele>68</ele>
        <time>2019-04-23T07:07:27.000Z</time>
      </trkpt>
      <trkpt lat="50.60636" lon="5.48271">
        <ele>68</ele>
        <time>2019-04-23T07:07:28.000Z</time>
      </trkpt>
      <trkpt lat="50.60668" lon="5.48231">
        <ele>70</ele>
        <time>2019-04-23T07:07:33.000Z</time>
      </trkpt>
      <trkpt lat="50.60674" lon="5.48222">
        <ele>70</ele>
        <time>2019-04-23T07:07:35.000Z</time>
      </trkpt>
      <trkpt lat="50.60679" lon="5.48214">
        <ele>71</ele>
        <time>2019-04-23T07:07:39.000Z</time>
      </trkpt>
      <trkpt lat="50.6068" lon="5.48203">
        <ele>71</ele>
        <time>2019-04-23T07:07:42.000Z</time>
      </trkpt>
      <trkpt lat="50.60678" lon="5.48193">
        <ele>71</ele>
        <time>2019-04-23T07:07:46.000Z</time>
      </trkpt>
      <trkpt lat="50.60637" lon="5.48088">
        <ele>70.2</ele>
        <time>2019-04-23T07:07:47.000Z</time>
      </trkpt>
      <trkpt lat="50.60593" lon="5.47996">
        <ele>70.6</ele>
        <time>2019-04-23T07:07:50.000Z</time>
      </trkpt>
      <trkpt lat="50.60658" lon="5.47914">
        <ele>72</ele>
        <time>2019-04-23T07:07:54.000Z</time>
      </trkpt>
      <trkpt lat="50.60666" lon="5.47912">
        <ele>72</ele>
        <time>2019-04-23T07:07:58.000Z</time>
      </trkpt>
      <trkpt lat="50.60676" lon="5.47905">
        <ele>73.6</ele>
        <time>2019-04-23T07:07:59.000Z</time>
      </trkpt>
      <trkpt lat="50.60747" lon="5.47874">
        <ele>76</ele>
        <time>2019-04-23T07:08:00.000Z</time>
      </trkpt>
      <trkpt lat="50.60823" lon="5.47839">
        <ele>80</ele>
        <time>2019-04-23T07:08:09.000Z</time>
      </trkpt>
      <trkpt lat="50.60845" lon="5.47824">
        <ele>81</ele>
        <time>2019-04-23T07:08:10.000Z</time>
      </trkpt>
      <trkpt lat="50.60867" lon="5.47801">
        <ele>83</ele>
        <time>2019-04-23T07:08:11.000Z</time>
      </trkpt>
      <trkpt lat="50.6088" lon="5.47793">
        <ele>83</ele>
        <time>2019-04-23T07:08:49.000Z</time>
      </trkpt>
      <trkpt lat="50.60896" lon="5.47787">
        <ele>83</ele>
        <time>2019-04-23T07:08:55.000Z</time>
      </trkpt>
      <trkpt lat="50.60911" lon="5.47788">
        <ele>83</ele>
        <time>2019-04-23T07:09:01.000Z</time>
      </trkpt>
      <trkpt lat="50.60925" lon="5.47791">
        <ele>85</ele>
        <time>2019-04-23T07:09:45.000Z</time>
      </trkpt>
      <trkpt lat="50.60942" lon="5.47802">
        <ele>85</ele>
        <time>2019-04-23T07:09:46.000Z</time>
      </trkpt>
      <trkpt lat="50.60951" lon="5.47808">
        <ele>86</ele>
        <time>2019-04-23T07:09:50.000Z</time>
      </trkpt>
      <trkpt lat="50.6096" lon="5.47818">
        <ele>86</ele>
        <time>2019-04-23T07:09:52.000Z</time>
      </trkpt>
      <trkpt lat="50.60979" lon="5.47844">
        <ele>89</ele>
        <time>2019-04-23T07:09:54.000Z</time>
      </trkpt>
      <trkpt lat="50.61006" lon="5.47878">
        <ele>92</ele>
        <time>2019-04-23T07:09:55.000Z</time>
      </trkpt>
      <trkpt lat="50.61027" lon="5.47892">
        <ele>93</ele>
        <time>2019-04-23T07:09:56.000Z</time>
      </trkpt>
      <trkpt lat="50.61045" lon="5.47901">
        <ele>93</ele>
        <time>2019-04-23T07:09:57.000Z</time>
      </trkpt>
      <trkpt lat="50.61066" lon="5.47906">
        <ele>94</ele>
        <time>2019-04-23T07:10:36.000Z</time>
      </trkpt>
      <trkpt lat="50.61076" lon="5.47909">
        <ele>95</ele>
        <time>2019-04-23T07:10:38.000Z</time>
      </trkpt>
      <trkpt lat="50.61086" lon="5.47909">
        <ele>96</ele>
        <time>2019-04-23T07:10:40.000Z</time>
      </trkpt>
      <trkpt lat="50.61175" lon="5.4789">
        <ele>97</ele>
        <time>2019-04-23T07:10:43.000Z</time>
      </trkpt>
      <trkpt lat="50.6124" lon="5.47914">
        <ele>95</ele>
        <time>2019-04-23T07:10:44.000Z</time>
      </trkpt>
      <trkpt lat="50.61305" lon="5.47943">
        <ele>92</ele>
        <time>2019-04-23T07:10:48.000Z</time>
      </trkpt>
      <trkpt lat="50.61358" lon="5.47976">
        <ele>92</ele>
        <time>2019-04-23T07:10:52.000Z</time>
      </trkpt>
      <trkpt lat="50.61444" lon="5.47989">
        <ele>94.7</ele>
        <time>2019-04-23T07:10:53.000Z</time>
      </trkpt>
      <trkpt lat="50.61465" lon="5.47951">
        <ele>95</ele>
        <time>2019-04-23T07:10:57.000Z</time>
      </trkpt>
      <trkpt lat="50.6148" lon="5.47896">
        <ele>96</ele>
        <time>2019-04-23T07:10:58.000Z</time>
      </trkpt>
      <trkpt lat="50.61487" lon="5.47802">
        <ele>97</ele>
        <time>2019-04-23T07:11:06.000Z</time>
      </trkpt>
      <trkpt lat="50.61493" lon="5.47767">
        <ele>97</ele>
        <time>2019-04-23T07:11:14.000Z</time>
      </trkpt>
      <trkpt lat="50.61507" lon="5.47735">
        <ele>98</ele>
        <time>2019-04-23T07:11:18.000Z</time>
      </trkpt>
      <trkpt lat="50.61523" lon="5.47703">
        <ele>99</ele>
        <time>2019-04-23T07:11:24.000Z</time>
      </trkpt>
      <trkpt lat="50.61546" lon="5.47668">
        <ele>99</ele>
        <time>2019-04-23T07:11:25.000Z</time>
      </trkpt>
      <trkpt lat="50.61562" lon="5.47626">
        <ele>100</ele>
        <time>2019-04-23T07:11:28.000Z</time>
      </trkpt>
      <trkpt lat="50.61558" lon="5.47589">
        <ele>101</ele>
        <time>2019-04-23T07:11:30.000Z</time>
      </trkpt>
      <trkpt lat="50.61539" lon="5.47522">
        <ele>104</ele>
        <time>2019-04-23T07:11:32.000Z</time>
      </trkpt>
      <trkpt lat="50.61513" lon="5.4742">
        <ele>108</ele>
        <time>2019-04-23T07:11:40.000Z</time>
      </trkpt>
      <trkpt lat="50.61497" lon="5.47344">
        <ele>111</ele>
        <time>2019-04-23T07:11:41.000Z</time>
      </trkpt>
      <trkpt lat="50.61489" lon="5.47298">
        <ele>112</ele>
        <time>2019-04-23T07:11:44.000Z</time>
      </trkpt>
      <trkpt lat="50.61479" lon="5.47267">
        <ele>113</ele>
        <time>2019-04-23T07:11:50.000Z</time>
      </trkpt>
      <trkpt lat="50.61483" lon="5.47252">
        <ele>113</ele>
        <time>2019-04-23T07:11:56.000Z</time>
      </trkpt>
      <trkpt lat="50.61502" lon="5.47237">
        <ele>113</ele>
        <time>2019-04-23T07:12:01.000Z</time>
      </trkpt>
      <trkpt lat="50.61551" lon="5.47213">
        <ele>116</ele>
        <time>2019-04-23T07:12:07.000Z</time>
      </trkpt>
      <trkpt lat="50.6156" lon="5.47195">
        <ele>116</ele>
        <time>2019-04-23T07:12:14.000Z</time>
      </trkpt>
      <trkpt lat="50.61568" lon="5.47163">
        <ele>119</ele>
        <time>2019-04-23T07:12:17.000Z</time>
      </trkpt>
      <trkpt lat="50.61577" lon="5.47007">
        <ele>126</ele>
        <time>2019-04-23T07:12:21.000Z</time>
      </trkpt>
      <trkpt lat="50.61581" lon="5.46931">
        <ele>129</ele>
        <time>2019-04-23T07:12:24.000Z</time>
      </trkpt>
      <trkpt lat="50.61581" lon="5.46897">
        <ele>130</ele>
        <time>2019-04-23T07:12:28.000Z</time>
      </trkpt>
      <trkpt lat="50.61579" lon="5.4687">
        <ele>130</ele>
        <time>2019-04-23T07:12:29.000Z</time>
      </trkpt>
      <trkpt lat="50.61562" lon="5.46802">
        <ele>132</ele>
        <time>2019-04-23T07:12:32.000Z</time>
      </trkpt>
      <trkpt lat="50.61542" lon="5.46722">
        <ele>135</ele>
        <time>2019-04-23T07:12:36.000Z</time>
      </trkpt>
      <trkpt lat="50.61522" lon="5.46648">
        <ele>138</ele>
        <time>2019-04-23T07:12:39.000Z</time>
      </trkpt>
      <trkpt lat="50.61506" lon="5.46577">
        <ele>141</ele>
        <time>2019-04-23T07:12:40.000Z</time>
      </trkpt>
      <trkpt lat="50.61503" lon="5.46547">
        <ele>142</ele>
        <time>2019-04-23T07:12:44.000Z</time>
      </trkpt>
      <trkpt lat="50.61526" lon="5.46484">
        <ele>145</ele>
        <time>2019-04-23T07:12:47.000Z</time>
      </trkpt>
      <trkpt lat="50.61552" lon="5.46422">
        <ele>146</ele>
        <time>2019-04-23T07:12:52.000Z</time>
      </trkpt>
      <trkpt lat="50.61598" lon="5.46311">
        <ele>151</ele>
        <time>2019-04-23T07:12:57.000Z</time>
      </trkpt>
      <trkpt lat="50.61612" lon="5.46277">
        <ele>151</ele>
        <time>2019-04-23T07:13:03.000Z</time>
      </trkpt>
      <trkpt lat="50.61625" lon="5.46251">
        <ele>152</ele>
        <time>2019-04-23T07:13:05.000Z</time>
      </trkpt>
      <trkpt lat="50.61637" lon="5.46239">
        <ele>154</ele>
        <time>2019-04-23T07:13:06.000Z</time>
      </trkpt>
      <trkpt lat="50.61653" lon="5.4623">
        <ele>154.5</ele>
        <time>2019-04-23T07:13:08.000Z</time>
      </trkpt>
      <trkpt lat="50.61701" lon="5.46238">
        <ele>161</ele>
        <time>2019-04-23T07:13:09.000Z</time>
      </trkpt>
      <trkpt lat="50.61727" lon="5.46244">
        <ele>163</ele>
        <time>2019-04-23T07:13:14.000Z</time>
      </trkpt>
      <trkpt lat="50.61746" lon="5.46242">
        <ele>164</ele>
        <time>2019-04-23T07:13:18.000Z</time>
      </trkpt>
      <trkpt lat="50.61769" lon="5.46221">
        <ele>166</ele>
        <time>2019-04-23T07:13:19.000Z</time>
      </trkpt>
      <trkpt lat="50.6179" lon="5.46197">
        <ele>167</ele>
        <time>2019-04-23T07:13:24.000Z</time>
      </trkpt>
      <trkpt lat="50.6183" lon="5.46157">
        <ele>168.4</ele>
        <time>2019-04-23T07:13:28.000Z</time>
      </trkpt>
      <trkpt lat="50.61848" lon="5.46148">
        <ele>171</ele>
        <time>2019-04-23T07:13:30.000Z</time>
      </trkpt>
      <trkpt lat="50.61851" lon="5.46158">
        <ele>171</ele>
        <time>2019-04-23T07:13:35.000Z</time>
      </trkpt>
      <trkpt lat="50.61859" lon="5.46158">
        <ele>171</ele>
        <time>2019-04-23T07:13:42.000Z</time>
      </trkpt>
      <trkpt lat="50.61865" lon="5.46146">
        <ele>171</ele>
        <time>2019-04-23T07:13:44.000Z</time>
      </trkpt>
      <trkpt lat="50.61882" lon="5.46148">
        <ele>172.1</ele>
        <time>2019-04-23T07:13:45.000Z</time>
      </trkpt>
      <trkpt lat="50.62015" lon="5.46083">
        <ele>179</ele>
        <time>2019-04-23T07:13:48.000Z</time>
      </trkpt>
      <trkpt lat="50.62099" lon="5.46039">
        <ele>182</ele>
        <time>2019-04-23T07:13:49.000Z</time>
      </trkpt>
      <trkpt lat="50.62121" lon="5.46019">
        <ele>182</ele>
        <time>2019-04-23T07:13:51.000Z</time>
      </trkpt>
      <trkpt lat="50.62141" lon="5.4601">
        <ele>182</ele>
        <time>2019-04-23T07:13:57.000Z</time>
      </trkpt>
      <trkpt lat="50.62164" lon="5.46003">
        <ele>181.1</ele>
        <time>2019-04-23T07:14:02.000Z</time>
      </trkpt>
      <trkpt lat="50.62207" lon="5.45997">
        <ele>180.7</ele>
        <time>2019-04-23T07:14:08.000Z</time>
      </trkpt>
      <trkpt lat="50.62237" lon="5.4599">
        <ele>180.8</ele>
        <time>2019-04-23T07:14:10.000Z</time>
      </trkpt>
      <trkpt lat="50.62252" lon="5.45983">
        <ele>181.1</ele>
        <time>2019-04-23T07:14:13.000Z</time>
      </trkpt>
      <trkpt lat="50.62267" lon="5.45974">
        <ele>181.2</ele>
        <time>2019-04-23T07:14:17.000Z</time>
      </trkpt>
      <trkpt lat="50.62297" lon="5.45958">
        <ele>181.2</ele>
        <time>2019-04-23T07:14:20.000Z</time>
      </trkpt>
      <trkpt lat="50.62343" lon="5.45933">
        <ele>180.3</ele>
        <time>2019-04-23T07:14:26.000Z</time>
      </trkpt>
      <trkpt lat="50.62389" lon="5.45908">
        <ele>180.6</ele>
        <time>2019-04-23T07:14:28.000Z</time>
      </trkpt>
      <trkpt lat="50.62412" lon="5.45895">
        <ele>180</ele>
        <time>2019-04-23T07:14:33.000Z</time>
      </trkpt>
      <trkpt lat="50.62435" lon="5.45886">
        <ele>179</ele>
        <time>2019-04-23T07:14:43.000Z</time>
      </trkpt>
      <trkpt lat="50.62456" lon="5.45877">
        <ele>179</ele>
        <time>2019-04-23T07:14:46.000Z</time>
      </trkpt>
      <trkpt lat="50.62469" lon="5.45867">
        <ele>179.1</ele>
        <time>2019-04-23T07:14:51.000Z</time>
      </trkpt>
      <trkpt lat="50.62483" lon="5.45852">
        <ele>179</ele>
        <time>2019-04-23T07:15:47.000Z</time>
      </trkpt>
      <trkpt lat="50.62493" lon="5.45841">
        <ele>179.7</ele>
        <time>2019-04-23T07:15:48.000Z</time>
      </trkpt>
      <trkpt lat="50.62499" lon="5.45835">
        <ele>178</ele>
        <time>2019-04-23T07:15:50.000Z</time>
      </trkpt>
      <trkpt lat="50.6249" lon="5.45814">
        <ele>181.3</ele>
        <time>2019-04-23T07:15:52.000Z</time>
      </trkpt>
      <trkpt lat="50.62481" lon="5.458">
        <ele>181.8</ele>
        <time>2019-04-23T07:16:16.000Z</time>
      </trkpt>
      <trkpt lat="50.6247" lon="5.45791">
        <ele>182.1</ele>
        <time>2019-04-23T07:16:24.000Z</time>
      </trkpt>
      <trkpt lat="50.6246" lon="5.45782">
        <ele>182.3</ele>
        <time>2019-04-23T07:16:28.000Z</time>
      </trkpt>
      <trkpt lat="50.62447" lon="5.45767">
        <ele>182.7</ele>
        <time>2019-04-23T07:16:36.000Z</time>
      </trkpt>
      <trkpt lat="50.62436" lon="5.45747">
        <ele>180.60000610352</ele>
        <time>2019-04-23T07:16:43.000Z</time>
      </trkpt>
      <trkpt lat="50.62423" lon="5.45728">
        <ele>181.19999694824</ele>
        <time>2019-04-23T07:16:46.000Z</time>
      </trkpt>
      <trkpt lat="50.62376" lon="5.45653">
        <ele>184</ele>
        <time>2019-04-23T07:16:53.000Z</time>
      </trkpt>
      <trkpt lat="50.62365" lon="5.45635">
        <ele>184</ele>
        <time>2019-04-23T07:16:55.000Z</time>
      </trkpt>
      <trkpt lat="50.62351" lon="5.45612">
        <ele>184</ele>
        <time>2019-04-23T07:17:00.000Z</time>
      </trkpt>
      <trkpt lat="50.62338" lon="5.45594">
        <ele>184</ele>
        <time>2019-04-23T07:17:01.000Z</time>
      </trkpt>
      <trkpt lat="50.62336" lon="5.45563">
        <ele>184.3</ele>
        <time>2019-04-23T07:17:04.000Z</time>
      </trkpt>
      <trkpt lat="50.62335" lon="5.45539">
        <ele>184.5</ele>
        <time>2019-04-23T07:17:11.000Z</time>
      </trkpt>
      <trkpt lat="50.62333" lon="5.45479">
        <ele>184.1</ele>
        <time>2019-04-23T07:17:13.000Z</time>
      </trkpt>
      <trkpt lat="50.62329" lon="5.45404">
        <ele>186.2</ele>
        <time>2019-04-23T07:17:20.000Z</time>
      </trkpt>
      <trkpt lat="50.62327" lon="5.45368">
        <ele>186.2</ele>
        <time>2019-04-23T07:17:22.000Z</time>
      </trkpt>
      <trkpt lat="50.62325" lon="5.45296">
        <ele>186.4</ele>
        <time>2019-04-23T07:17:29.000Z</time>
      </trkpt>
      <trkpt lat="50.62323" lon="5.45249">
        <ele>185.9</ele>
        <time>2019-04-23T07:17:31.000Z</time>
      </trkpt>
      <trkpt lat="50.6232" lon="5.45168">
        <ele>185.9</ele>
        <time>2019-04-23T07:17:38.000Z</time>
      </trkpt>
      <trkpt lat="50.62318" lon="5.45109">
        <ele>186</ele>
        <time>2019-04-23T07:17:39.000Z</time>
      </trkpt>
      <trkpt lat="50.62317" lon="5.45073">
        <ele>186.5</ele>
        <time>2019-04-23T07:17:45.000Z</time>
      </trkpt>
      <trkpt lat="50.62316" lon="5.4502">
        <ele>187</ele>
        <time>2019-04-23T07:17:52.000Z</time>
      </trkpt>
      <trkpt lat="50.62318" lon="5.44963">
        <ele>188</ele>
        <time>2019-04-23T07:17:53.000Z</time>
      </trkpt>
      <trkpt lat="50.62321" lon="5.44909">
        <ele>188</ele>
        <time>2019-04-23T07:17:55.000Z</time>
      </trkpt>
      <trkpt lat="50.62324" lon="5.44872">
        <ele>187.7</ele>
        <time>2019-04-23T07:18:02.000Z</time>
      </trkpt>
      <trkpt lat="50.62328" lon="5.44828">
        <ele>187.6</ele>
        <time>2019-04-23T07:18:05.000Z</time>
      </trkpt>
      <trkpt lat="50.62334" lon="5.44782">
        <ele>188.1</ele>
        <time>2019-04-23T07:18:09.000Z</time>
      </trkpt>
      <trkpt lat="50.62337" lon="5.44735">
        <ele>188.3</ele>
        <time>2019-04-23T07:18:12.000Z</time>
      </trkpt>
      <trkpt lat="50.62344" lon="5.44675">
        <ele>188.9</ele>
        <time>2019-04-23T07:18:16.000Z</time>
      </trkpt>
      <trkpt lat="50.62348" lon="5.44643">
        <ele>189.1</ele>
        <time>2019-04-23T07:18:22.000Z</time>
      </trkpt>
      <trkpt lat="50.62352" lon="5.44585">
        <ele>188.7</ele>
        <time>2019-04-23T07:18:30.000Z</time>
      </trkpt>
      <trkpt lat="50.62353" lon="5.44542">
        <ele>188</ele>
        <time>2019-04-23T07:18:31.000Z</time>
      </trkpt>
      <trkpt lat="50.62353" lon="5.44507">
        <ele>187.3</ele>
        <time>2019-04-23T07:18:36.000Z</time>
      </trkpt>
      <trkpt lat="50.6235" lon="5.44453">
        <ele>186.2</ele>
        <time>2019-04-23T07:18:40.000Z</time>
      </trkpt>
      <trkpt lat="50.62347" lon="5.44411">
        <ele>185.3</ele>
        <time>2019-04-23T07:18:42.000Z</time>
      </trkpt>
      <trkpt lat="50.62341" lon="5.44368">
        <ele>186.2</ele>
        <time>2019-04-23T07:18:47.000Z</time>
      </trkpt>
      <trkpt lat="50.62334" lon="5.44319">
        <ele>186.6</ele>
        <time>2019-04-23T07:18:49.000Z</time>
      </trkpt>
      <trkpt lat="50.62323" lon="5.4427">
        <ele>186.7</ele>
        <time>2019-04-23T07:18:54.000Z</time>
      </trkpt>
      <trkpt lat="50.62317" lon="5.44243">
        <ele>186.5</ele>
        <time>2019-04-23T07:18:55.000Z</time>
      </trkpt>
      <trkpt lat="50.62311" lon="5.44221">
        <ele>186.2</ele>
        <time>2019-04-23T07:19:03.000Z</time>
      </trkpt>
      <trkpt lat="50.62304" lon="5.44183">
        <ele>185.9</ele>
        <time>2019-04-23T07:19:05.000Z</time>
      </trkpt>
      <trkpt lat="50.62303" lon="5.44159">
        <ele>185.4</ele>
        <time>2019-04-23T07:20:46.000Z</time>
      </trkpt>
      <trkpt lat="50.62308" lon="5.44133">
        <ele>185.3</ele>
        <time>2019-04-23T07:20:49.000Z</time>
      </trkpt>
      <trkpt lat="50.6232" lon="5.44101">
        <ele>185.2</ele>
        <time>2019-04-23T07:20:51.000Z</time>
      </trkpt>
      <trkpt lat="50.62346" lon="5.44054">
        <ele>185.7</ele>
        <time>2019-04-23T07:20:59.000Z</time>
      </trkpt>
      <trkpt lat="50.62367" lon="5.44015">
        <ele>186</ele>
        <time>2019-04-23T07:21:05.000Z</time>
      </trkpt>
      <trkpt lat="50.62372" lon="5.43984">
        <ele>185.5</ele>
        <time>2019-04-23T07:21:10.000Z</time>
      </trkpt>
      <trkpt lat="50.62365" lon="5.4395">
        <ele>185.1</ele>
        <time>2019-04-23T07:21:17.000Z</time>
      </trkpt>
      <trkpt lat="50.62349" lon="5.43864">
        <ele>183.7</ele>
        <time>2019-04-23T07:21:26.000Z</time>
      </trkpt>
      <trkpt lat="50.62343" lon="5.43837">
        <ele>182.8</ele>
        <time>2019-04-23T07:21:36.000Z</time>
      </trkpt>
      <trkpt lat="50.62332" lon="5.43788">
        <ele>181.2</ele>
        <time>2019-04-23T07:21:45.000Z</time>
      </trkpt>
      <trkpt lat="50.62324" lon="5.43762">
        <ele>182.2</ele>
        <time>2019-04-23T07:21:49.000Z</time>
      </trkpt>
      <trkpt lat="50.62312" lon="5.43725">
        <ele>183.3</ele>
        <time>2019-04-23T07:21:53.000Z</time>
      </trkpt>
      <trkpt lat="50.623" lon="5.43695">
        <ele>183.6</ele>
        <time>2019-04-23T07:22:08.000Z</time>
      </trkpt>
      <trkpt lat="50.62284" lon="5.43655">
        <ele>186.1</ele>
        <time>2019-04-23T07:22:13.000Z</time>
      </trkpt>
      <trkpt lat="50.62275" lon="5.43628">
        <ele>186.6</ele>
        <time>2019-04-23T07:22:17.000Z</time>
      </trkpt>
      <trkpt lat="50.62264" lon="5.43601">
        <ele>187.3</ele>
        <time>2019-04-23T07:22:21.000Z</time>
      </trkpt>
      <trkpt lat="50.62249" lon="5.43564">
        <ele>187.8</ele>
        <time>2019-04-23T07:22:26.000Z</time>
      </trkpt>
      <trkpt lat="50.62228" lon="5.43514">
        <ele>188.5</ele>
        <time>2019-04-23T07:22:27.000Z</time>
      </trkpt>
      <trkpt lat="50.62233" lon="5.435">
        <ele>190</ele>
        <time>2019-04-23T07:22:30.000Z</time>
      </trkpt>
      <trkpt lat="50.62233" lon="5.43489">
        <ele>190</ele>
        <time>2019-04-23T07:22:34.000Z</time>
      </trkpt>
      <trkpt lat="50.62231" lon="5.43478">
        <ele>186.80000305176</ele>
        <time>2019-04-23T07:22:39.000Z</time>
      </trkpt>
      <trkpt lat="50.62227" lon="5.43473">
        <ele>186.80000305176</ele>
        <time>2019-04-23T07:22:40.000Z</time>
      </trkpt>
      <trkpt lat="50.62222" lon="5.43469">
        <ele>187</ele>
        <time>2019-04-23T07:22:47.000Z</time>
      </trkpt>
      <trkpt lat="50.62212" lon="5.43466">
        <ele>189.3</ele>
        <time>2019-04-23T07:22:48.000Z</time>
      </trkpt>
      <trkpt lat="50.62206" lon="5.43452">
        <ele>189.3</ele>
        <time>2019-04-23T07:22:55.000Z</time>
      </trkpt>
      <trkpt lat="50.62197" lon="5.43428">
        <ele>189.2</ele>
        <time>2019-04-23T07:22:59.000Z</time>
      </trkpt>
      <trkpt lat="50.62186" lon="5.43403">
        <ele>190.7</ele>
        <time>2019-04-23T07:23:04.000Z</time>
      </trkpt>
      <trkpt lat="50.62174" lon="5.43369">
        <ele>191.9</ele>
        <time>2019-04-23T07:23:09.000Z</time>
      </trkpt>
      <trkpt lat="50.62158" lon="5.43322">
        <ele>192.4</ele>
        <time>2019-04-23T07:23:13.000Z</time>
      </trkpt>
      <trkpt lat="50.62148" lon="5.43303">
        <ele>192</ele>
        <time>2019-04-23T07:23:20.000Z</time>
      </trkpt>
      <trkpt lat="50.62137" lon="5.43291">
        <ele>191.9</ele>
        <time>2019-04-23T07:23:27.000Z</time>
      </trkpt>
      <trkpt lat="50.62113" lon="5.43263">
        <ele>191.4</ele>
        <time>2019-04-23T07:23:30.000Z</time>
      </trkpt>
      <trkpt lat="50.62096" lon="5.43243">
        <ele>191.5</ele>
        <time>2019-04-23T07:23:37.000Z</time>
      </trkpt>
      <trkpt lat="50.6206" lon="5.43206">
        <ele>190.2</ele>
        <time>2019-04-23T07:23:38.000Z</time>
      </trkpt>
      <trkpt lat="50.62039" lon="5.43186">
        <ele>190</ele>
        <time>2019-04-23T07:23:45.000Z</time>
      </trkpt>
      <trkpt lat="50.62023" lon="5.43176">
        <ele>190.3</ele>
        <time>2019-04-23T07:23:48.000Z</time>
      </trkpt>
      <trkpt lat="50.62006" lon="5.43163">
        <ele>191</ele>
        <time>2019-04-23T07:23:55.000Z</time>
      </trkpt>
      <trkpt lat="50.61986" lon="5.43154">
        <ele>190.4</ele>
        <time>2019-04-23T07:23:58.000Z</time>
      </trkpt>
      <trkpt lat="50.6197" lon="5.4314">
        <ele>190</ele>
        <time>2019-04-23T07:23:59.000Z</time>
      </trkpt>
      <trkpt lat="50.61956" lon="5.43128">
        <ele>189.9</ele>
        <time>2019-04-23T07:24:03.000Z</time>
      </trkpt>
      <trkpt lat="50.61935" lon="5.43098">
        <ele>190</ele>
        <time>2019-04-23T07:24:05.000Z</time>
      </trkpt>
      <trkpt lat="50.61908" lon="5.43061">
        <ele>189.1</ele>
        <time>2019-04-23T07:24:09.000Z</time>
      </trkpt>
      <trkpt lat="50.6188" lon="5.4302">
        <ele>189.7</ele>
        <time>2019-04-23T07:24:12.000Z</time>
      </trkpt>
      <trkpt lat="50.61852" lon="5.4298">
        <ele>191.5</ele>
        <time>2019-04-23T07:24:15.000Z</time>
      </trkpt>
      <trkpt lat="50.61837" lon="5.42959">
        <ele>192</ele>
        <time>2019-04-23T07:24:20.000Z</time>
      </trkpt>
      <trkpt lat="50.61822" lon="5.42943">
        <ele>189.3</ele>
        <time>2019-04-23T07:24:21.000Z</time>
      </trkpt>
      <trkpt lat="50.61792" lon="5.42913">
        <ele>188</ele>
        <time>2019-04-23T07:24:26.000Z</time>
      </trkpt>
      <trkpt lat="50.61782" lon="5.42902">
        <ele>187.5</ele>
        <time>2019-04-23T07:25:48.000Z</time>
      </trkpt>
      <trkpt lat="50.61775" lon="5.42892">
        <ele>187.1</ele>
        <time>2019-04-23T07:25:49.000Z</time>
      </trkpt>
      <trkpt lat="50.61767" lon="5.42871">
        <ele>187</ele>
        <time>2019-04-23T07:25:50.000Z</time>
      </trkpt>
      <trkpt lat="50.61769" lon="5.4285">
        <ele>186.4</ele>
        <time>2019-04-23T07:25:52.000Z</time>
      </trkpt>
      <trkpt lat="50.61773" lon="5.42832">
        <ele>185</ele>
        <time>2019-04-23T07:25:54.000Z</time>
      </trkpt>
      <trkpt lat="50.61779" lon="5.42814">
        <ele>189</ele>
        <time>2019-04-23T07:25:55.000Z</time>
      </trkpt>
      <trkpt lat="50.61784" lon="5.42802">
        <ele>189</ele>
        <time>2019-04-23T07:25:57.000Z</time>
      </trkpt>
      <trkpt lat="50.61792" lon="5.42787">
        <ele>185</ele>
        <time>2019-04-23T07:26:00.000Z</time>
      </trkpt>
      <trkpt lat="50.61802" lon="5.42751">
        <ele>187.80000305176</ele>
        <time>2019-04-23T07:26:02.000Z</time>
      </trkpt>
      <trkpt lat="50.61808" lon="5.42723">
        <ele>187</ele>
        <time>2019-04-23T07:26:03.000Z</time>
      </trkpt>
      <trkpt lat="50.61813" lon="5.42698">
        <ele>186.19999694824</ele>
        <time>2019-04-23T07:26:06.000Z</time>
      </trkpt>
      <trkpt lat="50.61815" lon="5.42686">
        <ele>185.60000610352</ele>
        <time>2019-04-23T07:26:09.000Z</time>
      </trkpt>
      <trkpt lat="50.61817" lon="5.42674">
        <ele>185.19999694824</ele>
        <time>2019-04-23T07:26:11.000Z</time>
      </trkpt>
      <trkpt lat="50.61818" lon="5.42663">
        <ele>185</ele>
        <time>2019-04-23T07:26:13.000Z</time>
      </trkpt>
      <trkpt lat="50.61819" lon="5.42645">
        <ele>187.9</ele>
        <time>2019-04-23T07:26:14.000Z</time>
      </trkpt>
      <trkpt lat="50.61819" lon="5.42631">
        <ele>187.9</ele>
        <time>2019-04-23T07:26:15.000Z</time>
      </trkpt>
      <trkpt lat="50.61811" lon="5.4259">
        <ele>188.4</ele>
        <time>2019-04-23T07:26:18.000Z</time>
      </trkpt>
      <trkpt lat="50.61808" lon="5.42558">
        <ele>189.8</ele>
        <time>2019-04-23T07:26:21.000Z</time>
      </trkpt>
      <trkpt lat="50.61809" lon="5.42529">
        <ele>190.2</ele>
        <time>2019-04-23T07:26:26.000Z</time>
      </trkpt>
      <trkpt lat="50.61811" lon="5.42503">
        <ele>190.7</ele>
        <time>2019-04-23T07:26:31.000Z</time>
      </trkpt>
      <trkpt lat="50.61819" lon="5.42473">
        <ele>191.1</ele>
        <time>2019-04-23T07:26:39.000Z</time>
      </trkpt>
      <trkpt lat="50.61827" lon="5.42453">
        <ele>191</ele>
        <time>2019-04-23T07:26:43.000Z</time>
      </trkpt>
      <trkpt lat="50.61837" lon="5.42428">
        <ele>190.9</ele>
        <time>2019-04-23T07:26:48.000Z</time>
      </trkpt>
      <trkpt lat="50.61851" lon="5.42396">
        <ele>189.8</ele>
        <time>2019-04-23T07:26:54.000Z</time>
      </trkpt>
      <trkpt lat="50.61866" lon="5.4236">
        <ele>189.2</ele>
        <time>2019-04-23T07:26:57.000Z</time>
      </trkpt>
      <trkpt lat="50.61891" lon="5.42304">
        <ele>190.19999694824</ele>
        <time>2019-04-23T07:26:59.000Z</time>
      </trkpt>
      <trkpt lat="50.619" lon="5.42283">
        <ele>190</ele>
        <time>2019-04-23T07:28:04.000Z</time>
      </trkpt>
      <trkpt lat="50.61904" lon="5.42258">
        <ele>188.6</ele>
        <time>2019-04-23T07:28:16.000Z</time>
      </trkpt>
      <trkpt lat="50.61905" lon="5.4222">
        <ele>187.3</ele>
        <time>2019-04-23T07:28:24.000Z</time>
      </trkpt>
      <trkpt lat="50.61903" lon="5.42157">
        <ele>186.1</ele>
        <time>2019-04-23T07:28:33.000Z</time>
      </trkpt>
      <trkpt lat="50.619" lon="5.42095">
        <ele>185</ele>
        <time>2019-04-23T07:28:40.000Z</time>
      </trkpt>
      <trkpt lat="50.61895" lon="5.42039">
        <ele>185</ele>
        <time>2019-04-23T07:28:42.000Z</time>
      </trkpt>
      <trkpt lat="50.61887" lon="5.41972">
        <ele>186</ele>
        <time>2019-04-23T07:29:02.000Z</time>
      </trkpt>
      <trkpt lat="50.61889" lon="5.41931">
        <ele>186.3</ele>
        <time>2019-04-23T07:36:52.000Z</time>
      </trkpt>
      <trkpt lat="50.61896" lon="5.41849">
        <ele>186.7</ele>
        <time>2019-04-23T07:36:54.000Z</time>
      </trkpt>
      <trkpt lat="50.619" lon="5.41803">
        <ele>186.5</ele>
        <time>2019-04-23T07:36:56.000Z</time>
      </trkpt>
      <trkpt lat="50.61905" lon="5.41743">
        <ele>186.5</ele>
        <time>2019-04-23T07:37:01.000Z</time>
      </trkpt>
      <trkpt lat="50.6191" lon="5.41719">
        <ele>186.2</ele>
        <time>2019-04-23T07:38:07.000Z</time>
      </trkpt>
      <trkpt lat="50.6192" lon="5.41694">
        <ele>186.4</ele>
        <time>2019-04-23T07:38:11.000Z</time>
      </trkpt>
      <trkpt lat="50.61939" lon="5.41664">
        <ele>185.5</ele>
        <time>2019-04-23T07:38:12.000Z</time>
      </trkpt>
      <trkpt lat="50.6199" lon="5.41599">
        <ele>183.7</ele>
        <time>2019-04-23T07:38:15.000Z</time>
      </trkpt>
      <trkpt lat="50.62006" lon="5.41578">
        <ele>183.2</ele>
        <time>2019-04-23T07:38:23.000Z</time>
      </trkpt>
      <trkpt lat="50.62039" lon="5.41534">
        <ele>183.5</ele>
        <time>2019-04-23T07:38:29.000Z</time>
      </trkpt>
      <trkpt lat="50.62073" lon="5.41489">
        <ele>183.1</ele>
        <time>2019-04-23T07:38:35.000Z</time>
      </trkpt>
      <trkpt lat="50.62101" lon="5.41454">
        <ele>182.6</ele>
        <time>2019-04-23T07:38:39.000Z</time>
      </trkpt>
      <trkpt lat="50.62136" lon="5.4141">
        <ele>182.80000305176</ele>
        <time>2019-04-23T07:38:40.000Z</time>
      </trkpt>
      <trkpt lat="50.62179" lon="5.41353">
        <ele>182.19999694824</ele>
        <time>2019-04-23T07:39:02.000Z</time>
      </trkpt>
      <trkpt lat="50.62192" lon="5.41336">
        <ele>181.60000610352</ele>
        <time>2019-04-23T07:39:05.000Z</time>
      </trkpt>
      <trkpt lat="50.62225" lon="5.41294">
        <ele>180.80000305176</ele>
        <time>2019-04-23T07:39:09.000Z</time>
      </trkpt>
      <trkpt lat="50.62245" lon="5.41268">
        <ele>179.39999389648</ele>
        <time>2019-04-23T07:39:15.000Z</time>
      </trkpt>
      <trkpt lat="50.62273" lon="5.41232">
        <ele>178.39999389648</ele>
        <time>2019-04-23T07:39:17.000Z</time>
      </trkpt>
      <trkpt lat="50.6228" lon="5.41223">
        <ele>178.39999389648</ele>
        <time>2019-04-23T07:39:22.000Z</time>
      </trkpt>
      <trkpt lat="50.62301" lon="5.41196">
        <ele>177</ele>
        <time>2019-04-23T07:39:25.000Z</time>
      </trkpt>
      <trkpt lat="50.62329" lon="5.4116">
        <ele>176</ele>
        <time>2019-04-23T07:39:27.000Z</time>
      </trkpt>
      <trkpt lat="50.6235" lon="5.41132">
        <ele>175</ele>
        <time>2019-04-23T07:40:39.000Z</time>
      </trkpt>
      <trkpt lat="50.62357" lon="5.41124">
        <ele>174.60000610352</ele>
        <time>2019-04-23T07:41:31.000Z</time>
      </trkpt>
      <trkpt lat="50.62384" lon="5.41089">
        <ele>173.19999694824</ele>
        <time>2019-04-23T07:41:33.000Z</time>
      </trkpt>
      <trkpt lat="50.62403" lon="5.41063">
        <ele>172.60000610352</ele>
        <time>2019-04-23T07:41:35.000Z</time>
      </trkpt>
      <trkpt lat="50.62436" lon="5.41021">
        <ele>172</ele>
        <time>2019-04-23T07:41:40.000Z</time>
      </trkpt>
      <trkpt lat="50.62469" lon="5.40978">
        <ele>171.80000305176</ele>
        <time>2019-04-23T07:41:41.000Z</time>
      </trkpt>
      <trkpt lat="50.62507" lon="5.40928">
        <ele>170.80000305176</ele>
        <time>2019-04-23T07:41:43.000Z</time>
      </trkpt>
      <trkpt lat="50.6252" lon="5.40911">
        <ele>169.80000305176</ele>
        <time>2019-04-23T07:41:45.000Z</time>
      </trkpt>
      <trkpt lat="50.62527" lon="5.40903">
        <ele>169.60000610352</ele>
        <time>2019-04-23T07:41:47.000Z</time>
      </trkpt>
      <trkpt lat="50.6254" lon="5.40886">
        <ele>169</ele>
        <time>2019-04-23T07:41:51.000Z</time>
      </trkpt>
      <trkpt lat="50.62547" lon="5.40878">
        <ele>168.60000610352</ele>
        <time>2019-04-23T07:41:58.000Z</time>
      </trkpt>
      <trkpt lat="50.6258" lon="5.40834">
        <ele>167.19999694824</ele>
        <time>2019-04-23T07:43:01.000Z</time>
      </trkpt>
      <trkpt lat="50.62607" lon="5.40799">
        <ele>166</ele>
        <time>2019-04-23T07:43:08.000Z</time>
      </trkpt>
      <trkpt lat="50.62613" lon="5.4079">
        <ele>165.80000305176</ele>
        <time>2019-04-23T07:49:44.000Z</time>
      </trkpt>
      <trkpt lat="50.62648" lon="5.40745">
        <ele>165</ele>
        <time>2019-04-23T07:52:51.000Z</time>
      </trkpt>
      <trkpt lat="50.62677" lon="5.40708">
        <ele>163.80000305176</ele>
        <time>2019-04-23T07:52:55.000Z</time>
      </trkpt>
      <trkpt lat="50.62692" lon="5.40689">
        <ele>162.39999389648</ele>
        <time>2019-04-23T07:53:51.000Z</time>
      </trkpt>
      <trkpt lat="50.62727" lon="5.4064">
        <ele>158.7</ele>
        <time>2019-04-23T07:54:00.000Z</time>
      </trkpt>
      <trkpt lat="50.62774" lon="5.40581">
        <ele>156.6</ele>
        <time>2019-04-23T07:58:44.000Z</time>
      </trkpt>
      <trkpt lat="50.62789" lon="5.40561">
        <ele>156.1</ele>
        <time>2019-04-23T07:58:50.000Z</time>
      </trkpt>
      <trkpt lat="50.62838" lon="5.40498">
        <ele>155.8</ele>
        <time>2019-04-23T07:58:55.000Z</time>
      </trkpt>
      <trkpt lat="50.62882" lon="5.40438">
        <ele>159.9</ele>
        <time>2019-04-23T08:01:48.000Z</time>
      </trkpt>
      <trkpt lat="50.62917" lon="5.40396">
        <ele>162.9</ele>
        <time>2019-04-23T08:02:00.000Z</time>
      </trkpt>
      <trkpt lat="50.62956" lon="5.40344">
        <ele>162.3</ele>
        <time>2019-04-23T08:02:03.000Z</time>
      </trkpt>
      <trkpt lat="50.62989" lon="5.403">
        <ele>161.1</ele>
        <time>2019-04-23T08:02:14.000Z</time>
      </trkpt>
      <trkpt lat="50.63028" lon="5.40251">
        <ele>157.8</ele>
        <time>2019-04-23T08:02:21.000Z</time>
      </trkpt>
      <trkpt lat="50.63063" lon="5.40205">
        <ele>159.1</ele>
        <time>2019-04-23T08:02:23.000Z</time>
      </trkpt>
      <trkpt lat="50.63105" lon="5.40152">
        <ele>159.3</ele>
        <time>2019-04-23T08:02:24.000Z</time>
      </trkpt>
      <trkpt lat="50.63133" lon="5.40115">
        <ele>158.9</ele>
        <time>2019-04-23T08:02:27.000Z</time>
      </trkpt>
      <trkpt lat="50.63164" lon="5.40075">
        <ele>158.1</ele>
        <time>2019-04-23T08:02:30.000Z</time>
      </trkpt>
      <trkpt lat="50.63209" lon="5.40016">
        <ele>160.1</ele>
        <time>2019-04-23T08:02:45.000Z</time>
      </trkpt>
      <trkpt lat="50.63252" lon="5.3996">
        <ele>162.2</ele>
        <time>2019-04-23T08:02:51.000Z</time>
      </trkpt>
      <trkpt lat="50.63301" lon="5.39896">
        <ele>163</ele>
        <time>2019-04-23T08:02:56.000Z</time>
      </trkpt>
      <trkpt lat="50.63349" lon="5.39835">
        <ele>164.5</ele>
        <time>2019-04-23T08:03:03.000Z</time>
      </trkpt>
      <trkpt lat="50.63402" lon="5.39764">
        <ele>163.8</ele>
        <time>2019-04-23T08:03:04.000Z</time>
      </trkpt>
      <trkpt lat="50.63439" lon="5.39716">
        <ele>165.8</ele>
        <time>2019-04-23T08:03:06.000Z</time>
      </trkpt>
      <trkpt lat="50.63482" lon="5.3966">
        <ele>166.6</ele>
        <time>2019-04-23T08:03:07.000Z</time>
      </trkpt>
      <trkpt lat="50.63507" lon="5.39627">
        <ele>166</ele>
        <time>2019-04-23T08:03:12.000Z</time>
      </trkpt>
      <trkpt lat="50.63516" lon="5.39633">
        <ele>161</ele>
        <time>2019-04-23T08:03:15.000Z</time>
      </trkpt>
      <trkpt lat="50.63521" lon="5.3963">
        <ele>161</ele>
        <time>2019-04-23T08:03:19.000Z</time>
      </trkpt>
      <trkpt lat="50.63524" lon="5.39619">
        <ele>166</ele>
        <time>2019-04-23T08:03:24.000Z</time>
      </trkpt>
      <trkpt lat="50.63523" lon="5.39606">
        <ele>165.7</ele>
        <time>2019-04-23T08:03:51.000Z</time>
      </trkpt>
      <trkpt lat="50.63516" lon="5.39602">
        <ele>166</ele>
        <time>2019-04-23T08:07:14.000Z</time>
      </trkpt>
      <trkpt lat="50.63515" lon="5.39576">
        <ele>164.5</ele>
        <time>2019-04-23T08:07:21.000Z</time>
      </trkpt>
      <trkpt lat="50.63513" lon="5.39543">
        <ele>164</ele>
        <time>2019-04-23T08:07:23.000Z</time>
      </trkpt>
      <trkpt lat="50.63509" lon="5.3949">
        <ele>163.1</ele>
        <time>2019-04-23T08:08:43.000Z</time>
      </trkpt>
      <trkpt lat="50.63504" lon="5.39434">
        <ele>162.6</ele>
        <time>2019-04-23T08:09:04.000Z</time>
      </trkpt>
      <trkpt lat="50.63495" lon="5.39344">
        <ele>161.6</ele>
        <time>2019-04-23T08:09:12.000Z</time>
      </trkpt>
      <trkpt lat="50.63487" lon="5.39251">
        <ele>160.8</ele>
        <time>2019-04-23T08:09:18.000Z</time>
      </trkpt>
      <trkpt lat="50.63477" lon="5.3912">
        <ele>162.1</ele>
        <time>2019-04-23T08:09:29.000Z</time>
      </trkpt>
      <trkpt lat="50.63467" lon="5.38991">
        <ele>163.3</ele>
        <time>2019-04-23T08:09:37.000Z</time>
      </trkpt>
      <trkpt lat="50.63457" lon="5.38874">
        <ele>162.5</ele>
        <time>2019-04-23T08:09:38.000Z</time>
      </trkpt>
      <trkpt lat="50.63448" lon="5.38752">
        <ele>161.8</ele>
        <time>2019-04-23T08:09:41.000Z</time>
      </trkpt>
      <trkpt lat="50.63438" lon="5.38626">
        <ele>162.4</ele>
        <time>2019-04-23T08:09:45.000Z</time>
      </trkpt>
      <trkpt lat="50.63428" lon="5.38504">
        <ele>163</ele>
        <time>2019-04-23T08:09:57.000Z</time>
      </trkpt>
      <trkpt lat="50.63421" lon="5.3841">
        <ele>164.1</ele>
        <time>2019-04-23T08:10:04.000Z</time>
      </trkpt>
      <trkpt lat="50.63414" lon="5.38311">
        <ele>165.6</ele>
        <time>2019-04-23T08:10:24.000Z</time>
      </trkpt>
      <trkpt lat="50.63401" lon="5.38154">
        <ele>167.4</ele>
        <time>2019-04-23T08:11:19.000Z</time>
      </trkpt>
      <trkpt lat="50.63393" lon="5.38046">
        <ele>168.9</ele>
        <time>2019-04-23T08:11:21.000Z</time>
      </trkpt>
      <trkpt lat="50.63386" lon="5.3793">
        <ele>169.8</ele>
        <time>2019-04-23T08:11:25.000Z</time>
      </trkpt>
      <trkpt lat="50.63382" lon="5.37884">
        <ele>169.7</ele>
        <time>2019-04-23T08:11:30.000Z</time>
      </trkpt>
      <trkpt lat="50.63377" lon="5.37818">
        <ele>170</ele>
        <time>2019-04-23T08:11:32.000Z</time>
      </trkpt>
      <trkpt lat="50.63369" lon="5.37714">
        <ele>172.1</ele>
        <time>2019-04-23T08:11:37.000Z</time>
      </trkpt>
      <trkpt lat="50.63362" lon="5.37627">
        <ele>174</ele>
        <time>2019-04-23T08:11:41.000Z</time>
      </trkpt>
      <trkpt lat="50.6336" lon="5.37595">
        <ele>174.3</ele>
        <time>2019-04-23T08:11:47.000Z</time>
      </trkpt>
      <trkpt lat="50.63354" lon="5.37528">
        <ele>174.6</ele>
        <time>2019-04-23T08:11:50.000Z</time>
      </trkpt>
      <trkpt lat="50.6335" lon="5.37458">
        <ele>175</ele>
        <time>2019-04-23T08:11:54.000Z</time>
      </trkpt>
      <trkpt lat="50.63343" lon="5.37372">
        <ele>175.9</ele>
        <time>2019-04-23T08:11:59.000Z</time>
      </trkpt>
      <trkpt lat="50.63334" lon="5.37259">
        <ele>176.6</ele>
        <time>2019-04-23T08:12:01.000Z</time>
      </trkpt>
      <trkpt lat="50.63324" lon="5.37148">
        <ele>176.3</ele>
        <time>2019-04-23T08:12:03.000Z</time>
      </trkpt>
      <trkpt lat="50.63315" lon="5.37042">
        <ele>176.1</ele>
        <time>2019-04-23T08:12:07.000Z</time>
      </trkpt>
      <trkpt lat="50.63307" lon="5.36928">
        <ele>176</ele>
        <time>2019-04-23T08:12:08.000Z</time>
      </trkpt>
      <trkpt lat="50.63299" lon="5.36824">
        <ele>175.6</ele>
        <time>2019-04-23T08:13:25.000Z</time>
      </trkpt>
      <trkpt lat="50.63295" lon="5.36761">
        <ele>176.1</ele>
        <time>2019-04-23T08:13:32.000Z</time>
      </trkpt>
      <trkpt lat="50.63295" lon="5.36667">
        <ele>177.5</ele>
        <time>2019-04-23T08:13:35.000Z</time>
      </trkpt>
      <trkpt lat="50.63295" lon="5.36611">
        <ele>177.7</ele>
        <time>2019-04-23T08:13:39.000Z</time>
      </trkpt>
      <trkpt lat="50.63296" lon="5.36526">
        <ele>178.1</ele>
        <time>2019-04-23T08:13:46.000Z</time>
      </trkpt>
      <trkpt lat="50.63296" lon="5.36446">
        <ele>178.5</ele>
        <time>2019-04-23T08:13:50.000Z</time>
      </trkpt>
      <trkpt lat="50.63294" lon="5.36378">
        <ele>179</ele>
        <time>2019-04-23T08:13:54.000Z</time>
      </trkpt>
      <trkpt lat="50.63293" lon="5.36339">
        <ele>179.2</ele>
        <time>2019-04-23T08:13:57.000Z</time>
      </trkpt>
      <trkpt lat="50.63291" lon="5.36311">
        <ele>179.5</ele>
        <time>2019-04-23T08:14:10.000Z</time>
      </trkpt>
      <trkpt lat="50.63285" lon="5.36263">
        <ele>179.4</ele>
        <time>2019-04-23T08:14:23.000Z</time>
      </trkpt>
      <trkpt lat="50.63282" lon="5.3623">
        <ele>179.3</ele>
        <time>2019-04-23T08:14:24.000Z</time>
      </trkpt>
      <trkpt lat="50.63278" lon="5.36206">
        <ele>179.2</ele>
        <time>2019-04-23T08:14:35.000Z</time>
      </trkpt>
      <trkpt lat="50.63269" lon="5.36126">
        <ele>178.5</ele>
        <time>2019-04-23T08:14:37.000Z</time>
      </trkpt>
      <trkpt lat="50.63263" lon="5.36075">
        <ele>178</ele>
        <time>2019-04-23T08:14:44.000Z</time>
      </trkpt>
      <trkpt lat="50.63263" lon="5.36039">
        <ele>178</ele>
        <time>2019-04-23T08:14:45.000Z</time>
      </trkpt>
      <trkpt lat="50.63267" lon="5.36001">
        <ele>178</ele>
        <time>2019-04-23T08:14:47.000Z</time>
      </trkpt>
      <trkpt lat="50.63276" lon="5.35909">
        <ele>177.2</ele>
        <time>2019-04-23T08:14:50.000Z</time>
      </trkpt>
      <trkpt lat="50.63281" lon="5.35855">
        <ele>176.7</ele>
        <time>2019-04-23T08:14:52.000Z</time>
      </trkpt>
      <trkpt lat="50.63293" lon="5.35742">
        <ele>174.8</ele>
        <time>2019-04-23T08:14:59.000Z</time>
      </trkpt>
      <trkpt lat="50.63306" lon="5.35622">
        <ele>173.4</ele>
        <time>2019-04-23T08:15:01.000Z</time>
      </trkpt>
      <trkpt lat="50.63318" lon="5.35496">
        <ele>171.4</ele>
        <time>2019-04-23T08:15:06.000Z</time>
      </trkpt>
      <trkpt lat="50.63323" lon="5.35433">
        <ele>171</ele>
        <time>2019-04-23T08:15:07.000Z</time>
      </trkpt>
      <trkpt lat="50.63324" lon="5.3539">
        <ele>170.9</ele>
        <time>2019-04-23T08:15:11.000Z</time>
      </trkpt>
      <trkpt lat="50.63325" lon="5.35346">
        <ele>170.7</ele>
        <time>2019-04-23T08:15:15.000Z</time>
      </trkpt>
      <trkpt lat="50.63328" lon="5.35235">
        <ele>171.5</ele>
        <time>2019-04-23T08:15:17.000Z</time>
      </trkpt>
      <trkpt lat="50.63333" lon="5.35125">
        <ele>173.5</ele>
        <time>2019-04-23T08:15:23.000Z</time>
      </trkpt>
      <trkpt lat="50.63341" lon="5.35012">
        <ele>174.2</ele>
        <time>2019-04-23T08:15:29.000Z</time>
      </trkpt>
      <trkpt lat="50.63345" lon="5.34955">
        <ele>174.7</ele>
        <time>2019-04-23T08:15:31.000Z</time>
      </trkpt>
      <trkpt lat="50.63348" lon="5.34913">
        <ele>175.4</ele>
        <time>2019-04-23T08:15:34.000Z</time>
      </trkpt>
      <trkpt lat="50.63355" lon="5.34841">
        <ele>176.6</ele>
        <time>2019-04-23T08:15:36.000Z</time>
      </trkpt>
      <trkpt lat="50.63373" lon="5.34739">
        <ele>175.4</ele>
        <time>2019-04-23T08:15:39.000Z</time>
      </trkpt>
      <trkpt lat="50.63389" lon="5.34651">
        <ele>173.1</ele>
        <time>2019-04-23T08:15:40.000Z</time>
      </trkpt>
      <trkpt lat="50.63399" lon="5.34598">
        <ele>172.2</ele>
        <time>2019-04-23T08:15:43.000Z</time>
      </trkpt>
      <trkpt lat="50.63409" lon="5.34542">
        <ele>172</ele>
        <time>2019-04-23T08:15:47.000Z</time>
      </trkpt>
      <trkpt lat="50.63423" lon="5.34462">
        <ele>171.5</ele>
        <time>2019-04-23T08:15:48.000Z</time>
      </trkpt>
      <trkpt lat="50.63431" lon="5.34413">
        <ele>172.1</ele>
        <time>2019-04-23T08:15:51.000Z</time>
      </trkpt>
      <trkpt lat="50.63446" lon="5.34325">
        <ele>173.5</ele>
        <time>2019-04-23T08:15:52.000Z</time>
      </trkpt>
      <trkpt lat="50.6346" lon="5.34244">
        <ele>175</ele>
        <time>2019-04-23T08:15:53.000Z</time>
      </trkpt>
      <trkpt lat="50.63468" lon="5.342">
        <ele>175.2</ele>
        <time>2019-04-23T08:15:55.000Z</time>
      </trkpt>
      <trkpt lat="50.6348" lon="5.34127">
        <ele>175.6</ele>
        <time>2019-04-23T08:15:57.000Z</time>
      </trkpt>
      <trkpt lat="50.63481" lon="5.34106">
        <ele>175.5</ele>
        <time>2019-04-23T08:15:58.000Z</time>
      </trkpt>
      <trkpt lat="50.63482" lon="5.34023">
        <ele>174.7</ele>
        <time>2019-04-23T08:16:00.000Z</time>
      </trkpt>
      <trkpt lat="50.63482" lon="5.33978">
        <ele>173.5</ele>
        <time>2019-04-23T08:16:05.000Z</time>
      </trkpt>
      <trkpt lat="50.63483" lon="5.33891">
        <ele>172</ele>
        <time>2019-04-23T08:16:06.000Z</time>
      </trkpt>
      <trkpt lat="50.63483" lon="5.33839">
        <ele>172</ele>
        <time>2019-04-23T08:16:07.000Z</time>
      </trkpt>
      <trkpt lat="50.63485" lon="5.33765">
        <ele>172.5</ele>
        <time>2019-04-23T08:16:10.000Z</time>
      </trkpt>
      <trkpt lat="50.63485" lon="5.33717">
        <ele>172.2</ele>
        <time>2019-04-23T08:16:18.000Z</time>
      </trkpt>
      <trkpt lat="50.63488" lon="5.33681">
        <ele>172</ele>
        <time>2019-04-23T08:16:21.000Z</time>
      </trkpt>
      <trkpt lat="50.63491" lon="5.33642">
        <ele>171.80000305176</ele>
        <time>2019-04-23T08:16:26.000Z</time>
      </trkpt>
      <trkpt lat="50.63498" lon="5.33579">
        <ele>170.60000610352</ele>
        <time>2019-04-23T08:16:39.000Z</time>
      </trkpt>
      <trkpt lat="50.635" lon="5.33566">
        <ele>170.60000610352</ele>
        <time>2019-04-23T08:16:43.000Z</time>
      </trkpt>
      <trkpt lat="50.63505" lon="5.33528">
        <ele>171</ele>
        <time>2019-04-23T08:16:46.000Z</time>
      </trkpt>
      <trkpt lat="50.63511" lon="5.33502">
        <ele>169.80000305176</ele>
        <time>2019-04-23T08:16:48.000Z</time>
      </trkpt>
      <trkpt lat="50.63514" lon="5.33485">
        <ele>170.1</ele>
        <time>2019-04-23T08:16:52.000Z</time>
      </trkpt>
      <trkpt lat="50.6352" lon="5.3345">
        <ele>170</ele>
        <time>2019-04-23T08:16:54.000Z</time>
      </trkpt>
      <trkpt lat="50.63524" lon="5.33415">
        <ele>170</ele>
        <time>2019-04-23T08:16:55.000Z</time>
      </trkpt>
      <trkpt lat="50.63527" lon="5.3338">
        <ele>169.8</ele>
        <time>2019-04-23T08:16:58.000Z</time>
      </trkpt>
      <trkpt lat="50.63527" lon="5.3335">
        <ele>169.8</ele>
        <time>2019-04-23T08:17:00.000Z</time>
      </trkpt>
      <trkpt lat="50.63523" lon="5.33308">
        <ele>169.5</ele>
        <time>2019-04-23T08:17:02.000Z</time>
      </trkpt>
      <trkpt lat="50.63517" lon="5.33247">
        <ele>168.4</ele>
        <time>2019-04-23T08:17:05.000Z</time>
      </trkpt>
      <trkpt lat="50.63511" lon="5.33192">
        <ele>168.1</ele>
        <time>2019-04-23T08:17:07.000Z</time>
      </trkpt>
      <trkpt lat="50.63507" lon="5.33155">
        <ele>167.2</ele>
        <time>2019-04-23T08:17:08.000Z</time>
      </trkpt>
      <trkpt lat="50.635" lon="5.33127">
        <ele>167.3</ele>
        <time>2019-04-23T08:17:12.000Z</time>
      </trkpt>
      <trkpt lat="50.63494" lon="5.33091">
        <ele>166.8</ele>
        <time>2019-04-23T08:17:17.000Z</time>
      </trkpt>
      <trkpt lat="50.63489" lon="5.33066">
        <ele>166.6</ele>
        <time>2019-04-23T08:17:22.000Z</time>
      </trkpt>
      <trkpt lat="50.63479" lon="5.33032">
        <ele>166.4</ele>
        <time>2019-04-23T08:17:24.000Z</time>
      </trkpt>
      <trkpt lat="50.63473" lon="5.33004">
        <ele>166.4</ele>
        <time>2019-04-23T08:17:27.000Z</time>
      </trkpt>
      <trkpt lat="50.63462" lon="5.32946">
        <ele>165.5</ele>
        <time>2019-04-23T08:17:31.000Z</time>
      </trkpt>
      <trkpt lat="50.63453" lon="5.32886">
        <ele>164.7</ele>
        <time>2019-04-23T08:17:33.000Z</time>
      </trkpt>
      <trkpt lat="50.63451" lon="5.32866">
        <ele>164.7</ele>
        <time>2019-04-23T08:17:35.000Z</time>
      </trkpt>
      <trkpt lat="50.63448" lon="5.32839">
        <ele>164.6</ele>
        <time>2019-04-23T08:17:40.000Z</time>
      </trkpt>
      <trkpt lat="50.63441" lon="5.32784">
        <ele>163.8</ele>
        <time>2019-04-23T08:17:55.000Z</time>
      </trkpt>
      <trkpt lat="50.63437" lon="5.32757">
        <ele>163.6</ele>
        <time>2019-04-23T08:17:56.000Z</time>
      </trkpt>
      <trkpt lat="50.63429" lon="5.32696">
        <ele>162.6</ele>
        <time>2019-04-23T08:17:59.000Z</time>
      </trkpt>
      <trkpt lat="50.63422" lon="5.32645">
        <ele>161.4</ele>
        <time>2019-04-23T08:18:02.000Z</time>
      </trkpt>
      <trkpt lat="50.63415" lon="5.32595">
        <ele>160.7</ele>
        <time>2019-04-23T08:18:12.000Z</time>
      </trkpt>
      <trkpt lat="50.63409" lon="5.32533">
        <ele>157.1</ele>
        <time>2019-04-23T08:18:17.000Z</time>
      </trkpt>
      <trkpt lat="50.63407" lon="5.32503">
        <ele>156.3</ele>
        <time>2019-04-23T08:18:45.000Z</time>
      </trkpt>
      <trkpt lat="50.63408" lon="5.32491">
        <ele>155</ele>
        <time>2019-04-23T08:18:50.000Z</time>
      </trkpt>
      <trkpt lat="50.63414" lon="5.32481">
        <ele>154.2</ele>
        <time>2019-04-23T08:18:52.000Z</time>
      </trkpt>
      <trkpt lat="50.63427" lon="5.32473">
        <ele>158</ele>
        <time>2019-04-23T08:18:53.000Z</time>
      </trkpt>
      <trkpt lat="50.63434" lon="5.3247">
        <ele>157.80000305176</ele>
        <time>2019-04-23T08:18:55.000Z</time>
      </trkpt>
      <trkpt lat="50.63442" lon="5.32466">
        <ele>157.39999389648</ele>
        <time>2019-04-23T08:18:57.000Z</time>
      </trkpt>
      <trkpt lat="50.63455" lon="5.32451">
        <ele>156.39999389648</ele>
        <time>2019-04-23T08:18:59.000Z</time>
      </trkpt>
      <trkpt lat="50.63465" lon="5.32431">
        <ele>155.19999694824</ele>
        <time>2019-04-23T08:19:01.000Z</time>
      </trkpt>
      <trkpt lat="50.63469" lon="5.32418">
        <ele>155</ele>
        <time>2019-04-23T08:19:41.000Z</time>
      </trkpt>
      <trkpt lat="50.63477" lon="5.32393">
        <ele>154.19999694824</ele>
        <time>2019-04-23T08:19:42.000Z</time>
      </trkpt>
      <trkpt lat="50.63491" lon="5.32354">
        <ele>153.19999694824</ele>
        <time>2019-04-23T08:19:44.000Z</time>
      </trkpt>
      <trkpt lat="50.635" lon="5.32327">
        <ele>152.39999389648</ele>
        <time>2019-04-23T08:19:47.000Z</time>
      </trkpt>
      <trkpt lat="50.63504" lon="5.32314">
        <ele>152</ele>
        <time>2019-04-23T08:19:50.000Z</time>
      </trkpt>
      <trkpt lat="50.63518" lon="5.32272">
        <ele>146.3</ele>
        <time>2019-04-23T08:19:52.000Z</time>
      </trkpt>
      <trkpt lat="50.63524" lon="5.32251">
        <ele>146</ele>
        <time>2019-04-23T08:19:56.000Z</time>
      </trkpt>
      <trkpt lat="50.63532" lon="5.32233">
        <ele>149</ele>
        <time>2019-04-23T08:19:58.000Z</time>
      </trkpt>
      <trkpt lat="50.63537" lon="5.32219">
        <ele>146</ele>
        <time>2019-04-23T08:19:59.000Z</time>
      </trkpt>
      <trkpt lat="50.63546" lon="5.32216">
        <ele>148</ele>
        <time>2019-04-23T08:20:02.000Z</time>
      </trkpt>
      <trkpt lat="50.63562" lon="5.32213">
        <ele>146.80000305176</ele>
        <time>2019-04-23T08:20:05.000Z</time>
      </trkpt>
      <trkpt lat="50.63578" lon="5.32213">
        <ele>145.5</ele>
        <time>2019-04-23T08:20:06.000Z</time>
      </trkpt>
      <trkpt lat="50.63602" lon="5.32211">
        <ele>144.4</ele>
        <time>2019-04-23T08:20:17.000Z</time>
      </trkpt>
      <trkpt lat="50.63613" lon="5.32209">
        <ele>144</ele>
        <time>2019-04-23T08:20:22.000Z</time>
      </trkpt>
      <trkpt lat="50.63626" lon="5.32207">
        <ele>144.2</ele>
        <time>2019-04-23T08:20:23.000Z</time>
      </trkpt>
      <trkpt lat="50.63658" lon="5.32189">
        <ele>143.8</ele>
        <time>2019-04-23T08:20:24.000Z</time>
      </trkpt>
      <trkpt lat="50.63691" lon="5.32157">
        <ele>143.4</ele>
        <time>2019-04-23T08:20:27.000Z</time>
      </trkpt>
      <trkpt lat="50.63741" lon="5.32097">
        <ele>144.4</ele>
        <time>2019-04-23T08:20:29.000Z</time>
      </trkpt>
      <trkpt lat="50.63765" lon="5.3207">
        <ele>145.4</ele>
        <time>2019-04-23T08:20:31.000Z</time>
      </trkpt>
      <trkpt lat="50.63793" lon="5.32037">
        <ele>145.8</ele>
        <time>2019-04-23T08:20:36.000Z</time>
      </trkpt>
      <trkpt lat="50.63808" lon="5.32023">
        <ele>146</ele>
        <time>2019-04-23T08:20:37.000Z</time>
      </trkpt>
      <trkpt lat="50.63832" lon="5.32006">
        <ele>146</ele>
        <time>2019-04-23T08:20:38.000Z</time>
      </trkpt>
      <trkpt lat="50.63843" lon="5.32">
        <ele>146</ele>
        <time>2019-04-23T08:20:42.000Z</time>
      </trkpt>
      <trkpt lat="50.63852" lon="5.31986">
        <ele>146.3</ele>
        <time>2019-04-23T08:20:43.000Z</time>
      </trkpt>
      <trkpt lat="50.63863" lon="5.31966">
        <ele>146.5</ele>
        <time>2019-04-23T08:20:47.000Z</time>
      </trkpt>
      <trkpt lat="50.63906" lon="5.3189">
        <ele>147.5</ele>
        <time>2019-04-23T08:20:49.000Z</time>
      </trkpt>
      <trkpt lat="50.63938" lon="5.31834">
        <ele>148.4</ele>
        <time>2019-04-23T08:20:52.000Z</time>
      </trkpt>
      <trkpt lat="50.63975" lon="5.31771">
        <ele>147.7</ele>
        <time>2019-04-23T08:20:55.000Z</time>
      </trkpt>
      <trkpt lat="50.63992" lon="5.31738">
        <ele>147.2</ele>
        <time>2019-04-23T08:21:02.000Z</time>
      </trkpt>
      <trkpt lat="50.63995" lon="5.31722">
        <ele>147.3</ele>
        <time>2019-04-23T08:21:09.000Z</time>
      </trkpt>
      <trkpt lat="50.63999" lon="5.31701">
        <ele>147.3</ele>
        <time>2019-04-23T08:21:10.000Z</time>
      </trkpt>
      <trkpt lat="50.64001" lon="5.31677">
        <ele>146.6</ele>
        <time>2019-04-23T08:21:14.000Z</time>
      </trkpt>
      <trkpt lat="50.64002" lon="5.31611">
        <ele>147.8</ele>
        <time>2019-04-23T08:21:15.000Z</time>
      </trkpt>
      <trkpt lat="50.64001" lon="5.31556">
        <ele>149.2</ele>
        <time>2019-04-23T08:21:18.000Z</time>
      </trkpt>
      <trkpt lat="50.64006" lon="5.31517">
        <ele>149.6</ele>
        <time>2019-04-23T08:21:19.000Z</time>
      </trkpt>
      <trkpt lat="50.64012" lon="5.31477">
        <ele>150.5</ele>
        <time>2019-04-23T08:21:21.000Z</time>
      </trkpt>
      <trkpt lat="50.64015" lon="5.31464">
        <ele>146</ele>
        <time>2019-04-23T08:21:23.000Z</time>
      </trkpt>
      <trkpt lat="50.6402" lon="5.3144">
        <ele>150.8</ele>
        <time>2019-04-23T08:21:29.000Z</time>
      </trkpt>
      <trkpt lat="50.64029" lon="5.31393">
        <ele>152.6</ele>
        <time>2019-04-23T08:21:36.000Z</time>
      </trkpt>
      <trkpt lat="50.64043" lon="5.31329">
        <ele>155.3</ele>
        <time>2019-04-23T08:21:39.000Z</time>
      </trkpt>
      <trkpt lat="50.64051" lon="5.31296">
        <ele>155.7</ele>
        <time>2019-04-23T08:21:46.000Z</time>
      </trkpt>
      <trkpt lat="50.64059" lon="5.31267">
        <ele>156.2</ele>
        <time>2019-04-23T08:21:50.000Z</time>
      </trkpt>
      <trkpt lat="50.64071" lon="5.31215">
        <ele>158.5</ele>
        <time>2019-04-23T08:21:52.000Z</time>
      </trkpt>
      <trkpt lat="50.64082" lon="5.3117">
        <ele>159.9</ele>
        <time>2019-04-23T08:22:00.000Z</time>
      </trkpt>
      <trkpt lat="50.64092" lon="5.3113">
        <ele>160.4</ele>
        <time>2019-04-23T08:22:01.000Z</time>
      </trkpt>
      <trkpt lat="50.64097" lon="5.31113">
        <ele>160.7</ele>
        <time>2019-04-23T08:22:04.000Z</time>
      </trkpt>
      <trkpt lat="50.64106" lon="5.31075">
        <ele>153.60000610352</ele>
        <time>2019-04-23T08:22:08.000Z</time>
      </trkpt>
      <trkpt lat="50.64112" lon="5.31045">
        <ele>154.19999694824</ele>
        <time>2019-04-23T08:22:10.000Z</time>
      </trkpt>
      <trkpt lat="50.64119" lon="5.31016">
        <ele>154.39999389648</ele>
        <time>2019-04-23T08:22:12.000Z</time>
      </trkpt>
      <trkpt lat="50.64129" lon="5.30977">
        <ele>155.19999694824</ele>
        <time>2019-04-23T08:22:15.000Z</time>
      </trkpt>
      <trkpt lat="50.64133" lon="5.30957">
        <ele>155.60000610352</ele>
        <time>2019-04-23T08:22:17.000Z</time>
      </trkpt>
      <trkpt lat="50.64135" lon="5.30948">
        <ele>156.19999694824</ele>
        <time>2019-04-23T08:22:20.000Z</time>
      </trkpt>
      <trkpt lat="50.64149" lon="5.30878">
        <ele>157.19999694824</ele>
        <time>2019-04-23T08:22:23.000Z</time>
      </trkpt>
      <trkpt lat="50.64151" lon="5.30867">
        <ele>157.39999389648</ele>
        <time>2019-04-23T08:22:24.000Z</time>
      </trkpt>
      <trkpt lat="50.64156" lon="5.3081">
        <ele>158</ele>
        <time>2019-04-23T08:22:28.000Z</time>
      </trkpt>
      <trkpt lat="50.64159" lon="5.30727">
        <ele>161.4</ele>
        <time>2019-04-23T08:24:14.000Z</time>
      </trkpt>
      <trkpt lat="50.64165" lon="5.30649">
        <ele>160.5</ele>
        <time>2019-04-23T08:24:36.000Z</time>
      </trkpt>
      <trkpt lat="50.6417" lon="5.30592">
        <ele>159.9</ele>
        <time>2019-04-23T08:24:37.000Z</time>
      </trkpt>
      <trkpt lat="50.64171" lon="5.30562">
        <ele>158.6</ele>
        <time>2019-04-23T08:24:38.000Z</time>
      </trkpt>
      <trkpt lat="50.64176" lon="5.30498">
        <ele>155.7</ele>
        <time>2019-04-23T08:24:41.000Z</time>
      </trkpt>
      <trkpt lat="50.64178" lon="5.3047">
        <ele>155.3</ele>
        <time>2019-04-23T08:24:43.000Z</time>
      </trkpt>
      <trkpt lat="50.64181" lon="5.30433">
        <ele>155</ele>
        <time>2019-04-23T08:24:46.000Z</time>
      </trkpt>
      <trkpt lat="50.64186" lon="5.30376">
        <ele>154.3</ele>
        <time>2019-04-23T08:24:47.000Z</time>
      </trkpt>
      <trkpt lat="50.64195" lon="5.30299">
        <ele>154.1</ele>
        <time>2019-04-23T08:24:52.000Z</time>
      </trkpt>
      <trkpt lat="50.64202" lon="5.30252">
        <ele>154</ele>
        <time>2019-04-23T08:24:53.000Z</time>
      </trkpt>
      <trkpt lat="50.64215" lon="5.30162">
        <ele>156.2</ele>
        <time>2019-04-23T08:25:00.000Z</time>
      </trkpt>
      <trkpt lat="50.64231" lon="5.30076">
        <ele>158</ele>
        <time>2019-04-23T08:25:04.000Z</time>
      </trkpt>
      <trkpt lat="50.64236" lon="5.30044">
        <ele>158.1</ele>
        <time>2019-04-23T08:25:08.000Z</time>
      </trkpt>
      <trkpt lat="50.64247" lon="5.29988">
        <ele>156</ele>
        <time>2019-04-23T08:25:15.000Z</time>
      </trkpt>
      <trkpt lat="50.64258" lon="5.29932">
        <ele>158.5</ele>
        <time>2019-04-23T08:25:19.000Z</time>
      </trkpt>
      <trkpt lat="50.64266" lon="5.2991">
        <ele>158.4</ele>
        <time>2019-04-23T08:25:38.000Z</time>
      </trkpt>
      <trkpt lat="50.64298" lon="5.29828">
        <ele>157.7</ele>
        <time>2019-04-23T08:25:42.000Z</time>
      </trkpt>
      <trkpt lat="50.64328" lon="5.29751">
        <ele>158</ele>
        <time>2019-04-23T08:25:43.000Z</time>
      </trkpt>
      <trkpt lat="50.64346" lon="5.29707">
        <ele>157.7</ele>
        <time>2019-04-23T08:25:45.000Z</time>
      </trkpt>
      <trkpt lat="50.64363" lon="5.29665">
        <ele>158.1</ele>
        <time>2019-04-23T08:25:46.000Z</time>
      </trkpt>
      <trkpt lat="50.64396" lon="5.29582">
        <ele>159.1</ele>
        <time>2019-04-23T08:25:52.000Z</time>
      </trkpt>
      <trkpt lat="50.64425" lon="5.29505">
        <ele>160.6</ele>
        <time>2019-04-23T08:25:56.000Z</time>
      </trkpt>
      <trkpt lat="50.6444" lon="5.29466">
        <ele>160.2</ele>
        <time>2019-04-23T08:25:59.000Z</time>
      </trkpt>
      <trkpt lat="50.64458" lon="5.29422">
        <ele>160</ele>
        <time>2019-04-23T08:26:05.000Z</time>
      </trkpt>
      <trkpt lat="50.64488" lon="5.29345">
        <ele>159.5</ele>
        <time>2019-04-23T08:26:06.000Z</time>
      </trkpt>
      <trkpt lat="50.64512" lon="5.29283">
        <ele>158.4</ele>
        <time>2019-04-23T08:26:07.000Z</time>
      </trkpt>
      <trkpt lat="50.64523" lon="5.29253">
        <ele>158.3</ele>
        <time>2019-04-23T08:26:08.000Z</time>
      </trkpt>
      <trkpt lat="50.64549" lon="5.2918">
        <ele>158.8</ele>
        <time>2019-04-23T08:26:09.000Z</time>
      </trkpt>
      <trkpt lat="50.64563" lon="5.29139">
        <ele>159.60000610352</ele>
        <time>2019-04-23T08:26:11.000Z</time>
      </trkpt>
      <trkpt lat="50.64575" lon="5.29104">
        <ele>159</ele>
        <time>2019-04-23T08:26:14.000Z</time>
      </trkpt>
      <trkpt lat="50.64582" lon="5.29063">
        <ele>158.8</ele>
        <time>2019-04-23T08:26:20.000Z</time>
      </trkpt>
      <trkpt lat="50.64584" lon="5.28989">
        <ele>157.8</ele>
        <time>2019-04-23T08:26:21.000Z</time>
      </trkpt>
      <trkpt lat="50.64588" lon="5.28929">
        <ele>157.2</ele>
        <time>2019-04-23T08:26:25.000Z</time>
      </trkpt>
      <trkpt lat="50.64592" lon="5.28834">
        <ele>155.3</ele>
        <time>2019-04-23T08:26:33.000Z</time>
      </trkpt>
      <trkpt lat="50.64597" lon="5.28738">
        <ele>153</ele>
        <time>2019-04-23T08:26:35.000Z</time>
      </trkpt>
      <trkpt lat="50.64601" lon="5.28654">
        <ele>151.6</ele>
        <time>2019-04-23T08:26:36.000Z</time>
      </trkpt>
      <trkpt lat="50.64604" lon="5.28599">
        <ele>150.8</ele>
        <time>2019-04-23T08:26:37.000Z</time>
      </trkpt>
      <trkpt lat="50.64605" lon="5.28568">
        <ele>149.8</ele>
        <time>2019-04-23T08:26:41.000Z</time>
      </trkpt>
      <trkpt lat="50.64605" lon="5.28538">
        <ele>149.7</ele>
        <time>2019-04-23T08:26:44.000Z</time>
      </trkpt>
      <trkpt lat="50.64603" lon="5.28484">
        <ele>149.1</ele>
        <time>2019-04-23T08:26:45.000Z</time>
      </trkpt>
      <trkpt lat="50.64601" lon="5.28465">
        <ele>149</ele>
        <time>2019-04-23T08:26:47.000Z</time>
      </trkpt>
      <trkpt lat="50.64596" lon="5.28432">
        <ele>149</ele>
        <time>2019-04-23T08:26:53.000Z</time>
      </trkpt>
      <trkpt lat="50.6459" lon="5.28403">
        <ele>148.8</ele>
        <time>2019-04-23T08:26:54.000Z</time>
      </trkpt>
      <trkpt lat="50.64584" lon="5.28381">
        <ele>148.7</ele>
        <time>2019-04-23T08:26:55.000Z</time>
      </trkpt>
      <trkpt lat="50.64565" lon="5.28307">
        <ele>150.7</ele>
        <time>2019-04-23T08:26:59.000Z</time>
      </trkpt>
      <trkpt lat="50.64551" lon="5.28251">
        <ele>151.4</ele>
        <time>2019-04-23T08:27:00.000Z</time>
      </trkpt>
      <trkpt lat="50.64537" lon="5.28195">
        <ele>152.4</ele>
        <time>2019-04-23T08:27:04.000Z</time>
      </trkpt>
      <trkpt lat="50.64527" lon="5.28162">
        <ele>153</ele>
        <time>2019-04-23T08:27:06.000Z</time>
      </trkpt>
      <trkpt lat="50.64519" lon="5.28127">
        <ele>153.1</ele>
        <time>2019-04-23T08:27:10.000Z</time>
      </trkpt>
      <trkpt lat="50.64502" lon="5.28072">
        <ele>153.9</ele>
        <time>2019-04-23T08:27:14.000Z</time>
      </trkpt>
      <trkpt lat="50.64488" lon="5.28015">
        <ele>155.1</ele>
        <time>2019-04-23T08:27:16.000Z</time>
      </trkpt>
      <trkpt lat="50.64473" lon="5.27956">
        <ele>155.2</ele>
        <time>2019-04-23T08:27:18.000Z</time>
      </trkpt>
      <trkpt lat="50.64457" lon="5.27901">
        <ele>154.8</ele>
        <time>2019-04-23T08:27:22.000Z</time>
      </trkpt>
      <trkpt lat="50.64431" lon="5.27812">
        <ele>154.6</ele>
        <time>2019-04-23T08:27:25.000Z</time>
      </trkpt>
      <trkpt lat="50.64405" lon="5.27744">
        <ele>155.3</ele>
        <time>2019-04-23T08:27:27.000Z</time>
      </trkpt>
      <trkpt lat="50.64388" lon="5.27705">
        <ele>155.5</ele>
        <time>2019-04-23T08:27:30.000Z</time>
      </trkpt>
      <trkpt lat="50.64357" lon="5.27633">
        <ele>155.2</ele>
        <time>2019-04-23T08:27:34.000Z</time>
      </trkpt>
      <trkpt lat="50.64345" lon="5.27604">
        <ele>155.3</ele>
        <time>2019-04-23T08:27:37.000Z</time>
      </trkpt>
      <trkpt lat="50.64315" lon="5.27532">
        <ele>156.3</ele>
        <time>2019-04-23T08:27:42.000Z</time>
      </trkpt>
      <trkpt lat="50.64287" lon="5.27468">
        <ele>157</ele>
        <time>2019-04-23T08:27:48.000Z</time>
      </trkpt>
      <trkpt lat="50.64259" lon="5.27401">
        <ele>158</ele>
        <time>2019-04-23T08:27:55.000Z</time>
      </trkpt>
      <trkpt lat="50.64243" lon="5.27364">
        <ele>159</ele>
        <time>2019-04-23T08:27:56.000Z</time>
      </trkpt>
      <trkpt lat="50.64228" lon="5.27336">
        <ele>159</ele>
        <time>2019-04-23T08:28:03.000Z</time>
      </trkpt>
      <trkpt lat="50.6422" lon="5.2731">
        <ele>159.3</ele>
        <time>2019-04-23T08:28:06.000Z</time>
      </trkpt>
      <trkpt lat="50.64208" lon="5.27273">
        <ele>159.5</ele>
        <time>2019-04-23T08:28:13.000Z</time>
      </trkpt>
      <trkpt lat="50.64203" lon="5.27251">
        <ele>159.6</ele>
        <time>2019-04-23T08:28:15.000Z</time>
      </trkpt>
      <trkpt lat="50.6419" lon="5.27174">
        <ele>159.5</ele>
        <time>2019-04-23T08:28:20.000Z</time>
      </trkpt>
      <trkpt lat="50.64175" lon="5.2709">
        <ele>159.6</ele>
        <time>2019-04-23T08:28:27.000Z</time>
      </trkpt>
      <trkpt lat="50.64168" lon="5.2706">
        <ele>159</ele>
        <time>2019-04-23T08:28:29.000Z</time>
      </trkpt>
      <trkpt lat="50.64159" lon="5.27023">
        <ele>159.3</ele>
        <time>2019-04-23T08:28:32.000Z</time>
      </trkpt>
      <trkpt lat="50.64152" lon="5.26991">
        <ele>158.8</ele>
        <time>2019-04-23T08:28:37.000Z</time>
      </trkpt>
      <trkpt lat="50.64146" lon="5.26958">
        <ele>158.5</ele>
        <time>2019-04-23T08:28:41.000Z</time>
      </trkpt>
      <trkpt lat="50.64137" lon="5.26922">
        <ele>158.3</ele>
        <time>2019-04-23T08:28:46.000Z</time>
      </trkpt>
      <trkpt lat="50.64146" lon="5.26913">
        <ele>157.39999389648</ele>
        <time>2019-04-23T08:28:52.000Z</time>
      </trkpt>
      <trkpt lat="50.64149" lon="5.26898">
        <ele>157</ele>
        <time>2019-04-23T08:28:55.000Z</time>
      </trkpt>
      <trkpt lat="50.64147" lon="5.26883">
        <ele>157.19999694824</ele>
        <time>2019-04-23T08:28:56.000Z</time>
      </trkpt>
      <trkpt lat="50.64139" lon="5.26879">
        <ele>157</ele>
        <time>2019-04-23T08:28:59.000Z</time>
      </trkpt>
      <trkpt lat="50.64131" lon="5.26877">
        <ele>157.2</ele>
        <time>2019-04-23T08:29:00.000Z</time>
      </trkpt>
      <trkpt lat="50.64128" lon="5.26849">
        <ele>157</ele>
        <time>2019-04-23T08:29:03.000Z</time>
      </trkpt>
      <trkpt lat="50.6412" lon="5.26816">
        <ele>155.8</ele>
        <time>2019-04-23T08:29:05.000Z</time>
      </trkpt>
      <trkpt lat="50.64114" lon="5.26792">
        <ele>155.6</ele>
        <time>2019-04-23T08:29:10.000Z</time>
      </trkpt>
      <trkpt lat="50.64106" lon="5.26745">
        <ele>154.3</ele>
        <time>2019-04-23T08:29:11.000Z</time>
      </trkpt>
      <trkpt lat="50.64103" lon="5.26717">
        <ele>154</ele>
        <time>2019-04-23T08:29:14.000Z</time>
      </trkpt>
      <trkpt lat="50.64102" lon="5.26698">
        <ele>153.9</ele>
        <time>2019-04-23T08:29:17.000Z</time>
      </trkpt>
      <trkpt lat="50.64101" lon="5.2665">
        <ele>153.2</ele>
        <time>2019-04-23T08:29:20.000Z</time>
      </trkpt>
      <trkpt lat="50.64098" lon="5.26635">
        <ele>153.1</ele>
        <time>2019-04-23T08:29:23.000Z</time>
      </trkpt>
      <trkpt lat="50.6409" lon="5.26619">
        <ele>153</ele>
        <time>2019-04-23T08:29:24.000Z</time>
      </trkpt>
      <trkpt lat="50.64084" lon="5.26606">
        <ele>152.9</ele>
        <time>2019-04-23T08:29:28.000Z</time>
      </trkpt>
      <trkpt lat="50.64076" lon="5.26594">
        <ele>153.7</ele>
        <time>2019-04-23T08:29:32.000Z</time>
      </trkpt>
      <trkpt lat="50.64063" lon="5.26576">
        <ele>153.2</ele>
        <time>2019-04-23T08:29:33.000Z</time>
      </trkpt>
      <trkpt lat="50.64052" lon="5.26559">
        <ele>153.3</ele>
        <time>2019-04-23T08:29:38.000Z</time>
      </trkpt>
      <trkpt lat="50.64046" lon="5.26542">
        <ele>153.2</ele>
        <time>2019-04-23T08:29:40.000Z</time>
      </trkpt>
      <trkpt lat="50.6404" lon="5.26529">
        <ele>153</ele>
        <time>2019-04-23T08:29:43.000Z</time>
      </trkpt>
      <trkpt lat="50.64039" lon="5.26509">
        <ele>153</ele>
        <time>2019-04-23T08:29:45.000Z</time>
      </trkpt>
      <trkpt lat="50.64045" lon="5.26474">
        <ele>152.3</ele>
        <time>2019-04-23T08:29:48.000Z</time>
      </trkpt>
      <trkpt lat="50.64049" lon="5.26451">
        <ele>152.2</ele>
        <time>2019-04-23T08:29:50.000Z</time>
      </trkpt>
      <trkpt lat="50.64055" lon="5.26413">
        <ele>152</ele>
        <time>2019-04-23T08:29:53.000Z</time>
      </trkpt>
      <trkpt lat="50.64061" lon="5.2638">
        <ele>152</ele>
        <time>2019-04-23T08:29:56.000Z</time>
      </trkpt>
      <trkpt lat="50.64066" lon="5.26336">
        <ele>152</ele>
        <time>2019-04-23T08:30:00.000Z</time>
      </trkpt>
      <trkpt lat="50.64065" lon="5.26319">
        <ele>152.4</ele>
        <time>2019-04-23T08:30:01.000Z</time>
      </trkpt>
      <trkpt lat="50.64064" lon="5.26305">
        <ele>152.6</ele>
        <time>2019-04-23T08:30:05.000Z</time>
      </trkpt>
      <trkpt lat="50.6406" lon="5.26281">
        <ele>152.8</ele>
        <time>2019-04-23T08:30:10.000Z</time>
      </trkpt>
      <trkpt lat="50.64054" lon="5.26246">
        <ele>154.3</ele>
        <time>2019-04-23T08:30:15.000Z</time>
      </trkpt>
      <trkpt lat="50.64047" lon="5.26213">
        <ele>154.9</ele>
        <time>2019-04-23T08:30:22.000Z</time>
      </trkpt>
      <trkpt lat="50.64041" lon="5.26175">
        <ele>155.5</ele>
        <time>2019-04-23T08:30:26.000Z</time>
      </trkpt>
      <trkpt lat="50.64035" lon="5.26141">
        <ele>157</ele>
        <time>2019-04-23T08:30:30.000Z</time>
      </trkpt>
      <trkpt lat="50.64031" lon="5.26113">
        <ele>157.2</ele>
        <time>2019-04-23T08:30:31.000Z</time>
      </trkpt>
      <trkpt lat="50.64029" lon="5.26062">
        <ele>158.2</ele>
        <time>2019-04-23T08:30:33.000Z</time>
      </trkpt>
      <trkpt lat="50.64027" lon="5.26036">
        <ele>158.3</ele>
        <time>2019-04-23T08:30:35.000Z</time>
      </trkpt>
      <trkpt lat="50.64025" lon="5.26011">
        <ele>158.6</ele>
        <time>2019-04-23T08:30:36.000Z</time>
      </trkpt>
      <trkpt lat="50.64023" lon="5.25976">
        <ele>158.3</ele>
        <time>2019-04-23T08:30:38.000Z</time>
      </trkpt>
      <trkpt lat="50.6402" lon="5.25946">
        <ele>158.1</ele>
        <time>2019-04-23T08:30:39.000Z</time>
      </trkpt>
      <trkpt lat="50.64014" lon="5.25918">
        <ele>158.4</ele>
        <time>2019-04-23T08:30:41.000Z</time>
      </trkpt>
      <trkpt lat="50.6401" lon="5.259">
        <ele>157.9</ele>
        <time>2019-04-23T08:30:46.000Z</time>
      </trkpt>
      <trkpt lat="50.64004" lon="5.25878">
        <ele>157.6</ele>
        <time>2019-04-23T08:30:53.000Z</time>
      </trkpt>
      <trkpt lat="50.63985" lon="5.25814">
        <ele>158.1</ele>
        <time>2019-04-23T08:30:56.000Z</time>
      </trkpt>
      <trkpt lat="50.63959" lon="5.25731">
        <ele>158.2</ele>
        <time>2019-04-23T08:30:57.000Z</time>
      </trkpt>
      <trkpt lat="50.63945" lon="5.25685">
        <ele>158.4</ele>
        <time>2019-04-23T08:31:00.000Z</time>
      </trkpt>
      <trkpt lat="50.63927" lon="5.25625">
        <ele>158</ele>
        <time>2019-04-23T08:31:02.000Z</time>
      </trkpt>
      <trkpt lat="50.63908" lon="5.25564">
        <ele>157.5</ele>
        <time>2019-04-23T08:31:08.000Z</time>
      </trkpt>
      <trkpt lat="50.63894" lon="5.25524">
        <ele>157</ele>
        <time>2019-04-23T08:31:12.000Z</time>
      </trkpt>
      <trkpt lat="50.63878" lon="5.2547">
        <ele>155.8</ele>
        <time>2019-04-23T08:31:16.000Z</time>
      </trkpt>
      <trkpt lat="50.63861" lon="5.25421">
        <ele>155.5</ele>
        <time>2019-04-23T08:31:17.000Z</time>
      </trkpt>
      <trkpt lat="50.6385" lon="5.25384">
        <ele>154.9</ele>
        <time>2019-04-23T08:31:20.000Z</time>
      </trkpt>
      <trkpt lat="50.63834" lon="5.25331">
        <ele>155.8</ele>
        <time>2019-04-23T08:31:21.000Z</time>
      </trkpt>
      <trkpt lat="50.63819" lon="5.25282">
        <ele>155.8</ele>
        <time>2019-04-23T08:31:24.000Z</time>
      </trkpt>
      <trkpt lat="50.63799" lon="5.25219">
        <ele>154.8</ele>
        <time>2019-04-23T08:31:25.000Z</time>
      </trkpt>
      <trkpt lat="50.63783" lon="5.25169">
        <ele>154.3</ele>
        <time>2019-04-23T08:31:28.000Z</time>
      </trkpt>
      <trkpt lat="50.63757" lon="5.25083">
        <ele>151.8</ele>
        <time>2019-04-23T08:31:29.000Z</time>
      </trkpt>
      <trkpt lat="50.63742" lon="5.25036">
        <ele>151.4</ele>
        <time>2019-04-23T08:31:31.000Z</time>
      </trkpt>
      <trkpt lat="50.6373" lon="5.24999">
        <ele>150.7</ele>
        <time>2019-04-23T08:31:35.000Z</time>
      </trkpt>
      <trkpt lat="50.63725" lon="5.24982">
        <ele>151</ele>
        <time>2019-04-23T08:31:38.000Z</time>
      </trkpt>
      <trkpt lat="50.6372" lon="5.24966">
        <ele>151</ele>
        <time>2019-04-23T08:31:39.000Z</time>
      </trkpt>
      <trkpt lat="50.63714" lon="5.24951">
        <ele>151.2</ele>
        <time>2019-04-23T08:31:42.000Z</time>
      </trkpt>
      <trkpt lat="50.63706" lon="5.24927">
        <ele>151.4</ele>
        <time>2019-04-23T08:31:43.000Z</time>
      </trkpt>
      <trkpt lat="50.63693" lon="5.24893">
        <ele>151.8</ele>
        <time>2019-04-23T08:31:47.000Z</time>
      </trkpt>
      <trkpt lat="50.63677" lon="5.24851">
        <ele>152.2</ele>
        <time>2019-04-23T08:31:50.000Z</time>
      </trkpt>
      <trkpt lat="50.6365" lon="5.24782">
        <ele>153.5</ele>
        <time>2019-04-23T08:31:57.000Z</time>
      </trkpt>
      <trkpt lat="50.63633" lon="5.24739">
        <ele>154.4</ele>
        <time>2019-04-23T08:31:59.000Z</time>
      </trkpt>
      <trkpt lat="50.63617" lon="5.247">
        <ele>154.9</ele>
        <time>2019-04-23T08:32:00.000Z</time>
      </trkpt>
      <trkpt lat="50.63596" lon="5.24646">
        <ele>156.3</ele>
        <time>2019-04-23T08:32:07.000Z</time>
      </trkpt>
      <trkpt lat="50.63576" lon="5.24596">
        <ele>156.6</ele>
        <time>2019-04-23T08:32:09.000Z</time>
      </trkpt>
      <trkpt lat="50.63558" lon="5.24561">
        <ele>157.4</ele>
        <time>2019-04-23T08:32:12.000Z</time>
      </trkpt>
      <trkpt lat="50.63534" lon="5.24525">
        <ele>157.7</ele>
        <time>2019-04-23T08:32:18.000Z</time>
      </trkpt>
      <trkpt lat="50.63507" lon="5.24484">
        <ele>158.6</ele>
        <time>2019-04-23T08:32:19.000Z</time>
      </trkpt>
      <trkpt lat="50.63488" lon="5.24459">
        <ele>158.3</ele>
        <time>2019-04-23T08:32:23.000Z</time>
      </trkpt>
      <trkpt lat="50.63463" lon="5.24432">
        <ele>158</ele>
        <time>2019-04-23T08:32:27.000Z</time>
      </trkpt>
      <trkpt lat="50.63439" lon="5.24405">
        <ele>158.8</ele>
        <time>2019-04-23T08:32:30.000Z</time>
      </trkpt>
      <trkpt lat="50.63402" lon="5.24364">
        <ele>159.7</ele>
        <time>2019-04-23T08:32:35.000Z</time>
      </trkpt>
      <trkpt lat="50.63382" lon="5.24349">
        <ele>160</ele>
        <time>2019-04-23T08:32:38.000Z</time>
      </trkpt>
      <trkpt lat="50.63363" lon="5.2434">
        <ele>160.2</ele>
        <time>2019-04-23T08:32:39.000Z</time>
      </trkpt>
      <trkpt lat="50.6335" lon="5.24338">
        <ele>160.4</ele>
        <time>2019-04-23T08:32:46.000Z</time>
      </trkpt>
      <trkpt lat="50.63336" lon="5.24341">
        <ele>160.7</ele>
        <time>2019-04-23T08:32:48.000Z</time>
      </trkpt>
      <trkpt lat="50.63329" lon="5.24337">
        <ele>161</ele>
        <time>2019-04-23T08:32:54.000Z</time>
      </trkpt>
      <trkpt lat="50.63323" lon="5.24327">
        <ele>161.2</ele>
        <time>2019-04-23T08:32:55.000Z</time>
      </trkpt>
      <trkpt lat="50.63312" lon="5.24306">
        <ele>161.4</ele>
        <time>2019-04-23T08:33:01.000Z</time>
      </trkpt>
      <trkpt lat="50.63305" lon="5.2429">
        <ele>161</ele>
        <time>2019-04-23T08:33:03.000Z</time>
      </trkpt>
      <trkpt lat="50.63297" lon="5.2427">
        <ele>161.5</ele>
        <time>2019-04-23T08:33:10.000Z</time>
      </trkpt>
      <trkpt lat="50.63289" lon="5.24237">
        <ele>161.5</ele>
        <time>2019-04-23T08:33:18.000Z</time>
      </trkpt>
      <trkpt lat="50.63295" lon="5.24223">
        <ele>161</ele>
        <time>2019-04-23T08:33:20.000Z</time>
      </trkpt>
      <trkpt lat="50.63302" lon="5.24213">
        <ele>161.4</ele>
        <time>2019-04-23T08:33:23.000Z</time>
      </trkpt>
      <trkpt lat="50.63317" lon="5.24188">
        <ele>161.3</ele>
        <time>2019-04-23T08:33:28.000Z</time>
      </trkpt>
      <trkpt lat="50.63327" lon="5.24174">
        <ele>161.2</ele>
        <time>2019-04-23T08:33:33.000Z</time>
      </trkpt>
      <trkpt lat="50.63338" lon="5.24157">
        <ele>161</ele>
        <time>2019-04-23T08:33:41.000Z</time>
      </trkpt>
      <trkpt lat="50.63345" lon="5.2414">
        <ele>160.9</ele>
        <time>2019-04-23T08:33:45.000Z</time>
      </trkpt>
      <trkpt lat="50.63356" lon="5.24104">
        <ele>161.1</ele>
        <time>2019-04-23T08:33:50.000Z</time>
      </trkpt>
      <trkpt lat="50.63369" lon="5.24063">
        <ele>160.5</ele>
        <time>2019-04-23T08:33:51.000Z</time>
      </trkpt>
      <trkpt lat="50.63387" lon="5.24007">
        <ele>159.8</ele>
        <time>2019-04-23T08:33:56.000Z</time>
      </trkpt>
      <trkpt lat="50.63397" lon="5.23971">
        <ele>158.3</ele>
        <time>2019-04-23T08:33:57.000Z</time>
      </trkpt>
      <trkpt lat="50.63413" lon="5.23922">
        <ele>156.5</ele>
        <time>2019-04-23T08:34:02.000Z</time>
      </trkpt>
      <trkpt lat="50.63429" lon="5.2387">
        <ele>154.2</ele>
        <time>2019-04-23T08:34:06.000Z</time>
      </trkpt>
      <trkpt lat="50.63441" lon="5.23834">
        <ele>153.9</ele>
        <time>2019-04-23T08:34:08.000Z</time>
      </trkpt>
      <trkpt lat="50.63455" lon="5.2379">
        <ele>154</ele>
        <time>2019-04-23T08:34:09.000Z</time>
      </trkpt>
      <trkpt lat="50.6348" lon="5.2371">
        <ele>156.6</ele>
        <time>2019-04-23T08:34:11.000Z</time>
      </trkpt>
      <trkpt lat="50.63505" lon="5.23628">
        <ele>158.8</ele>
        <time>2019-04-23T08:34:13.000Z</time>
      </trkpt>
      <trkpt lat="50.63527" lon="5.23558">
        <ele>159.7</ele>
        <time>2019-04-23T08:34:15.000Z</time>
      </trkpt>
      <trkpt lat="50.63541" lon="5.23511">
        <ele>159.7</ele>
        <time>2019-04-23T08:34:16.000Z</time>
      </trkpt>
      <trkpt lat="50.63557" lon="5.23457">
        <ele>160.4</ele>
        <time>2019-04-23T08:34:17.000Z</time>
      </trkpt>
      <trkpt lat="50.6357" lon="5.23425">
        <ele>159.9</ele>
        <time>2019-04-23T08:34:19.000Z</time>
      </trkpt>
      <trkpt lat="50.63587" lon="5.23382">
        <ele>158.1</ele>
        <time>2019-04-23T08:34:21.000Z</time>
      </trkpt>
      <trkpt lat="50.63612" lon="5.23328">
        <ele>157.1</ele>
        <time>2019-04-23T08:34:22.000Z</time>
      </trkpt>
      <trkpt lat="50.63628" lon="5.23296">
        <ele>156.5</ele>
        <time>2019-04-23T08:34:24.000Z</time>
      </trkpt>
      <trkpt lat="50.63641" lon="5.23269">
        <ele>155.7</ele>
        <time>2019-04-23T08:34:25.000Z</time>
      </trkpt>
      <trkpt lat="50.63653" lon="5.23244">
        <ele>154.1</ele>
        <time>2019-04-23T08:34:29.000Z</time>
      </trkpt>
      <trkpt lat="50.63662" lon="5.23226">
        <ele>154.4</ele>
        <time>2019-04-23T08:34:32.000Z</time>
      </trkpt>
      <trkpt lat="50.63678" lon="5.23188">
        <ele>152.9</ele>
        <time>2019-04-23T08:34:34.000Z</time>
      </trkpt>
      <trkpt lat="50.63687" lon="5.23173">
        <ele>152.9</ele>
        <time>2019-04-23T08:34:38.000Z</time>
      </trkpt>
      <trkpt lat="50.63694" lon="5.2316">
        <ele>154</ele>
        <time>2019-04-23T08:34:41.000Z</time>
      </trkpt>
      <trkpt lat="50.6369" lon="5.2315">
        <ele>154.19999694824</ele>
        <time>2019-04-23T08:34:44.000Z</time>
      </trkpt>
      <trkpt lat="50.63679" lon="5.23128">
        <ele>153.80000305176</ele>
        <time>2019-04-23T08:34:46.000Z</time>
      </trkpt>
      <trkpt lat="50.63671" lon="5.2311">
        <ele>153.80000305176</ele>
        <time>2019-04-23T08:34:50.000Z</time>
      </trkpt>
      <trkpt lat="50.63663" lon="5.23092">
        <ele>153.80000305176</ele>
        <time>2019-04-23T08:34:53.000Z</time>
      </trkpt>
      <trkpt lat="50.63649" lon="5.23066">
        <ele>157.3</ele>
        <time>2019-04-23T08:34:54.000Z</time>
      </trkpt>
      <trkpt lat="50.63636" lon="5.23042">
        <ele>158.3</ele>
        <time>2019-04-23T08:34:55.000Z</time>
      </trkpt>
      <trkpt lat="50.63617" lon="5.23005">
        <ele>159</ele>
        <time>2019-04-23T08:34:59.000Z</time>
      </trkpt>
      <trkpt lat="50.63603" lon="5.22978">
        <ele>159.7</ele>
        <time>2019-04-23T08:35:00.000Z</time>
      </trkpt>
      <trkpt lat="50.63576" lon="5.22924">
        <ele>159.4</ele>
        <time>2019-04-23T08:35:03.000Z</time>
      </trkpt>
      <trkpt lat="50.63569" lon="5.22905">
        <ele>159</ele>
        <time>2019-04-23T08:35:04.000Z</time>
      </trkpt>
      <trkpt lat="50.63567" lon="5.22894">
        <ele>159</ele>
        <time>2019-04-23T08:35:12.000Z</time>
      </trkpt>
      <trkpt lat="50.63571" lon="5.22887">
        <ele>159.5</ele>
        <time>2019-04-23T08:35:15.000Z</time>
      </trkpt>
      <trkpt lat="50.6358" lon="5.22874">
        <ele>160</ele>
        <time>2019-04-23T08:35:16.000Z</time>
      </trkpt>
      <trkpt lat="50.63588" lon="5.22867">
        <ele>160.3</ele>
        <time>2019-04-23T08:35:17.000Z</time>
      </trkpt>
      <trkpt lat="50.63599" lon="5.22858">
        <ele>160.4</ele>
        <time>2019-04-23T08:35:19.000Z</time>
      </trkpt>
      <trkpt lat="50.63634" lon="5.2283">
        <ele>160.3</ele>
        <time>2019-04-23T08:35:20.000Z</time>
      </trkpt>
      <trkpt lat="50.63672" lon="5.22799">
        <ele>160.5</ele>
        <time>2019-04-23T08:35:22.000Z</time>
      </trkpt>
      <trkpt lat="50.63701" lon="5.22776">
        <ele>160.6</ele>
        <time>2019-04-23T08:35:25.000Z</time>
      </trkpt>
      <trkpt lat="50.6373" lon="5.22754">
        <ele>160.8</ele>
        <time>2019-04-23T08:35:31.000Z</time>
      </trkpt>
      <trkpt lat="50.63746" lon="5.22743">
        <ele>160.9</ele>
        <time>2019-04-23T08:35:39.000Z</time>
      </trkpt>
      <trkpt lat="50.63779" lon="5.22716">
        <ele>159.80000305176</ele>
        <time>2019-04-23T08:35:43.000Z</time>
      </trkpt>
      <trkpt lat="50.6379" lon="5.22704">
        <ele>160</ele>
        <time>2019-04-23T08:35:47.000Z</time>
      </trkpt>
      <trkpt lat="50.63797" lon="5.22685">
        <ele>160.19999694824</ele>
        <time>2019-04-23T08:35:48.000Z</time>
      </trkpt>
      <trkpt lat="50.63801" lon="5.22663">
        <ele>160.19999694824</ele>
        <time>2019-04-23T08:35:49.000Z</time>
      </trkpt>
      <trkpt lat="50.63808" lon="5.2261">
        <ele>160.3</ele>
        <time>2019-04-23T08:35:50.000Z</time>
      </trkpt>
      <trkpt lat="50.63815" lon="5.22563">
        <ele>158.9</ele>
        <time>2019-04-23T08:35:53.000Z</time>
      </trkpt>
      <trkpt lat="50.63821" lon="5.22524">
        <ele>158.4</ele>
        <time>2019-04-23T08:35:54.000Z</time>
      </trkpt>
      <trkpt lat="50.63824" lon="5.22509">
        <ele>157.9</ele>
        <time>2019-04-23T08:35:58.000Z</time>
      </trkpt>
      <trkpt lat="50.63822" lon="5.22494">
        <ele>157.3</ele>
        <time>2019-04-23T08:36:00.000Z</time>
      </trkpt>
      <trkpt lat="50.63817" lon="5.22475">
        <ele>157.5</ele>
        <time>2019-04-23T08:36:02.000Z</time>
      </trkpt>
      <trkpt lat="50.63809" lon="5.22445">
        <ele>157.4</ele>
        <time>2019-04-23T08:36:09.000Z</time>
      </trkpt>
      <trkpt lat="50.638" lon="5.22416">
        <ele>156.2</ele>
        <time>2019-04-23T08:36:10.000Z</time>
      </trkpt>
      <trkpt lat="50.63794" lon="5.22394">
        <ele>156.2</ele>
        <time>2019-04-23T08:36:11.000Z</time>
      </trkpt>
      <trkpt lat="50.63787" lon="5.22371">
        <ele>156</ele>
        <time>2019-04-23T08:36:17.000Z</time>
      </trkpt>
      <trkpt lat="50.63782" lon="5.22342">
        <ele>155.8</ele>
        <time>2019-04-23T08:36:18.000Z</time>
      </trkpt>
      <trkpt lat="50.63779" lon="5.22333">
        <ele>155</ele>
        <time>2019-04-23T08:36:26.000Z</time>
      </trkpt>
      <trkpt lat="50.63786" lon="5.22325">
        <ele>154.6</ele>
        <time>2019-04-23T08:36:27.000Z</time>
      </trkpt>
      <trkpt lat="50.638" lon="5.22307">
        <ele>154.3</ele>
        <time>2019-04-23T08:36:29.000Z</time>
      </trkpt>
      <trkpt lat="50.63812" lon="5.22287">
        <ele>154</ele>
        <time>2019-04-23T08:36:34.000Z</time>
      </trkpt>
      <trkpt lat="50.63833" lon="5.22252">
        <ele>153.1</ele>
        <time>2019-04-23T08:36:41.000Z</time>
      </trkpt>
      <trkpt lat="50.63858" lon="5.22205">
        <ele>153</ele>
        <time>2019-04-23T08:36:49.000Z</time>
      </trkpt>
      <trkpt lat="50.63873" lon="5.22176">
        <ele>153</ele>
        <time>2019-04-23T08:36:50.000Z</time>
      </trkpt>
      <trkpt lat="50.63906" lon="5.22116">
        <ele>153</ele>
        <time>2019-04-23T08:36:54.000Z</time>
      </trkpt>
      <trkpt lat="50.63925" lon="5.22078">
        <ele>153.2</ele>
        <time>2019-04-23T08:36:58.000Z</time>
      </trkpt>
      <trkpt lat="50.6394" lon="5.22049">
        <ele>153.6</ele>
        <time>2019-04-23T08:36:59.000Z</time>
      </trkpt>
      <trkpt lat="50.63947" lon="5.22033">
        <ele>153.8</ele>
        <time>2019-04-23T08:37:07.000Z</time>
      </trkpt>
      <trkpt lat="50.63973" lon="5.21969">
        <ele>155</ele>
        <time>2019-04-23T08:37:09.000Z</time>
      </trkpt>
      <trkpt lat="50.63976" lon="5.21949">
        <ele>155</ele>
        <time>2019-04-23T08:37:14.000Z</time>
      </trkpt>
      <trkpt lat="50.63981" lon="5.21928">
        <ele>155.1</ele>
        <time>2019-04-23T08:37:19.000Z</time>
      </trkpt>
      <trkpt lat="50.63989" lon="5.21882">
        <ele>155.9</ele>
        <time>2019-04-23T08:37:20.000Z</time>
      </trkpt>
      <trkpt lat="50.63996" lon="5.21855">
        <ele>156.3</ele>
        <time>2019-04-23T08:37:22.000Z</time>
      </trkpt>
      <trkpt lat="50.64007" lon="5.21815">
        <ele>156.3</ele>
        <time>2019-04-23T08:37:24.000Z</time>
      </trkpt>
      <trkpt lat="50.64014" lon="5.21791">
        <ele>156.1</ele>
        <time>2019-04-23T08:37:25.000Z</time>
      </trkpt>
      <trkpt lat="50.6402" lon="5.21772">
        <ele>156.2</ele>
        <time>2019-04-23T08:37:27.000Z</time>
      </trkpt>
      <trkpt lat="50.6402" lon="5.21751">
        <ele>156.3</ele>
        <time>2019-04-23T08:37:33.000Z</time>
      </trkpt>
      <trkpt lat="50.64015" lon="5.21699">
        <ele>156.3</ele>
        <time>2019-04-23T08:37:41.000Z</time>
      </trkpt>
      <trkpt lat="50.64015" lon="5.21657">
        <ele>156.6</ele>
        <time>2019-04-23T08:37:42.000Z</time>
      </trkpt>
      <trkpt lat="50.64017" lon="5.21613">
        <ele>156.5</ele>
        <time>2019-04-23T08:37:49.000Z</time>
      </trkpt>
      <trkpt lat="50.64022" lon="5.21571">
        <ele>157</ele>
        <time>2019-04-23T08:37:51.000Z</time>
      </trkpt>
      <trkpt lat="50.64029" lon="5.21535">
        <ele>156.8</ele>
        <time>2019-04-23T08:37:58.000Z</time>
      </trkpt>
      <trkpt lat="50.6405" lon="5.21439">
        <ele>156.6</ele>
        <time>2019-04-23T08:38:02.000Z</time>
      </trkpt>
      <trkpt lat="50.64071" lon="5.21359">
        <ele>156.1</ele>
        <time>2019-04-23T08:38:04.000Z</time>
      </trkpt>
      <trkpt lat="50.64079" lon="5.21324">
        <ele>156</ele>
        <time>2019-04-23T08:38:08.000Z</time>
      </trkpt>
      <trkpt lat="50.64087" lon="5.21281">
        <ele>155.6</ele>
        <time>2019-04-23T08:38:14.000Z</time>
      </trkpt>
      <trkpt lat="50.64097" lon="5.21225">
        <ele>155.5</ele>
        <time>2019-04-23T08:38:21.000Z</time>
      </trkpt>
      <trkpt lat="50.64104" lon="5.21184">
        <ele>155.2</ele>
        <time>2019-04-23T08:38:24.000Z</time>
      </trkpt>
      <trkpt lat="50.64113" lon="5.21122">
        <ele>155</ele>
        <time>2019-04-23T08:38:31.000Z</time>
      </trkpt>
      <trkpt lat="50.64119" lon="5.21073">
        <ele>154.5</ele>
        <time>2019-04-23T08:38:34.000Z</time>
      </trkpt>
      <trkpt lat="50.64124" lon="5.21029">
        <ele>154.1</ele>
        <time>2019-04-23T08:38:40.000Z</time>
      </trkpt>
      <trkpt lat="50.64127" lon="5.20989">
        <ele>153.3</ele>
        <time>2019-04-23T08:38:44.000Z</time>
      </trkpt>
      <trkpt lat="50.64129" lon="5.20957">
        <ele>153</ele>
        <time>2019-04-23T08:38:52.000Z</time>
      </trkpt>
      <trkpt lat="50.64135" lon="5.20915">
        <ele>152.2</ele>
        <time>2019-04-23T08:38:56.000Z</time>
      </trkpt>
      <trkpt lat="50.64141" lon="5.20863">
        <ele>151.8</ele>
        <time>2019-04-23T08:38:58.000Z</time>
      </trkpt>
      <trkpt lat="50.64146" lon="5.20816">
        <ele>150.7</ele>
        <time>2019-04-23T08:38:59.000Z</time>
      </trkpt>
      <trkpt lat="50.64151" lon="5.20782">
        <ele>150</ele>
        <time>2019-04-23T08:39:05.000Z</time>
      </trkpt>
      <trkpt lat="50.64155" lon="5.20739">
        <ele>149.7</ele>
        <time>2019-04-23T08:39:12.000Z</time>
      </trkpt>
      <trkpt lat="50.64163" lon="5.20666">
        <ele>148.9</ele>
        <time>2019-04-23T08:39:15.000Z</time>
      </trkpt>
      <trkpt lat="50.64171" lon="5.20577">
        <ele>147.9</ele>
        <time>2019-04-23T08:39:23.000Z</time>
      </trkpt>
      <trkpt lat="50.64178" lon="5.20485">
        <ele>148.4</ele>
        <time>2019-04-23T08:39:25.000Z</time>
      </trkpt>
      <trkpt lat="50.64174" lon="5.20444">
        <ele>148.8</ele>
        <time>2019-04-23T08:39:27.000Z</time>
      </trkpt>
      <trkpt lat="50.64177" lon="5.20408">
        <ele>149</ele>
        <time>2019-04-23T08:39:32.000Z</time>
      </trkpt>
      <trkpt lat="50.64181" lon="5.20366">
        <ele>149</ele>
        <time>2019-04-23T08:39:38.000Z</time>
      </trkpt>
      <trkpt lat="50.64185" lon="5.20334">
        <ele>149</ele>
        <time>2019-04-23T08:39:41.000Z</time>
      </trkpt>
      <trkpt lat="50.64189" lon="5.20301">
        <ele>149.6</ele>
        <time>2019-04-23T08:39:49.000Z</time>
      </trkpt>
      <trkpt lat="50.64191" lon="5.20273">
        <ele>149.8</ele>
        <time>2019-04-23T08:39:50.000Z</time>
      </trkpt>
      <trkpt lat="50.64196" lon="5.20235">
        <ele>151.1</ele>
        <time>2019-04-23T08:39:56.000Z</time>
      </trkpt>
      <trkpt lat="50.64199" lon="5.20202">
        <ele>151.5</ele>
        <time>2019-04-23T08:40:04.000Z</time>
      </trkpt>
      <trkpt lat="50.64204" lon="5.20152">
        <ele>151.4</ele>
        <time>2019-04-23T08:40:06.000Z</time>
      </trkpt>
      <trkpt lat="50.64211" lon="5.20074">
        <ele>149.6</ele>
        <time>2019-04-23T08:40:08.000Z</time>
      </trkpt>
      <trkpt lat="50.64209" lon="5.20011">
        <ele>149.8</ele>
        <time>2019-04-23T08:40:16.000Z</time>
      </trkpt>
      <trkpt lat="50.64209" lon="5.19939">
        <ele>150</ele>
        <time>2019-04-23T08:40:17.000Z</time>
      </trkpt>
      <trkpt lat="50.64208" lon="5.1992">
        <ele>150</ele>
        <time>2019-04-23T08:40:22.000Z</time>
      </trkpt>
      <trkpt lat="50.64207" lon="5.19864">
        <ele>150</ele>
        <time>2019-04-23T08:40:26.000Z</time>
      </trkpt>
      <trkpt lat="50.64205" lon="5.19813">
        <ele>149.7</ele>
        <time>2019-04-23T08:40:33.000Z</time>
      </trkpt>
      <trkpt lat="50.64205" lon="5.19732">
        <ele>149</ele>
        <time>2019-04-23T08:40:35.000Z</time>
      </trkpt>
      <trkpt lat="50.64206" lon="5.19712">
        <ele>149</ele>
        <time>2019-04-23T08:40:42.000Z</time>
      </trkpt>
      <trkpt lat="50.64212" lon="5.19667">
        <ele>148.9</ele>
        <time>2019-04-23T08:40:44.000Z</time>
      </trkpt>
      <trkpt lat="50.64216" lon="5.19645">
        <ele>149.1</ele>
        <time>2019-04-23T08:40:50.000Z</time>
      </trkpt>
      <trkpt lat="50.64227" lon="5.19577">
        <ele>149.3</ele>
        <time>2019-04-23T08:40:54.000Z</time>
      </trkpt>
      <trkpt lat="50.64233" lon="5.19539">
        <ele>149.4</ele>
        <time>2019-04-23T08:41:02.000Z</time>
      </trkpt>
      <trkpt lat="50.64237" lon="5.19514">
        <ele>149.3</ele>
        <time>2019-04-23T08:41:10.000Z</time>
      </trkpt>
      <trkpt lat="50.64247" lon="5.19456">
        <ele>149.39999389648</ele>
        <time>2019-04-23T08:41:18.000Z</time>
      </trkpt>
      <trkpt lat="50.6425" lon="5.1943">
        <ele>149.19999694824</ele>
        <time>2019-04-23T08:41:19.000Z</time>
      </trkpt>
      <trkpt lat="50.64253" lon="5.19417">
        <ele>149</ele>
        <time>2019-04-23T08:41:26.000Z</time>
      </trkpt>
      <trkpt lat="50.64258" lon="5.19378">
        <ele>148.80000305176</ele>
        <time>2019-04-23T08:41:30.000Z</time>
      </trkpt>
      <trkpt lat="50.6426" lon="5.1935">
        <ele>148</ele>
        <time>2019-04-23T08:41:36.000Z</time>
      </trkpt>
      <trkpt lat="50.64261" lon="5.19323">
        <ele>147.80000305176</ele>
        <time>2019-04-23T08:41:38.000Z</time>
      </trkpt>
      <trkpt lat="50.6426" lon="5.19266">
        <ele>147.19999694824</ele>
        <time>2019-04-23T08:41:39.000Z</time>
      </trkpt>
      <trkpt lat="50.64257" lon="5.19237">
        <ele>146.60000610352</ele>
        <time>2019-04-23T08:41:40.000Z</time>
      </trkpt>
      <trkpt lat="50.64253" lon="5.19209">
        <ele>145.60000610352</ele>
        <time>2019-04-23T08:41:43.000Z</time>
      </trkpt>
      <trkpt lat="50.64248" lon="5.1918">
        <ele>145</ele>
        <time>2019-04-23T08:41:44.000Z</time>
      </trkpt>
      <trkpt lat="50.64245" lon="5.19166">
        <ele>144.39999389648</ele>
        <time>2019-04-23T08:41:49.000Z</time>
      </trkpt>
      <trkpt lat="50.64231" lon="5.19093">
        <ele>143.39999389648</ele>
        <time>2019-04-23T08:41:54.000Z</time>
      </trkpt>
      <trkpt lat="50.64223" lon="5.1905">
        <ele>142.80000305176</ele>
        <time>2019-04-23T08:41:55.000Z</time>
      </trkpt>
      <trkpt lat="50.64223" lon="5.1905">
        <ele>142.80000305176</ele>
        <time>2019-04-23T08:41:56.000Z</time>
      </trkpt>
      <trkpt lat="50.64212" lon="5.18993">
        <ele>142.19999694824</ele>
        <time>2019-04-23T08:41:57.000Z</time>
      </trkpt>
      <trkpt lat="50.64207" lon="5.18964">
        <ele>142</ele>
        <time>2019-04-23T08:41:58.000Z</time>
      </trkpt>
      <trkpt lat="50.64201" lon="5.18935">
        <ele>141.80000305176</ele>
        <time>2019-04-23T08:42:00.000Z</time>
      </trkpt>
      <trkpt lat="50.64193" lon="5.18893">
        <ele>141.39999389648</ele>
        <time>2019-04-23T08:42:04.000Z</time>
      </trkpt>
      <trkpt lat="50.64188" lon="5.18865">
        <ele>141.19999694824</ele>
        <time>2019-04-23T08:42:05.000Z</time>
      </trkpt>
      <trkpt lat="50.6418" lon="5.18823">
        <ele>141.19999694824</ele>
        <time>2019-04-23T08:42:12.000Z</time>
      </trkpt>
      <trkpt lat="50.64168" lon="5.18758">
        <ele>141.19999694824</ele>
        <time>2019-04-23T08:42:15.000Z</time>
      </trkpt>
      <trkpt lat="50.64151" lon="5.18671">
        <ele>141.60000610352</ele>
        <time>2019-04-23T08:42:22.000Z</time>
      </trkpt>
      <trkpt lat="50.64146" lon="5.18647">
        <ele>141.80000305176</ele>
        <time>2019-04-23T08:42:23.000Z</time>
      </trkpt>
      <trkpt lat="50.6413" lon="5.1856">
        <ele>142.19999694824</ele>
        <time>2019-04-23T08:42:29.000Z</time>
      </trkpt>
      <trkpt lat="50.64122" lon="5.18522">
        <ele>142.39999389648</ele>
        <time>2019-04-23T08:42:31.000Z</time>
      </trkpt>
      <trkpt lat="50.64104" lon="5.18434">
        <ele>142.19999694824</ele>
        <time>2019-04-23T08:42:39.000Z</time>
      </trkpt>
      <trkpt lat="50.64102" lon="5.18421">
        <ele>142</ele>
        <time>2019-04-23T08:42:41.000Z</time>
      </trkpt>
      <trkpt lat="50.64096" lon="5.1837">
        <ele>141.80000305176</ele>
        <time>2019-04-23T08:42:45.000Z</time>
      </trkpt>
      <trkpt lat="50.64092" lon="5.18333">
        <ele>141.80000305176</ele>
        <time>2019-04-23T08:42:52.000Z</time>
      </trkpt>
      <trkpt lat="50.64089" lon="5.1831">
        <ele>141.80000305176</ele>
        <time>2019-04-23T08:42:58.000Z</time>
      </trkpt>
      <trkpt lat="50.64088" lon="5.18287">
        <ele>141.80000305176</ele>
        <time>2019-04-23T08:43:05.000Z</time>
      </trkpt>
      <trkpt lat="50.64083" lon="5.18234">
        <ele>142.39999389648</ele>
        <time>2019-04-23T08:43:13.000Z</time>
      </trkpt>
      <trkpt lat="50.64081" lon="5.18223">
        <ele>142.60000610352</ele>
        <time>2019-04-23T08:43:16.000Z</time>
      </trkpt>
      <trkpt lat="50.64079" lon="5.18202">
        <ele>143.19999694824</ele>
        <time>2019-04-23T08:43:24.000Z</time>
      </trkpt>
      <trkpt lat="50.64078" lon="5.18182">
        <ele>144</ele>
        <time>2019-04-23T08:43:30.000Z</time>
      </trkpt>
      <trkpt lat="50.64075" lon="5.18152">
        <ele>145</ele>
        <time>2019-04-23T08:43:31.000Z</time>
      </trkpt>
      <trkpt lat="50.64074" lon="5.18142">
        <ele>145.19999694824</ele>
        <time>2019-04-23T08:43:33.000Z</time>
      </trkpt>
      <trkpt lat="50.64071" lon="5.18113">
        <ele>146.19999694824</ele>
        <time>2019-04-23T08:43:34.000Z</time>
      </trkpt>
      <trkpt lat="50.64069" lon="5.18092">
        <ele>147</ele>
        <time>2019-04-23T08:43:36.000Z</time>
      </trkpt>
      <trkpt lat="50.64068" lon="5.18082">
        <ele>147.19999694824</ele>
        <time>2019-04-23T08:43:37.000Z</time>
      </trkpt>
      <trkpt lat="50.64064" lon="5.1804">
        <ele>148.19999694824</ele>
        <time>2019-04-23T08:43:41.000Z</time>
      </trkpt>
      <trkpt lat="50.64062" lon="5.18018">
        <ele>148.80000305176</ele>
        <time>2019-04-23T08:43:43.000Z</time>
      </trkpt>
      <trkpt lat="50.64058" lon="5.17996">
        <ele>149</ele>
        <time>2019-04-23T08:43:45.000Z</time>
      </trkpt>
      <trkpt lat="50.64052" lon="5.17979">
        <ele>149.39999389648</ele>
        <time>2019-04-23T08:43:47.000Z</time>
      </trkpt>
      <trkpt lat="50.64027" lon="5.17929">
        <ele>150.39999389648</ele>
        <time>2019-04-23T08:43:49.000Z</time>
      </trkpt>
      <trkpt lat="50.64018" lon="5.17912">
        <ele>150.39999389648</ele>
        <time>2019-04-23T08:43:50.000Z</time>
      </trkpt>
      <trkpt lat="50.63991" lon="5.1786">
        <ele>150.60000610352</ele>
        <time>2019-04-23T08:43:53.000Z</time>
      </trkpt>
      <trkpt lat="50.63974" lon="5.17824">
        <ele>150.80000305176</ele>
        <time>2019-04-23T08:43:58.000Z</time>
      </trkpt>
      <trkpt lat="50.63966" lon="5.17806">
        <ele>149.6</ele>
        <time>2019-04-23T08:43:59.000Z</time>
      </trkpt>
      <trkpt lat="50.63955" lon="5.1777">
        <ele>150</ele>
        <time>2019-04-23T08:44:00.000Z</time>
      </trkpt>
      <trkpt lat="50.63942" lon="5.17725">
        <ele>150.4</ele>
        <time>2019-04-23T08:44:06.000Z</time>
      </trkpt>
      <trkpt lat="50.63935" lon="5.17695">
        <ele>150.5</ele>
        <time>2019-04-23T08:44:10.000Z</time>
      </trkpt>
      <trkpt lat="50.63933" lon="5.17657">
        <ele>150.8</ele>
        <time>2019-04-23T08:44:11.000Z</time>
      </trkpt>
      <trkpt lat="50.63928" lon="5.17618">
        <ele>150.9</ele>
        <time>2019-04-23T08:44:19.000Z</time>
      </trkpt>
      <trkpt lat="50.63917" lon="5.17583">
        <ele>151.9</ele>
        <time>2019-04-23T08:44:20.000Z</time>
      </trkpt>
      <trkpt lat="50.63902" lon="5.17547">
        <ele>152.1</ele>
        <time>2019-04-23T08:44:28.000Z</time>
      </trkpt>
      <trkpt lat="50.63894" lon="5.17528">
        <ele>152</ele>
        <time>2019-04-23T08:44:40.000Z</time>
      </trkpt>
      <trkpt lat="50.63892" lon="5.17518">
        <ele>152</ele>
        <time>2019-04-23T08:46:29.000Z</time>
      </trkpt>
      <trkpt lat="50.63894" lon="5.17509">
        <ele>151.8</ele>
        <time>2019-04-23T08:47:11.000Z</time>
      </trkpt>
      <trkpt lat="50.63898" lon="5.17489">
        <ele>151</ele>
        <time>2019-04-23T08:47:15.000Z</time>
      </trkpt>
      <trkpt lat="50.63903" lon="5.17472">
        <ele>151.4</ele>
        <time>2019-04-23T08:47:21.000Z</time>
      </trkpt>
      <trkpt lat="50.63912" lon="5.17441">
        <ele>151</ele>
        <time>2019-04-23T08:47:26.000Z</time>
      </trkpt>
      <trkpt lat="50.6392" lon="5.17417">
        <ele>149.8</ele>
        <time>2019-04-23T08:47:32.000Z</time>
      </trkpt>
      <trkpt lat="50.63932" lon="5.17395">
        <ele>148.3</ele>
        <time>2019-04-23T08:47:35.000Z</time>
      </trkpt>
      <trkpt lat="50.63954" lon="5.17364">
        <ele>147.5</ele>
        <time>2019-04-23T08:47:52.000Z</time>
      </trkpt>
      <trkpt lat="50.63967" lon="5.17346">
        <ele>147.2</ele>
        <time>2019-04-23T08:48:03.000Z</time>
      </trkpt>
      <trkpt lat="50.63983" lon="5.17329">
        <ele>146.5</ele>
        <time>2019-04-23T08:48:07.000Z</time>
      </trkpt>
      <trkpt lat="50.64017" lon="5.17299">
        <ele>146</ele>
        <time>2019-04-23T08:48:14.000Z</time>
      </trkpt>
      <trkpt lat="50.64046" lon="5.17275">
        <ele>146.1</ele>
        <time>2019-04-23T08:48:19.000Z</time>
      </trkpt>
      <trkpt lat="50.64103" lon="5.17234">
        <ele>146.7</ele>
        <time>2019-04-23T08:48:26.000Z</time>
      </trkpt>
      <trkpt lat="50.64141" lon="5.17203">
        <ele>146.4</ele>
        <time>2019-04-23T08:48:32.000Z</time>
      </trkpt>
      <trkpt lat="50.64172" lon="5.17178">
        <ele>145.7</ele>
        <time>2019-04-23T08:48:37.000Z</time>
      </trkpt>
      <trkpt lat="50.64217" lon="5.17138">
        <ele>145.9</ele>
        <time>2019-04-23T08:48:45.000Z</time>
      </trkpt>
      <trkpt lat="50.64251" lon="5.17112">
        <ele>146.2</ele>
        <time>2019-04-23T08:48:49.000Z</time>
      </trkpt>
      <trkpt lat="50.64301" lon="5.17068">
        <ele>147.4</ele>
        <time>2019-04-23T08:48:52.000Z</time>
      </trkpt>
      <trkpt lat="50.64318" lon="5.1705">
        <ele>147.4</ele>
        <time>2019-04-23T08:48:55.000Z</time>
      </trkpt>
      <trkpt lat="50.64326" lon="5.17036">
        <ele>147.6</ele>
        <time>2019-04-23T08:48:56.000Z</time>
      </trkpt>
      <trkpt lat="50.6434" lon="5.17015">
        <ele>148</ele>
        <time>2019-04-23T08:49:03.000Z</time>
      </trkpt>
      <trkpt lat="50.6437" lon="5.16973">
        <ele>147.8</ele>
        <time>2019-04-23T08:49:06.000Z</time>
      </trkpt>
      <trkpt lat="50.64395" lon="5.16936">
        <ele>147.8</ele>
        <time>2019-04-23T08:49:10.000Z</time>
      </trkpt>
      <trkpt lat="50.64419" lon="5.16899">
        <ele>146.8</ele>
        <time>2019-04-23T08:49:12.000Z</time>
      </trkpt>
      <trkpt lat="50.6445" lon="5.16857">
        <ele>145.4</ele>
        <time>2019-04-23T08:49:17.000Z</time>
      </trkpt>
      <trkpt lat="50.64482" lon="5.16812">
        <ele>142.8</ele>
        <time>2019-04-23T08:49:23.000Z</time>
      </trkpt>
      <trkpt lat="50.64523" lon="5.16758">
        <ele>141.2</ele>
        <time>2019-04-23T08:49:28.000Z</time>
      </trkpt>
      <trkpt lat="50.64554" lon="5.16719">
        <ele>142.39999389648</ele>
        <time>2019-04-23T08:49:32.000Z</time>
      </trkpt>
      <trkpt lat="50.64586" lon="5.16676">
        <ele>138.3</ele>
        <time>2019-04-23T08:49:34.000Z</time>
      </trkpt>
      <trkpt lat="50.64619" lon="5.16633">
        <ele>137.1</ele>
        <time>2019-04-23T08:49:38.000Z</time>
      </trkpt>
      <trkpt lat="50.64633" lon="5.16615">
        <ele>136.9</ele>
        <time>2019-04-23T08:49:40.000Z</time>
      </trkpt>
      <trkpt lat="50.6466" lon="5.16582">
        <ele>136.1</ele>
        <time>2019-04-23T08:49:43.000Z</time>
      </trkpt>
      <trkpt lat="50.64679" lon="5.16558">
        <ele>136</ele>
        <time>2019-04-23T08:49:47.000Z</time>
      </trkpt>
      <trkpt lat="50.647" lon="5.16534">
        <ele>136</ele>
        <time>2019-04-23T08:49:50.000Z</time>
      </trkpt>
      <trkpt lat="50.64716" lon="5.16516">
        <ele>136</ele>
        <time>2019-04-23T08:49:53.000Z</time>
      </trkpt>
      <trkpt lat="50.64733" lon="5.16498">
        <ele>136.2</ele>
        <time>2019-04-23T08:49:55.000Z</time>
      </trkpt>
      <trkpt lat="50.64777" lon="5.16469">
        <ele>138.19999694824</ele>
        <time>2019-04-23T08:50:04.000Z</time>
      </trkpt>
      <trkpt lat="50.64806" lon="5.16447">
        <ele>136</ele>
        <time>2019-04-23T08:50:06.000Z</time>
      </trkpt>
      <trkpt lat="50.64834" lon="5.16429">
        <ele>138.39999389648</ele>
        <time>2019-04-23T08:50:10.000Z</time>
      </trkpt>
      <trkpt lat="50.64855" lon="5.16413">
        <ele>138.60000610352</ele>
        <time>2019-04-23T08:50:17.000Z</time>
      </trkpt>
      <trkpt lat="50.64883" lon="5.16394">
        <ele>138.60000610352</ele>
        <time>2019-04-23T08:50:19.000Z</time>
      </trkpt>
      <trkpt lat="50.64911" lon="5.16374">
        <ele>139</ele>
        <time>2019-04-23T08:50:21.000Z</time>
      </trkpt>
      <trkpt lat="50.64924" lon="5.16364">
        <ele>139.19999694824</ele>
        <time>2019-04-23T08:50:24.000Z</time>
      </trkpt>
      <trkpt lat="50.64956" lon="5.16331">
        <ele>139.9</ele>
        <time>2019-04-23T08:50:28.000Z</time>
      </trkpt>
      <trkpt lat="50.64982" lon="5.16307">
        <ele>140.3</ele>
        <time>2019-04-23T08:50:29.000Z</time>
      </trkpt>
      <trkpt lat="50.65011" lon="5.16279">
        <ele>141.4</ele>
        <time>2019-04-23T08:50:49.000Z</time>
      </trkpt>
      <trkpt lat="50.65018" lon="5.16271">
        <ele>141.5</ele>
        <time>2019-04-23T08:50:54.000Z</time>
      </trkpt>
      <trkpt lat="50.65042" lon="5.16241">
        <ele>141.8</ele>
        <time>2019-04-23T08:51:10.000Z</time>
      </trkpt>
      <trkpt lat="50.65089" lon="5.16183">
        <ele>142.39999389648</ele>
        <time>2019-04-23T08:51:11.000Z</time>
      </trkpt>
      <trkpt lat="50.65102" lon="5.16165">
        <ele>140.2</ele>
        <time>2019-04-23T08:51:19.000Z</time>
      </trkpt>
      <trkpt lat="50.65124" lon="5.16137">
        <ele>140</ele>
        <time>2019-04-23T08:51:42.000Z</time>
      </trkpt>
      <trkpt lat="50.65148" lon="5.16115">
        <ele>139.4</ele>
        <time>2019-04-23T08:51:44.000Z</time>
      </trkpt>
      <trkpt lat="50.65183" lon="5.16088">
        <ele>140.80000305176</ele>
        <time>2019-04-23T08:51:51.000Z</time>
      </trkpt>
      <trkpt lat="50.65198" lon="5.16076">
        <ele>140.39999389648</ele>
        <time>2019-04-23T08:51:53.000Z</time>
      </trkpt>
      <trkpt lat="50.65235" lon="5.16047">
        <ele>139.80000305176</ele>
        <time>2019-04-23T08:51:57.000Z</time>
      </trkpt>
      <trkpt lat="50.65256" lon="5.16029">
        <ele>139.19999694824</ele>
        <time>2019-04-23T08:51:59.000Z</time>
      </trkpt>
      <trkpt lat="50.65278" lon="5.16011">
        <ele>138.80000305176</ele>
        <time>2019-04-23T08:52:08.000Z</time>
      </trkpt>
      <trkpt lat="50.65314" lon="5.15977">
        <ele>138.39999389648</ele>
        <time>2019-04-23T08:52:17.000Z</time>
      </trkpt>
      <trkpt lat="50.65343" lon="5.15949">
        <ele>137.80000305176</ele>
        <time>2019-04-23T08:52:22.000Z</time>
      </trkpt>
      <trkpt lat="50.65365" lon="5.15928">
        <ele>137.19999694824</ele>
        <time>2019-04-23T08:52:24.000Z</time>
      </trkpt>
      <trkpt lat="50.65379" lon="5.15914">
        <ele>136.80000305176</ele>
        <time>2019-04-23T08:52:27.000Z</time>
      </trkpt>
      <trkpt lat="50.654" lon="5.15893">
        <ele>136.60000610352</ele>
        <time>2019-04-23T08:52:29.000Z</time>
      </trkpt>
      <trkpt lat="50.65422" lon="5.15872">
        <ele>136.19999694824</ele>
        <time>2019-04-23T08:52:32.000Z</time>
      </trkpt>
      <trkpt lat="50.65452" lon="5.15842">
        <ele>135.60000610352</ele>
        <time>2019-04-23T08:52:33.000Z</time>
      </trkpt>
      <trkpt lat="50.65481" lon="5.15811">
        <ele>135.19999694824</ele>
        <time>2019-04-23T08:52:39.000Z</time>
      </trkpt>
      <trkpt lat="50.65488" lon="5.15803">
        <ele>135.19999694824</ele>
        <time>2019-04-23T08:52:41.000Z</time>
      </trkpt>
      <trkpt lat="50.65502" lon="5.15787">
        <ele>134.80000305176</ele>
        <time>2019-04-23T08:52:43.000Z</time>
      </trkpt>
      <trkpt lat="50.65537" lon="5.15743">
        <ele>129.2</ele>
        <time>2019-04-23T08:52:46.000Z</time>
      </trkpt>
      <trkpt lat="50.65556" lon="5.15719">
        <ele>129</ele>
        <time>2019-04-23T08:52:48.000Z</time>
      </trkpt>
      <trkpt lat="50.65598" lon="5.1567">
        <ele>128.3</ele>
        <time>2019-04-23T08:52:53.000Z</time>
      </trkpt>
      <trkpt lat="50.6562" lon="5.15643">
        <ele>128.5</ele>
        <time>2019-04-23T08:52:54.000Z</time>
      </trkpt>
      <trkpt lat="50.6564" lon="5.15622">
        <ele>128.6</ele>
        <time>2019-04-23T08:52:57.000Z</time>
      </trkpt>
      <trkpt lat="50.65658" lon="5.156">
        <ele>128.7</ele>
        <time>2019-04-23T08:52:59.000Z</time>
      </trkpt>
      <trkpt lat="50.65671" lon="5.15589">
        <ele>131.80000305176</ele>
        <time>2019-04-23T08:53:02.000Z</time>
      </trkpt>
      <trkpt lat="50.65698" lon="5.15568">
        <ele>132</ele>
        <time>2019-04-23T08:53:07.000Z</time>
      </trkpt>
      <trkpt lat="50.65705" lon="5.15564">
        <ele>132</ele>
        <time>2019-04-23T08:53:11.000Z</time>
      </trkpt>
      <trkpt lat="50.65719" lon="5.15556">
        <ele>130.8</ele>
        <time>2019-04-23T08:53:15.000Z</time>
      </trkpt>
      <trkpt lat="50.65726" lon="5.15554">
        <ele>133</ele>
        <time>2019-04-23T08:53:17.000Z</time>
      </trkpt>
      <trkpt lat="50.65754" lon="5.15541">
        <ele>133.39999389648</ele>
        <time>2019-04-23T08:53:20.000Z</time>
      </trkpt>
      <trkpt lat="50.65775" lon="5.15531">
        <ele>133.80000305176</ele>
        <time>2019-04-23T08:53:22.000Z</time>
      </trkpt>
      <trkpt lat="50.6581" lon="5.15512">
        <ele>132.4</ele>
        <time>2019-04-23T08:53:25.000Z</time>
      </trkpt>
      <trkpt lat="50.65831" lon="5.15504">
        <ele>132.8</ele>
        <time>2019-04-23T08:53:29.000Z</time>
      </trkpt>
      <trkpt lat="50.6586" lon="5.155">
        <ele>135.39999389648</ele>
        <time>2019-04-23T08:53:31.000Z</time>
      </trkpt>
      <trkpt lat="50.65875" lon="5.15499">
        <ele>135.39999389648</ele>
        <time>2019-04-23T08:53:33.000Z</time>
      </trkpt>
      <trkpt lat="50.65936" lon="5.15494">
        <ele>135.39999389648</ele>
        <time>2019-04-23T08:53:45.000Z</time>
      </trkpt>
      <trkpt lat="50.65958" lon="5.15492">
        <ele>135.19999694824</ele>
        <time>2019-04-23T08:53:48.000Z</time>
      </trkpt>
      <trkpt lat="50.65996" lon="5.15488">
        <ele>134.39999389648</ele>
        <time>2019-04-23T08:54:00.000Z</time>
      </trkpt>
      <trkpt lat="50.66035" lon="5.15485">
        <ele>133.39999389648</ele>
        <time>2019-04-23T08:54:01.000Z</time>
      </trkpt>
      <trkpt lat="50.6605" lon="5.15485">
        <ele>133.19999694824</ele>
        <time>2019-04-23T08:54:03.000Z</time>
      </trkpt>
      <trkpt lat="50.66058" lon="5.15487">
        <ele>133.19999694824</ele>
        <time>2019-04-23T08:54:05.000Z</time>
      </trkpt>
      <trkpt lat="50.66066" lon="5.1549">
        <ele>133</ele>
        <time>2019-04-23T08:54:11.000Z</time>
      </trkpt>
      <trkpt lat="50.66085" lon="5.15509">
        <ele>132.60000610352</ele>
        <time>2019-04-23T08:54:12.000Z</time>
      </trkpt>
      <trkpt lat="50.66091" lon="5.15518">
        <ele>132.60000610352</ele>
        <time>2019-04-23T08:54:15.000Z</time>
      </trkpt>
      <trkpt lat="50.66112" lon="5.15549">
        <ele>132</ele>
        <time>2019-04-23T08:54:17.000Z</time>
      </trkpt>
      <trkpt lat="50.66116" lon="5.15556">
        <ele>132</ele>
        <time>2019-04-23T08:54:19.000Z</time>
      </trkpt>
      <trkpt lat="50.66124" lon="5.15568">
        <ele>130.5</ele>
        <time>2019-04-23T08:54:22.000Z</time>
      </trkpt>
      <trkpt lat="50.66129" lon="5.15575">
        <ele>130</ele>
        <time>2019-04-23T08:54:23.000Z</time>
      </trkpt>
      <trkpt lat="50.66136" lon="5.1557">
        <ele>130.3</ele>
        <time>2019-04-23T08:54:24.000Z</time>
      </trkpt>
      <trkpt lat="50.6615" lon="5.15557">
        <ele>130.1</ele>
        <time>2019-04-23T08:54:26.000Z</time>
      </trkpt>
      <trkpt lat="50.66163" lon="5.15542">
        <ele>131</ele>
        <time>2019-04-23T08:54:28.000Z</time>
      </trkpt>
      <trkpt lat="50.66172" lon="5.1553">
        <ele>130.80000305176</ele>
        <time>2019-04-23T08:54:29.000Z</time>
      </trkpt>
      <trkpt lat="50.66182" lon="5.1552">
        <ele>129.7</ele>
        <time>2019-04-23T08:54:31.000Z</time>
      </trkpt>
      <trkpt lat="50.66209" lon="5.1549">
        <ele>130.7</ele>
        <time>2019-04-23T08:54:32.000Z</time>
      </trkpt>
      <trkpt lat="50.66247" lon="5.1545">
        <ele>129.19999694824</ele>
        <time>2019-04-23T08:54:33.000Z</time>
      </trkpt>
      <trkpt lat="50.66251" lon="5.15446">
        <ele>129.19999694824</ele>
        <time>2019-04-23T08:54:35.000Z</time>
      </trkpt>
      <trkpt lat="50.66265" lon="5.15432">
        <ele>129.19999694824</ele>
        <time>2019-04-23T08:54:36.000Z</time>
      </trkpt>
      <trkpt lat="50.66278" lon="5.15416">
        <ele>131.4</ele>
        <time>2019-04-23T08:54:37.000Z</time>
      </trkpt>
      <trkpt lat="50.66274" lon="5.15395">
        <ele>131.6</ele>
        <time>2019-04-23T08:54:41.000Z</time>
      </trkpt>
      <trkpt lat="50.66269" lon="5.15372">
        <ele>131.9</ele>
        <time>2019-04-23T08:54:47.000Z</time>
      </trkpt>
      <trkpt lat="50.66265" lon="5.15358">
        <ele>129.39999389648</ele>
        <time>2019-04-23T08:54:50.000Z</time>
      </trkpt>
      <trkpt lat="50.6626" lon="5.15341">
        <ele>129.60000610352</ele>
        <time>2019-04-23T08:54:52.000Z</time>
      </trkpt>
      <trkpt lat="50.66255" lon="5.15326">
        <ele>129.80000305176</ele>
        <time>2019-04-23T08:54:54.000Z</time>
      </trkpt>
      <trkpt lat="50.66248" lon="5.15311">
        <ele>130.19999694824</ele>
        <time>2019-04-23T08:54:55.000Z</time>
      </trkpt>
      <trkpt lat="50.66234" lon="5.15291">
        <ele>130.80000305176</ele>
        <time>2019-04-23T08:54:57.000Z</time>
      </trkpt>
      <trkpt lat="50.6623" lon="5.15286">
        <ele>131</ele>
        <time>2019-04-23T08:54:58.000Z</time>
      </trkpt>
      <trkpt lat="50.66198" lon="5.15254">
        <ele>134</ele>
        <time>2019-04-23T08:54:59.000Z</time>
      </trkpt>
      <trkpt lat="50.66183" lon="5.1524">
        <ele>134</ele>
        <time>2019-04-23T08:55:00.000Z</time>
      </trkpt>
      <trkpt lat="50.66169" lon="5.15226">
        <ele>133.9</ele>
        <time>2019-04-23T08:55:01.000Z</time>
      </trkpt>
      <trkpt lat="50.66151" lon="5.15205">
        <ele>134.2</ele>
        <time>2019-04-23T08:55:03.000Z</time>
      </trkpt>
      <trkpt lat="50.66138" lon="5.15189">
        <ele>134</ele>
        <time>2019-04-23T08:55:04.000Z</time>
      </trkpt>
      <trkpt lat="50.66126" lon="5.15166">
        <ele>134.39999389648</ele>
        <time>2019-04-23T08:55:06.000Z</time>
      </trkpt>
      <trkpt lat="50.66096" lon="5.15109">
        <ele>134.9</ele>
        <time>2019-04-23T08:55:09.000Z</time>
      </trkpt>
      <trkpt lat="50.66085" lon="5.15089">
        <ele>135</ele>
        <time>2019-04-23T08:55:15.000Z</time>
      </trkpt>
      <trkpt lat="50.66054" lon="5.15029">
        <ele>135.80000305176</ele>
        <time>2019-04-23T08:55:20.000Z</time>
      </trkpt>
      <trkpt lat="50.66021" lon="5.14965">
        <ele>136.19999694824</ele>
        <time>2019-04-23T08:55:22.000Z</time>
      </trkpt>
      <trkpt lat="50.65986" lon="5.14893">
        <ele>136</ele>
        <time>2019-04-23T08:55:25.000Z</time>
      </trkpt>
      <trkpt lat="50.65966" lon="5.1485">
        <ele>135</ele>
        <time>2019-04-23T08:55:31.000Z</time>
      </trkpt>
      <trkpt lat="50.65952" lon="5.1482">
        <ele>134.39999389648</ele>
        <time>2019-04-23T08:55:37.000Z</time>
      </trkpt>
      <trkpt lat="50.65947" lon="5.1481">
        <ele>134.39999389648</ele>
        <time>2019-04-23T08:55:41.000Z</time>
      </trkpt>
      <trkpt lat="50.65928" lon="5.14768">
        <ele>133.60000610352</ele>
        <time>2019-04-23T08:55:42.000Z</time>
      </trkpt>
      <trkpt lat="50.65909" lon="5.14729">
        <ele>130.6</ele>
        <time>2019-04-23T08:55:45.000Z</time>
      </trkpt>
      <trkpt lat="50.65877" lon="5.14664">
        <ele>130.6</ele>
        <time>2019-04-23T08:55:46.000Z</time>
      </trkpt>
      <trkpt lat="50.65863" lon="5.14635">
        <ele>131</ele>
        <time>2019-04-23T08:55:47.000Z</time>
      </trkpt>
      <trkpt lat="50.65848" lon="5.14601">
        <ele>131</ele>
        <time>2019-04-23T08:55:49.000Z</time>
      </trkpt>
      <trkpt lat="50.65832" lon="5.14561">
        <ele>132.2</ele>
        <time>2019-04-23T08:55:50.000Z</time>
      </trkpt>
      <trkpt lat="50.65823" lon="5.14537">
        <ele>132.7</ele>
        <time>2019-04-23T08:55:51.000Z</time>
      </trkpt>
      <trkpt lat="50.65807" lon="5.14499">
        <ele>133.19999694824</ele>
        <time>2019-04-23T08:55:53.000Z</time>
      </trkpt>
      <trkpt lat="50.65793" lon="5.14459">
        <ele>134</ele>
        <time>2019-04-23T08:55:55.000Z</time>
      </trkpt>
      <trkpt lat="50.65785" lon="5.14427">
        <ele>134.39999389648</ele>
        <time>2019-04-23T08:55:56.000Z</time>
      </trkpt>
      <trkpt lat="50.65771" lon="5.14373">
        <ele>133.6</ele>
        <time>2019-04-23T08:55:57.000Z</time>
      </trkpt>
      <trkpt lat="50.65749" lon="5.14292">
        <ele>133.5</ele>
        <time>2019-04-23T08:55:59.000Z</time>
      </trkpt>
      <trkpt lat="50.65741" lon="5.14258">
        <ele>133.3</ele>
        <time>2019-04-23T08:56:01.000Z</time>
      </trkpt>
      <trkpt lat="50.65728" lon="5.14204">
        <ele>132.9</ele>
        <time>2019-04-23T08:56:02.000Z</time>
      </trkpt>
      <trkpt lat="50.65718" lon="5.14154">
        <ele>134</ele>
        <time>2019-04-23T08:56:03.000Z</time>
      </trkpt>
      <trkpt lat="50.65706" lon="5.14108">
        <ele>133.80000305176</ele>
        <time>2019-04-23T08:56:04.000Z</time>
      </trkpt>
      <trkpt lat="50.65687" lon="5.14035">
        <ele>133.1</ele>
        <time>2019-04-23T08:56:05.000Z</time>
      </trkpt>
      <trkpt lat="50.65681" lon="5.14014">
        <ele>133.3</ele>
        <time>2019-04-23T08:56:07.000Z</time>
      </trkpt>
      <trkpt lat="50.65661" lon="5.13955">
        <ele>132.7</ele>
        <time>2019-04-23T08:56:09.000Z</time>
      </trkpt>
      <trkpt lat="50.65628" lon="5.13878">
        <ele>132</ele>
        <time>2019-04-23T08:56:11.000Z</time>
      </trkpt>
      <trkpt lat="50.65618" lon="5.13856">
        <ele>132.1</ele>
        <time>2019-04-23T08:56:12.000Z</time>
      </trkpt>
      <trkpt lat="50.65591" lon="5.13796">
        <ele>132.5</ele>
        <time>2019-04-23T08:56:13.000Z</time>
      </trkpt>
      <trkpt lat="50.65585" lon="5.13772">
        <ele>132.80000305176</ele>
        <time>2019-04-23T08:56:15.000Z</time>
      </trkpt>
      <trkpt lat="50.6557" lon="5.13707">
        <ele>133.39999389648</ele>
        <time>2019-04-23T08:56:17.000Z</time>
      </trkpt>
      <trkpt lat="50.65567" lon="5.13696">
        <ele>133.19999694824</ele>
        <time>2019-04-23T08:56:18.000Z</time>
      </trkpt>
      <trkpt lat="50.65552" lon="5.13621">
        <ele>134.19999694824</ele>
        <time>2019-04-23T08:56:19.000Z</time>
      </trkpt>
      <trkpt lat="50.65544" lon="5.13588">
        <ele>135</ele>
        <time>2019-04-23T08:56:21.000Z</time>
      </trkpt>
      <trkpt lat="50.65539" lon="5.13564">
        <ele>135.19999694824</ele>
        <time>2019-04-23T08:56:23.000Z</time>
      </trkpt>
      <trkpt lat="50.65516" lon="5.13488">
        <ele>134.4</ele>
        <time>2019-04-23T08:56:25.000Z</time>
      </trkpt>
      <trkpt lat="50.65498" lon="5.13438">
        <ele>135</ele>
        <time>2019-04-23T08:56:26.000Z</time>
      </trkpt>
      <trkpt lat="50.65484" lon="5.13401">
        <ele>135</ele>
        <time>2019-04-23T08:56:27.000Z</time>
      </trkpt>
      <trkpt lat="50.65454" lon="5.13349">
        <ele>135</ele>
        <time>2019-04-23T08:56:30.000Z</time>
      </trkpt>
      <trkpt lat="50.65426" lon="5.1331">
        <ele>134.3</ele>
        <time>2019-04-23T08:56:31.000Z</time>
      </trkpt>
      <trkpt lat="50.65417" lon="5.1329">
        <ele>134</ele>
        <time>2019-04-23T08:56:36.000Z</time>
      </trkpt>
      <trkpt lat="50.65406" lon="5.13246">
        <ele>132.9</ele>
        <time>2019-04-23T08:56:38.000Z</time>
      </trkpt>
      <trkpt lat="50.65398" lon="5.13219">
        <ele>132.8</ele>
        <time>2019-04-23T08:56:39.000Z</time>
      </trkpt>
      <trkpt lat="50.65388" lon="5.13188">
        <ele>132.5</ele>
        <time>2019-04-23T08:56:41.000Z</time>
      </trkpt>
      <trkpt lat="50.65367" lon="5.13183">
        <ele>132.5</ele>
        <time>2019-04-23T08:56:48.000Z</time>
      </trkpt>
      <trkpt lat="50.65345" lon="5.13179">
        <ele>132.4</ele>
        <time>2019-04-23T08:56:50.000Z</time>
      </trkpt>
      <trkpt lat="50.65332" lon="5.13178">
        <ele>132.5</ele>
        <time>2019-04-23T08:56:52.000Z</time>
      </trkpt>
      <trkpt lat="50.65304" lon="5.13176">
        <ele>133</ele>
        <time>2019-04-23T08:56:53.000Z</time>
      </trkpt>
      <trkpt lat="50.65276" lon="5.13177">
        <ele>133.1</ele>
        <time>2019-04-23T08:56:54.000Z</time>
      </trkpt>
      <trkpt lat="50.65236" lon="5.13197">
        <ele>134.1</ele>
        <time>2019-04-23T08:56:56.000Z</time>
      </trkpt>
      <trkpt lat="50.65195" lon="5.13211">
        <ele>134.7</ele>
        <time>2019-04-23T08:56:58.000Z</time>
      </trkpt>
      <trkpt lat="50.65185" lon="5.13211">
        <ele>134.8</ele>
        <time>2019-04-23T08:56:59.000Z</time>
      </trkpt>
      <trkpt lat="50.65167" lon="5.13203">
        <ele>134.8</ele>
        <time>2019-04-23T08:57:01.000Z</time>
      </trkpt>
      <trkpt lat="50.65124" lon="5.13183">
        <ele>136</ele>
        <time>2019-04-23T08:57:02.000Z</time>
      </trkpt>
      <trkpt lat="50.65107" lon="5.13175">
        <ele>136</ele>
        <time>2019-04-23T08:57:03.000Z</time>
      </trkpt>
      <trkpt lat="50.65093" lon="5.13167">
        <ele>136.7</ele>
        <time>2019-04-23T08:57:04.000Z</time>
      </trkpt>
      <trkpt lat="50.65106" lon="5.1313">
        <ele>135.9</ele>
        <time>2019-04-23T08:57:05.000Z</time>
      </trkpt>
      <trkpt lat="50.65116" lon="5.13102">
        <ele>135.8</ele>
        <time>2019-04-23T08:57:06.000Z</time>
      </trkpt>
      <trkpt lat="50.65126" lon="5.13075">
        <ele>136</ele>
        <time>2019-04-23T08:57:09.000Z</time>
      </trkpt>
      <trkpt lat="50.65132" lon="5.13049">
        <ele>136.1</ele>
        <time>2019-04-23T08:57:10.000Z</time>
      </trkpt>
      <trkpt lat="50.65138" lon="5.13025">
        <ele>136.2</ele>
        <time>2019-04-23T08:57:12.000Z</time>
      </trkpt>
      <trkpt lat="50.65145" lon="5.12985">
        <ele>136.5</ele>
        <time>2019-04-23T08:57:15.000Z</time>
      </trkpt>
      <trkpt lat="50.65144" lon="5.12974">
        <ele>136.6</ele>
        <time>2019-04-23T08:57:19.000Z</time>
      </trkpt>
      <trkpt lat="50.65139" lon="5.12965">
        <ele>136.6</ele>
        <time>2019-04-23T08:57:22.000Z</time>
      </trkpt>
      <trkpt lat="50.65129" lon="5.12952">
        <ele>136.7</ele>
        <time>2019-04-23T08:57:25.000Z</time>
      </trkpt>
      <trkpt lat="50.65107" lon="5.12923">
        <ele>136.19999694824</ele>
        <time>2019-04-23T08:57:31.000Z</time>
      </trkpt>
      <trkpt lat="50.65077" lon="5.12883">
        <ele>138.4</ele>
        <time>2019-04-23T08:57:33.000Z</time>
      </trkpt>
      <trkpt lat="50.65053" lon="5.1285">
        <ele>138.8</ele>
        <time>2019-04-23T08:57:35.000Z</time>
      </trkpt>
      <trkpt lat="50.65037" lon="5.12831">
        <ele>139</ele>
        <time>2019-04-23T08:57:37.000Z</time>
      </trkpt>
      <trkpt lat="50.65013" lon="5.12805">
        <ele>139.4</ele>
        <time>2019-04-23T08:57:39.000Z</time>
      </trkpt>
      <trkpt lat="50.64974" lon="5.12763">
        <ele>140.3</ele>
        <time>2019-04-23T08:57:43.000Z</time>
      </trkpt>
      <trkpt lat="50.64941" lon="5.12728">
        <ele>139.5</ele>
        <time>2019-04-23T08:57:48.000Z</time>
      </trkpt>
      <trkpt lat="50.64931" lon="5.12715">
        <ele>139.5</ele>
        <time>2019-04-23T08:57:52.000Z</time>
      </trkpt>
      <trkpt lat="50.64915" lon="5.127">
        <ele>140.1</ele>
        <time>2019-04-23T08:57:53.000Z</time>
      </trkpt>
      <trkpt lat="50.64892" lon="5.12674">
        <ele>140.1</ele>
        <time>2019-04-23T08:57:54.000Z</time>
      </trkpt>
      <trkpt lat="50.64874" lon="5.12655">
        <ele>140</ele>
        <time>2019-04-23T08:57:56.000Z</time>
      </trkpt>
      <trkpt lat="50.64846" lon="5.12623">
        <ele>140</ele>
        <time>2019-04-23T08:57:59.000Z</time>
      </trkpt>
      <trkpt lat="50.64803" lon="5.12577">
        <ele>140.6</ele>
        <time>2019-04-23T08:58:03.000Z</time>
      </trkpt>
      <trkpt lat="50.64753" lon="5.12524">
        <ele>141.3</ele>
        <time>2019-04-23T08:58:05.000Z</time>
      </trkpt>
      <trkpt lat="50.64744" lon="5.12513">
        <ele>143.39999389648</ele>
        <time>2019-04-23T08:58:07.000Z</time>
      </trkpt>
      <trkpt lat="50.64697" lon="5.1247">
        <ele>144.19999694824</ele>
        <time>2019-04-23T08:58:09.000Z</time>
      </trkpt>
      <trkpt lat="50.64677" lon="5.12451">
        <ele>144.39999389648</ele>
        <time>2019-04-23T08:58:10.000Z</time>
      </trkpt>
      <trkpt lat="50.64623" lon="5.12401">
        <ele>145.19999694824</ele>
        <time>2019-04-23T08:58:15.000Z</time>
      </trkpt>
      <trkpt lat="50.64616" lon="5.12395">
        <ele>145.19999694824</ele>
        <time>2019-04-23T08:58:16.000Z</time>
      </trkpt>
      <trkpt lat="50.64596" lon="5.12377">
        <ele>145.60000610352</ele>
        <time>2019-04-23T08:58:17.000Z</time>
      </trkpt>
      <trkpt lat="50.64559" lon="5.12342">
        <ele>146.39999389648</ele>
        <time>2019-04-23T08:58:19.000Z</time>
      </trkpt>
      <trkpt lat="50.64546" lon="5.12331">
        <ele>146.60000610352</ele>
        <time>2019-04-23T08:58:27.000Z</time>
      </trkpt>
      <trkpt lat="50.64516" lon="5.12303">
        <ele>147.60000610352</ele>
        <time>2019-04-23T08:58:30.000Z</time>
      </trkpt>
      <trkpt lat="50.64491" lon="5.1228">
        <ele>148.60000610352</ele>
        <time>2019-04-23T08:58:31.000Z</time>
      </trkpt>
      <trkpt lat="50.64479" lon="5.12268">
        <ele>148.80000305176</ele>
        <time>2019-04-23T08:58:37.000Z</time>
      </trkpt>
      <trkpt lat="50.64436" lon="5.12229">
        <ele>149.80000305176</ele>
        <time>2019-04-23T08:58:42.000Z</time>
      </trkpt>
      <trkpt lat="50.64399" lon="5.12194">
        <ele>150.80000305176</ele>
        <time>2019-04-23T08:58:51.000Z</time>
      </trkpt>
      <trkpt lat="50.64368" lon="5.12166">
        <ele>152</ele>
        <time>2019-04-23T08:59:00.000Z</time>
      </trkpt>
      <trkpt lat="50.64336" lon="5.12136">
        <ele>153.19999694824</ele>
        <time>2019-04-23T08:59:14.000Z</time>
      </trkpt>
      <trkpt lat="50.64305" lon="5.12107">
        <ele>154</ele>
        <time>2019-04-23T08:59:16.000Z</time>
      </trkpt>
      <trkpt lat="50.64292" lon="5.12095">
        <ele>154.60000610352</ele>
        <time>2019-04-23T08:59:17.000Z</time>
      </trkpt>
      <trkpt lat="50.64239" lon="5.12046">
        <ele>155.39999389648</ele>
        <time>2019-04-23T08:59:18.000Z</time>
      </trkpt>
      <trkpt lat="50.64199" lon="5.12009">
        <ele>155.39999389648</ele>
        <time>2019-04-23T08:59:21.000Z</time>
      </trkpt>
      <trkpt lat="50.64172" lon="5.11984">
        <ele>155.19999694824</ele>
        <time>2019-04-23T08:59:25.000Z</time>
      </trkpt>
      <trkpt lat="50.64125" lon="5.11941">
        <ele>155.19999694824</ele>
        <time>2019-04-23T08:59:34.000Z</time>
      </trkpt>
      <trkpt lat="50.64091" lon="5.1191">
        <ele>155.60000610352</ele>
        <time>2019-04-23T08:59:38.000Z</time>
      </trkpt>
      <trkpt lat="50.64084" lon="5.11904">
        <ele>155.60000610352</ele>
        <time>2019-04-23T08:59:40.000Z</time>
      </trkpt>
      <trkpt lat="50.64036" lon="5.11859">
        <ele>156.60000610352</ele>
        <time>2019-04-23T08:59:41.000Z</time>
      </trkpt>
      <trkpt lat="50.64028" lon="5.11852">
        <ele>156.80000305176</ele>
        <time>2019-04-23T08:59:43.000Z</time>
      </trkpt>
      <trkpt lat="50.63981" lon="5.11807">
        <ele>157.80000305176</ele>
        <time>2019-04-23T08:59:45.000Z</time>
      </trkpt>
      <trkpt lat="50.63961" lon="5.11789">
        <ele>158</ele>
        <time>2019-04-23T08:59:46.000Z</time>
      </trkpt>
      <trkpt lat="50.63921" lon="5.11753">
        <ele>158.19999694824</ele>
        <time>2019-04-23T08:59:47.000Z</time>
      </trkpt>
      <trkpt lat="50.63915" lon="5.11747">
        <ele>158.19999694824</ele>
        <time>2019-04-23T08:59:48.000Z</time>
      </trkpt>
      <trkpt lat="50.63888" lon="5.11723">
        <ele>158.19999694824</ele>
        <time>2019-04-23T08:59:53.000Z</time>
      </trkpt>
      <trkpt lat="50.63875" lon="5.1171">
        <ele>158</ele>
        <time>2019-04-23T08:59:56.000Z</time>
      </trkpt>
      <trkpt lat="50.63856" lon="5.11692">
        <ele>157.80000305176</ele>
        <time>2019-04-23T08:59:59.000Z</time>
      </trkpt>
      <trkpt lat="50.63844" lon="5.11681">
        <ele>157.60000610352</ele>
        <time>2019-04-23T09:00:00.000Z</time>
      </trkpt>
      <trkpt lat="50.63833" lon="5.11671">
        <ele>157.80000305176</ele>
        <time>2019-04-23T09:00:06.000Z</time>
      </trkpt>
      <trkpt lat="50.63821" lon="5.11659">
        <ele>157.60000610352</ele>
        <time>2019-04-23T09:00:19.000Z</time>
      </trkpt>
      <trkpt lat="50.63816" lon="5.11654">
        <ele>157.39999389648</ele>
        <time>2019-04-23T09:00:40.000Z</time>
      </trkpt>
      <trkpt lat="50.63813" lon="5.11651">
        <ele>157.39999389648</ele>
        <time>2019-04-23T09:00:48.000Z</time>
      </trkpt>
      <trkpt lat="50.63801" lon="5.11644">
        <ele>157.39999389648</ele>
        <time>2019-04-23T09:00:49.000Z</time>
      </trkpt>
      <trkpt lat="50.63778" lon="5.11635">
        <ele>153.7</ele>
        <time>2019-04-23T09:00:57.000Z</time>
      </trkpt>
      <trkpt lat="50.63751" lon="5.11623">
        <ele>153.4</ele>
        <time>2019-04-23T09:01:04.000Z</time>
      </trkpt>
      <trkpt lat="50.63722" lon="5.11609">
        <ele>153.3</ele>
        <time>2019-04-23T09:01:38.000Z</time>
      </trkpt>
      <trkpt lat="50.63685" lon="5.11593">
        <ele>153.7</ele>
        <time>2019-04-23T09:01:39.000Z</time>
      </trkpt>
      <trkpt lat="50.63666" lon="5.11584">
        <ele>154</ele>
        <time>2019-04-23T09:01:46.000Z</time>
      </trkpt>
      <trkpt lat="50.63621" lon="5.11561">
        <ele>153.7</ele>
        <time>2019-04-23T09:06:20.000Z</time>
      </trkpt>
      <trkpt lat="50.63583" lon="5.1154">
        <ele>156.19999694824</ele>
        <time>2019-04-23T09:06:24.000Z</time>
      </trkpt>
      <trkpt lat="50.63559" lon="5.11529">
        <ele>156.19999694824</ele>
        <time>2019-04-23T09:06:32.000Z</time>
      </trkpt>
      <trkpt lat="50.63519" lon="5.11512">
        <ele>152.7</ele>
        <time>2019-04-23T09:07:55.000Z</time>
      </trkpt>
      <trkpt lat="50.63474" lon="5.11502">
        <ele>151.5</ele>
        <time>2019-04-23T09:08:14.000Z</time>
      </trkpt>
      <trkpt lat="50.63448" lon="5.115">
        <ele>155.19999694824</ele>
        <time>2019-04-23T09:08:15.000Z</time>
      </trkpt>
      <trkpt lat="50.6343" lon="5.11498">
        <ele>155</ele>
        <time>2019-04-23T09:08:16.000Z</time>
      </trkpt>
      <trkpt lat="50.63421" lon="5.11498">
        <ele>154.80000305176</ele>
        <time>2019-04-23T09:08:26.000Z</time>
      </trkpt>
      <trkpt lat="50.63385" lon="5.11496">
        <ele>154.19999694824</ele>
        <time>2019-04-23T09:08:30.000Z</time>
      </trkpt>
      <trkpt lat="50.63368" lon="5.11493">
        <ele>153.80000305176</ele>
        <time>2019-04-23T09:08:33.000Z</time>
      </trkpt>
      <trkpt lat="50.63359" lon="5.11492">
        <ele>153.60000610352</ele>
        <time>2019-04-23T09:08:34.000Z</time>
      </trkpt>
      <trkpt lat="50.6332" lon="5.1149">
        <ele>148</ele>
        <time>2019-04-23T09:08:44.000Z</time>
      </trkpt>
      <trkpt lat="50.63299" lon="5.11487">
        <ele>147.4</ele>
        <time>2019-04-23T09:08:57.000Z</time>
      </trkpt>
      <trkpt lat="50.63265" lon="5.11479">
        <ele>151.60000610352</ele>
        <time>2019-04-23T09:08:59.000Z</time>
      </trkpt>
      <trkpt lat="50.63257" lon="5.11476">
        <ele>151.39999389648</ele>
        <time>2019-04-23T09:09:05.000Z</time>
      </trkpt>
      <trkpt lat="50.63248" lon="5.11472">
        <ele>151.19999694824</ele>
        <time>2019-04-23T09:09:24.000Z</time>
      </trkpt>
      <trkpt lat="50.63223" lon="5.1146">
        <ele>150.60000610352</ele>
        <time>2019-04-23T09:09:41.000Z</time>
      </trkpt>
      <trkpt lat="50.63189" lon="5.11448">
        <ele>149.60000610352</ele>
        <time>2019-04-23T09:09:47.000Z</time>
      </trkpt>
      <trkpt lat="50.63133" lon="5.11428">
        <ele>148.39999389648</ele>
        <time>2019-04-23T09:09:49.000Z</time>
      </trkpt>
      <trkpt lat="50.63125" lon="5.11425">
        <ele>148.19999694824</ele>
        <time>2019-04-23T09:10:00.000Z</time>
      </trkpt>
      <trkpt lat="50.63073" lon="5.11407">
        <ele>147.19999694824</ele>
        <time>2019-04-23T09:10:05.000Z</time>
      </trkpt>
      <trkpt lat="50.63064" lon="5.11404">
        <ele>147.19999694824</ele>
        <time>2019-04-23T09:10:06.000Z</time>
      </trkpt>
      <trkpt lat="50.63036" lon="5.11395">
        <ele>146.19999694824</ele>
        <time>2019-04-23T09:10:21.000Z</time>
      </trkpt>
      <trkpt lat="50.63008" lon="5.11385">
        <ele>144.80000305176</ele>
        <time>2019-04-23T09:11:11.000Z</time>
      </trkpt>
      <trkpt lat="50.62999" lon="5.11383">
        <ele>144.39999389648</ele>
        <time>2019-04-23T09:11:13.000Z</time>
      </trkpt>
      <trkpt lat="50.6299" lon="5.11381">
        <ele>143.60000610352</ele>
        <time>2019-04-23T09:11:18.000Z</time>
      </trkpt>
      <trkpt lat="50.62976" lon="5.11377">
        <ele>142.19999694824</ele>
        <time>2019-04-23T09:11:39.000Z</time>
      </trkpt>
      <trkpt lat="50.6297" lon="5.11374">
        <ele>141.60000610352</ele>
        <time>2019-04-23T09:11:46.000Z</time>
      </trkpt>
      <trkpt lat="50.62952" lon="5.11368">
        <ele>132.6</ele>
        <time>2019-04-23T09:12:00.000Z</time>
      </trkpt>
      <trkpt lat="50.62957" lon="5.11343">
        <ele>132.5</ele>
        <time>2019-04-23T09:34:27.000Z</time>
      </trkpt>
      <trkpt lat="50.62961" lon="5.11325">
        <ele>130.8</ele>
        <time>2019-04-23T09:34:28.000Z</time>
      </trkpt>
      <trkpt lat="50.62966" lon="5.11303">
        <ele>130.6</ele>
        <time>2019-04-23T09:34:30.000Z</time>
      </trkpt>
      <trkpt lat="50.62971" lon="5.11284">
        <ele>130.5</ele>
        <time>2019-04-23T09:35:20.000Z</time>
      </trkpt>
      <trkpt lat="50.62976" lon="5.11265">
        <ele>130.4</ele>
        <time>2019-04-23T09:35:21.000Z</time>
      </trkpt>
      <trkpt lat="50.62982" lon="5.11247">
        <ele>129.3</ele>
        <time>2019-04-23T09:36:51.000Z</time>
      </trkpt>
      <trkpt lat="50.62996" lon="5.11218">
        <ele>128.7</ele>
        <time>2019-04-23T09:36:56.000Z</time>
      </trkpt>
      <trkpt lat="50.63024" lon="5.11169">
        <ele>129.7</ele>
        <time>2019-04-23T09:37:03.000Z</time>
      </trkpt>
      <trkpt lat="50.63035" lon="5.11151">
        <ele>128.3</ele>
        <time>2019-04-23T09:37:36.000Z</time>
      </trkpt>
      <trkpt lat="50.63043" lon="5.11139">
        <ele>128</ele>
        <time>2019-04-23T09:37:37.000Z</time>
      </trkpt>
      <trkpt lat="50.63048" lon="5.11123">
        <ele>128.1</ele>
        <time>2019-04-23T09:37:50.000Z</time>
      </trkpt>
      <trkpt lat="50.63054" lon="5.11108">
        <ele>128.1</ele>
        <time>2019-04-23T09:37:57.000Z</time>
      </trkpt>
      <trkpt lat="50.63059" lon="5.1108">
        <ele>127.2</ele>
        <time>2019-04-23T09:38:13.000Z</time>
      </trkpt>
      <trkpt lat="50.63062" lon="5.11064">
        <ele>127</ele>
        <time>2019-04-23T09:38:21.000Z</time>
      </trkpt>
      <trkpt lat="50.63062" lon="5.11047">
        <ele>127</ele>
        <time>2019-04-23T09:38:30.000Z</time>
      </trkpt>
      <trkpt lat="50.63059" lon="5.11031">
        <ele>126.7</ele>
        <time>2019-04-23T09:38:32.000Z</time>
      </trkpt>
      <trkpt lat="50.63054" lon="5.1101">
        <ele>127</ele>
        <time>2019-04-23T09:38:37.000Z</time>
      </trkpt>
      <trkpt lat="50.63051" lon="5.10985">
        <ele>127</ele>
        <time>2019-04-23T09:38:44.000Z</time>
      </trkpt>
      <trkpt lat="50.63048" lon="5.10971">
        <ele>127</ele>
        <time>2019-04-23T09:38:49.000Z</time>
      </trkpt>
      <trkpt lat="50.63047" lon="5.10951">
        <ele>127.3</ele>
        <time>2019-04-23T09:38:52.000Z</time>
      </trkpt>
      <trkpt lat="50.63051" lon="5.10925">
        <ele>128</ele>
        <time>2019-04-23T09:38:54.000Z</time>
      </trkpt>
      <trkpt lat="50.63055" lon="5.10904">
        <ele>128.2</ele>
        <time>2019-04-23T09:38:56.000Z</time>
      </trkpt>
      <trkpt lat="50.63061" lon="5.10867">
        <ele>127.8</ele>
        <time>2019-04-23T09:39:03.000Z</time>
      </trkpt>
      <trkpt lat="50.63067" lon="5.10814">
        <ele>126.8</ele>
        <time>2019-04-23T09:39:09.000Z</time>
      </trkpt>
      <trkpt lat="50.63078" lon="5.10732">
        <ele>124.8</ele>
        <time>2019-04-23T09:39:16.000Z</time>
      </trkpt>
      <trkpt lat="50.63084" lon="5.10706">
        <ele>127.4</ele>
        <time>2019-04-23T09:39:19.000Z</time>
      </trkpt>
      <trkpt lat="50.63093" lon="5.10676">
        <ele>124.5</ele>
        <time>2019-04-23T09:39:33.000Z</time>
      </trkpt>
      <trkpt lat="50.63101" lon="5.10655">
        <ele>122.4</ele>
        <time>2019-04-23T09:39:36.000Z</time>
      </trkpt>
      <trkpt lat="50.63118" lon="5.10623">
        <ele>122.7</ele>
        <time>2019-04-23T09:39:44.000Z</time>
      </trkpt>
      <trkpt lat="50.63149" lon="5.10575">
        <ele>124.40000152588</ele>
        <time>2019-04-23T09:39:46.000Z</time>
      </trkpt>
      <trkpt lat="50.6316" lon="5.10556">
        <ele>123.59999847412</ele>
        <time>2019-04-23T09:39:52.000Z</time>
      </trkpt>
      <trkpt lat="50.63172" lon="5.1054">
        <ele>123.40000152588</ele>
        <time>2019-04-23T09:39:59.000Z</time>
      </trkpt>
      <trkpt lat="50.63197" lon="5.10504">
        <ele>122.5</ele>
        <time>2019-04-23T09:40:07.000Z</time>
      </trkpt>
      <trkpt lat="50.63212" lon="5.10481">
        <ele>121.6</ele>
        <time>2019-04-23T09:40:11.000Z</time>
      </trkpt>
      <trkpt lat="50.63219" lon="5.10469">
        <ele>123</ele>
        <time>2019-04-23T09:40:18.000Z</time>
      </trkpt>
      <trkpt lat="50.63226" lon="5.10439">
        <ele>121</ele>
        <time>2019-04-23T09:40:37.000Z</time>
      </trkpt>
      <trkpt lat="50.63233" lon="5.10403">
        <ele>121</ele>
        <time>2019-04-23T09:41:10.000Z</time>
      </trkpt>
      <trkpt lat="50.6324" lon="5.10365">
        <ele>120.9</ele>
        <time>2019-04-23T09:41:14.000Z</time>
      </trkpt>
      <trkpt lat="50.63249" lon="5.10303">
        <ele>120.6</ele>
        <time>2019-04-23T09:41:47.000Z</time>
      </trkpt>
      <trkpt lat="50.63263" lon="5.10212">
        <ele>121</ele>
        <time>2019-04-23T09:43:19.000Z</time>
      </trkpt>
      <trkpt lat="50.63274" lon="5.10167">
        <ele>120.9</ele>
        <time>2019-04-23T09:45:14.000Z</time>
      </trkpt>
      <trkpt lat="50.63276" lon="5.10132">
        <ele>121.5</ele>
        <time>2019-04-23T09:45:30.000Z</time>
      </trkpt>
      <trkpt lat="50.6328" lon="5.10105">
        <ele>122</ele>
        <time>2019-04-23T09:49:33.000Z</time>
      </trkpt>
      <trkpt lat="50.63284" lon="5.10084">
        <ele>121.7</ele>
        <time>2019-04-23T09:57:39.000Z</time>
      </trkpt>
      <trkpt lat="50.63289" lon="5.10055">
        <ele>122</ele>
        <time>2019-04-23T10:02:58.000Z</time>
      </trkpt>
      <trkpt lat="50.63296" lon="5.10024">
        <ele>121.4</ele>
        <time>2019-04-23T10:02:59.000Z</time>
      </trkpt>
      <trkpt lat="50.63305" lon="5.09936">
        <ele>120.5</ele>
        <time>2019-04-23T10:03:21.000Z</time>
      </trkpt>
      <trkpt lat="50.63308" lon="5.09887">
        <ele>119.8</ele>
        <time>2019-04-23T10:03:27.000Z</time>
      </trkpt>
      <trkpt lat="50.63309" lon="5.09854">
        <ele>119.6</ele>
        <time>2019-04-23T10:03:34.000Z</time>
      </trkpt>
      <trkpt lat="50.63311" lon="5.09802">
        <ele>119.2</ele>
        <time>2019-04-23T10:03:35.000Z</time>
      </trkpt>
      <trkpt lat="50.63312" lon="5.09746">
        <ele>119.6</ele>
        <time>2019-04-23T10:03:42.000Z</time>
      </trkpt>
      <trkpt lat="50.63314" lon="5.09715">
        <ele>119.7</ele>
        <time>2019-04-23T10:03:43.000Z</time>
      </trkpt>
      <trkpt lat="50.63316" lon="5.09659">
        <ele>120.8</ele>
        <time>2019-04-23T10:04:00.000Z</time>
      </trkpt>
      <trkpt lat="50.63318" lon="5.09608">
        <ele>121.4</ele>
        <time>2019-04-23T10:04:04.000Z</time>
      </trkpt>
      <trkpt lat="50.63319" lon="5.09551">
        <ele>123.1</ele>
        <time>2019-04-23T10:04:11.000Z</time>
      </trkpt>
      <trkpt lat="50.63322" lon="5.0951">
        <ele>124.5</ele>
        <time>2019-04-23T10:04:14.000Z</time>
      </trkpt>
      <trkpt lat="50.63324" lon="5.09464">
        <ele>124.7</ele>
        <time>2019-04-23T10:04:21.000Z</time>
      </trkpt>
      <trkpt lat="50.63326" lon="5.09422">
        <ele>125.4</ele>
        <time>2019-04-23T10:04:24.000Z</time>
      </trkpt>
      <trkpt lat="50.63327" lon="5.09394">
        <ele>126.80000305176</ele>
        <time>2019-04-23T10:04:31.000Z</time>
      </trkpt>
      <trkpt lat="50.63324" lon="5.09372">
        <ele>127</ele>
        <time>2019-04-23T10:04:34.000Z</time>
      </trkpt>
      <trkpt lat="50.63317" lon="5.09333">
        <ele>127.9</ele>
        <time>2019-04-23T10:06:25.000Z</time>
      </trkpt>
      <trkpt lat="50.63314" lon="5.09323">
        <ele>128</ele>
        <time>2019-04-23T10:06:31.000Z</time>
      </trkpt>
      <trkpt lat="50.63317" lon="5.09319">
        <ele>127.8</ele>
        <time>2019-04-23T10:06:33.000Z</time>
      </trkpt>
      <trkpt lat="50.63326" lon="5.0929">
        <ele>128.19999694824</ele>
        <time>2019-04-23T10:07:50.000Z</time>
      </trkpt>
      <trkpt lat="50.63329" lon="5.0928">
        <ele>128.39999389648</ele>
        <time>2019-04-23T10:10:39.000Z</time>
      </trkpt>
      <trkpt lat="50.6334" lon="5.09244">
        <ele>132.1</ele>
        <time>2019-04-23T10:10:41.000Z</time>
      </trkpt>
      <trkpt lat="50.63351" lon="5.09216">
        <ele>130.39999389648</ele>
        <time>2019-04-23T10:10:48.000Z</time>
      </trkpt>
      <trkpt lat="50.63353" lon="5.09208">
        <ele>130.60000610352</ele>
        <time>2019-04-23T10:10:50.000Z</time>
      </trkpt>
      <trkpt lat="50.63355" lon="5.09195">
        <ele>134</ele>
        <time>2019-04-23T10:12:44.000Z</time>
      </trkpt>
      <trkpt lat="50.63352" lon="5.09179">
        <ele>131.19999694824</ele>
        <time>2019-04-23T10:12:47.000Z</time>
      </trkpt>
      <trkpt lat="50.63349" lon="5.0917">
        <ele>131.60000610352</ele>
        <time>2019-04-23T10:12:54.000Z</time>
      </trkpt>
      <trkpt lat="50.63347" lon="5.09161">
        <ele>132</ele>
        <time>2019-04-23T10:13:00.000Z</time>
      </trkpt>
      <trkpt lat="50.63335" lon="5.09122">
        <ele>132.80000305176</ele>
        <time>2019-04-23T10:13:02.000Z</time>
      </trkpt>
      <trkpt lat="50.63329" lon="5.09103">
        <ele>134</ele>
        <time>2019-04-23T10:13:09.000Z</time>
      </trkpt>
      <trkpt lat="50.63321" lon="5.09074">
        <ele>135</ele>
        <time>2019-04-23T10:13:10.000Z</time>
      </trkpt>
      <trkpt lat="50.63315" lon="5.09057">
        <ele>133.2</ele>
        <time>2019-04-23T10:13:17.000Z</time>
      </trkpt>
      <trkpt lat="50.6331" lon="5.09028">
        <ele>133.9</ele>
        <time>2019-04-23T10:13:19.000Z</time>
      </trkpt>
      <trkpt lat="50.63305" lon="5.08987">
        <ele>137.39999389648</ele>
        <time>2019-04-23T10:13:26.000Z</time>
      </trkpt>
      <trkpt lat="50.63297" lon="5.08929">
        <ele>138.80000305176</ele>
        <time>2019-04-23T10:13:27.000Z</time>
      </trkpt>
      <trkpt lat="50.63296" lon="5.0892">
        <ele>139.19999694824</ele>
        <time>2019-04-23T10:13:34.000Z</time>
      </trkpt>
      <trkpt lat="50.63292" lon="5.08874">
        <ele>140</ele>
        <time>2019-04-23T10:13:36.000Z</time>
      </trkpt>
      <trkpt lat="50.63291" lon="5.08854">
        <ele>140.19999694824</ele>
        <time>2019-04-23T10:13:43.000Z</time>
      </trkpt>
      <trkpt lat="50.63289" lon="5.08813">
        <ele>140.8</ele>
        <time>2019-04-23T10:13:45.000Z</time>
      </trkpt>
      <trkpt lat="50.63288" lon="5.0879">
        <ele>141.60000610352</ele>
        <time>2019-04-23T10:13:52.000Z</time>
      </trkpt>
      <trkpt lat="50.63285" lon="5.08755">
        <ele>141.5</ele>
        <time>2019-04-23T10:13:57.000Z</time>
      </trkpt>
      <trkpt lat="50.63282" lon="5.08726">
        <ele>143.7</ele>
        <time>2019-04-23T10:14:01.000Z</time>
      </trkpt>
      <trkpt lat="50.63287" lon="5.08715">
        <ele>144.2</ele>
        <time>2019-04-23T10:14:04.000Z</time>
      </trkpt>
      <trkpt lat="50.63297" lon="5.08689">
        <ele>143</ele>
        <time>2019-04-23T10:14:06.000Z</time>
      </trkpt>
      <trkpt lat="50.633" lon="5.0868">
        <ele>143.19999694824</ele>
        <time>2019-04-23T10:14:09.000Z</time>
      </trkpt>
      <trkpt lat="50.63304" lon="5.0867">
        <ele>143.39999389648</ele>
        <time>2019-04-23T10:14:14.000Z</time>
      </trkpt>
      <trkpt lat="50.63325" lon="5.0861">
        <ele>144.39999389648</ele>
        <time>2019-04-23T10:14:22.000Z</time>
      </trkpt>
      <trkpt lat="50.63329" lon="5.086">
        <ele>144.39999389648</ele>
        <time>2019-04-23T10:14:50.000Z</time>
      </trkpt>
      <trkpt lat="50.63335" lon="5.08577">
        <ele>144.8</ele>
        <time>2019-04-23T10:14:57.000Z</time>
      </trkpt>
      <trkpt lat="50.63336" lon="5.08545">
        <ele>143.7</ele>
        <time>2019-04-23T10:14:59.000Z</time>
      </trkpt>
      <trkpt lat="50.63344" lon="5.08459">
        <ele>142</ele>
        <time>2019-04-23T10:15:06.000Z</time>
      </trkpt>
      <trkpt lat="50.63346" lon="5.08421">
        <ele>142.2</ele>
        <time>2019-04-23T10:15:07.000Z</time>
      </trkpt>
      <trkpt lat="50.63351" lon="5.08373">
        <ele>143.1</ele>
        <time>2019-04-23T10:15:10.000Z</time>
      </trkpt>
      <trkpt lat="50.63354" lon="5.08296">
        <ele>142.9</ele>
        <time>2019-04-23T10:15:20.000Z</time>
      </trkpt>
      <trkpt lat="50.63358" lon="5.08262">
        <ele>144.80000305176</ele>
        <time>2019-04-23T10:15:21.000Z</time>
      </trkpt>
      <trkpt lat="50.63358" lon="5.08261">
        <ele>144.80000305176</ele>
        <time>2019-04-23T10:15:24.000Z</time>
      </trkpt>
      <trkpt lat="50.63358" lon="5.0826">
        <ele>145</ele>
        <time>2019-04-23T10:15:27.000Z</time>
      </trkpt>
      <trkpt lat="50.63359" lon="5.08231">
        <ele>141.8</ele>
        <time>2019-04-23T10:15:28.000Z</time>
      </trkpt>
      <trkpt lat="50.63363" lon="5.08189">
        <ele>141.4</ele>
        <time>2019-04-23T10:15:34.000Z</time>
      </trkpt>
      <trkpt lat="50.63366" lon="5.0816">
        <ele>140.2</ele>
        <time>2019-04-23T10:15:41.000Z</time>
      </trkpt>
      <trkpt lat="50.63369" lon="5.08122">
        <ele>139.9</ele>
        <time>2019-04-23T10:15:46.000Z</time>
      </trkpt>
      <trkpt lat="50.63373" lon="5.08097">
        <ele>139.7</ele>
        <time>2019-04-23T10:15:53.000Z</time>
      </trkpt>
      <trkpt lat="50.63375" lon="5.08077">
        <ele>138.2</ele>
        <time>2019-04-23T10:16:00.000Z</time>
      </trkpt>
      <trkpt lat="50.63384" lon="5.08046">
        <ele>137.9</ele>
        <time>2019-04-23T10:16:03.000Z</time>
      </trkpt>
      <trkpt lat="50.63394" lon="5.0802">
        <ele>137.5</ele>
        <time>2019-04-23T10:16:04.000Z</time>
      </trkpt>
      <trkpt lat="50.63404" lon="5.08007">
        <ele>137.3</ele>
        <time>2019-04-23T10:16:07.000Z</time>
      </trkpt>
      <trkpt lat="50.63413" lon="5.07991">
        <ele>136.9</ele>
        <time>2019-04-23T10:16:08.000Z</time>
      </trkpt>
      <trkpt lat="50.6342" lon="5.07977">
        <ele>140</ele>
        <time>2019-04-23T10:16:17.000Z</time>
      </trkpt>
      <trkpt lat="50.63424" lon="5.07957">
        <ele>139.60000610352</ele>
        <time>2019-04-23T10:16:22.000Z</time>
      </trkpt>
      <trkpt lat="50.63425" lon="5.07937">
        <ele>139.19999694824</ele>
        <time>2019-04-23T10:16:25.000Z</time>
      </trkpt>
      <trkpt lat="50.63426" lon="5.07909">
        <ele>139</ele>
        <time>2019-04-23T10:16:26.000Z</time>
      </trkpt>
      <trkpt lat="50.63427" lon="5.0788">
        <ele>140.1</ele>
        <time>2019-04-23T10:17:31.000Z</time>
      </trkpt>
      <trkpt lat="50.63427" lon="5.07849">
        <ele>140.7</ele>
        <time>2019-04-23T10:17:32.000Z</time>
      </trkpt>
      <trkpt lat="50.63427" lon="5.07812">
        <ele>142</ele>
        <time>2019-04-23T10:17:33.000Z</time>
      </trkpt>
      <trkpt lat="50.63428" lon="5.07774">
        <ele>142</ele>
        <time>2019-04-23T10:18:02.000Z</time>
      </trkpt>
      <trkpt lat="50.63429" lon="5.0775">
        <ele>142.2</ele>
        <time>2019-04-23T10:18:03.000Z</time>
      </trkpt>
      <trkpt lat="50.6343" lon="5.07734">
        <ele>142</ele>
        <time>2019-04-23T10:18:15.000Z</time>
      </trkpt>
      <trkpt lat="50.63429" lon="5.07716">
        <ele>142.3</ele>
        <time>2019-04-23T10:18:35.000Z</time>
      </trkpt>
      <trkpt lat="50.63426" lon="5.07697">
        <ele>142.3</ele>
        <time>2019-04-23T10:18:38.000Z</time>
      </trkpt>
      <trkpt lat="50.63424" lon="5.07664">
        <ele>142.3</ele>
        <time>2019-04-23T10:18:46.000Z</time>
      </trkpt>
      <trkpt lat="50.63421" lon="5.07629">
        <ele>142.8</ele>
        <time>2019-04-23T10:18:53.000Z</time>
      </trkpt>
      <trkpt lat="50.63417" lon="5.07603">
        <ele>143</ele>
        <time>2019-04-23T10:18:54.000Z</time>
      </trkpt>
      <trkpt lat="50.63406" lon="5.07544">
        <ele>141.1</ele>
        <time>2019-04-23T10:19:01.000Z</time>
      </trkpt>
      <trkpt lat="50.63394" lon="5.07487">
        <ele>142</ele>
        <time>2019-04-23T10:19:07.000Z</time>
      </trkpt>
      <trkpt lat="50.63386" lon="5.07459">
        <ele>141.7</ele>
        <time>2019-04-23T10:19:09.000Z</time>
      </trkpt>
      <trkpt lat="50.63379" lon="5.0742">
        <ele>141.6</ele>
        <time>2019-04-23T10:19:15.000Z</time>
      </trkpt>
      <trkpt lat="50.6337" lon="5.07402">
        <ele>141.7</ele>
        <time>2019-04-23T10:19:19.000Z</time>
      </trkpt>
      <trkpt lat="50.63348" lon="5.0739">
        <ele>141.4</ele>
        <time>2019-04-23T10:19:25.000Z</time>
      </trkpt>
      <trkpt lat="50.63332" lon="5.07377">
        <ele>138</ele>
        <time>2019-04-23T10:19:32.000Z</time>
      </trkpt>
      <trkpt lat="50.63314" lon="5.07361">
        <ele>137.7</ele>
        <time>2019-04-23T10:19:40.000Z</time>
      </trkpt>
      <trkpt lat="50.63295" lon="5.07343">
        <ele>137</ele>
        <time>2019-04-23T10:19:41.000Z</time>
      </trkpt>
      <trkpt lat="50.63277" lon="5.07333">
        <ele>135.6</ele>
        <time>2019-04-23T10:19:47.000Z</time>
      </trkpt>
      <trkpt lat="50.63254" lon="5.07319">
        <ele>135</ele>
        <time>2019-04-23T10:19:54.000Z</time>
      </trkpt>
      <trkpt lat="50.63239" lon="5.07302">
        <ele>131</ele>
        <time>2019-04-23T10:20:06.000Z</time>
      </trkpt>
      <trkpt lat="50.63229" lon="5.0729">
        <ele>130.8</ele>
        <time>2019-04-23T10:20:09.000Z</time>
      </trkpt>
      <trkpt lat="50.63219" lon="5.07271">
        <ele>130.6</ele>
        <time>2019-04-23T10:20:15.000Z</time>
      </trkpt>
      <trkpt lat="50.63211" lon="5.07246">
        <ele>131.2</ele>
        <time>2019-04-23T10:20:32.000Z</time>
      </trkpt>
      <trkpt lat="50.63205" lon="5.07225">
        <ele>130.9</ele>
        <time>2019-04-23T10:20:43.000Z</time>
      </trkpt>
      <trkpt lat="50.63196" lon="5.07203">
        <ele>130.6</ele>
        <time>2019-04-23T10:20:47.000Z</time>
      </trkpt>
      <trkpt lat="50.6319" lon="5.07179">
        <ele>130</ele>
        <time>2019-04-23T10:20:50.000Z</time>
      </trkpt>
      <trkpt lat="50.63183" lon="5.07151">
        <ele>133.60000610352</ele>
        <time>2019-04-23T10:21:03.000Z</time>
      </trkpt>
      <trkpt lat="50.63171" lon="5.07113">
        <ele>131.5</ele>
        <time>2019-04-23T10:21:05.000Z</time>
      </trkpt>
      <trkpt lat="50.63165" lon="5.07095">
        <ele>128.5</ele>
        <time>2019-04-23T10:21:52.000Z</time>
      </trkpt>
      <trkpt lat="50.63159" lon="5.07079">
        <ele>129.6</ele>
        <time>2019-04-23T10:21:54.000Z</time>
      </trkpt>
      <trkpt lat="50.63145" lon="5.07036">
        <ele>129.6</ele>
        <time>2019-04-23T10:22:01.000Z</time>
      </trkpt>
      <trkpt lat="50.63138" lon="5.07008">
        <ele>130.1</ele>
        <time>2019-04-23T10:22:05.000Z</time>
      </trkpt>
      <trkpt lat="50.6313" lon="5.06986">
        <ele>131</ele>
        <time>2019-04-23T10:22:12.000Z</time>
      </trkpt>
      <trkpt lat="50.63122" lon="5.06967">
        <ele>131.2</ele>
        <time>2019-04-23T10:22:15.000Z</time>
      </trkpt>
      <trkpt lat="50.63115" lon="5.06954">
        <ele>131</ele>
        <time>2019-04-23T10:22:22.000Z</time>
      </trkpt>
      <trkpt lat="50.63105" lon="5.06937">
        <ele>130.5</ele>
        <time>2019-04-23T10:22:29.000Z</time>
      </trkpt>
      <trkpt lat="50.63083" lon="5.06907">
        <ele>127.8</ele>
        <time>2019-04-23T10:22:30.000Z</time>
      </trkpt>
      <trkpt lat="50.63068" lon="5.06905">
        <ele>127.6</ele>
        <time>2019-04-23T10:22:37.000Z</time>
      </trkpt>
      <trkpt lat="50.63062" lon="5.06901">
        <ele>127</ele>
        <time>2019-04-23T10:22:44.000Z</time>
      </trkpt>
      <trkpt lat="50.63053" lon="5.0689">
        <ele>127.3</ele>
        <time>2019-04-23T10:22:45.000Z</time>
      </trkpt>
      <trkpt lat="50.63041" lon="5.06872">
        <ele>127.3</ele>
        <time>2019-04-23T10:22:52.000Z</time>
      </trkpt>
      <trkpt lat="50.63021" lon="5.06844">
        <ele>126.9</ele>
        <time>2019-04-23T10:22:54.000Z</time>
      </trkpt>
      <trkpt lat="50.63005" lon="5.06811">
        <ele>128.6</ele>
        <time>2019-04-23T10:22:59.000Z</time>
      </trkpt>
      <trkpt lat="50.63001" lon="5.06796">
        <ele>129</ele>
        <time>2019-04-23T10:23:05.000Z</time>
      </trkpt>
      <trkpt lat="50.62997" lon="5.06775">
        <ele>127.2</ele>
        <time>2019-04-23T10:23:11.000Z</time>
      </trkpt>
      <trkpt lat="50.62996" lon="5.06744">
        <ele>129.6</ele>
        <time>2019-04-23T10:23:18.000Z</time>
      </trkpt>
      <trkpt lat="50.62995" lon="5.06723">
        <ele>129.2</ele>
        <time>2019-04-23T10:23:25.000Z</time>
      </trkpt>
      <trkpt lat="50.62991" lon="5.06688">
        <ele>130.2</ele>
        <time>2019-04-23T10:24:07.000Z</time>
      </trkpt>
      <trkpt lat="50.62989" lon="5.06665">
        <ele>129.19999694824</ele>
        <time>2019-04-23T10:24:14.000Z</time>
      </trkpt>
      <trkpt lat="50.62982" lon="5.0663">
        <ele>130.9</ele>
        <time>2019-04-23T10:24:35.000Z</time>
      </trkpt>
      <trkpt lat="50.62977" lon="5.06605">
        <ele>131.1</ele>
        <time>2019-04-23T10:24:42.000Z</time>
      </trkpt>
      <trkpt lat="50.62966" lon="5.06561">
        <ele>132.80000305176</ele>
        <time>2019-04-23T10:24:48.000Z</time>
      </trkpt>
      <trkpt lat="50.62963" lon="5.06541">
        <ele>133.60000610352</ele>
        <time>2019-04-23T10:24:49.000Z</time>
      </trkpt>
      <trkpt lat="50.62961" lon="5.0653">
        <ele>134.19999694824</ele>
        <time>2019-04-23T10:24:53.000Z</time>
      </trkpt>
      <trkpt lat="50.62959" lon="5.06509">
        <ele>133</ele>
        <time>2019-04-23T10:25:14.000Z</time>
      </trkpt>
      <trkpt lat="50.6296" lon="5.06487">
        <ele>135.19999694824</ele>
        <time>2019-04-23T10:25:16.000Z</time>
      </trkpt>
      <trkpt lat="50.62962" lon="5.0646">
        <ele>136</ele>
        <time>2019-04-23T10:25:23.000Z</time>
      </trkpt>
      <trkpt lat="50.62965" lon="5.06438">
        <ele>136.3</ele>
        <time>2019-04-23T10:25:24.000Z</time>
      </trkpt>
      <trkpt lat="50.62974" lon="5.06393">
        <ele>137.7</ele>
        <time>2019-04-23T10:25:43.000Z</time>
      </trkpt>
      <trkpt lat="50.62982" lon="5.06365">
        <ele>137.7</ele>
        <time>2019-04-23T10:25:44.000Z</time>
      </trkpt>
      <trkpt lat="50.6299" lon="5.0634">
        <ele>138.3</ele>
        <time>2019-04-23T10:25:51.000Z</time>
      </trkpt>
      <trkpt lat="50.63001" lon="5.06308">
        <ele>139.5</ele>
        <time>2019-04-23T10:25:54.000Z</time>
      </trkpt>
      <trkpt lat="50.6301" lon="5.06286">
        <ele>139.7</ele>
        <time>2019-04-23T10:26:01.000Z</time>
      </trkpt>
      <trkpt lat="50.63016" lon="5.06268">
        <ele>139.8</ele>
        <time>2019-04-23T10:26:02.000Z</time>
      </trkpt>
      <trkpt lat="50.63036" lon="5.06222">
        <ele>139.6</ele>
        <time>2019-04-23T10:26:09.000Z</time>
      </trkpt>
      <trkpt lat="50.6305" lon="5.06199">
        <ele>139.5</ele>
        <time>2019-04-23T10:26:10.000Z</time>
      </trkpt>
      <trkpt lat="50.63072" lon="5.06168">
        <ele>139.8</ele>
        <time>2019-04-23T10:26:17.000Z</time>
      </trkpt>
      <trkpt lat="50.63106" lon="5.0612">
        <ele>140.8</ele>
        <time>2019-04-23T10:26:23.000Z</time>
      </trkpt>
      <trkpt lat="50.63118" lon="5.06105">
        <ele>140.9</ele>
        <time>2019-04-23T10:26:24.000Z</time>
      </trkpt>
      <trkpt lat="50.63116" lon="5.06077">
        <ele>140.2</ele>
        <time>2019-04-23T10:26:30.000Z</time>
      </trkpt>
      <trkpt lat="50.63111" lon="5.06025">
        <ele>139.4</ele>
        <time>2019-04-23T10:26:32.000Z</time>
      </trkpt>
      <trkpt lat="50.63101" lon="5.05944">
        <ele>139.2</ele>
        <time>2019-04-23T10:26:39.000Z</time>
      </trkpt>
      <trkpt lat="50.6309" lon="5.05864">
        <ele>139.5</ele>
        <time>2019-04-23T10:26:40.000Z</time>
      </trkpt>
      <trkpt lat="50.63082" lon="5.05796">
        <ele>136.7</ele>
        <time>2019-04-23T10:26:45.000Z</time>
      </trkpt>
      <trkpt lat="50.63077" lon="5.05755">
        <ele>137.9</ele>
        <time>2019-04-23T10:26:48.000Z</time>
      </trkpt>
      <trkpt lat="50.63075" lon="5.05723">
        <ele>142.19999694824</ele>
        <time>2019-04-23T10:26:51.000Z</time>
      </trkpt>
      <trkpt lat="50.63073" lon="5.05693">
        <ele>141.80000305176</ele>
        <time>2019-04-23T10:26:55.000Z</time>
      </trkpt>
      <trkpt lat="50.63072" lon="5.05664">
        <ele>141.39999389648</ele>
        <time>2019-04-23T10:26:58.000Z</time>
      </trkpt>
      <trkpt lat="50.63071" lon="5.05635">
        <ele>141</ele>
        <time>2019-04-23T10:27:00.000Z</time>
      </trkpt>
      <trkpt lat="50.6307" lon="5.05589">
        <ele>140</ele>
        <time>2019-04-23T10:27:05.000Z</time>
      </trkpt>
      <trkpt lat="50.6307" lon="5.05532">
        <ele>129.8</ele>
        <time>2019-04-23T10:27:12.000Z</time>
      </trkpt>
      <trkpt lat="50.63068" lon="5.05487">
        <ele>129.6</ele>
        <time>2019-04-23T10:27:15.000Z</time>
      </trkpt>
      <trkpt lat="50.63067" lon="5.05454">
        <ele>137.19999694824</ele>
        <time>2019-04-23T10:27:17.000Z</time>
      </trkpt>
      <trkpt lat="50.63065" lon="5.05379">
        <ele>126.3</ele>
        <time>2019-04-23T10:27:20.000Z</time>
      </trkpt>
      <trkpt lat="50.6306" lon="5.05334">
        <ele>135.19999694824</ele>
        <time>2019-04-23T10:27:33.000Z</time>
      </trkpt>
      <trkpt lat="50.63058" lon="5.05315">
        <ele>134.60000610352</ele>
        <time>2019-04-23T10:27:34.000Z</time>
      </trkpt>
      <trkpt lat="50.63054" lon="5.05277">
        <ele>123.8</ele>
        <time>2019-04-23T10:27:44.000Z</time>
      </trkpt>
      <trkpt lat="50.6305" lon="5.05237">
        <ele>123.4</ele>
        <time>2019-04-23T10:27:51.000Z</time>
      </trkpt>
      <trkpt lat="50.63047" lon="5.05197">
        <ele>123.2</ele>
        <time>2019-04-23T10:27:54.000Z</time>
      </trkpt>
      <trkpt lat="50.63047" lon="5.05163">
        <ele>122.7</ele>
        <time>2019-04-23T10:29:19.000Z</time>
      </trkpt>
      <trkpt lat="50.63046" lon="5.05127">
        <ele>122.5</ele>
        <time>2019-04-23T10:29:25.000Z</time>
      </trkpt>
      <trkpt lat="50.63046" lon="5.05066">
        <ele>127</ele>
        <time>2019-04-23T10:29:26.000Z</time>
      </trkpt>
      <trkpt lat="50.63043" lon="5.04987">
        <ele>126.80000305176</ele>
        <time>2019-04-23T10:29:29.000Z</time>
      </trkpt>
      <trkpt lat="50.63041" lon="5.04907">
        <ele>126</ele>
        <time>2019-04-23T10:29:32.000Z</time>
      </trkpt>
      <trkpt lat="50.63038" lon="5.04823">
        <ele>126.80000305176</ele>
        <time>2019-04-23T10:29:34.000Z</time>
      </trkpt>
      <trkpt lat="50.63037" lon="5.0478">
        <ele>126.80000305176</ele>
        <time>2019-04-23T10:29:36.000Z</time>
      </trkpt>
      <trkpt lat="50.63038" lon="5.04739">
        <ele>127.5</ele>
        <time>2019-04-23T10:29:38.000Z</time>
      </trkpt>
      <trkpt lat="50.63037" lon="5.04723">
        <ele>127.6</ele>
        <time>2019-04-23T10:29:40.000Z</time>
      </trkpt>
      <trkpt lat="50.63039" lon="5.04683">
        <ele>128</ele>
        <time>2019-04-23T10:29:42.000Z</time>
      </trkpt>
      <trkpt lat="50.63044" lon="5.04643">
        <ele>128.1</ele>
        <time>2019-04-23T10:29:45.000Z</time>
      </trkpt>
      <trkpt lat="50.63047" lon="5.0463">
        <ele>127.59999847412</ele>
        <time>2019-04-23T10:29:46.000Z</time>
      </trkpt>
      <trkpt lat="50.63046" lon="5.04591">
        <ele>128.1</ele>
        <time>2019-04-23T10:29:53.000Z</time>
      </trkpt>
      <trkpt lat="50.63044" lon="5.04567">
        <ele>129</ele>
        <time>2019-04-23T10:30:01.000Z</time>
      </trkpt>
      <trkpt lat="50.63042" lon="5.0454">
        <ele>129.3</ele>
        <time>2019-04-23T10:30:02.000Z</time>
      </trkpt>
      <trkpt lat="50.63038" lon="5.04507">
        <ele>129.6</ele>
        <time>2019-04-23T10:30:10.000Z</time>
      </trkpt>
      <trkpt lat="50.63029" lon="5.04475">
        <ele>131.4</ele>
        <time>2019-04-23T10:30:58.000Z</time>
      </trkpt>
      <trkpt lat="50.6302" lon="5.04448">
        <ele>131.9</ele>
        <time>2019-04-23T10:31:06.000Z</time>
      </trkpt>
      <trkpt lat="50.63011" lon="5.04409">
        <ele>133.1</ele>
        <time>2019-04-23T10:31:30.000Z</time>
      </trkpt>
      <trkpt lat="50.63001" lon="5.04377">
        <ele>133</ele>
        <time>2019-04-23T10:31:37.000Z</time>
      </trkpt>
      <trkpt lat="50.62992" lon="5.04341">
        <ele>131.9</ele>
        <time>2019-04-23T10:31:53.000Z</time>
      </trkpt>
      <trkpt lat="50.6298" lon="5.04296">
        <ele>132</ele>
        <time>2019-04-23T10:31:55.000Z</time>
      </trkpt>
      <trkpt lat="50.62972" lon="5.04274">
        <ele>132.1</ele>
        <time>2019-04-23T10:32:02.000Z</time>
      </trkpt>
      <trkpt lat="50.62963" lon="5.04248">
        <ele>133.2</ele>
        <time>2019-04-23T10:32:06.000Z</time>
      </trkpt>
      <trkpt lat="50.62956" lon="5.04231">
        <ele>133.4</ele>
        <time>2019-04-23T10:32:13.000Z</time>
      </trkpt>
      <trkpt lat="50.62931" lon="5.04244">
        <ele>133.3</ele>
        <time>2019-04-23T10:32:15.000Z</time>
      </trkpt>
      <trkpt lat="50.62899" lon="5.04261">
        <ele>131.4</ele>
        <time>2019-04-23T10:32:23.000Z</time>
      </trkpt>
      <trkpt lat="50.6288" lon="5.04272">
        <ele>130.6</ele>
        <time>2019-04-23T10:32:25.000Z</time>
      </trkpt>
      <trkpt lat="50.62865" lon="5.04278">
        <ele>130</ele>
        <time>2019-04-23T10:32:30.000Z</time>
      </trkpt>
      <trkpt lat="50.62858" lon="5.04253">
        <ele>130.3</ele>
        <time>2019-04-23T10:32:31.000Z</time>
      </trkpt>
      <trkpt lat="50.6285" lon="5.04228">
        <ele>131.9</ele>
        <time>2019-04-23T10:32:32.000Z</time>
      </trkpt>
      <trkpt lat="50.6284" lon="5.04205">
        <ele>132.4</ele>
        <time>2019-04-23T10:32:34.000Z</time>
      </trkpt>
      <trkpt lat="50.62826" lon="5.04164">
        <ele>132.8</ele>
        <time>2019-04-23T10:32:35.000Z</time>
      </trkpt>
      <trkpt lat="50.62814" lon="5.04148">
        <ele>132.6</ele>
        <time>2019-04-23T10:32:37.000Z</time>
      </trkpt>
      <trkpt lat="50.62801" lon="5.0413">
        <ele>132.5</ele>
        <time>2019-04-23T10:32:39.000Z</time>
      </trkpt>
      <trkpt lat="50.62785" lon="5.04108">
        <ele>132.6</ele>
        <time>2019-04-23T10:32:41.000Z</time>
      </trkpt>
      <trkpt lat="50.62769" lon="5.04084">
        <ele>132.7</ele>
        <time>2019-04-23T10:32:44.000Z</time>
      </trkpt>
      <trkpt lat="50.62758" lon="5.04061">
        <ele>133.5</ele>
        <time>2019-04-23T10:32:46.000Z</time>
      </trkpt>
      <trkpt lat="50.62745" lon="5.04033">
        <ele>132.5</ele>
        <time>2019-04-23T10:32:50.000Z</time>
      </trkpt>
      <trkpt lat="50.6273" lon="5.0401">
        <ele>132.7</ele>
        <time>2019-04-23T10:32:51.000Z</time>
      </trkpt>
      <trkpt lat="50.62693" lon="5.03943">
        <ele>132.6</ele>
        <time>2019-04-23T10:32:52.000Z</time>
      </trkpt>
      <trkpt lat="50.62654" lon="5.03881">
        <ele>129.9</ele>
        <time>2019-04-23T10:32:55.000Z</time>
      </trkpt>
      <trkpt lat="50.62643" lon="5.03862">
        <ele>129.8</ele>
        <time>2019-04-23T10:33:00.000Z</time>
      </trkpt>
      <trkpt lat="50.62628" lon="5.03831">
        <ele>130.1</ele>
        <time>2019-04-23T10:33:01.000Z</time>
      </trkpt>
      <trkpt lat="50.6262" lon="5.03809">
        <ele>129.9</ele>
        <time>2019-04-23T10:33:07.000Z</time>
      </trkpt>
      <trkpt lat="50.62616" lon="5.03793">
        <ele>130</ele>
        <time>2019-04-23T10:33:10.000Z</time>
      </trkpt>
      <trkpt lat="50.62611" lon="5.03774">
        <ele>130</ele>
        <time>2019-04-23T10:33:17.000Z</time>
      </trkpt>
      <trkpt lat="50.6261" lon="5.03757">
        <ele>130</ele>
        <time>2019-04-23T10:33:22.000Z</time>
      </trkpt>
      <trkpt lat="50.62609" lon="5.0373">
        <ele>130.9</ele>
        <time>2019-04-23T10:33:27.000Z</time>
      </trkpt>
      <trkpt lat="50.62613" lon="5.037">
        <ele>131.3</ele>
        <time>2019-04-23T10:33:28.000Z</time>
      </trkpt>
      <trkpt lat="50.62624" lon="5.03623">
        <ele>131.7</ele>
        <time>2019-04-23T10:33:33.000Z</time>
      </trkpt>
      <trkpt lat="50.62638" lon="5.03538">
        <ele>132.3</ele>
        <time>2019-04-23T10:33:40.000Z</time>
      </trkpt>
      <trkpt lat="50.62647" lon="5.0349">
        <ele>133.5</ele>
        <time>2019-04-23T10:33:44.000Z</time>
      </trkpt>
      <trkpt lat="50.6266" lon="5.0341">
        <ele>134.2</ele>
        <time>2019-04-23T10:33:51.000Z</time>
      </trkpt>
      <trkpt lat="50.62667" lon="5.03364">
        <ele>135.6</ele>
        <time>2019-04-23T10:33:52.000Z</time>
      </trkpt>
      <trkpt lat="50.62673" lon="5.0333">
        <ele>135.3</ele>
        <time>2019-04-23T10:33:55.000Z</time>
      </trkpt>
      <trkpt lat="50.62686" lon="5.03243">
        <ele>135.6</ele>
        <time>2019-04-23T10:33:56.000Z</time>
      </trkpt>
      <trkpt lat="50.62691" lon="5.03211">
        <ele>135.7</ele>
        <time>2019-04-23T10:33:59.000Z</time>
      </trkpt>
      <trkpt lat="50.627" lon="5.03162">
        <ele>138.39999389648</ele>
        <time>2019-04-23T10:34:01.000Z</time>
      </trkpt>
      <trkpt lat="50.62701" lon="5.03137">
        <ele>138.39999389648</ele>
        <time>2019-04-23T10:34:02.000Z</time>
      </trkpt>
      <trkpt lat="50.62704" lon="5.03112">
        <ele>134.6</ele>
        <time>2019-04-23T10:34:05.000Z</time>
      </trkpt>
      <trkpt lat="50.62707" lon="5.03078">
        <ele>133.5</ele>
        <time>2019-04-23T10:34:08.000Z</time>
      </trkpt>
      <trkpt lat="50.62709" lon="5.03044">
        <ele>133.3</ele>
        <time>2019-04-23T10:34:12.000Z</time>
      </trkpt>
      <trkpt lat="50.6271" lon="5.03024">
        <ele>133</ele>
        <time>2019-04-23T10:34:15.000Z</time>
      </trkpt>
      <trkpt lat="50.62713" lon="5.03">
        <ele>133</ele>
        <time>2019-04-23T10:34:18.000Z</time>
      </trkpt>
      <trkpt lat="50.62721" lon="5.02964">
        <ele>131.7</ele>
        <time>2019-04-23T10:34:23.000Z</time>
      </trkpt>
      <trkpt lat="50.62725" lon="5.02941">
        <ele>131.6</ele>
        <time>2019-04-23T10:34:24.000Z</time>
      </trkpt>
      <trkpt lat="50.62736" lon="5.02887">
        <ele>130.3</ele>
        <time>2019-04-23T10:34:27.000Z</time>
      </trkpt>
      <trkpt lat="50.6274" lon="5.02865">
        <ele>130</ele>
        <time>2019-04-23T10:34:28.000Z</time>
      </trkpt>
      <trkpt lat="50.62743" lon="5.02835">
        <ele>129.9</ele>
        <time>2019-04-23T10:34:48.000Z</time>
      </trkpt>
      <trkpt lat="50.62744" lon="5.02804">
        <ele>130</ele>
        <time>2019-04-23T10:34:57.000Z</time>
      </trkpt>
      <trkpt lat="50.62737" lon="5.02763">
        <ele>130.1</ele>
        <time>2019-04-23T10:34:59.000Z</time>
      </trkpt>
      <trkpt lat="50.62717" lon="5.02717">
        <ele>132</ele>
        <time>2019-04-23T10:35:08.000Z</time>
      </trkpt>
      <trkpt lat="50.62703" lon="5.02695">
        <ele>132.5</ele>
        <time>2019-04-23T10:35:11.000Z</time>
      </trkpt>
      <trkpt lat="50.6269" lon="5.02664">
        <ele>134.1</ele>
        <time>2019-04-23T10:35:16.000Z</time>
      </trkpt>
      <trkpt lat="50.62682" lon="5.02632">
        <ele>134</ele>
        <time>2019-04-23T10:35:23.000Z</time>
      </trkpt>
      <trkpt lat="50.62672" lon="5.02593">
        <ele>134</ele>
        <time>2019-04-23T10:35:26.000Z</time>
      </trkpt>
      <trkpt lat="50.62653" lon="5.02544">
        <ele>133.1</ele>
        <time>2019-04-23T10:35:32.000Z</time>
      </trkpt>
      <trkpt lat="50.62631" lon="5.0249">
        <ele>134</ele>
        <time>2019-04-23T10:35:34.000Z</time>
      </trkpt>
      <trkpt lat="50.62612" lon="5.02449">
        <ele>134.1</ele>
        <time>2019-04-23T10:35:38.000Z</time>
      </trkpt>
      <trkpt lat="50.62602" lon="5.02431">
        <ele>133.9</ele>
        <time>2019-04-23T10:35:41.000Z</time>
      </trkpt>
      <trkpt lat="50.62584" lon="5.024">
        <ele>134.8</ele>
        <time>2019-04-23T10:35:46.000Z</time>
      </trkpt>
      <trkpt lat="50.62567" lon="5.02372">
        <ele>133.7</ele>
        <time>2019-04-23T10:35:49.000Z</time>
      </trkpt>
      <trkpt lat="50.62536" lon="5.0232">
        <ele>135.8</ele>
        <time>2019-04-23T10:35:57.000Z</time>
      </trkpt>
      <trkpt lat="50.62524" lon="5.02303">
        <ele>135.9</ele>
        <time>2019-04-23T10:36:00.000Z</time>
      </trkpt>
      <trkpt lat="50.62488" lon="5.02242">
        <ele>136.9</ele>
        <time>2019-04-23T10:36:02.000Z</time>
      </trkpt>
      <trkpt lat="50.6247" lon="5.02212">
        <ele>136.8</ele>
        <time>2019-04-23T10:36:04.000Z</time>
      </trkpt>
      <trkpt lat="50.62453" lon="5.02179">
        <ele>136.9</ele>
        <time>2019-04-23T10:36:08.000Z</time>
      </trkpt>
      <trkpt lat="50.62422" lon="5.02107">
        <ele>137.4</ele>
        <time>2019-04-23T10:36:13.000Z</time>
      </trkpt>
      <trkpt lat="50.62412" lon="5.02082">
        <ele>137</ele>
        <time>2019-04-23T10:36:19.000Z</time>
      </trkpt>
      <trkpt lat="50.6238" lon="5.02006">
        <ele>137.2</ele>
        <time>2019-04-23T10:36:25.000Z</time>
      </trkpt>
      <trkpt lat="50.62367" lon="5.01974">
        <ele>137.4</ele>
        <time>2019-04-23T10:36:27.000Z</time>
      </trkpt>
      <trkpt lat="50.62342" lon="5.01904">
        <ele>142.60000610352</ele>
        <time>2019-04-23T10:36:33.000Z</time>
      </trkpt>
      <trkpt lat="50.62316" lon="5.01831">
        <ele>138.4</ele>
        <time>2019-04-23T10:36:41.000Z</time>
      </trkpt>
      <trkpt lat="50.62299" lon="5.01783">
        <ele>138.7</ele>
        <time>2019-04-23T10:36:48.000Z</time>
      </trkpt>
      <trkpt lat="50.62287" lon="5.01738">
        <ele>138.8</ele>
        <time>2019-04-23T10:36:57.000Z</time>
      </trkpt>
      <trkpt lat="50.62283" lon="5.01718">
        <ele>138.9</ele>
        <time>2019-04-23T10:37:05.000Z</time>
      </trkpt>
      <trkpt lat="50.62274" lon="5.01637">
        <ele>139.1</ele>
        <time>2019-04-23T10:37:09.000Z</time>
      </trkpt>
      <trkpt lat="50.62269" lon="5.0158">
        <ele>138.2</ele>
        <time>2019-04-23T10:37:11.000Z</time>
      </trkpt>
      <trkpt lat="50.62264" lon="5.01523">
        <ele>137.8</ele>
        <time>2019-04-23T10:37:16.000Z</time>
      </trkpt>
      <trkpt lat="50.62254" lon="5.0143">
        <ele>136.3</ele>
        <time>2019-04-23T10:37:21.000Z</time>
      </trkpt>
      <trkpt lat="50.62251" lon="5.0139">
        <ele>135.4</ele>
        <time>2019-04-23T10:37:22.000Z</time>
      </trkpt>
      <trkpt lat="50.62243" lon="5.01313">
        <ele>134.2</ele>
        <time>2019-04-23T10:37:23.000Z</time>
      </trkpt>
      <trkpt lat="50.62241" lon="5.01271">
        <ele>134.1</ele>
        <time>2019-04-23T10:37:27.000Z</time>
      </trkpt>
      <trkpt lat="50.62239" lon="5.01232">
        <ele>133</ele>
        <time>2019-04-23T10:37:34.000Z</time>
      </trkpt>
      <trkpt lat="50.6224" lon="5.0119">
        <ele>133.6</ele>
        <time>2019-04-23T10:37:35.000Z</time>
      </trkpt>
      <trkpt lat="50.62242" lon="5.01162">
        <ele>134.2</ele>
        <time>2019-04-23T10:37:42.000Z</time>
      </trkpt>
      <trkpt lat="50.6225" lon="5.01076">
        <ele>136.9</ele>
        <time>2019-04-23T10:37:44.000Z</time>
      </trkpt>
      <trkpt lat="50.62258" lon="5.01018">
        <ele>137.3</ele>
        <time>2019-04-23T10:37:47.000Z</time>
      </trkpt>
      <trkpt lat="50.62264" lon="5.00965">
        <ele>137</ele>
        <time>2019-04-23T10:37:53.000Z</time>
      </trkpt>
      <trkpt lat="50.62273" lon="5.00871">
        <ele>136.9</ele>
        <time>2019-04-23T10:37:54.000Z</time>
      </trkpt>
      <trkpt lat="50.62278" lon="5.0082">
        <ele>136.9</ele>
        <time>2019-04-23T10:38:00.000Z</time>
      </trkpt>
      <trkpt lat="50.62283" lon="5.0076">
        <ele>136.6</ele>
        <time>2019-04-23T10:38:12.000Z</time>
      </trkpt>
      <trkpt lat="50.62283" lon="5.00715">
        <ele>136.7</ele>
        <time>2019-04-23T10:38:16.000Z</time>
      </trkpt>
      <trkpt lat="50.62283" lon="5.00676">
        <ele>136.8</ele>
        <time>2019-04-23T10:38:21.000Z</time>
      </trkpt>
      <trkpt lat="50.6228" lon="5.0064">
        <ele>137.1</ele>
        <time>2019-04-23T10:38:28.000Z</time>
      </trkpt>
      <trkpt lat="50.62277" lon="5.00596">
        <ele>137.1</ele>
        <time>2019-04-23T10:38:35.000Z</time>
      </trkpt>
      <trkpt lat="50.62272" lon="5.00557">
        <ele>136.9</ele>
        <time>2019-04-23T10:38:37.000Z</time>
      </trkpt>
      <trkpt lat="50.62271" lon="5.00545">
        <ele>136.9</ele>
        <time>2019-04-23T10:38:45.000Z</time>
      </trkpt>
      <trkpt lat="50.62256" lon="5.00548">
        <ele>136.7</ele>
        <time>2019-04-23T10:38:52.000Z</time>
      </trkpt>
      <trkpt lat="50.62248" lon="5.00549">
        <ele>134.6</ele>
        <time>2019-04-23T10:39:27.000Z</time>
      </trkpt>
      <trkpt lat="50.62207" lon="5.00556">
        <ele>138.60000610352</ele>
        <time>2019-04-23T10:39:29.000Z</time>
      </trkpt>
      <trkpt lat="50.62199" lon="5.0056">
        <ele>138.39999389648</ele>
        <time>2019-04-23T10:39:36.000Z</time>
      </trkpt>
      <trkpt lat="50.62172" lon="5.00578">
        <ele>137.80000305176</ele>
        <time>2019-04-23T10:39:42.000Z</time>
      </trkpt>
      <trkpt lat="50.62163" lon="5.00585">
        <ele>137.19999694824</ele>
        <time>2019-04-23T10:39:49.000Z</time>
      </trkpt>
      <trkpt lat="50.62153" lon="5.0059">
        <ele>137</ele>
        <time>2019-04-23T10:39:50.000Z</time>
      </trkpt>
      <trkpt lat="50.62143" lon="5.00593">
        <ele>136.60000610352</ele>
        <time>2019-04-23T10:39:58.000Z</time>
      </trkpt>
      <trkpt lat="50.62132" lon="5.00595">
        <ele>136.19999694824</ele>
        <time>2019-04-23T10:40:00.000Z</time>
      </trkpt>
      <trkpt lat="50.6211" lon="5.00593">
        <ele>135.39999389648</ele>
        <time>2019-04-23T10:40:05.000Z</time>
      </trkpt>
      <trkpt lat="50.62099" lon="5.00591">
        <ele>135</ele>
        <time>2019-04-23T10:40:07.000Z</time>
      </trkpt>
      <trkpt lat="50.62089" lon="5.0059">
        <ele>134.39999389648</ele>
        <time>2019-04-23T10:40:11.000Z</time>
      </trkpt>
      <trkpt lat="50.6208" lon="5.00588">
        <ele>133.80000305176</ele>
        <time>2019-04-23T10:40:12.000Z</time>
      </trkpt>
      <trkpt lat="50.62071" lon="5.00587">
        <ele>132.60000610352</ele>
        <time>2019-04-23T10:40:18.000Z</time>
      </trkpt>
      <trkpt lat="50.62062" lon="5.00584">
        <ele>132.19999694824</ele>
        <time>2019-04-23T10:40:26.000Z</time>
      </trkpt>
      <trkpt lat="50.62053" lon="5.0058">
        <ele>131.39999389648</ele>
        <time>2019-04-23T10:40:33.000Z</time>
      </trkpt>
      <trkpt lat="50.62045" lon="5.00575">
        <ele>130.80000305176</ele>
        <time>2019-04-23T10:40:39.000Z</time>
      </trkpt>
      <trkpt lat="50.62036" lon="5.00568">
        <ele>130.60000610352</ele>
        <time>2019-04-23T10:41:04.000Z</time>
      </trkpt>
      <trkpt lat="50.62021" lon="5.00553">
        <ele>128.4</ele>
        <time>2019-04-23T10:41:05.000Z</time>
      </trkpt>
      <trkpt lat="50.61998" lon="5.00527">
        <ele>128.9</ele>
        <time>2019-04-23T10:41:08.000Z</time>
      </trkpt>
      <trkpt lat="50.61959" lon="5.00473">
        <ele>128.9</ele>
        <time>2019-04-23T10:41:11.000Z</time>
      </trkpt>
      <trkpt lat="50.61927" lon="5.00427">
        <ele>129.4</ele>
        <time>2019-04-23T10:41:14.000Z</time>
      </trkpt>
      <trkpt lat="50.61899" lon="5.00392">
        <ele>130.7</ele>
        <time>2019-04-23T10:41:18.000Z</time>
      </trkpt>
      <trkpt lat="50.61873" lon="5.0036">
        <ele>130.9</ele>
        <time>2019-04-23T10:41:20.000Z</time>
      </trkpt>
      <trkpt lat="50.61848" lon="5.00328">
        <ele>131.1</ele>
        <time>2019-04-23T10:41:24.000Z</time>
      </trkpt>
      <trkpt lat="50.61825" lon="5.00289">
        <ele>132.5</ele>
        <time>2019-04-23T10:41:55.000Z</time>
      </trkpt>
      <trkpt lat="50.61809" lon="5.00262">
        <ele>132</ele>
        <time>2019-04-23T10:41:59.000Z</time>
      </trkpt>
      <trkpt lat="50.6179" lon="5.00231">
        <ele>132.7</ele>
        <time>2019-04-23T10:42:00.000Z</time>
      </trkpt>
      <trkpt lat="50.61777" lon="5.00211">
        <ele>133</ele>
        <time>2019-04-23T10:42:03.000Z</time>
      </trkpt>
      <trkpt lat="50.61763" lon="5.0018">
        <ele>133.2</ele>
        <time>2019-04-23T10:42:05.000Z</time>
      </trkpt>
      <trkpt lat="50.61757" lon="5.00164">
        <ele>134</ele>
        <time>2019-04-23T10:42:08.000Z</time>
      </trkpt>
      <trkpt lat="50.61751" lon="5.00153">
        <ele>135.39999389648</ele>
        <time>2019-04-23T10:42:09.000Z</time>
      </trkpt>
      <trkpt lat="50.61731" lon="5.00118">
        <ele>136.19999694824</ele>
        <time>2019-04-23T10:42:15.000Z</time>
      </trkpt>
      <trkpt lat="50.61726" lon="5.00109">
        <ele>136.60000610352</ele>
        <time>2019-04-23T10:42:18.000Z</time>
      </trkpt>
      <trkpt lat="50.61708" lon="5.00076">
        <ele>136.2</ele>
        <time>2019-04-23T10:42:23.000Z</time>
      </trkpt>
      <trkpt lat="50.61681" lon="5.00028">
        <ele>136.5</ele>
        <time>2019-04-23T10:42:30.000Z</time>
      </trkpt>
      <trkpt lat="50.61648" lon="4.99972">
        <ele>138.4</ele>
        <time>2019-04-23T10:42:31.000Z</time>
      </trkpt>
      <trkpt lat="50.61618" lon="4.99913">
        <ele>138.7</ele>
        <time>2019-04-23T10:42:39.000Z</time>
      </trkpt>
      <trkpt lat="50.61594" lon="4.99867">
        <ele>138.9</ele>
        <time>2019-04-23T10:42:41.000Z</time>
      </trkpt>
      <trkpt lat="50.61561" lon="4.99806">
        <ele>140.7</ele>
        <time>2019-04-23T10:42:45.000Z</time>
      </trkpt>
      <trkpt lat="50.61546" lon="4.99776">
        <ele>146.60000610352</ele>
        <time>2019-04-23T10:42:49.000Z</time>
      </trkpt>
      <trkpt lat="50.61522" lon="4.99735">
        <ele>140.8</ele>
        <time>2019-04-23T10:42:55.000Z</time>
      </trkpt>
      <trkpt lat="50.61492" lon="4.99682">
        <ele>142.5</ele>
        <time>2019-04-23T10:43:02.000Z</time>
      </trkpt>
      <trkpt lat="50.6147" lon="4.99649">
        <ele>143</ele>
        <time>2019-04-23T10:43:04.000Z</time>
      </trkpt>
      <trkpt lat="50.61449" lon="4.99619">
        <ele>143.1</ele>
        <time>2019-04-23T10:43:09.000Z</time>
      </trkpt>
      <trkpt lat="50.61402" lon="4.99557">
        <ele>145</ele>
        <time>2019-04-23T10:43:15.000Z</time>
      </trkpt>
      <trkpt lat="50.61382" lon="4.99527">
        <ele>145.4</ele>
        <time>2019-04-23T10:43:23.000Z</time>
      </trkpt>
      <trkpt lat="50.61341" lon="4.99476">
        <ele>146.1</ele>
        <time>2019-04-23T10:43:31.000Z</time>
      </trkpt>
      <trkpt lat="50.61327" lon="4.99455">
        <ele>147.4</ele>
        <time>2019-04-23T10:43:40.000Z</time>
      </trkpt>
      <trkpt lat="50.61299" lon="4.99419">
        <ele>147.6</ele>
        <time>2019-04-23T10:43:44.000Z</time>
      </trkpt>
      <trkpt lat="50.61247" lon="4.99351">
        <ele>149</ele>
        <time>2019-04-23T10:43:49.000Z</time>
      </trkpt>
      <trkpt lat="50.61202" lon="4.99287">
        <ele>148.5</ele>
        <time>2019-04-23T10:43:53.000Z</time>
      </trkpt>
      <trkpt lat="50.61177" lon="4.99253">
        <ele>148.2</ele>
        <time>2019-04-23T10:43:55.000Z</time>
      </trkpt>
      <trkpt lat="50.61144" lon="4.99209">
        <ele>147.6</ele>
        <time>2019-04-23T10:43:59.000Z</time>
      </trkpt>
      <trkpt lat="50.61102" lon="4.99153">
        <ele>147</ele>
        <time>2019-04-23T10:44:01.000Z</time>
      </trkpt>
      <trkpt lat="50.61081" lon="4.99127">
        <ele>146.2</ele>
        <time>2019-04-23T10:44:05.000Z</time>
      </trkpt>
      <trkpt lat="50.61043" lon="4.99081">
        <ele>145.5</ele>
        <time>2019-04-23T10:45:25.000Z</time>
      </trkpt>
      <trkpt lat="50.61019" lon="4.99056">
        <ele>145.4</ele>
        <time>2019-04-23T10:45:28.000Z</time>
      </trkpt>
      <trkpt lat="50.61001" lon="4.99037">
        <ele>145.3</ele>
        <time>2019-04-23T10:45:30.000Z</time>
      </trkpt>
      <trkpt lat="50.60957" lon="4.9899">
        <ele>142.8</ele>
        <time>2019-04-23T10:45:34.000Z</time>
      </trkpt>
      <trkpt lat="50.60943" lon="4.98973">
        <ele>142.4</ele>
        <time>2019-04-23T10:45:37.000Z</time>
      </trkpt>
      <trkpt lat="50.60921" lon="4.9895">
        <ele>142.1</ele>
        <time>2019-04-23T10:45:41.000Z</time>
      </trkpt>
      <trkpt lat="50.60892" lon="4.98919">
        <ele>140.3</ele>
        <time>2019-04-23T10:45:45.000Z</time>
      </trkpt>
      <trkpt lat="50.60865" lon="4.98887">
        <ele>147.39999389648</ele>
        <time>2019-04-23T10:45:51.000Z</time>
      </trkpt>
      <trkpt lat="50.60838" lon="4.98858">
        <ele>146.80000305176</ele>
        <time>2019-04-23T10:45:57.000Z</time>
      </trkpt>
      <trkpt lat="50.60838" lon="4.98858">
        <ele>146.39999389648</ele>
        <time>2019-04-23T10:46:01.000Z</time>
      </trkpt>
      <trkpt lat="50.60795" lon="4.98812">
        <ele>145.39999389648</ele>
        <time>2019-04-23T10:46:02.000Z</time>
      </trkpt>
      <trkpt lat="50.60774" lon="4.98791">
        <ele>138</ele>
        <time>2019-04-23T10:46:07.000Z</time>
      </trkpt>
      <trkpt lat="50.60755" lon="4.98773">
        <ele>138.1</ele>
        <time>2019-04-23T10:46:09.000Z</time>
      </trkpt>
      <trkpt lat="50.60735" lon="4.98754">
        <ele>138</ele>
        <time>2019-04-23T10:46:10.000Z</time>
      </trkpt>
      <trkpt lat="50.60716" lon="4.98735">
        <ele>138.4</ele>
        <time>2019-04-23T10:46:18.000Z</time>
      </trkpt>
      <trkpt lat="50.60702" lon="4.98721">
        <ele>138.5</ele>
        <time>2019-04-23T10:46:19.000Z</time>
      </trkpt>
      <trkpt lat="50.60692" lon="4.9871">
        <ele>139</ele>
        <time>2019-04-23T10:46:22.000Z</time>
      </trkpt>
      <trkpt lat="50.6068" lon="4.98723">
        <ele>138.7</ele>
        <time>2019-04-23T10:46:24.000Z</time>
      </trkpt>
      <trkpt lat="50.60666" lon="4.98737">
        <ele>139.4</ele>
        <time>2019-04-23T10:46:32.000Z</time>
      </trkpt>
      <trkpt lat="50.60647" lon="4.98758">
        <ele>138.9</ele>
        <time>2019-04-23T10:46:33.000Z</time>
      </trkpt>
      <trkpt lat="50.60634" lon="4.98775">
        <ele>138.9</ele>
        <time>2019-04-23T10:46:35.000Z</time>
      </trkpt>
      <trkpt lat="50.60614" lon="4.98797">
        <ele>138.7</ele>
        <time>2019-04-23T10:46:39.000Z</time>
      </trkpt>
      <trkpt lat="50.60593" lon="4.98823">
        <ele>138.4</ele>
        <time>2019-04-23T10:46:41.000Z</time>
      </trkpt>
      <trkpt lat="50.60571" lon="4.98859">
        <ele>139.6</ele>
        <time>2019-04-23T10:46:43.000Z</time>
      </trkpt>
      <trkpt lat="50.60564" lon="4.98869">
        <ele>139.9</ele>
        <time>2019-04-23T10:46:49.000Z</time>
      </trkpt>
      <trkpt lat="50.60542" lon="4.98911">
        <ele>140.5</ele>
        <time>2019-04-23T10:46:53.000Z</time>
      </trkpt>
      <trkpt lat="50.60517" lon="4.98956">
        <ele>141.2</ele>
        <time>2019-04-23T10:46:57.000Z</time>
      </trkpt>
      <trkpt lat="50.60499" lon="4.98983">
        <ele>143</ele>
        <time>2019-04-23T10:47:04.000Z</time>
      </trkpt>
      <trkpt lat="50.60482" lon="4.99">
        <ele>142.6</ele>
        <time>2019-04-23T10:47:11.000Z</time>
      </trkpt>
      <trkpt lat="50.60433" lon="4.99048">
        <ele>142</ele>
        <time>2019-04-23T10:47:19.000Z</time>
      </trkpt>
      <trkpt lat="50.60403" lon="4.99078">
        <ele>140.1</ele>
        <time>2019-04-23T10:47:26.000Z</time>
      </trkpt>
      <trkpt lat="50.60372" lon="4.99107">
        <ele>137.8</ele>
        <time>2019-04-23T10:47:28.000Z</time>
      </trkpt>
      <trkpt lat="50.60361" lon="4.99114">
        <ele>137.4</ele>
        <time>2019-04-23T10:47:31.000Z</time>
      </trkpt>
      <trkpt lat="50.60345" lon="4.99122">
        <ele>137.1</ele>
        <time>2019-04-23T10:47:37.000Z</time>
      </trkpt>
      <trkpt lat="50.60326" lon="4.99124">
        <ele>135.2</ele>
        <time>2019-04-23T10:47:44.000Z</time>
      </trkpt>
      <trkpt lat="50.60314" lon="4.99125">
        <ele>135.1</ele>
        <time>2019-04-23T10:47:50.000Z</time>
      </trkpt>
      <trkpt lat="50.60293" lon="4.99117">
        <ele>135</ele>
        <time>2019-04-23T10:47:58.000Z</time>
      </trkpt>
      <trkpt lat="50.60277" lon="4.99112">
        <ele>134.9</ele>
        <time>2019-04-23T10:48:01.000Z</time>
      </trkpt>
      <trkpt lat="50.6024" lon="4.99095">
        <ele>134</ele>
        <time>2019-04-23T10:48:02.000Z</time>
      </trkpt>
      <trkpt lat="50.60185" lon="4.99073">
        <ele>134</ele>
        <time>2019-04-23T10:48:03.000Z</time>
      </trkpt>
      <trkpt lat="50.60162" lon="4.99069">
        <ele>134.2</ele>
        <time>2019-04-23T10:48:08.000Z</time>
      </trkpt>
      <trkpt lat="50.60152" lon="4.9907">
        <ele>138.19999694824</ele>
        <time>2019-04-23T10:48:09.000Z</time>
      </trkpt>
      <trkpt lat="50.60127" lon="4.99079">
        <ele>138.19999694824</ele>
        <time>2019-04-23T10:48:12.000Z</time>
      </trkpt>
      <trkpt lat="50.60111" lon="4.99088">
        <ele>138.19999694824</ele>
        <time>2019-04-23T10:48:15.000Z</time>
      </trkpt>
      <trkpt lat="50.6007" lon="4.99113">
        <ele>138</ele>
        <time>2019-04-23T10:48:16.000Z</time>
      </trkpt>
      <trkpt lat="50.60043" lon="4.99128">
        <ele>138.19999694824</ele>
        <time>2019-04-23T10:48:19.000Z</time>
      </trkpt>
      <trkpt lat="50.60017" lon="4.99148">
        <ele>138.60000610352</ele>
        <time>2019-04-23T10:48:21.000Z</time>
      </trkpt>
      <trkpt lat="50.60011" lon="4.99153">
        <ele>139</ele>
        <time>2019-04-23T10:48:22.000Z</time>
      </trkpt>
      <trkpt lat="50.59991" lon="4.99168">
        <ele>139.60000610352</ele>
        <time>2019-04-23T10:48:27.000Z</time>
      </trkpt>
      <trkpt lat="50.59985" lon="4.99173">
        <ele>140</ele>
        <time>2019-04-23T10:48:32.000Z</time>
      </trkpt>
      <trkpt lat="50.59965" lon="4.99188">
        <ele>141</ele>
        <time>2019-04-23T10:48:40.000Z</time>
      </trkpt>
      <trkpt lat="50.59959" lon="4.99193">
        <ele>141.39999389648</ele>
        <time>2019-04-23T10:48:47.000Z</time>
      </trkpt>
      <trkpt lat="50.59939" lon="4.99208">
        <ele>142.19999694824</ele>
        <time>2019-04-23T10:48:49.000Z</time>
      </trkpt>
      <trkpt lat="50.59933" lon="4.99213">
        <ele>142.60000610352</ele>
        <time>2019-04-23T10:48:52.000Z</time>
      </trkpt>
      <trkpt lat="50.5992" lon="4.99223">
        <ele>142.80000305176</ele>
        <time>2019-04-23T10:48:58.000Z</time>
      </trkpt>
      <trkpt lat="50.59894" lon="4.99243">
        <ele>143.60000610352</ele>
        <time>2019-04-23T10:49:04.000Z</time>
      </trkpt>
      <trkpt lat="50.59875" lon="4.99258">
        <ele>144.39999389648</ele>
        <time>2019-04-23T10:49:05.000Z</time>
      </trkpt>
      <trkpt lat="50.59869" lon="4.99264">
        <ele>144.60000610352</ele>
        <time>2019-04-23T10:49:06.000Z</time>
      </trkpt>
      <trkpt lat="50.59849" lon="4.99279">
        <ele>145.60000610352</ele>
        <time>2019-04-23T10:49:11.000Z</time>
      </trkpt>
      <trkpt lat="50.59843" lon="4.99284">
        <ele>145.80000305176</ele>
        <time>2019-04-23T10:49:14.000Z</time>
      </trkpt>
      <trkpt lat="50.59819" lon="4.99304">
        <ele>147</ele>
        <time>2019-04-23T10:49:19.000Z</time>
      </trkpt>
      <trkpt lat="50.59801" lon="4.99316">
        <ele>148</ele>
        <time>2019-04-23T10:49:24.000Z</time>
      </trkpt>
      <trkpt lat="50.59759" lon="4.9935">
        <ele>149.19999694824</ele>
        <time>2019-04-23T10:49:28.000Z</time>
      </trkpt>
      <trkpt lat="50.59747" lon="4.9936">
        <ele>150.19999694824</ele>
        <time>2019-04-23T10:49:29.000Z</time>
      </trkpt>
      <trkpt lat="50.5974" lon="4.99364">
        <ele>148.6</ele>
        <time>2019-04-23T10:49:33.000Z</time>
      </trkpt>
      <trkpt lat="50.59701" lon="4.99411">
        <ele>149.1</ele>
        <time>2019-04-23T10:49:40.000Z</time>
      </trkpt>
      <trkpt lat="50.59673" lon="4.99448">
        <ele>149.8</ele>
        <time>2019-04-23T10:49:41.000Z</time>
      </trkpt>
      <trkpt lat="50.59637" lon="4.99494">
        <ele>151.5</ele>
        <time>2019-04-23T10:49:49.000Z</time>
      </trkpt>
      <trkpt lat="50.59617" lon="4.9952">
        <ele>155.60000610352</ele>
        <time>2019-04-23T10:49:52.000Z</time>
      </trkpt>
      <trkpt lat="50.59597" lon="4.99548">
        <ele>156.60000610352</ele>
        <time>2019-04-23T10:49:54.000Z</time>
      </trkpt>
      <trkpt lat="50.59582" lon="4.99568">
        <ele>157.19999694824</ele>
        <time>2019-04-23T10:50:00.000Z</time>
      </trkpt>
      <trkpt lat="50.59556" lon="4.99602">
        <ele>157.80000305176</ele>
        <time>2019-04-23T10:50:05.000Z</time>
      </trkpt>
      <trkpt lat="50.59539" lon="4.9962">
        <ele>158.39999389648</ele>
        <time>2019-04-23T10:50:06.000Z</time>
      </trkpt>
      <trkpt lat="50.59533" lon="4.99626">
        <ele>158.80000305176</ele>
        <time>2019-04-23T10:50:10.000Z</time>
      </trkpt>
      <trkpt lat="50.59487" lon="4.99666">
        <ele>157.5</ele>
        <time>2019-04-23T10:50:13.000Z</time>
      </trkpt>
      <trkpt lat="50.59475" lon="4.99674">
        <ele>159.80000305176</ele>
        <time>2019-04-23T10:50:15.000Z</time>
      </trkpt>
      <trkpt lat="50.59456" lon="4.9969">
        <ele>157</ele>
        <time>2019-04-23T10:50:19.000Z</time>
      </trkpt>
      <trkpt lat="50.59438" lon="4.99711">
        <ele>160.80000305176</ele>
        <time>2019-04-23T10:50:27.000Z</time>
      </trkpt>
      <trkpt lat="50.59432" lon="4.99719">
        <ele>161</ele>
        <time>2019-04-23T10:50:28.000Z</time>
      </trkpt>
      <trkpt lat="50.594" lon="4.99767">
        <ele>162</ele>
        <time>2019-04-23T10:50:30.000Z</time>
      </trkpt>
      <trkpt lat="50.5939" lon="4.99783">
        <ele>162.19999694824</ele>
        <time>2019-04-23T10:50:32.000Z</time>
      </trkpt>
      <trkpt lat="50.59352" lon="4.99835">
        <ele>162.39999389648</ele>
        <time>2019-04-23T10:50:35.000Z</time>
      </trkpt>
      <trkpt lat="50.59306" lon="4.99893">
        <ele>163</ele>
        <time>2019-04-23T10:50:49.000Z</time>
      </trkpt>
      <trkpt lat="50.59295" lon="4.99907">
        <ele>163.19999694824</ele>
        <time>2019-04-23T10:50:58.000Z</time>
      </trkpt>
      <trkpt lat="50.59277" lon="4.99929">
        <ele>163.60000610352</ele>
        <time>2019-04-23T10:51:07.000Z</time>
      </trkpt>
      <trkpt lat="50.59247" lon="4.99968">
        <ele>164.19999694824</ele>
        <time>2019-04-23T10:52:39.000Z</time>
      </trkpt>
      <trkpt lat="50.59216" lon="5.00007">
        <ele>164.39999389648</ele>
        <time>2019-04-23T10:52:41.000Z</time>
      </trkpt>
      <trkpt lat="50.59169" lon="5.00066">
        <ele>164.39999389648</ele>
        <time>2019-04-23T10:52:43.000Z</time>
      </trkpt>
      <trkpt lat="50.59145" lon="5.00095">
        <ele>164.80000305176</ele>
        <time>2019-04-23T10:52:45.000Z</time>
      </trkpt>
      <trkpt lat="50.59112" lon="5.00118">
        <ele>165.19999694824</ele>
        <time>2019-04-23T10:52:47.000Z</time>
      </trkpt>
      <trkpt lat="50.59101" lon="5.00123">
        <ele>162</ele>
        <time>2019-04-23T10:52:52.000Z</time>
      </trkpt>
      <trkpt lat="50.5907" lon="5.00142">
        <ele>166.39999389648</ele>
        <time>2019-04-23T10:53:00.000Z</time>
      </trkpt>
      <trkpt lat="50.59058" lon="5.00152">
        <ele>162</ele>
        <time>2019-04-23T10:53:02.000Z</time>
      </trkpt>
      <trkpt lat="50.59024" lon="5.00168">
        <ele>166.80000305176</ele>
        <time>2019-04-23T10:53:09.000Z</time>
      </trkpt>
      <trkpt lat="50.58988" lon="5.00182">
        <ele>167</ele>
        <time>2019-04-23T10:53:10.000Z</time>
      </trkpt>
      <trkpt lat="50.58968" lon="5.00187">
        <ele>166.60000610352</ele>
        <time>2019-04-23T10:53:12.000Z</time>
      </trkpt>
      <trkpt lat="50.58957" lon="5.00189">
        <ele>158.4</ele>
        <time>2019-04-23T10:53:13.000Z</time>
      </trkpt>
      <trkpt lat="50.58945" lon="5.00188">
        <ele>158</ele>
        <time>2019-04-23T10:53:17.000Z</time>
      </trkpt>
      <trkpt lat="50.58934" lon="5.00185">
        <ele>157.8</ele>
        <time>2019-04-23T10:53:18.000Z</time>
      </trkpt>
      <trkpt lat="50.58914" lon="5.00174">
        <ele>156.6</ele>
        <time>2019-04-23T10:53:21.000Z</time>
      </trkpt>
      <trkpt lat="50.58892" lon="5.00165">
        <ele>156.7</ele>
        <time>2019-04-23T10:53:41.000Z</time>
      </trkpt>
      <trkpt lat="50.58871" lon="5.00156">
        <ele>156.4</ele>
        <time>2019-04-23T10:53:50.000Z</time>
      </trkpt>
      <trkpt lat="50.58851" lon="5.00148">
        <ele>156.1</ele>
        <time>2019-04-23T10:53:57.000Z</time>
      </trkpt>
      <trkpt lat="50.58833" lon="5.00141">
        <ele>155.1</ele>
        <time>2019-04-23T10:53:58.000Z</time>
      </trkpt>
      <trkpt lat="50.58819" lon="5.00139">
        <ele>155.1</ele>
        <time>2019-04-23T10:54:07.000Z</time>
      </trkpt>
      <trkpt lat="50.58805" lon="5.00135">
        <ele>155.1</ele>
        <time>2019-04-23T10:54:08.000Z</time>
      </trkpt>
      <trkpt lat="50.58796" lon="5.0014">
        <ele>155</ele>
        <time>2019-04-23T10:54:09.000Z</time>
      </trkpt>
      <trkpt lat="50.58782" lon="5.00147">
        <ele>155</ele>
        <time>2019-04-23T10:54:12.000Z</time>
      </trkpt>
      <trkpt lat="50.58769" lon="5.00156">
        <ele>155</ele>
        <time>2019-04-23T10:54:15.000Z</time>
      </trkpt>
      <trkpt lat="50.58743" lon="5.00179">
        <ele>155.9</ele>
        <time>2019-04-23T10:54:17.000Z</time>
      </trkpt>
      <trkpt lat="50.58728" lon="5.00188">
        <ele>156.4</ele>
        <time>2019-04-23T10:54:22.000Z</time>
      </trkpt>
      <trkpt lat="50.58701" lon="5.00203">
        <ele>157</ele>
        <time>2019-04-23T10:54:52.000Z</time>
      </trkpt>
      <trkpt lat="50.5868" lon="5.00215">
        <ele>157.4</ele>
        <time>2019-04-23T10:54:54.000Z</time>
      </trkpt>
      <trkpt lat="50.58663" lon="5.00224">
        <ele>159.3</ele>
        <time>2019-04-23T10:54:57.000Z</time>
      </trkpt>
      <trkpt lat="50.58645" lon="5.00224">
        <ele>159.5</ele>
        <time>2019-04-23T10:55:07.000Z</time>
      </trkpt>
      <trkpt lat="50.58617" lon="5.00211">
        <ele>159.9</ele>
        <time>2019-04-23T10:55:09.000Z</time>
      </trkpt>
      <trkpt lat="50.58602" lon="5.00205">
        <ele>162.19999694824</ele>
        <time>2019-04-23T10:55:13.000Z</time>
      </trkpt>
      <trkpt lat="50.58586" lon="5.00204">
        <ele>162.39999389648</ele>
        <time>2019-04-23T10:55:16.000Z</time>
      </trkpt>
      <trkpt lat="50.58579" lon="5.00204">
        <ele>162.80000305176</ele>
        <time>2019-04-23T10:55:19.000Z</time>
      </trkpt>
      <trkpt lat="50.5855" lon="5.00203">
        <ele>161.3</ele>
        <time>2019-04-23T10:55:27.000Z</time>
      </trkpt>
      <trkpt lat="50.58538" lon="5.00197">
        <ele>161.2</ele>
        <time>2019-04-23T10:55:32.000Z</time>
      </trkpt>
      <trkpt lat="50.58518" lon="5.00172">
        <ele>160.7</ele>
        <time>2019-04-23T10:55:36.000Z</time>
      </trkpt>
      <trkpt lat="50.58471" lon="5.00115">
        <ele>158.8</ele>
        <time>2019-04-23T10:55:39.000Z</time>
      </trkpt>
      <trkpt lat="50.58452" lon="5.00094">
        <ele>158.4</ele>
        <time>2019-04-23T10:55:40.000Z</time>
      </trkpt>
      <trkpt lat="50.58443" lon="5.00087">
        <ele>158.2</ele>
        <time>2019-04-23T10:55:43.000Z</time>
      </trkpt>
      <trkpt lat="50.58435" lon="5.00082">
        <ele>163.60000610352</ele>
        <time>2019-04-23T10:55:44.000Z</time>
      </trkpt>
      <trkpt lat="50.58427" lon="5.00083">
        <ele>157</ele>
        <time>2019-04-23T10:55:45.000Z</time>
      </trkpt>
      <trkpt lat="50.58418" lon="5.0009">
        <ele>163.19999694824</ele>
        <time>2019-04-23T10:55:47.000Z</time>
      </trkpt>
      <trkpt lat="50.5841" lon="5.00099">
        <ele>157.5</ele>
        <time>2019-04-23T10:55:49.000Z</time>
      </trkpt>
      <trkpt lat="50.58394" lon="5.00114">
        <ele>162.39999389648</ele>
        <time>2019-04-23T10:55:51.000Z</time>
      </trkpt>
      <trkpt lat="50.58371" lon="5.00136">
        <ele>158.1</ele>
        <time>2019-04-23T10:55:52.000Z</time>
      </trkpt>
      <trkpt lat="50.58328" lon="5.00175">
        <ele>159.4</ele>
        <time>2019-04-23T10:55:54.000Z</time>
      </trkpt>
      <trkpt lat="50.58275" lon="5.00219">
        <ele>160.5</ele>
        <time>2019-04-23T10:55:55.000Z</time>
      </trkpt>
      <trkpt lat="50.5825" lon="5.0024">
        <ele>162.60000610352</ele>
        <time>2019-04-23T10:55:58.000Z</time>
      </trkpt>
      <trkpt lat="50.58227" lon="5.00259">
        <ele>163.39999389648</ele>
        <time>2019-04-23T10:55:59.000Z</time>
      </trkpt>
      <trkpt lat="50.5822" lon="5.00265">
        <ele>163.2</ele>
        <time>2019-04-23T10:56:01.000Z</time>
      </trkpt>
      <trkpt lat="50.58219" lon="5.00272">
        <ele>164</ele>
        <time>2019-04-23T10:56:03.000Z</time>
      </trkpt>
      <trkpt lat="50.58217" lon="5.00281">
        <ele>164.19999694824</ele>
        <time>2019-04-23T10:56:04.000Z</time>
      </trkpt>
      <trkpt lat="50.58215" lon="5.00293">
        <ele>163</ele>
        <time>2019-04-23T10:56:05.000Z</time>
      </trkpt>
      <trkpt lat="50.58206" lon="5.00304">
        <ele>164.80000305176</ele>
        <time>2019-04-23T10:56:07.000Z</time>
      </trkpt>
      <trkpt lat="50.58201" lon="5.0031">
        <ele>165.19999694824</ele>
        <time>2019-04-23T10:56:09.000Z</time>
      </trkpt>
      <trkpt lat="50.58178" lon="5.00333">
        <ele>166.19999694824</ele>
        <time>2019-04-23T10:56:12.000Z</time>
      </trkpt>
      <trkpt lat="50.58167" lon="5.00345">
        <ele>166.60000610352</ele>
        <time>2019-04-23T10:56:13.000Z</time>
      </trkpt>
      <trkpt lat="50.58155" lon="5.00358">
        <ele>167.19999694824</ele>
        <time>2019-04-23T10:56:15.000Z</time>
      </trkpt>
      <trkpt lat="50.58114" lon="5.00403">
        <ele>167.80000305176</ele>
        <time>2019-04-23T10:56:17.000Z</time>
      </trkpt>
      <trkpt lat="50.58108" lon="5.00409">
        <ele>168</ele>
        <time>2019-04-23T10:56:19.000Z</time>
      </trkpt>
      <trkpt lat="50.58102" lon="5.00416">
        <ele>168.39999389648</ele>
        <time>2019-04-23T10:56:21.000Z</time>
      </trkpt>
      <trkpt lat="50.58067" lon="5.00453">
        <ele>169.39999389648</ele>
        <time>2019-04-23T10:56:22.000Z</time>
      </trkpt>
      <trkpt lat="50.58061" lon="5.0046">
        <ele>169.60000610352</ele>
        <time>2019-04-23T10:56:25.000Z</time>
      </trkpt>
      <trkpt lat="50.58015" lon="5.00509">
        <ele>170.19999694824</ele>
        <time>2019-04-23T10:56:27.000Z</time>
      </trkpt>
      <trkpt lat="50.58009" lon="5.00515">
        <ele>170.19999694824</ele>
        <time>2019-04-23T10:56:28.000Z</time>
      </trkpt>
      <trkpt lat="50.57996" lon="5.0053">
        <ele>168.5</ele>
        <time>2019-04-23T10:56:30.000Z</time>
      </trkpt>
      <trkpt lat="50.57979" lon="5.00541">
        <ele>169</ele>
        <time>2019-04-23T10:56:31.000Z</time>
      </trkpt>
      <trkpt lat="50.57963" lon="5.00551">
        <ele>169.3</ele>
        <time>2019-04-23T10:56:32.000Z</time>
      </trkpt>
      <trkpt lat="50.57944" lon="5.00557">
        <ele>170</ele>
        <time>2019-04-23T10:56:33.000Z</time>
      </trkpt>
      <trkpt lat="50.57915" lon="5.00563">
        <ele>171.60000610352</ele>
        <time>2019-04-23T10:56:45.000Z</time>
      </trkpt>
      <trkpt lat="50.57856" lon="5.00574">
        <ele>172.39999389648</ele>
        <time>2019-04-23T10:56:52.000Z</time>
      </trkpt>
      <trkpt lat="50.57849" lon="5.00578">
        <ele>172.60000610352</ele>
        <time>2019-04-23T10:56:56.000Z</time>
      </trkpt>
      <trkpt lat="50.57822" lon="5.00599">
        <ele>170</ele>
        <time>2019-04-23T10:56:58.000Z</time>
      </trkpt>
      <trkpt lat="50.57801" lon="5.0062">
        <ele>170</ele>
        <time>2019-04-23T10:57:02.000Z</time>
      </trkpt>
      <trkpt lat="50.57787" lon="5.00635">
        <ele>170</ele>
        <time>2019-04-23T10:57:09.000Z</time>
      </trkpt>
      <trkpt lat="50.57743" lon="5.00683">
        <ele>174.60000610352</ele>
        <time>2019-04-23T10:57:14.000Z</time>
      </trkpt>
      <trkpt lat="50.57729" lon="5.00698">
        <ele>170.4</ele>
        <time>2019-04-23T10:57:18.000Z</time>
      </trkpt>
      <trkpt lat="50.57698" lon="5.00721">
        <ele>171.1</ele>
        <time>2019-04-23T10:57:19.000Z</time>
      </trkpt>
      <trkpt lat="50.57667" lon="5.00731">
        <ele>175.80000305176</ele>
        <time>2019-04-23T10:57:21.000Z</time>
      </trkpt>
      <trkpt lat="50.5766" lon="5.00733">
        <ele>175.80000305176</ele>
        <time>2019-04-23T10:57:22.000Z</time>
      </trkpt>
      <trkpt lat="50.57648" lon="5.00736">
        <ele>176.19999694824</ele>
        <time>2019-04-23T10:57:24.000Z</time>
      </trkpt>
      <trkpt lat="50.57635" lon="5.00735">
        <ele>172.1</ele>
        <time>2019-04-23T10:57:25.000Z</time>
      </trkpt>
      <trkpt lat="50.57627" lon="5.00735">
        <ele>172.1</ele>
        <time>2019-04-23T10:57:27.000Z</time>
      </trkpt>
      <trkpt lat="50.57614" lon="5.00736">
        <ele>176.19999694824</ele>
        <time>2019-04-23T10:57:28.000Z</time>
      </trkpt>
      <trkpt lat="50.57576" lon="5.00763">
        <ele>176.19999694824</ele>
        <time>2019-04-23T10:57:29.000Z</time>
      </trkpt>
      <trkpt lat="50.57524" lon="5.0079">
        <ele>172.4</ele>
        <time>2019-04-23T10:57:30.000Z</time>
      </trkpt>
      <trkpt lat="50.57509" lon="5.00799">
        <ele>172.3</ele>
        <time>2019-04-23T10:57:33.000Z</time>
      </trkpt>
      <trkpt lat="50.57484" lon="5.00812">
        <ele>171</ele>
        <time>2019-04-23T10:57:54.000Z</time>
      </trkpt>
      <trkpt lat="50.57461" lon="5.00828">
        <ele>170.9</ele>
        <time>2019-04-23T10:57:56.000Z</time>
      </trkpt>
      <trkpt lat="50.57442" lon="5.00841">
        <ele>170.7</ele>
        <time>2019-04-23T10:58:36.000Z</time>
      </trkpt>
      <trkpt lat="50.57392" lon="5.00871">
        <ele>170.9</ele>
        <time>2019-04-23T10:58:42.000Z</time>
      </trkpt>
      <trkpt lat="50.57362" lon="5.0089">
        <ele>171</ele>
        <time>2019-04-23T10:58:47.000Z</time>
      </trkpt>
      <trkpt lat="50.57348" lon="5.00897">
        <ele>171.1</ele>
        <time>2019-04-23T10:58:49.000Z</time>
      </trkpt>
      <trkpt lat="50.57324" lon="5.00912">
        <ele>171.4</ele>
        <time>2019-04-23T10:58:51.000Z</time>
      </trkpt>
      <trkpt lat="50.57267" lon="5.00916">
        <ele>172.6</ele>
        <time>2019-04-23T10:58:55.000Z</time>
      </trkpt>
      <trkpt lat="50.5721" lon="5.0092">
        <ele>178.39999389648</ele>
        <time>2019-04-23T10:59:05.000Z</time>
      </trkpt>
      <trkpt lat="50.57186" lon="5.0092">
        <ele>178.60000610352</ele>
        <time>2019-04-23T10:59:08.000Z</time>
      </trkpt>
      <trkpt lat="50.57128" lon="5.00923">
        <ele>179</ele>
        <time>2019-04-23T10:59:11.000Z</time>
      </trkpt>
      <trkpt lat="50.57104" lon="5.00924">
        <ele>179.39999389648</ele>
        <time>2019-04-23T10:59:12.000Z</time>
      </trkpt>
      <trkpt lat="50.57056" lon="5.00926">
        <ele>180.19999694824</ele>
        <time>2019-04-23T10:59:16.000Z</time>
      </trkpt>
      <trkpt lat="50.57026" lon="5.00928">
        <ele>180.60000610352</ele>
        <time>2019-04-23T10:59:18.000Z</time>
      </trkpt>
      <trkpt lat="50.5697" lon="5.00931">
        <ele>180.80000305176</ele>
        <time>2019-04-23T10:59:22.000Z</time>
      </trkpt>
      <trkpt lat="50.56945" lon="5.00931">
        <ele>180.80000305176</ele>
        <time>2019-04-23T10:59:24.000Z</time>
      </trkpt>
      <trkpt lat="50.56932" lon="5.00931">
        <ele>180.80000305176</ele>
        <time>2019-04-23T10:59:30.000Z</time>
      </trkpt>
      <trkpt lat="50.56925" lon="5.00932">
        <ele>180.80000305176</ele>
        <time>2019-04-23T10:59:34.000Z</time>
      </trkpt>
      <trkpt lat="50.56878" lon="5.00944">
        <ele>180.80000305176</ele>
        <time>2019-04-23T10:59:44.000Z</time>
      </trkpt>
      <trkpt lat="50.56825" lon="5.00958">
        <ele>181</ele>
        <time>2019-04-23T10:59:46.000Z</time>
      </trkpt>
      <trkpt lat="50.56803" lon="5.00964">
        <ele>181.19999694824</ele>
        <time>2019-04-23T10:59:50.000Z</time>
      </trkpt>
      <trkpt lat="50.56746" lon="5.00979">
        <ele>182</ele>
        <time>2019-04-23T10:59:52.000Z</time>
      </trkpt>
      <trkpt lat="50.56732" lon="5.00983">
        <ele>182.19999694824</ele>
        <time>2019-04-23T10:59:56.000Z</time>
      </trkpt>
      <trkpt lat="50.56719" lon="5.00986">
        <ele>182.39999389648</ele>
        <time>2019-04-23T10:59:57.000Z</time>
      </trkpt>
      <trkpt lat="50.56686" lon="5.00995">
        <ele>182.80000305176</ele>
        <time>2019-04-23T11:00:08.000Z</time>
      </trkpt>
      <trkpt lat="50.56644" lon="5.01007">
        <ele>183.60000610352</ele>
        <time>2019-04-23T11:00:10.000Z</time>
      </trkpt>
      <trkpt lat="50.56622" lon="5.01013">
        <ele>183.80000305176</ele>
        <time>2019-04-23T11:00:12.000Z</time>
      </trkpt>
      <trkpt lat="50.56571" lon="5.01033">
        <ele>178.2</ele>
        <time>2019-04-23T11:00:16.000Z</time>
      </trkpt>
      <trkpt lat="50.56553" lon="5.01043">
        <ele>178.1</ele>
        <time>2019-04-23T11:00:18.000Z</time>
      </trkpt>
      <trkpt lat="50.56513" lon="5.01068">
        <ele>177.6</ele>
        <time>2019-04-23T11:00:21.000Z</time>
      </trkpt>
      <trkpt lat="50.56459" lon="5.01107">
        <ele>177.5</ele>
        <time>2019-04-23T11:00:23.000Z</time>
      </trkpt>
      <trkpt lat="50.56427" lon="5.01129">
        <ele>177.7</ele>
        <time>2019-04-23T11:00:27.000Z</time>
      </trkpt>
      <trkpt lat="50.56378" lon="5.01163">
        <ele>178.6</ele>
        <time>2019-04-23T11:00:30.000Z</time>
      </trkpt>
      <trkpt lat="50.56363" lon="5.0117">
        <ele>179.2</ele>
        <time>2019-04-23T11:00:35.000Z</time>
      </trkpt>
      <trkpt lat="50.56334" lon="5.01188">
        <ele>184.60000610352</ele>
        <time>2019-04-23T11:00:38.000Z</time>
      </trkpt>
      <trkpt lat="50.56304" lon="5.01202">
        <ele>184.60000610352</ele>
        <time>2019-04-23T11:00:39.000Z</time>
      </trkpt>
      <trkpt lat="50.56277" lon="5.01219">
        <ele>180</ele>
        <time>2019-04-23T11:00:46.000Z</time>
      </trkpt>
      <trkpt lat="50.56251" lon="5.01234">
        <ele>180.5</ele>
        <time>2019-04-23T11:00:47.000Z</time>
      </trkpt>
      <trkpt lat="50.56236" lon="5.01244">
        <ele>180.3</ele>
        <time>2019-04-23T11:00:48.000Z</time>
      </trkpt>
      <trkpt lat="50.56187" lon="5.01275">
        <ele>179.2</ele>
        <time>2019-04-23T11:00:55.000Z</time>
      </trkpt>
      <trkpt lat="50.56172" lon="5.01285">
        <ele>179</ele>
        <time>2019-04-23T11:01:02.000Z</time>
      </trkpt>
      <trkpt lat="50.56131" lon="5.0131">
        <ele>184.39999389648</ele>
        <time>2019-04-23T11:02:04.000Z</time>
      </trkpt>
      <trkpt lat="50.56103" lon="5.01326">
        <ele>184.39999389648</ele>
        <time>2019-04-23T11:02:14.000Z</time>
      </trkpt>
      <trkpt lat="50.56074" lon="5.01342">
        <ele>179</ele>
        <time>2019-04-23T11:02:23.000Z</time>
      </trkpt>
      <trkpt lat="50.56046" lon="5.01352">
        <ele>184.39999389648</ele>
        <time>2019-04-23T11:02:24.000Z</time>
      </trkpt>
      <trkpt lat="50.5599" lon="5.01371">
        <ele>184.80000305176</ele>
        <time>2019-04-23T11:02:28.000Z</time>
      </trkpt>
      <trkpt lat="50.55932" lon="5.01378">
        <ele>185.60000610352</ele>
        <time>2019-04-23T11:02:31.000Z</time>
      </trkpt>
      <trkpt lat="50.55909" lon="5.01378">
        <ele>180.1</ele>
        <time>2019-04-23T11:02:33.000Z</time>
      </trkpt>
      <trkpt lat="50.55876" lon="5.01368">
        <ele>180.3</ele>
        <time>2019-04-23T11:02:38.000Z</time>
      </trkpt>
      <trkpt lat="50.55851" lon="5.01343">
        <ele>181</ele>
        <time>2019-04-23T11:02:41.000Z</time>
      </trkpt>
      <trkpt lat="50.55819" lon="5.01301">
        <ele>186.60000610352</ele>
        <time>2019-04-23T11:02:43.000Z</time>
      </trkpt>
      <trkpt lat="50.55809" lon="5.01289">
        <ele>186.80000305176</ele>
        <time>2019-04-23T11:02:47.000Z</time>
      </trkpt>
      <trkpt lat="50.55803" lon="5.01286">
        <ele>187</ele>
        <time>2019-04-23T11:02:48.000Z</time>
      </trkpt>
      <trkpt lat="50.55796" lon="5.01286">
        <ele>187.19999694824</ele>
        <time>2019-04-23T11:02:52.000Z</time>
      </trkpt>
      <trkpt lat="50.55789" lon="5.0129">
        <ele>182</ele>
        <time>2019-04-23T11:02:53.000Z</time>
      </trkpt>
      <trkpt lat="50.55781" lon="5.01304">
        <ele>182.1</ele>
      </trkpt>
      <trkpt lat="50.55773" lon="5.0132">
        <ele>181.9</ele>
      </trkpt>
      <trkpt lat="50.55747" lon="5.01375">
        <ele>179.7</ele>
      </trkpt>
      <trkpt lat="50.55723" lon="5.01428">
        <ele>186.80000305176</ele>
      </trkpt>
      <trkpt lat="50.55719" lon="5.01438">
        <ele>186.19999694824</ele>
      </trkpt>
      <trkpt lat="50.55714" lon="5.01447">
        <ele>186</ele>
      </trkpt>
      <trkpt lat="50.55709" lon="5.01454">
        <ele>185.80000305176</ele>
      </trkpt>
      <trkpt lat="50.55703" lon="5.01459">
        <ele>185.60000610352</ele>
      </trkpt>
      <trkpt lat="50.55689" lon="5.01466">
        <ele>184.39999389648</ele>
      </trkpt>
      <trkpt lat="50.5566" lon="5.01482">
        <ele>183.39999389648</ele>
      </trkpt>
      <trkpt lat="50.55653" lon="5.01486">
        <ele>183.39999389648</ele>
      </trkpt>
      <trkpt lat="50.556" lon="5.01512">
        <ele>182.60000610352</ele>
      </trkpt>
      <trkpt lat="50.55577" lon="5.01523">
        <ele>182.60000610352</ele>
      </trkpt>
      <trkpt lat="50.55528" lon="5.01547">
        <ele>183</ele>
      </trkpt>
      <trkpt lat="50.55521" lon="5.0155">
        <ele>183.19999694824</ele>
      </trkpt>
      <trkpt lat="50.55479" lon="5.0157">
        <ele>184</ele>
      </trkpt>
      <trkpt lat="50.55466" lon="5.01576">
        <ele>184.39999389648</ele>
      </trkpt>
      <trkpt lat="50.5541" lon="5.01604">
        <ele>185.39999389648</ele>
      </trkpt>
      <trkpt lat="50.55395" lon="5.01611">
        <ele>185.60000610352</ele>
      </trkpt>
      <trkpt lat="50.55367" lon="5.01625">
        <ele>186.39999389648</ele>
      </trkpt>
      <trkpt lat="50.55318" lon="5.01649">
        <ele>187</ele>
      </trkpt>
      <trkpt lat="50.55276" lon="5.01669">
        <ele>187.39999389648</ele>
      </trkpt>
      <trkpt lat="50.55251" lon="5.01683">
        <ele>182</ele>
      </trkpt>
      <trkpt lat="50.55228" lon="5.01693">
        <ele>187.80000305176</ele>
      </trkpt>
      <trkpt lat="50.552" lon="5.0171">
        <ele>184</ele>
      </trkpt>
      <trkpt lat="50.55173" lon="5.01719">
        <ele>188.39999389648</ele>
      </trkpt>
      <trkpt lat="50.55152" lon="5.01728">
        <ele>188.80000305176</ele>
      </trkpt>
      <trkpt lat="50.55122" lon="5.01738">
        <ele>186</ele>
      </trkpt>
      <trkpt lat="50.55096" lon="5.01745">
        <ele>186.6</ele>
      </trkpt>
      <trkpt lat="50.55054" lon="5.01738">
        <ele>189.60000610352</ele>
      </trkpt>
      <trkpt lat="50.55047" lon="5.01738">
        <ele>189.60000610352</ele>
      </trkpt>
      <trkpt lat="50.55033" lon="5.01744">
        <ele>189.60000610352</ele>
      </trkpt>
      <trkpt lat="50.55027" lon="5.0175">
        <ele>189.60000610352</ele>
      </trkpt>
      <trkpt lat="50.5502" lon="5.01768">
        <ele>185.9</ele>
      </trkpt>
      <trkpt lat="50.55015" lon="5.01782">
        <ele>185.8</ele>
      </trkpt>
      <trkpt lat="50.55007" lon="5.01805">
        <ele>186</ele>
      </trkpt>
      <trkpt lat="50.54998" lon="5.0182">
        <ele>189.60000610352</ele>
      </trkpt>
      <trkpt lat="50.54989" lon="5.01838">
        <ele>189.39999389648</ele>
      </trkpt>
      <trkpt lat="50.54981" lon="5.01862">
        <ele>185.6</ele>
      </trkpt>
      <trkpt lat="50.54975" lon="5.01884">
        <ele>188.80000305176</ele>
      </trkpt>
      <trkpt lat="50.5497" lon="5.01909">
        <ele>188.60000610352</ele>
      </trkpt>
      <trkpt lat="50.54968" lon="5.01921">
        <ele>188.39999389648</ele>
      </trkpt>
      <trkpt lat="50.54961" lon="5.01954">
        <ele>186</ele>
      </trkpt>
      <trkpt lat="50.54952" lon="5.01986">
        <ele>186</ele>
      </trkpt>
      <trkpt lat="50.54944" lon="5.02016">
        <ele>185.7</ele>
      </trkpt>
      <trkpt lat="50.54935" lon="5.02048">
        <ele>185.5</ele>
      </trkpt>
      <trkpt lat="50.54927" lon="5.02079">
        <ele>185</ele>
      </trkpt>
      <trkpt lat="50.54917" lon="5.02098">
        <ele>185.4</ele>
      </trkpt>
      <trkpt lat="50.54902" lon="5.02113">
        <ele>187</ele>
      </trkpt>
      <trkpt lat="50.54891" lon="5.02121">
        <ele>187.4</ele>
      </trkpt>
      <trkpt lat="50.54862" lon="5.02143">
        <ele>188.2</ele>
      </trkpt>
      <trkpt lat="50.54838" lon="5.02159">
        <ele>189.3</ele>
      </trkpt>
      <trkpt lat="50.54812" lon="5.02175">
        <ele>190</ele>
      </trkpt>
      <trkpt lat="50.54768" lon="5.02207">
        <ele>190</ele>
      </trkpt>
      <trkpt lat="50.54744" lon="5.02223">
        <ele>189.4</ele>
      </trkpt>
      <trkpt lat="50.54713" lon="5.02244">
        <ele>189</ele>
      </trkpt>
      <trkpt lat="50.54702" lon="5.02252">
        <ele>188.4</ele>
      </trkpt>
      <trkpt lat="50.54691" lon="5.02258">
        <ele>188.3</ele>
      </trkpt>
      <trkpt lat="50.54678" lon="5.02238">
        <ele>188.5</ele>
      </trkpt>
      <trkpt lat="50.54652" lon="5.02196">
        <ele>187</ele>
      </trkpt>
      <trkpt lat="50.54616" lon="5.02139">
        <ele>186.1</ele>
      </trkpt>
      <trkpt lat="50.54593" lon="5.02102">
        <ele>185.3</ele>
      </trkpt>
      <trkpt lat="50.54579" lon="5.02083">
        <ele>184.3</ele>
      </trkpt>
      <trkpt lat="50.54569" lon="5.02092">
        <ele>184.5</ele>
      </trkpt>
      <trkpt lat="50.54557" lon="5.021">
        <ele>184.8</ele>
      </trkpt>
      <trkpt lat="50.54535" lon="5.02121">
        <ele>190.39999389648</ele>
      </trkpt>
      <trkpt lat="50.54525" lon="5.0214">
        <ele>185.1</ele>
      </trkpt>
      <trkpt lat="50.5451" lon="5.02171">
        <ele>185</ele>
      </trkpt>
      <trkpt lat="50.54494" lon="5.02198">
        <ele>185.6</ele>
      </trkpt>
      <trkpt lat="50.54476" lon="5.02225">
        <ele>186</ele>
      </trkpt>
      <trkpt lat="50.54457" lon="5.02246">
        <ele>186</ele>
      </trkpt>
      <trkpt lat="50.54444" lon="5.0226">
        <ele>186.2</ele>
      </trkpt>
      <trkpt lat="50.54426" lon="5.02267">
        <ele>191.60000610352</ele>
      </trkpt>
      <trkpt lat="50.54419" lon="5.02269">
        <ele>191.80000305176</ele>
      </trkpt>
      <trkpt lat="50.54398" lon="5.02276">
        <ele>187</ele>
      </trkpt>
      <trkpt lat="50.54377" lon="5.02287">
        <ele>192.19999694824</ele>
      </trkpt>
      <trkpt lat="50.54356" lon="5.02322">
        <ele>187.5</ele>
      </trkpt>
      <trkpt lat="50.54326" lon="5.02377">
        <ele>192.60000610352</ele>
      </trkpt>
      <trkpt lat="50.54312" lon="5.02404">
        <ele>188.7</ele>
      </trkpt>
      <trkpt lat="50.54289" lon="5.0245">
        <ele>193.80000305176</ele>
      </trkpt>
      <trkpt lat="50.54262" lon="5.02498">
        <ele>194.80000305176</ele>
      </trkpt>
      <trkpt lat="50.5423" lon="5.02562">
        <ele>189.2</ele>
      </trkpt>
      <trkpt lat="50.54196" lon="5.02624">
        <ele>194.39999389648</ele>
      </trkpt>
      <trkpt lat="50.54176" lon="5.02661">
        <ele>193.80000305176</ele>
      </trkpt>
      <trkpt lat="50.54159" lon="5.02686">
        <ele>193.39999389648</ele>
      </trkpt>
      <trkpt lat="50.5413" lon="5.02723">
        <ele>193</ele>
      </trkpt>
      <trkpt lat="50.54113" lon="5.02744">
        <ele>193</ele>
      </trkpt>
      <trkpt lat="50.54066" lon="5.028">
        <ele>192.80000305176</ele>
      </trkpt>
      <trkpt lat="50.54044" lon="5.02827">
        <ele>193</ele>
      </trkpt>
      <trkpt lat="50.54016" lon="5.02864">
        <ele>193.19999694824</ele>
      </trkpt>
      <trkpt lat="50.53998" lon="5.02884">
        <ele>193.19999694824</ele>
      </trkpt>
      <trkpt lat="50.53956" lon="5.02934">
        <ele>189.4</ele>
      </trkpt>
      <trkpt lat="50.53921" lon="5.02976">
        <ele>190.1</ele>
      </trkpt>
      <trkpt lat="50.53903" lon="5.02998">
        <ele>191.3</ele>
      </trkpt>
      <trkpt lat="50.53873" lon="5.03034">
        <ele>193.2</ele>
      </trkpt>
      <trkpt lat="50.53845" lon="5.03069">
        <ele>194.6</ele>
      </trkpt>
      <trkpt lat="50.53803" lon="5.03122">
        <ele>197.3</ele>
      </trkpt>
      <trkpt lat="50.5377" lon="5.03161">
        <ele>198.1</ele>
      </trkpt>
      <trkpt lat="50.53759" lon="5.03176">
        <ele>199.60000610352</ele>
      </trkpt>
      <trkpt lat="50.53744" lon="5.03192">
        <ele>200</ele>
      </trkpt>
      <trkpt lat="50.53732" lon="5.03195">
        <ele>198.4</ele>
      </trkpt>
      <trkpt lat="50.53714" lon="5.03191">
        <ele>198.3</ele>
      </trkpt>
      <trkpt lat="50.53681" lon="5.03182">
        <ele>197.8</ele>
      </trkpt>
      <trkpt lat="50.5364" lon="5.03173">
        <ele>202.39999389648</ele>
      </trkpt>
      <trkpt lat="50.53613" lon="5.03165">
        <ele>202.80000305176</ele>
      </trkpt>
      <trkpt lat="50.53564" lon="5.03154">
        <ele>197</ele>
      </trkpt>
      <trkpt lat="50.5353" lon="5.03146">
        <ele>197</ele>
      </trkpt>
      <trkpt lat="50.5348" lon="5.03132">
        <ele>198.1</ele>
      </trkpt>
      <trkpt lat="50.53439" lon="5.0312">
        <ele>205</ele>
      </trkpt>
      <trkpt lat="50.53405" lon="5.03112">
        <ele>205.39999389648</ele>
      </trkpt>
      <trkpt lat="50.53351" lon="5.03105">
        <ele>206</ele>
      </trkpt>
      <trkpt lat="50.53324" lon="5.03103">
        <ele>206.39999389648</ele>
      </trkpt>
      <trkpt lat="50.53305" lon="5.03101">
        <ele>207.19999694824</ele>
      </trkpt>
      <trkpt lat="50.53287" lon="5.03099">
        <ele>208.19999694824</ele>
      </trkpt>
      <trkpt lat="50.53281" lon="5.03098">
        <ele>208.19999694824</ele>
      </trkpt>
      <trkpt lat="50.53237" lon="5.03091">
        <ele>208.80000305176</ele>
      </trkpt>
      <trkpt lat="50.53217" lon="5.03088">
        <ele>209.39999389648</ele>
      </trkpt>
      <trkpt lat="50.53191" lon="5.03087">
        <ele>203.9</ele>
      </trkpt>
      <trkpt lat="50.53176" lon="5.03086">
        <ele>203.9</ele>
      </trkpt>
      <trkpt lat="50.53158" lon="5.03085">
        <ele>204</ele>
      </trkpt>
      <trkpt lat="50.53142" lon="5.03085">
        <ele>203.8</ele>
      </trkpt>
      <trkpt lat="50.53133" lon="5.03092">
        <ele>204</ele>
      </trkpt>
      <trkpt lat="50.53125" lon="5.03104">
        <ele>211</ele>
      </trkpt>
      <trkpt lat="50.5312" lon="5.03116">
        <ele>204</ele>
      </trkpt>
      <trkpt lat="50.53118" lon="5.03137">
        <ele>203.8</ele>
      </trkpt>
      <trkpt lat="50.53121" lon="5.03171">
        <ele>204.1</ele>
      </trkpt>
      <trkpt lat="50.53125" lon="5.03206">
        <ele>204</ele>
      </trkpt>
      <trkpt lat="50.53128" lon="5.03243">
        <ele>204</ele>
      </trkpt>
      <trkpt lat="50.53131" lon="5.0328">
        <ele>203.2</ele>
      </trkpt>
      <trkpt lat="50.53135" lon="5.0332">
        <ele>203</ele>
      </trkpt>
      <trkpt lat="50.53138" lon="5.03349">
        <ele>201.9</ele>
      </trkpt>
      <trkpt lat="50.53142" lon="5.03385">
        <ele>201.5</ele>
      </trkpt>
      <trkpt lat="50.53142" lon="5.03415">
        <ele>201.4</ele>
      </trkpt>
      <trkpt lat="50.53141" lon="5.03435">
        <ele>201</ele>
      </trkpt>
      <trkpt lat="50.53138" lon="5.03454">
        <ele>200.9</ele>
      </trkpt>
      <trkpt lat="50.53128" lon="5.03486">
        <ele>200.8</ele>
      </trkpt>
      <trkpt lat="50.53114" lon="5.03509">
        <ele>201.2</ele>
      </trkpt>
      <trkpt lat="50.53099" lon="5.03531">
        <ele>201.3</ele>
      </trkpt>
      <trkpt lat="50.53065" lon="5.03578">
        <ele>201.9</ele>
      </trkpt>
      <trkpt lat="50.53048" lon="5.03603">
        <ele>202</ele>
      </trkpt>
      <trkpt lat="50.53028" lon="5.03633">
        <ele>202.1</ele>
      </trkpt>
      <trkpt lat="50.52996" lon="5.03677">
        <ele>203.3</ele>
      </trkpt>
      <trkpt lat="50.52985" lon="5.03692">
        <ele>203.6</ele>
      </trkpt>
      <trkpt lat="50.52972" lon="5.03689">
        <ele>203.8</ele>
      </trkpt>
      <trkpt lat="50.52966" lon="5.03694">
        <ele>204</ele>
      </trkpt>
      <trkpt lat="50.52961" lon="5.03709">
        <ele>209.80000305176</ele>
      </trkpt>
      <trkpt lat="50.52964" lon="5.03722">
        <ele>204</ele>
      </trkpt>
      <trkpt lat="50.52944" lon="5.0375">
        <ele>204.5</ele>
      </trkpt>
      <trkpt lat="50.52906" lon="5.03803">
        <ele>206</ele>
      </trkpt>
      <trkpt lat="50.52866" lon="5.0386">
        <ele>212.39999389648</ele>
      </trkpt>
      <trkpt lat="50.52856" lon="5.03875">
        <ele>212.39999389648</ele>
      </trkpt>
      <trkpt lat="50.52846" lon="5.03889">
        <ele>212.60000610352</ele>
      </trkpt>
      <trkpt lat="50.52834" lon="5.03906">
        <ele>207</ele>
      </trkpt>
      <trkpt lat="50.52821" lon="5.03925">
        <ele>207.7</ele>
      </trkpt>
      <trkpt lat="50.52792" lon="5.03975">
        <ele>213.60000610352</ele>
      </trkpt>
      <trkpt lat="50.52783" lon="5.03992">
        <ele>208.7</ele>
      </trkpt>
      <trkpt lat="50.52757" lon="5.0404">
        <ele>209.3</ele>
      </trkpt>
      <trkpt lat="50.5274" lon="5.04071">
        <ele>209.5</ele>
      </trkpt>
      <trkpt lat="50.52706" lon="5.04133">
        <ele>209</ele>
      </trkpt>
      <trkpt lat="50.52681" lon="5.0418">
        <ele>209</ele>
      </trkpt>
      <trkpt lat="50.52664" lon="5.04212">
        <ele>208.4</ele>
      </trkpt>
      <trkpt lat="50.52645" lon="5.04247">
        <ele>208.4</ele>
      </trkpt>
      <trkpt lat="50.52625" lon="5.04284">
        <ele>207.8</ele>
      </trkpt>
      <trkpt lat="50.52605" lon="5.04319">
        <ele>207.2</ele>
      </trkpt>
      <trkpt lat="50.52585" lon="5.04359">
        <ele>206.8</ele>
      </trkpt>
      <trkpt lat="50.52552" lon="5.0442">
        <ele>213</ele>
      </trkpt>
      <trkpt lat="50.52542" lon="5.04439">
        <ele>212.80000305176</ele>
      </trkpt>
      <trkpt lat="50.52522" lon="5.04477">
        <ele>212</ele>
      </trkpt>
      <trkpt lat="50.52512" lon="5.04498">
        <ele>205.9</ele>
      </trkpt>
      <trkpt lat="50.52499" lon="5.04502">
        <ele>206.2</ele>
      </trkpt>
      <trkpt lat="50.52481" lon="5.04508">
        <ele>206.9</ele>
      </trkpt>
      <trkpt lat="50.52473" lon="5.04511">
        <ele>211.19999694824</ele>
      </trkpt>
      <trkpt lat="50.52452" lon="5.04517">
        <ele>211</ele>
      </trkpt>
      <trkpt lat="50.52432" lon="5.04522">
        <ele>206.8</ele>
      </trkpt>
      <trkpt lat="50.52408" lon="5.04528">
        <ele>207.8</ele>
      </trkpt>
      <trkpt lat="50.52394" lon="5.04532">
        <ele>211</ele>
      </trkpt>
      <trkpt lat="50.52363" lon="5.04538">
        <ele>211.19999694824</ele>
      </trkpt>
      <trkpt lat="50.52351" lon="5.0454">
        <ele>211.39999389648</ele>
      </trkpt>
      <trkpt lat="50.5233" lon="5.04545">
        <ele>212</ele>
      </trkpt>
      <trkpt lat="50.52321" lon="5.04548">
        <ele>212</ele>
      </trkpt>
      <trkpt lat="50.52316" lon="5.04556">
        <ele>211.7</ele>
      </trkpt>
      <trkpt lat="50.52305" lon="5.04578">
        <ele>211.8</ele>
      </trkpt>
      <trkpt lat="50.52297" lon="5.04595">
        <ele>214</ele>
      </trkpt>
      <trkpt lat="50.52279" lon="5.04637">
        <ele>214.80000305176</ele>
      </trkpt>
      <trkpt lat="50.52272" lon="5.04652">
        <ele>214.80000305176</ele>
      </trkpt>
      <trkpt lat="50.52262" lon="5.04662">
        <ele>214.80000305176</ele>
      </trkpt>
      <trkpt lat="50.52244" lon="5.04676">
        <ele>215</ele>
      </trkpt>
      <trkpt lat="50.52233" lon="5.04689">
        <ele>215</ele>
      </trkpt>
      <trkpt lat="50.52199" lon="5.04728">
        <ele>215</ele>
      </trkpt>
      <trkpt lat="50.52192" lon="5.04736">
        <ele>214.60000610352</ele>
      </trkpt>
      <trkpt lat="50.52184" lon="5.04742">
        <ele>214.19999694824</ele>
      </trkpt>
      <trkpt lat="50.52179" lon="5.04748">
        <ele>207</ele>
      </trkpt>
      <trkpt lat="50.52168" lon="5.04749">
        <ele>207</ele>
      </trkpt>
      <trkpt lat="50.5215" lon="5.04751">
        <ele>207.5</ele>
      </trkpt>
      <trkpt lat="50.52134" lon="5.04752">
        <ele>207.8</ele>
      </trkpt>
      <trkpt lat="50.52122" lon="5.04751">
        <ele>207.8</ele>
      </trkpt>
      <trkpt lat="50.52086" lon="5.04754">
        <ele>211.19999694824</ele>
      </trkpt>
      <trkpt lat="50.52072" lon="5.04759">
        <ele>208</ele>
      </trkpt>
      <trkpt lat="50.5206" lon="5.04771">
        <ele>209.4</ele>
      </trkpt>
      <trkpt lat="50.52039" lon="5.04793">
        <ele>212</ele>
      </trkpt>
      <trkpt lat="50.52028" lon="5.04804">
        <ele>212.80000305176</ele>
      </trkpt>
      <trkpt lat="50.52018" lon="5.04815">
        <ele>213.60000610352</ele>
      </trkpt>
      <trkpt lat="50.52013" lon="5.04821">
        <ele>214</ele>
      </trkpt>
      <trkpt lat="50.52003" lon="5.04833">
        <ele>215.39999389648</ele>
      </trkpt>
      <trkpt lat="50.51988" lon="5.04855">
        <ele>216.39999389648</ele>
      </trkpt>
      <trkpt lat="50.5197" lon="5.04889">
        <ele>217.19999694824</ele>
      </trkpt>
      <trkpt lat="50.51962" lon="5.04905">
        <ele>217.39999389648</ele>
      </trkpt>
      <trkpt lat="50.51954" lon="5.04922">
        <ele>217.60000610352</ele>
      </trkpt>
      <trkpt lat="50.51923" lon="5.04991">
        <ele>218.60000610352</ele>
      </trkpt>
      <trkpt lat="50.51908" lon="5.05026">
        <ele>219.19999694824</ele>
      </trkpt>
      <trkpt lat="50.51896" lon="5.05051">
        <ele>219.80000305176</ele>
      </trkpt>
      <trkpt lat="50.51879" lon="5.05082">
        <ele>220.19999694824</ele>
      </trkpt>
      <trkpt lat="50.51841" lon="5.05141">
        <ele>214.2</ele>
      </trkpt>
      <trkpt lat="50.51831" lon="5.05154">
        <ele>220.19999694824</ele>
      </trkpt>
      <trkpt lat="50.51824" lon="5.05168">
        <ele>213</ele>
      </trkpt>
      <trkpt lat="50.51815" lon="5.05166">
        <ele>212.9</ele>
      </trkpt>
      <trkpt lat="50.51802" lon="5.05169">
        <ele>219.80000305176</ele>
      </trkpt>
      <trkpt lat="50.51787" lon="5.05175">
        <ele>219.39999389648</ele>
      </trkpt>
      <trkpt lat="50.51772" lon="5.05185">
        <ele>219.19999694824</ele>
      </trkpt>
      <trkpt lat="50.51758" lon="5.05198">
        <ele>218.60000610352</ele>
      </trkpt>
      <trkpt lat="50.51751" lon="5.05206">
        <ele>218.39999389648</ele>
      </trkpt>
      <trkpt lat="50.5173" lon="5.05234">
        <ele>217.39999389648</ele>
      </trkpt>
      <trkpt lat="50.51717" lon="5.05255">
        <ele>217</ele>
      </trkpt>
      <trkpt lat="50.51703" lon="5.05277">
        <ele>216.60000610352</ele>
      </trkpt>
      <trkpt lat="50.5168" lon="5.05311">
        <ele>215.19999694824</ele>
      </trkpt>
      <trkpt lat="50.51672" lon="5.05323">
        <ele>214.80000305176</ele>
      </trkpt>
      <trkpt lat="50.51664" lon="5.05336">
        <ele>214</ele>
      </trkpt>
      <trkpt lat="50.51648" lon="5.05362">
        <ele>212.80000305176</ele>
      </trkpt>
      <trkpt lat="50.51631" lon="5.05384">
        <ele>211.60000610352</ele>
      </trkpt>
      <trkpt lat="50.51621" lon="5.05393">
        <ele>210.39999389648</ele>
      </trkpt>
      <trkpt lat="50.51603" lon="5.054">
        <ele>195.2</ele>
      </trkpt>
      <trkpt lat="50.51592" lon="5.05408">
        <ele>207.19999694824</ele>
      </trkpt>
      <trkpt lat="50.51581" lon="5.05412">
        <ele>206</ele>
      </trkpt>
      <trkpt lat="50.51561" lon="5.05424">
        <ele>204.19999694824</ele>
      </trkpt>
      <trkpt lat="50.51551" lon="5.05432">
        <ele>203.39999389648</ele>
      </trkpt>
      <trkpt lat="50.51541" lon="5.05442">
        <ele>202.80000305176</ele>
      </trkpt>
      <trkpt lat="50.51501" lon="5.05486">
        <ele>189.2</ele>
      </trkpt>
      <trkpt lat="50.51481" lon="5.05506">
        <ele>200.39999389648</ele>
      </trkpt>
      <trkpt lat="50.51462" lon="5.05528">
        <ele>198.80000305176</ele>
      </trkpt>
      <trkpt lat="50.51452" lon="5.05539">
        <ele>197.80000305176</ele>
      </trkpt>
      <trkpt lat="50.51441" lon="5.0555">
        <ele>196.80000305176</ele>
      </trkpt>
      <trkpt lat="50.51418" lon="5.05569">
        <ele>195.19999694824</ele>
      </trkpt>
      <trkpt lat="50.51406" lon="5.05577">
        <ele>194</ele>
      </trkpt>
      <trkpt lat="50.51384" lon="5.05592">
        <ele>192.19999694824</ele>
      </trkpt>
      <trkpt lat="50.51373" lon="5.05597">
        <ele>191.19999694824</ele>
      </trkpt>
      <trkpt lat="50.51362" lon="5.05602">
        <ele>190.19999694824</ele>
      </trkpt>
      <trkpt lat="50.51351" lon="5.05604">
        <ele>189.19999694824</ele>
      </trkpt>
      <trkpt lat="50.5133" lon="5.05603">
        <ele>187.19999694824</ele>
      </trkpt>
      <trkpt lat="50.51319" lon="5.056">
        <ele>186</ele>
      </trkpt>
      <trkpt lat="50.51309" lon="5.05597">
        <ele>185.19999694824</ele>
      </trkpt>
      <trkpt lat="50.51298" lon="5.05595">
        <ele>184.39999389648</ele>
      </trkpt>
      <trkpt lat="50.51288" lon="5.05595">
        <ele>176.2</ele>
      </trkpt>
      <trkpt lat="50.51267" lon="5.056">
        <ele>175.9</ele>
      </trkpt>
      <trkpt lat="50.51257" lon="5.05605">
        <ele>175.9</ele>
      </trkpt>
      <trkpt lat="50.51236" lon="5.05618">
        <ele>175.9</ele>
      </trkpt>
      <trkpt lat="50.51211" lon="5.05637">
        <ele>176.1</ele>
      </trkpt>
      <trkpt lat="50.51168" lon="5.05672">
        <ele>177.1</ele>
      </trkpt>
      <trkpt lat="50.51139" lon="5.05697">
        <ele>175.6</ele>
      </trkpt>
      <trkpt lat="50.51131" lon="5.05703">
        <ele>175</ele>
      </trkpt>
      <trkpt lat="50.51129" lon="5.05692">
        <ele>183.39999389648</ele>
      </trkpt>
      <trkpt lat="50.51128" lon="5.0566">
        <ele>175.4</ele>
      </trkpt>
      <trkpt lat="50.51125" lon="5.05584">
        <ele>175.2</ele>
      </trkpt>
      <trkpt lat="50.51123" lon="5.05501">
        <ele>183.39999389648</ele>
      </trkpt>
      <trkpt lat="50.51115" lon="5.0544">
        <ele>182.39999389648</ele>
      </trkpt>
      <trkpt lat="50.51112" lon="5.05425">
        <ele>182</ele>
      </trkpt>
      <trkpt lat="50.51106" lon="5.0538">
        <ele>169.9</ele>
      </trkpt>
      <trkpt lat="50.51102" lon="5.05359">
        <ele>169.6</ele>
      </trkpt>
      <trkpt lat="50.51095" lon="5.05311">
        <ele>165.8</ele>
      </trkpt>
      <trkpt lat="50.51092" lon="5.05287">
        <ele>179.60000610352</ele>
      </trkpt>
      <trkpt lat="50.51089" lon="5.05268">
        <ele>179.19999694824</ele>
      </trkpt>
      <trkpt lat="50.5108" lon="5.0523">
        <ele>178.39999389648</ele>
      </trkpt>
      <trkpt lat="50.5107" lon="5.05192">
        <ele>177</ele>
      </trkpt>
      <trkpt lat="50.51064" lon="5.05173">
        <ele>176.19999694824</ele>
      </trkpt>
      <trkpt lat="50.51057" lon="5.05154">
        <ele>175.60000610352</ele>
      </trkpt>
      <trkpt lat="50.51044" lon="5.05117">
        <ele>174</ele>
      </trkpt>
      <trkpt lat="50.51033" lon="5.05082">
        <ele>172</ele>
      </trkpt>
      <trkpt lat="50.5103" lon="5.05064">
        <ele>170.80000305176</ele>
      </trkpt>
      <trkpt lat="50.51027" lon="5.05045">
        <ele>169.60000610352</ele>
      </trkpt>
      <trkpt lat="50.51024" lon="5.05027">
        <ele>168.39999389648</ele>
      </trkpt>
      <trkpt lat="50.51019" lon="5.05009">
        <ele>166</ele>
      </trkpt>
      <trkpt lat="50.51006" lon="5.04974">
        <ele>164.19999694824</ele>
      </trkpt>
      <trkpt lat="50.5099" lon="5.04942">
        <ele>162.80000305176</ele>
      </trkpt>
      <trkpt lat="50.50972" lon="5.04915">
        <ele>146.3</ele>
      </trkpt>
      <trkpt lat="50.50961" lon="5.04899">
        <ele>161</ele>
      </trkpt>
      <trkpt lat="50.50949" lon="5.04887">
        <ele>160.39999389648</ele>
      </trkpt>
      <trkpt lat="50.50927" lon="5.04862">
        <ele>158.39999389648</ele>
      </trkpt>
      <trkpt lat="50.50904" lon="5.04843">
        <ele>141.9</ele>
      </trkpt>
      <trkpt lat="50.50891" lon="5.04832">
        <ele>140.1</ele>
      </trkpt>
      <trkpt lat="50.50879" lon="5.04824">
        <ele>140.5</ele>
      </trkpt>
      <trkpt lat="50.50866" lon="5.04812">
        <ele>141</ele>
      </trkpt>
      <trkpt lat="50.50858" lon="5.04797">
        <ele>141</ele>
      </trkpt>
      <trkpt lat="50.5084" lon="5.04765">
        <ele>150.60000610352</ele>
      </trkpt>
      <trkpt lat="50.50824" lon="5.04736">
        <ele>149</ele>
      </trkpt>
      <trkpt lat="50.50815" lon="5.04726">
        <ele>145.8</ele>
      </trkpt>
      <trkpt lat="50.50806" lon="5.04715">
        <ele>146.3</ele>
      </trkpt>
      <trkpt lat="50.50794" lon="5.04695">
        <ele>147</ele>
      </trkpt>
      <trkpt lat="50.50782" lon="5.04673">
        <ele>147.5</ele>
      </trkpt>
      <trkpt lat="50.5077" lon="5.04652">
        <ele>145.2</ele>
      </trkpt>
      <trkpt lat="50.50749" lon="5.04617">
        <ele>151</ele>
      </trkpt>
      <trkpt lat="50.5073" lon="5.04581">
        <ele>144.1</ele>
      </trkpt>
      <trkpt lat="50.5072" lon="5.04549">
        <ele>144.6</ele>
      </trkpt>
      <trkpt lat="50.50715" lon="5.04524">
        <ele>143.6</ele>
      </trkpt>
      <trkpt lat="50.50704" lon="5.04482">
        <ele>139.1</ele>
      </trkpt>
      <trkpt lat="50.50691" lon="5.04425">
        <ele>138.3</ele>
      </trkpt>
      <trkpt lat="50.50682" lon="5.0439">
        <ele>134.6</ele>
      </trkpt>
      <trkpt lat="50.50672" lon="5.04349">
        <ele>132.1</ele>
      </trkpt>
      <trkpt lat="50.50661" lon="5.04315">
        <ele>133.3</ele>
      </trkpt>
      <trkpt lat="50.50653" lon="5.04297">
        <ele>134</ele>
      </trkpt>
      <trkpt lat="50.50645" lon="5.04283">
        <ele>134</ele>
      </trkpt>
      <trkpt lat="50.50635" lon="5.04268">
        <ele>134</ele>
      </trkpt>
      <trkpt lat="50.50617" lon="5.04254">
        <ele>134.9</ele>
      </trkpt>
      <trkpt lat="50.50604" lon="5.04244">
        <ele>135.8</ele>
      </trkpt>
      <trkpt lat="50.50591" lon="5.04234">
        <ele>136.2</ele>
      </trkpt>
      <trkpt lat="50.5058" lon="5.0423">
        <ele>138.4</ele>
      </trkpt>
      <trkpt lat="50.5056" lon="5.04228">
        <ele>139</ele>
      </trkpt>
      <trkpt lat="50.50551" lon="5.04224">
        <ele>139.3</ele>
      </trkpt>
      <trkpt lat="50.50542" lon="5.04223">
        <ele>139.5</ele>
      </trkpt>
      <trkpt lat="50.50526" lon="5.0423">
        <ele>138.9</ele>
      </trkpt>
      <trkpt lat="50.50503" lon="5.04238">
        <ele>137.1</ele>
      </trkpt>
      <trkpt lat="50.50485" lon="5.04244">
        <ele>137.1</ele>
      </trkpt>
      <trkpt lat="50.50459" lon="5.04249">
        <ele>122.40000152588</ele>
      </trkpt>
      <trkpt lat="50.5043" lon="5.04222">
        <ele>121.80000305176</ele>
      </trkpt>
      <trkpt lat="50.50403" lon="5.04199">
        <ele>138</ele>
      </trkpt>
      <trkpt lat="50.50382" lon="5.04179">
        <ele>137.7</ele>
      </trkpt>
      <trkpt lat="50.50353" lon="5.04162">
        <ele>138</ele>
      </trkpt>
      <trkpt lat="50.50338" lon="5.04155">
        <ele>137</ele>
      </trkpt>
      <trkpt lat="50.50322" lon="5.04143">
        <ele>134.3</ele>
      </trkpt>
      <trkpt lat="50.50307" lon="5.04131">
        <ele>120.59999847412</ele>
      </trkpt>
      <trkpt lat="50.50295" lon="5.04116">
        <ele>135.3</ele>
      </trkpt>
      <trkpt lat="50.50276" lon="5.04118">
        <ele>134.8</ele>
      </trkpt>
      <trkpt lat="50.50259" lon="5.0412">
        <ele>134.4</ele>
      </trkpt>
      <trkpt lat="50.50234" lon="5.0412">
        <ele>131.6</ele>
      </trkpt>
      <trkpt lat="50.50219" lon="5.0412">
        <ele>131.2</ele>
      </trkpt>
      <trkpt lat="50.50203" lon="5.04119">
        <ele>131</ele>
      </trkpt>
      <trkpt lat="50.50184" lon="5.04113">
        <ele>121.40000152588</ele>
      </trkpt>
      <trkpt lat="50.50162" lon="5.04104">
        <ele>128.8</ele>
      </trkpt>
      <trkpt lat="50.50154" lon="5.04099">
        <ele>128.8</ele>
      </trkpt>
      <trkpt lat="50.50138" lon="5.04084">
        <ele>128.1</ele>
      </trkpt>
      <trkpt lat="50.50123" lon="5.0407">
        <ele>131.7</ele>
      </trkpt>
      <trkpt lat="50.50099" lon="5.04047">
        <ele>131.6</ele>
      </trkpt>
      <trkpt lat="50.50078" lon="5.04029">
        <ele>131</ele>
      </trkpt>
      <trkpt lat="50.50063" lon="5.04008">
        <ele>131</ele>
      </trkpt>
      <trkpt lat="50.50043" lon="5.03983">
        <ele>131.3</ele>
      </trkpt>
      <trkpt lat="50.50025" lon="5.03958">
        <ele>130.7</ele>
      </trkpt>
      <trkpt lat="50.50012" lon="5.03941">
        <ele>129.3</ele>
      </trkpt>
      <trkpt lat="50.50002" lon="5.03927">
        <ele>126.9</ele>
      </trkpt>
      <trkpt lat="50.49981" lon="5.03896">
        <ele>126</ele>
      </trkpt>
      <trkpt lat="50.49965" lon="5.03874">
        <ele>126.1</ele>
      </trkpt>
      <trkpt lat="50.4995" lon="5.03864">
        <ele>125.3</ele>
      </trkpt>
      <trkpt lat="50.49938" lon="5.03856">
        <ele>124.3</ele>
      </trkpt>
      <trkpt lat="50.49921" lon="5.03843">
        <ele>121.5</ele>
      </trkpt>
      <trkpt lat="50.49907" lon="5.03831">
        <ele>119.9</ele>
      </trkpt>
      <trkpt lat="50.49897" lon="5.03827">
        <ele>120.5</ele>
      </trkpt>
      <trkpt lat="50.49882" lon="5.03823">
        <ele>120.8</ele>
      </trkpt>
      <trkpt lat="50.49868" lon="5.03819">
        <ele>120.8</ele>
      </trkpt>
      <trkpt lat="50.4985" lon="5.03814">
        <ele>120.7</ele>
      </trkpt>
      <trkpt lat="50.49829" lon="5.03811">
        <ele>120</ele>
      </trkpt>
      <trkpt lat="50.49818" lon="5.03812">
        <ele>119.6</ele>
      </trkpt>
      <trkpt lat="50.49807" lon="5.03798">
        <ele>119</ele>
      </trkpt>
      <trkpt lat="50.49793" lon="5.03781">
        <ele>118.2</ele>
      </trkpt>
      <trkpt lat="50.49782" lon="5.0377">
        <ele>117.5</ele>
      </trkpt>
      <trkpt lat="50.49773" lon="5.0376">
        <ele>116.6</ele>
      </trkpt>
      <trkpt lat="50.49747" lon="5.03732">
        <ele>110.1</ele>
      </trkpt>
      <trkpt lat="50.49721" lon="5.03696">
        <ele>107.9</ele>
      </trkpt>
      <trkpt lat="50.49704" lon="5.03674">
        <ele>106.9</ele>
      </trkpt>
      <trkpt lat="50.49687" lon="5.03648">
        <ele>97.400001525879</ele>
      </trkpt>
      <trkpt lat="50.49672" lon="5.03627">
        <ele>96</ele>
      </trkpt>
      <trkpt lat="50.49656" lon="5.03604">
        <ele>94.400001525879</ele>
      </trkpt>
      <trkpt lat="50.49641" lon="5.03577">
        <ele>102.6</ele>
      </trkpt>
      <trkpt lat="50.49624" lon="5.03548">
        <ele>101.3</ele>
      </trkpt>
      <trkpt lat="50.49616" lon="5.03534">
        <ele>100.9</ele>
      </trkpt>
      <trkpt lat="50.49608" lon="5.03522">
        <ele>99.7</ele>
      </trkpt>
      <trkpt lat="50.496" lon="5.03511">
        <ele>97.7</ele>
      </trkpt>
      <trkpt lat="50.49583" lon="5.03495">
        <ele>91.2</ele>
      </trkpt>
      <trkpt lat="50.49567" lon="5.03487">
        <ele>89.2</ele>
      </trkpt>
      <trkpt lat="50.49552" lon="5.03484">
        <ele>87.5</ele>
      </trkpt>
      <trkpt lat="50.49541" lon="5.03481">
        <ele>86</ele>
      </trkpt>
      <trkpt lat="50.49535" lon="5.0348">
        <ele>85.2</ele>
      </trkpt>
      <trkpt lat="50.49527" lon="5.03479">
        <ele>85.400001525879</ele>
      </trkpt>
      <trkpt lat="50.49519" lon="5.03473">
        <ele>84.800003051758</ele>
      </trkpt>
      <trkpt lat="50.4951" lon="5.03472">
        <ele>82.6</ele>
      </trkpt>
      <trkpt lat="50.49505" lon="5.03453">
        <ele>83.4</ele>
      </trkpt>
      <trkpt lat="50.49501" lon="5.03434">
        <ele>82.1</ele>
      </trkpt>
      <trkpt lat="50.49496" lon="5.03411">
        <ele>77.6</ele>
      </trkpt>
      <trkpt lat="50.49488" lon="5.03375">
        <ele>78.5</ele>
      </trkpt>
      <trkpt lat="50.49473" lon="5.03304">
        <ele>88.5</ele>
      </trkpt>
      <trkpt lat="50.49468" lon="5.03289">
        <ele>89.2</ele>
      </trkpt>
      <trkpt lat="50.49457" lon="5.03272">
        <ele>88.8</ele>
      </trkpt>
      <trkpt lat="50.49448" lon="5.03261">
        <ele>87.2</ele>
      </trkpt>
      <trkpt lat="50.49445" lon="5.03249">
        <ele>82.199996948242</ele>
      </trkpt>
      <trkpt lat="50.4944" lon="5.03242">
        <ele>90</ele>
      </trkpt>
      <trkpt lat="50.49433" lon="5.03239">
        <ele>88</ele>
      </trkpt>
      <trkpt lat="50.49426" lon="5.0324">
        <ele>85.9</ele>
      </trkpt>
      <trkpt lat="50.49421" lon="5.03249">
        <ele>80.7</ele>
      </trkpt>
      <trkpt lat="50.4942" lon="5.03261">
        <ele>81.5</ele>
      </trkpt>
      <trkpt lat="50.49422" lon="5.03271">
        <ele>82.9</ele>
      </trkpt>
      <trkpt lat="50.49426" lon="5.03279">
        <ele>81.800003051758</ele>
      </trkpt>
      <trkpt lat="50.49426" lon="5.03292">
        <ele>83.2</ele>
      </trkpt>
      <trkpt lat="50.49429" lon="5.03319">
        <ele>79.4</ele>
      </trkpt>
      <trkpt lat="50.49431" lon="5.03331">
        <ele>81.400001525879</ele>
      </trkpt>
      <trkpt lat="50.49438" lon="5.03363">
        <ele>81</ele>
      </trkpt>
      <trkpt lat="50.49445" lon="5.03394">
        <ele>80.800003051758</ele>
      </trkpt>
      <trkpt lat="50.49447" lon="5.03405">
        <ele>80.599998474121</ele>
      </trkpt>
      <trkpt lat="50.4946" lon="5.03468">
        <ele>80.199996948242</ele>
      </trkpt>
      <trkpt lat="50.49469" lon="5.03509">
        <ele>80</ele>
      </trkpt>
      <trkpt lat="50.49488" lon="5.03596">
        <ele>80</ele>
      </trkpt>
      <trkpt lat="50.49508" lon="5.03685">
        <ele>79.800003051758</ele>
      </trkpt>
      <trkpt lat="50.49513" lon="5.03705">
        <ele>79.800003051758</ele>
      </trkpt>
      <trkpt lat="50.49534" lon="5.03792">
        <ele>80</ele>
      </trkpt>
      <trkpt lat="50.49536" lon="5.03801">
        <ele>80</ele>
      </trkpt>
      <trkpt lat="50.49557" lon="5.03882">
        <ele>80</ele>
      </trkpt>
      <trkpt lat="50.4956" lon="5.03892">
        <ele>80</ele>
      </trkpt>
      <trkpt lat="50.4958" lon="5.03969">
        <ele>80.199996948242</ele>
      </trkpt>
      <trkpt lat="50.49599" lon="5.0404">
        <ele>80.599998474121</ele>
      </trkpt>
      <trkpt lat="50.49613" lon="5.041">
        <ele>80.599998474121</ele>
      </trkpt>
      <trkpt lat="50.49621" lon="5.04136">
        <ele>80.800003051758</ele>
      </trkpt>
      <trkpt lat="50.49636" lon="5.0422">
        <ele>80.599998474121</ele>
      </trkpt>
      <trkpt lat="50.4964" lon="5.04244">
        <ele>80.599998474121</ele>
      </trkpt>
      <trkpt lat="50.49653" lon="5.04329">
        <ele>80.199996948242</ele>
      </trkpt>
      <trkpt lat="50.49658" lon="5.04366">
        <ele>80.199996948242</ele>
      </trkpt>
      <trkpt lat="50.49668" lon="5.04452">
        <ele>80.400001525879</ele>
      </trkpt>
      <trkpt lat="50.49669" lon="5.04464">
        <ele>80.400001525879</ele>
      </trkpt>
      <trkpt lat="50.49675" lon="5.04548">
        <ele>80.400001525879</ele>
      </trkpt>
      <trkpt lat="50.4968" lon="5.04632">
        <ele>80.599998474121</ele>
      </trkpt>
      <trkpt lat="50.4968" lon="5.04645">
        <ele>80.599998474121</ele>
      </trkpt>
      <trkpt lat="50.49682" lon="5.0473">
        <ele>80.800003051758</ele>
      </trkpt>
      <trkpt lat="50.49682" lon="5.04742">
        <ele>80.800003051758</ele>
      </trkpt>
      <trkpt lat="50.49682" lon="5.04829">
        <ele>80.800003051758</ele>
      </trkpt>
      <trkpt lat="50.49682" lon="5.04868">
        <ele>80.800003051758</ele>
      </trkpt>
      <trkpt lat="50.49683" lon="5.04956">
        <ele>80.599998474121</ele>
      </trkpt>
      <trkpt lat="50.49683" lon="5.04994">
        <ele>80.599998474121</ele>
      </trkpt>
      <trkpt lat="50.49684" lon="5.0508">
        <ele>80.599998474121</ele>
      </trkpt>
      <trkpt lat="50.49683" lon="5.05114">
        <ele>80.599998474121</ele>
      </trkpt>
      <trkpt lat="50.49681" lon="5.05151">
        <ele>80.800003051758</ele>
      </trkpt>
      <trkpt lat="50.4968" lon="5.05178">
        <ele>80.800003051758</ele>
      </trkpt>
      <trkpt lat="50.4968" lon="5.05181">
        <ele>80.800003051758</ele>
      </trkpt>
      <trkpt lat="50.4968" lon="5.05191">
        <ele>80.800003051758</ele>
      </trkpt>
      <trkpt lat="50.4968" lon="5.05193">
        <ele>81</ele>
      </trkpt>
      <trkpt lat="50.4968" lon="5.05194">
        <ele>81</ele>
      </trkpt>
      <trkpt lat="50.49679" lon="5.05201">
        <ele>81.199996948242</ele>
      </trkpt>
      <trkpt lat="50.49679" lon="5.05203">
        <ele>81.199996948242</ele>
      </trkpt>
      <trkpt lat="50.49679" lon="5.05204">
        <ele>81.400001525879</ele>
      </trkpt>
      <trkpt lat="50.49678" lon="5.05205">
        <ele>81.400001525879</ele>
      </trkpt>
      <trkpt lat="50.49678" lon="5.05205">
        <ele>81.400001525879</ele>
      </trkpt>
      <trkpt lat="50.49677" lon="5.05227">
        <ele>81</ele>
      </trkpt>
      <trkpt lat="50.49676" lon="5.05241">
        <ele>81</ele>
      </trkpt>
      <trkpt lat="50.49671" lon="5.05283">
        <ele>80.800003051758</ele>
      </trkpt>
      <trkpt lat="50.4967" lon="5.05301">
        <ele>80.800003051758</ele>
      </trkpt>
      <trkpt lat="50.49665" lon="5.05343">
        <ele>80.8</ele>
      </trkpt>
      <trkpt lat="50.49652" lon="5.05423">
        <ele>81.1</ele>
      </trkpt>
      <trkpt lat="50.49639" lon="5.05486">
        <ele>80.5</ele>
      </trkpt>
      <trkpt lat="50.4963" lon="5.05531">
        <ele>81</ele>
      </trkpt>
      <trkpt lat="50.49628" lon="5.05551">
        <ele>80.800003051758</ele>
      </trkpt>
      <trkpt lat="50.49627" lon="5.05561">
        <ele>80.800003051758</ele>
      </trkpt>
      <trkpt lat="50.49625" lon="5.05575">
        <ele>81</ele>
      </trkpt>
      <trkpt lat="50.4963" lon="5.05591">
        <ele>84.4</ele>
      </trkpt>
      <trkpt lat="50.49623" lon="5.05619">
        <ele>85.1</ele>
      </trkpt>
      <trkpt lat="50.49618" lon="5.05639">
        <ele>85.6</ele>
      </trkpt>
      <trkpt lat="50.49604" lon="5.05691">
        <ele>80.800003051758</ele>
      </trkpt>
      <trkpt lat="50.49591" lon="5.05744">
        <ele>81</ele>
      </trkpt>
      <trkpt lat="50.49582" lon="5.05788">
        <ele>81.199996948242</ele>
      </trkpt>
      <trkpt lat="50.49566" lon="5.05862">
        <ele>82.199996948242</ele>
      </trkpt>
      <trkpt lat="50.49564" lon="5.05872">
        <ele>82.400001525879</ele>
      </trkpt>
      <trkpt lat="50.4956" lon="5.05917">
        <ele>82.599998474121</ele>
      </trkpt>
      <trkpt lat="50.49563" lon="5.05956">
        <ele>82</ele>
      </trkpt>
      <trkpt lat="50.49567" lon="5.05965">
        <ele>82.1</ele>
      </trkpt>
      <trkpt lat="50.49575" lon="5.05995">
        <ele>83.6</ele>
      </trkpt>
      <trkpt lat="50.49583" lon="5.0602">
        <ele>82.5</ele>
      </trkpt>
      <trkpt lat="50.49585" lon="5.06058">
        <ele>85</ele>
      </trkpt>
      <trkpt lat="50.49583" lon="5.06082">
        <ele>85</ele>
      </trkpt>
      <trkpt lat="50.49578" lon="5.06134">
        <ele>84.800003051758</ele>
      </trkpt>
      <trkpt lat="50.4957" lon="5.062">
        <ele>83.199996948242</ele>
      </trkpt>
      <trkpt lat="50.49564" lon="5.06238">
        <ele>82</ele>
      </trkpt>
      <trkpt lat="50.49558" lon="5.06271">
        <ele>85</ele>
      </trkpt>
      <trkpt lat="50.49556" lon="5.06312">
        <ele>81.199996948242</ele>
      </trkpt>
      <trkpt lat="50.49554" lon="5.06336">
        <ele>81</ele>
      </trkpt>
      <trkpt lat="50.4955" lon="5.06383">
        <ele>80.599998474121</ele>
      </trkpt>
      <trkpt lat="50.49549" lon="5.06394">
        <ele>80.599998474121</ele>
      </trkpt>
      <trkpt lat="50.49547" lon="5.06422">
        <ele>80.599998474121</ele>
      </trkpt>
      <trkpt lat="50.49543" lon="5.06465">
        <ele>85.5</ele>
      </trkpt>
      <trkpt lat="50.49538" lon="5.06514">
        <ele>86.8</ele>
      </trkpt>
      <trkpt lat="50.49529" lon="5.06571">
        <ele>86.3</ele>
      </trkpt>
      <trkpt lat="50.49518" lon="5.06644">
        <ele>87.6</ele>
      </trkpt>
      <trkpt lat="50.49506" lon="5.06722">
        <ele>86.7</ele>
      </trkpt>
      <trkpt lat="50.4949" lon="5.06813">
        <ele>77.8</ele>
      </trkpt>
      <trkpt lat="50.49484" lon="5.06849">
        <ele>77</ele>
      </trkpt>
      <trkpt lat="50.49482" lon="5.06879">
        <ele>76.7</ele>
      </trkpt>
      <trkpt lat="50.4948" lon="5.0693">
        <ele>77.3</ele>
      </trkpt>
      <trkpt lat="50.49478" lon="5.06974">
        <ele>76.8</ele>
      </trkpt>
      <trkpt lat="50.49473" lon="5.07013">
        <ele>76.8</ele>
      </trkpt>
      <trkpt lat="50.49462" lon="5.07056">
        <ele>75.8</ele>
      </trkpt>
      <trkpt lat="50.49456" lon="5.07079">
        <ele>75.3</ele>
      </trkpt>
      <trkpt lat="50.4945" lon="5.07102">
        <ele>80.599998474121</ele>
      </trkpt>
      <trkpt lat="50.49446" lon="5.0712">
        <ele>80.599998474121</ele>
      </trkpt>
      <trkpt lat="50.49443" lon="5.07141">
        <ele>80.599998474121</ele>
      </trkpt>
      <trkpt lat="50.49437" lon="5.07186">
        <ele>80.599998474121</ele>
      </trkpt>
      <trkpt lat="50.49431" lon="5.07221">
        <ele>80.400001525879</ele>
      </trkpt>
      <trkpt lat="50.4942" lon="5.073">
        <ele>80</ele>
      </trkpt>
      <trkpt lat="50.49415" lon="5.07336">
        <ele>80</ele>
      </trkpt>
      <trkpt lat="50.49406" lon="5.07424">
        <ele>74.4</ele>
      </trkpt>
      <trkpt lat="50.49402" lon="5.07457">
        <ele>74.1</ele>
      </trkpt>
      <trkpt lat="50.49398" lon="5.07529">
        <ele>74.1</ele>
      </trkpt>
      <trkpt lat="50.49398" lon="5.07582">
        <ele>73.8</ele>
      </trkpt>
      <trkpt lat="50.49397" lon="5.07662">
        <ele>74.7</ele>
      </trkpt>
      <trkpt lat="50.49397" lon="5.07684">
        <ele>75</ele>
      </trkpt>
      <trkpt lat="50.49399" lon="5.07732">
        <ele>74.7</ele>
      </trkpt>
      <trkpt lat="50.49401" lon="5.07774">
        <ele>73.9</ele>
      </trkpt>
      <trkpt lat="50.49406" lon="5.07816">
        <ele>74.2</ele>
      </trkpt>
      <trkpt lat="50.4941" lon="5.07855">
        <ele>74.7</ele>
      </trkpt>
      <trkpt lat="50.49398" lon="5.07866">
        <ele>75</ele>
      </trkpt>
      <trkpt lat="50.49398" lon="5.07883">
        <ele>79.599998474121</ele>
      </trkpt>
      <trkpt lat="50.49397" lon="5.07894">
        <ele>79.599998474121</ele>
      </trkpt>
      <trkpt lat="50.49396" lon="5.0793">
        <ele>75.6</ele>
      </trkpt>
      <trkpt lat="50.49396" lon="5.08001">
        <ele>75.7</ele>
      </trkpt>
      <trkpt lat="50.49396" lon="5.08079">
        <ele>74.9</ele>
      </trkpt>
      <trkpt lat="50.49396" lon="5.08147">
        <ele>74.2</ele>
      </trkpt>
      <trkpt lat="50.49397" lon="5.08199">
        <ele>74.1</ele>
      </trkpt>
      <trkpt lat="50.49396" lon="5.08241">
        <ele>74.6</ele>
      </trkpt>
      <trkpt lat="50.49399" lon="5.08262">
        <ele>74.9</ele>
      </trkpt>
      <trkpt lat="50.49403" lon="5.08274">
        <ele>74.8</ele>
      </trkpt>
      <trkpt lat="50.4941" lon="5.08296">
        <ele>74.7</ele>
      </trkpt>
      <trkpt lat="50.49425" lon="5.08337">
        <ele>74.9</ele>
      </trkpt>
      <trkpt lat="50.49439" lon="5.08378">
        <ele>74.3</ele>
      </trkpt>
      <trkpt lat="50.49445" lon="5.08396">
        <ele>74.1</ele>
      </trkpt>
      <trkpt lat="50.49453" lon="5.08431">
        <ele>73.3</ele>
      </trkpt>
      <trkpt lat="50.49465" lon="5.0848">
        <ele>73.2</ele>
      </trkpt>
      <trkpt lat="50.49471" lon="5.08504">
        <ele>72.9</ele>
      </trkpt>
      <trkpt lat="50.49487" lon="5.08565">
        <ele>72.8</ele>
      </trkpt>
      <trkpt lat="50.49494" lon="5.08595">
        <ele>72.7</ele>
      </trkpt>
      <trkpt lat="50.49514" lon="5.08677">
        <ele>73.4</ele>
      </trkpt>
      <trkpt lat="50.49523" lon="5.08717">
        <ele>80</ele>
      </trkpt>
      <trkpt lat="50.49538" lon="5.08769">
        <ele>73.5</ele>
      </trkpt>
      <trkpt lat="50.49543" lon="5.08792">
        <ele>73.5</ele>
      </trkpt>
      <trkpt lat="50.49562" lon="5.08864">
        <ele>74</ele>
      </trkpt>
      <trkpt lat="50.49582" lon="5.08947">
        <ele>74.5</ele>
      </trkpt>
      <trkpt lat="50.49597" lon="5.09002">
        <ele>75</ele>
      </trkpt>
      <trkpt lat="50.49599" lon="5.09039">
        <ele>75.2</ele>
      </trkpt>
      <trkpt lat="50.49601" lon="5.09095">
        <ele>81</ele>
      </trkpt>
      <trkpt lat="50.49605" lon="5.0918">
        <ele>81</ele>
      </trkpt>
      <trkpt lat="50.49606" lon="5.09191">
        <ele>81</ele>
      </trkpt>
      <trkpt lat="50.49611" lon="5.09283">
        <ele>81.199996948242</ele>
      </trkpt>
      <trkpt lat="50.49613" lon="5.09316">
        <ele>77</ele>
      </trkpt>
      <trkpt lat="50.4961" lon="5.09344">
        <ele>81.199996948242</ele>
      </trkpt>
      <trkpt lat="50.49607" lon="5.09359">
        <ele>77.5</ele>
      </trkpt>
      <trkpt lat="50.49598" lon="5.09413">
        <ele>77</ele>
      </trkpt>
      <trkpt lat="50.49599" lon="5.09427">
        <ele>81.199996948242</ele>
      </trkpt>
      <trkpt lat="50.49603" lon="5.09463">
        <ele>77.6</ele>
      </trkpt>
      <trkpt lat="50.49606" lon="5.09488">
        <ele>77.7</ele>
      </trkpt>
      <trkpt lat="50.496" lon="5.09495">
        <ele>81.199996948242</ele>
      </trkpt>
      <trkpt lat="50.49577" lon="5.09499">
        <ele>77.5</ele>
      </trkpt>
      <trkpt lat="50.4956" lon="5.09505">
        <ele>77.6</ele>
      </trkpt>
      <trkpt lat="50.49551" lon="5.0951">
        <ele>77.5</ele>
      </trkpt>
      <trkpt lat="50.49534" lon="5.09517">
        <ele>77</ele>
      </trkpt>
      <trkpt lat="50.49521" lon="5.09529">
        <ele>77.2</ele>
      </trkpt>
      <trkpt lat="50.49518" lon="5.09544">
        <ele>77.4</ele>
      </trkpt>
      <trkpt lat="50.49524" lon="5.09559">
        <ele>77.6</ele>
      </trkpt>
      <trkpt lat="50.49528" lon="5.09576">
        <ele>77.7</ele>
      </trkpt>
      <trkpt lat="50.49527" lon="5.09587">
        <ele>77</ele>
      </trkpt>
      <trkpt lat="50.49529" lon="5.09598">
        <ele>77.2</ele>
      </trkpt>
      <trkpt lat="50.49535" lon="5.09613">
        <ele>76.9</ele>
      </trkpt>
      <trkpt lat="50.49545" lon="5.09627">
        <ele>76.7</ele>
      </trkpt>
      <trkpt lat="50.49552" lon="5.09635">
        <ele>76.5</ele>
      </trkpt>
      <trkpt lat="50.49578" lon="5.0966">
        <ele>75.5</ele>
      </trkpt>
      <trkpt lat="50.49585" lon="5.09674">
        <ele>74.9</ele>
      </trkpt>
      <trkpt lat="50.49593" lon="5.09689">
        <ele>75</ele>
      </trkpt>
      <trkpt lat="50.49599" lon="5.0971">
        <ele>74.8</ele>
      </trkpt>
      <trkpt lat="50.49602" lon="5.09727">
        <ele>74.8</ele>
      </trkpt>
      <trkpt lat="50.49601" lon="5.09759">
        <ele>74.3</ele>
      </trkpt>
      <trkpt lat="50.49597" lon="5.0979">
        <ele>83.199996948242</ele>
      </trkpt>
      <trkpt lat="50.49595" lon="5.09813">
        <ele>81.800003051758</ele>
      </trkpt>
      <trkpt lat="50.49595" lon="5.09829">
        <ele>73.3</ele>
      </trkpt>
      <trkpt lat="50.496" lon="5.09865">
        <ele>72.9</ele>
      </trkpt>
      <trkpt lat="50.49606" lon="5.09884">
        <ele>72.8</ele>
      </trkpt>
      <trkpt lat="50.49617" lon="5.09929">
        <ele>72.9</ele>
      </trkpt>
      <trkpt lat="50.49628" lon="5.09974">
        <ele>73</ele>
      </trkpt>
      <trkpt lat="50.49631" lon="5.09998">
        <ele>73.1</ele>
      </trkpt>
      <trkpt lat="50.49633" lon="5.10019">
        <ele>81.199996948242</ele>
      </trkpt>
      <trkpt lat="50.49636" lon="5.10055">
        <ele>81.400001525879</ele>
      </trkpt>
      <trkpt lat="50.4964" lon="5.10105">
        <ele>81.400001525879</ele>
      </trkpt>
      <trkpt lat="50.49646" lon="5.10155">
        <ele>81.400001525879</ele>
      </trkpt>
      <trkpt lat="50.4965" lon="5.10179">
        <ele>81.199996948242</ele>
      </trkpt>
      <trkpt lat="50.49664" lon="5.10251">
        <ele>81</ele>
      </trkpt>
      <trkpt lat="50.49676" lon="5.10309">
        <ele>75.8</ele>
      </trkpt>
      <trkpt lat="50.49684" lon="5.10358">
        <ele>75.7</ele>
      </trkpt>
      <trkpt lat="50.49693" lon="5.10414">
        <ele>76.2</ele>
      </trkpt>
      <trkpt lat="50.49705" lon="5.10495">
        <ele>74.7</ele>
      </trkpt>
      <trkpt lat="50.49713" lon="5.10547">
        <ele>80.800003051758</ele>
      </trkpt>
      <trkpt lat="50.49721" lon="5.10593">
        <ele>73</ele>
      </trkpt>
      <trkpt lat="50.49729" lon="5.10633">
        <ele>81</ele>
      </trkpt>
      <trkpt lat="50.49733" lon="5.10645">
        <ele>81</ele>
      </trkpt>
      <trkpt lat="50.49763" lon="5.10722">
        <ele>81.199996948242</ele>
      </trkpt>
      <trkpt lat="50.49767" lon="5.10733">
        <ele>81.199996948242</ele>
      </trkpt>
      <trkpt lat="50.4978" lon="5.10767">
        <ele>81.199996948242</ele>
      </trkpt>
      <trkpt lat="50.49796" lon="5.10808">
        <ele>81</ele>
      </trkpt>
      <trkpt lat="50.49812" lon="5.10844">
        <ele>81</ele>
      </trkpt>
      <trkpt lat="50.49847" lon="5.10912">
        <ele>78.5</ele>
      </trkpt>
      <trkpt lat="50.49884" lon="5.10983">
        <ele>80.800003051758</ele>
      </trkpt>
      <trkpt lat="50.49889" lon="5.10992">
        <ele>80.800003051758</ele>
      </trkpt>
      <trkpt lat="50.49924" lon="5.11059">
        <ele>73.4</ele>
      </trkpt>
      <trkpt lat="50.49937" lon="5.11083">
        <ele>73</ele>
      </trkpt>
      <trkpt lat="50.49948" lon="5.11111">
        <ele>71.9</ele>
      </trkpt>
      <trkpt lat="50.49963" lon="5.1115">
        <ele>72</ele>
      </trkpt>
      <trkpt lat="50.49971" lon="5.11168">
        <ele>72</ele>
      </trkpt>
      <trkpt lat="50.49977" lon="5.11188">
        <ele>71.6</ele>
      </trkpt>
      <trkpt lat="50.49984" lon="5.11211">
        <ele>71.4</ele>
      </trkpt>
      <trkpt lat="50.50007" lon="5.11291">
        <ele>80.800003051758</ele>
      </trkpt>
      <trkpt lat="50.50011" lon="5.11303">
        <ele>80.800003051758</ele>
      </trkpt>
      <trkpt lat="50.50024" lon="5.11355">
        <ele>71.6</ele>
      </trkpt>
      <trkpt lat="50.50041" lon="5.11413">
        <ele>71.8</ele>
      </trkpt>
      <trkpt lat="50.50055" lon="5.11474">
        <ele>72.4</ele>
      </trkpt>
      <trkpt lat="50.50077" lon="5.11565">
        <ele>72.9</ele>
      </trkpt>
      <trkpt lat="50.50098" lon="5.1165">
        <ele>72.3</ele>
      </trkpt>
      <trkpt lat="50.50113" lon="5.1171">
        <ele>71.6</ele>
      </trkpt>
      <trkpt lat="50.50129" lon="5.11776">
        <ele>81.199996948242</ele>
      </trkpt>
      <trkpt lat="50.50136" lon="5.11809">
        <ele>81.199996948242</ele>
      </trkpt>
      <trkpt lat="50.5015" lon="5.11865">
        <ele>81.199996948242</ele>
      </trkpt>
      <trkpt lat="50.5017" lon="5.11948">
        <ele>72.7</ele>
      </trkpt>
      <trkpt lat="50.50184" lon="5.12002">
        <ele>80.800003051758</ele>
      </trkpt>
      <trkpt lat="50.50203" lon="5.12082">
        <ele>73.2</ele>
      </trkpt>
      <trkpt lat="50.50217" lon="5.12143">
        <ele>81.199996948242</ele>
      </trkpt>
      <trkpt lat="50.5022" lon="5.12153">
        <ele>81.199996948242</ele>
      </trkpt>
      <trkpt lat="50.50241" lon="5.12207">
        <ele>72.8</ele>
      </trkpt>
      <trkpt lat="50.50256" lon="5.12234">
        <ele>73</ele>
      </trkpt>
      <trkpt lat="50.50272" lon="5.1227">
        <ele>73.2</ele>
      </trkpt>
      <trkpt lat="50.50287" lon="5.12301">
        <ele>73</ele>
      </trkpt>
      <trkpt lat="50.50298" lon="5.12337">
        <ele>73.3</ele>
      </trkpt>
      <trkpt lat="50.5031" lon="5.12378">
        <ele>73</ele>
      </trkpt>
      <trkpt lat="50.50322" lon="5.12426">
        <ele>73.3</ele>
      </trkpt>
      <trkpt lat="50.50345" lon="5.12518">
        <ele>73.3</ele>
      </trkpt>
      <trkpt lat="50.50369" lon="5.12612">
        <ele>74.2</ele>
      </trkpt>
      <trkpt lat="50.50375" lon="5.1264">
        <ele>81.599998474121</ele>
      </trkpt>
      <trkpt lat="50.50396" lon="5.12715">
        <ele>73.3</ele>
      </trkpt>
      <trkpt lat="50.50403" lon="5.12746">
        <ele>81.199996948242</ele>
      </trkpt>
      <trkpt lat="50.50416" lon="5.12798">
        <ele>71.8</ele>
      </trkpt>
      <trkpt lat="50.50418" lon="5.12812">
        <ele>81.199996948242</ele>
      </trkpt>
      <trkpt lat="50.50427" lon="5.12881">
        <ele>81.199996948242</ele>
      </trkpt>
      <trkpt lat="50.5043" lon="5.12913">
        <ele>73</ele>
      </trkpt>
      <trkpt lat="50.50434" lon="5.12943">
        <ele>73.9</ele>
      </trkpt>
      <trkpt lat="50.50437" lon="5.12961">
        <ele>74</ele>
      </trkpt>
      <trkpt lat="50.50441" lon="5.12973">
        <ele>81</ele>
      </trkpt>
      <trkpt lat="50.5045" lon="5.1299">
        <ele>74.3</ele>
      </trkpt>
      <trkpt lat="50.5046" lon="5.13007">
        <ele>73.7</ele>
      </trkpt>
      <trkpt lat="50.50492" lon="5.13057">
        <ele>72.9</ele>
      </trkpt>
      <trkpt lat="50.50532" lon="5.13127">
        <ele>71.2</ele>
      </trkpt>
      <trkpt lat="50.50544" lon="5.13167">
        <ele>71.2</ele>
      </trkpt>
      <trkpt lat="50.50556" lon="5.13206">
        <ele>71.4</ele>
      </trkpt>
      <trkpt lat="50.50581" lon="5.13289">
        <ele>70.9</ele>
      </trkpt>
      <trkpt lat="50.5061" lon="5.13387">
        <ele>71.6</ele>
      </trkpt>
      <trkpt lat="50.50635" lon="5.13468">
        <ele>71.9</ele>
      </trkpt>
      <trkpt lat="50.50662" lon="5.13558">
        <ele>73.7</ele>
      </trkpt>
      <trkpt lat="50.50684" lon="5.13631">
        <ele>73.1</ele>
      </trkpt>
      <trkpt lat="50.50711" lon="5.1372">
        <ele>72.8</ele>
      </trkpt>
      <trkpt lat="50.50725" lon="5.13765">
        <ele>73.1</ele>
      </trkpt>
      <trkpt lat="50.50752" lon="5.13851">
        <ele>81.599998474121</ele>
      </trkpt>
      <trkpt lat="50.50763" lon="5.13887">
        <ele>81.599998474121</ele>
      </trkpt>
      <trkpt lat="50.50771" lon="5.13924">
        <ele>71.5</ele>
      </trkpt>
      <trkpt lat="50.50778" lon="5.13961">
        <ele>81.599998474121</ele>
      </trkpt>
      <trkpt lat="50.50781" lon="5.14008">
        <ele>71</ele>
      </trkpt>
      <trkpt lat="50.50787" lon="5.14049">
        <ele>71.1</ele>
      </trkpt>
      <trkpt lat="50.50792" lon="5.14089">
        <ele>81.199996948242</ele>
      </trkpt>
      <trkpt lat="50.50799" lon="5.14139">
        <ele>80.599998474121</ele>
      </trkpt>
      <trkpt lat="50.50809" lon="5.14189">
        <ele>80.400001525879</ele>
      </trkpt>
      <trkpt lat="50.50821" lon="5.14226">
        <ele>72</ele>
      </trkpt>
      <trkpt lat="50.50835" lon="5.14268">
        <ele>71</ele>
      </trkpt>
      <trkpt lat="50.50849" lon="5.14301">
        <ele>71</ele>
      </trkpt>
      <trkpt lat="50.50864" lon="5.14342">
        <ele>69.9</ele>
      </trkpt>
      <trkpt lat="50.50881" lon="5.14386">
        <ele>70</ele>
      </trkpt>
      <trkpt lat="50.50912" lon="5.14463">
        <ele>69.8</ele>
      </trkpt>
      <trkpt lat="50.50928" lon="5.14507">
        <ele>70.3</ele>
      </trkpt>
      <trkpt lat="50.50956" lon="5.14585">
        <ele>70.6</ele>
      </trkpt>
      <trkpt lat="50.50972" lon="5.1463">
        <ele>70.9</ele>
      </trkpt>
      <trkpt lat="50.51001" lon="5.14704">
        <ele>71.7</ele>
      </trkpt>
      <trkpt lat="50.51023" lon="5.1476">
        <ele>70.7</ele>
      </trkpt>
      <trkpt lat="50.51056" lon="5.1484">
        <ele>80</ele>
      </trkpt>
      <trkpt lat="50.5107" lon="5.14873">
        <ele>80.199996948242</ele>
      </trkpt>
      <trkpt lat="50.51101" lon="5.14953">
        <ele>80</ele>
      </trkpt>
      <trkpt lat="50.51117" lon="5.15001">
        <ele>80</ele>
      </trkpt>
      <trkpt lat="50.51145" lon="5.15076">
        <ele>70.8</ele>
      </trkpt>
      <trkpt lat="50.51152" lon="5.151">
        <ele>70.6</ele>
      </trkpt>
      <trkpt lat="50.51163" lon="5.15144">
        <ele>79.800003051758</ele>
      </trkpt>
      <trkpt lat="50.51174" lon="5.15227">
        <ele>71.2</ele>
      </trkpt>
      <trkpt lat="50.51179" lon="5.15274">
        <ele>71</ele>
      </trkpt>
      <trkpt lat="50.51186" lon="5.15315">
        <ele>71.3</ele>
      </trkpt>
      <trkpt lat="50.51199" lon="5.15392">
        <ele>69.8</ele>
      </trkpt>
      <trkpt lat="50.51206" lon="5.15434">
        <ele>69</ele>
      </trkpt>
      <trkpt lat="50.51213" lon="5.15474">
        <ele>69.7</ele>
      </trkpt>
      <trkpt lat="50.51223" lon="5.15541">
        <ele>70.5</ele>
      </trkpt>
      <trkpt lat="50.51235" lon="5.15606">
        <ele>70.2</ele>
      </trkpt>
      <trkpt lat="50.51245" lon="5.15654">
        <ele>70.1</ele>
      </trkpt>
      <trkpt lat="50.51261" lon="5.15723">
        <ele>79.199996948242</ele>
      </trkpt>
      <trkpt lat="50.51271" lon="5.15772">
        <ele>79.599998474121</ele>
      </trkpt>
      <trkpt lat="50.51291" lon="5.15859">
        <ele>79.800003051758</ele>
      </trkpt>
      <trkpt lat="50.51306" lon="5.15921">
        <ele>79.800003051758</ele>
      </trkpt>
      <trkpt lat="50.51326" lon="5.16012">
        <ele>70</ele>
      </trkpt>
      <trkpt lat="50.51343" lon="5.16085">
        <ele>71.6</ele>
      </trkpt>
      <trkpt lat="50.51358" lon="5.16159">
        <ele>74</ele>
      </trkpt>
      <trkpt lat="50.51363" lon="5.16196">
        <ele>73.1</ele>
      </trkpt>
      <trkpt lat="50.51375" lon="5.16278">
        <ele>71.3</ele>
      </trkpt>
      <trkpt lat="50.51385" lon="5.16335">
        <ele>79.400001525879</ele>
      </trkpt>
      <trkpt lat="50.51399" lon="5.16424">
        <ele>79.800003051758</ele>
      </trkpt>
      <trkpt lat="50.51409" lon="5.16487">
        <ele>79.800003051758</ele>
      </trkpt>
      <trkpt lat="50.51425" lon="5.16576">
        <ele>69.9</ele>
      </trkpt>
      <trkpt lat="50.5143" lon="5.16607">
        <ele>70.8</ele>
      </trkpt>
      <trkpt lat="50.51453" lon="5.16731">
        <ele>71.7</ele>
      </trkpt>
      <trkpt lat="50.51471" lon="5.16817">
        <ele>70.1</ele>
      </trkpt>
      <trkpt lat="50.5148" lon="5.16865">
        <ele>80.599998474121</ele>
      </trkpt>
      <trkpt lat="50.5149" lon="5.16914">
        <ele>70</ele>
      </trkpt>
      <trkpt lat="50.515" lon="5.16954">
        <ele>80.800003051758</ele>
      </trkpt>
      <trkpt lat="50.51503" lon="5.16967">
        <ele>80.800003051758</ele>
      </trkpt>
      <trkpt lat="50.51516" lon="5.17004">
        <ele>74</ele>
      </trkpt>
      <trkpt lat="50.51529" lon="5.17049">
        <ele>76.4</ele>
      </trkpt>
      <trkpt lat="50.51538" lon="5.17077">
        <ele>77.3</ele>
      </trkpt>
      <trkpt lat="50.5156" lon="5.17151">
        <ele>78.3</ele>
      </trkpt>
      <trkpt lat="50.51573" lon="5.17196">
        <ele>76.2</ele>
      </trkpt>
      <trkpt lat="50.5158" lon="5.17217">
        <ele>75.3</ele>
      </trkpt>
      <trkpt lat="50.51595" lon="5.17293">
        <ele>82.3</ele>
      </trkpt>
      <trkpt lat="50.51614" lon="5.17381">
        <ele>81</ele>
      </trkpt>
      <trkpt lat="50.51623" lon="5.17417">
        <ele>80.599998474121</ele>
      </trkpt>
      <trkpt lat="50.51641" lon="5.175">
        <ele>80.199996948242</ele>
      </trkpt>
      <trkpt lat="50.51647" lon="5.17524">
        <ele>80</ele>
      </trkpt>
      <trkpt lat="50.51664" lon="5.17608">
        <ele>79.199996948242</ele>
      </trkpt>
      <trkpt lat="50.51671" lon="5.17646">
        <ele>79.199996948242</ele>
      </trkpt>
      <trkpt lat="50.51683" lon="5.17736">
        <ele>79.199996948242</ele>
      </trkpt>
      <trkpt lat="50.51689" lon="5.17774">
        <ele>79.199996948242</ele>
      </trkpt>
      <trkpt lat="50.51705" lon="5.17859">
        <ele>79</ele>
      </trkpt>
      <trkpt lat="50.51707" lon="5.17871">
        <ele>79</ele>
      </trkpt>
      <trkpt lat="50.51724" lon="5.17956">
        <ele>79.199996948242</ele>
      </trkpt>
      <trkpt lat="50.51735" lon="5.18021">
        <ele>74.6</ele>
      </trkpt>
      <trkpt lat="50.51746" lon="5.18092">
        <ele>79.599998474121</ele>
      </trkpt>
      <trkpt lat="50.51753" lon="5.18143">
        <ele>79.599998474121</ele>
      </trkpt>
      <trkpt lat="50.51757" lon="5.18168">
        <ele>79.599998474121</ele>
      </trkpt>
      <trkpt lat="50.51769" lon="5.1826">
        <ele>73.7</ele>
      </trkpt>
      <trkpt lat="50.51783" lon="5.18345">
        <ele>79</ele>
      </trkpt>
      <trkpt lat="50.51789" lon="5.18388">
        <ele>72.1</ele>
      </trkpt>
      <trkpt lat="50.51801" lon="5.18481">
        <ele>71.1</ele>
      </trkpt>
      <trkpt lat="50.51811" lon="5.18545">
        <ele>71.1</ele>
      </trkpt>
      <trkpt lat="50.51825" lon="5.18639">
        <ele>71</ele>
      </trkpt>
      <trkpt lat="50.51842" lon="5.18733">
        <ele>73</ele>
      </trkpt>
      <trkpt lat="50.51848" lon="5.18761">
        <ele>71.9</ele>
      </trkpt>
      <trkpt lat="50.51865" lon="5.18847">
        <ele>79.199996948242</ele>
      </trkpt>
      <trkpt lat="50.51873" lon="5.18885">
        <ele>79.199996948242</ele>
      </trkpt>
      <trkpt lat="50.51893" lon="5.18957">
        <ele>67.2</ele>
      </trkpt>
      <trkpt lat="50.51907" lon="5.18997">
        <ele>67.5</ele>
      </trkpt>
      <trkpt lat="50.51921" lon="5.19032">
        <ele>68</ele>
      </trkpt>
      <trkpt lat="50.51935" lon="5.19064">
        <ele>78.599998474121</ele>
      </trkpt>
      <trkpt lat="50.51953" lon="5.19098">
        <ele>69</ele>
      </trkpt>
      <trkpt lat="50.5197" lon="5.19122">
        <ele>78.400001525879</ele>
      </trkpt>
      <trkpt lat="50.51994" lon="5.19148">
        <ele>70</ele>
      </trkpt>
      <trkpt lat="50.52017" lon="5.1917">
        <ele>78.400001525879</ele>
      </trkpt>
      <trkpt lat="50.52043" lon="5.19188">
        <ele>72</ele>
      </trkpt>
      <trkpt lat="50.5207" lon="5.19203">
        <ele>71.7</ele>
      </trkpt>
      <trkpt lat="50.52108" lon="5.19218">
        <ele>71.9</ele>
      </trkpt>
      <trkpt lat="50.52152" lon="5.19229">
        <ele>72</ele>
      </trkpt>
      <trkpt lat="50.52168" lon="5.19235">
        <ele>72.2</ele>
      </trkpt>
      <trkpt lat="50.52178" lon="5.19245">
        <ele>72.2</ele>
      </trkpt>
      <trkpt lat="50.5219" lon="5.19261">
        <ele>79.800003051758</ele>
      </trkpt>
      <trkpt lat="50.52202" lon="5.19276">
        <ele>72</ele>
      </trkpt>
      <trkpt lat="50.52215" lon="5.19297">
        <ele>72.3</ele>
      </trkpt>
      <trkpt lat="50.52254" lon="5.19349">
        <ele>79.599998474121</ele>
      </trkpt>
      <trkpt lat="50.52288" lon="5.19394">
        <ele>79.400001525879</ele>
      </trkpt>
      <trkpt lat="50.5233" lon="5.19448">
        <ele>79.400001525879</ele>
      </trkpt>
      <trkpt lat="50.52374" lon="5.19499">
        <ele>79.400001525879</ele>
      </trkpt>
      <trkpt lat="50.52421" lon="5.19548">
        <ele>72</ele>
      </trkpt>
      <trkpt lat="50.5243" lon="5.19558">
        <ele>71.8</ele>
      </trkpt>
      <trkpt lat="50.52474" lon="5.19607">
        <ele>71.2</ele>
      </trkpt>
      <trkpt lat="50.52518" lon="5.19659">
        <ele>72.5</ele>
      </trkpt>
      <trkpt lat="50.52531" lon="5.19675">
        <ele>71.7</ele>
      </trkpt>
      <trkpt lat="50.52568" lon="5.19719">
        <ele>72.2</ele>
      </trkpt>
      <trkpt lat="50.52613" lon="5.1978">
        <ele>72.6</ele>
      </trkpt>
      <trkpt lat="50.52645" lon="5.1984">
        <ele>80.599998474121</ele>
      </trkpt>
      <trkpt lat="50.52649" lon="5.19849">
        <ele>80.599998474121</ele>
      </trkpt>
      <trkpt lat="50.5266" lon="5.19875">
        <ele>81</ele>
      </trkpt>
      <trkpt lat="50.52671" lon="5.19898">
        <ele>81.199996948242</ele>
      </trkpt>
      <trkpt lat="50.5268" lon="5.19913">
        <ele>81.599998474121</ele>
      </trkpt>
      <trkpt lat="50.52689" lon="5.19922">
        <ele>69.4</ele>
      </trkpt>
      <trkpt lat="50.52699" lon="5.19937">
        <ele>83.800003051758</ele>
      </trkpt>
      <trkpt lat="50.52709" lon="5.19946">
        <ele>69.2</ele>
      </trkpt>
      <trkpt lat="50.52733" lon="5.19972">
        <ele>69.3</ele>
      </trkpt>
      <trkpt lat="50.52761" lon="5.20003">
        <ele>70.1</ele>
      </trkpt>
      <trkpt lat="50.52806" lon="5.20047">
        <ele>88.199996948242</ele>
      </trkpt>
      <trkpt lat="50.5282" lon="5.20061">
        <ele>70.3</ele>
      </trkpt>
      <trkpt lat="50.5283" lon="5.20073">
        <ele>70.1</ele>
      </trkpt>
      <trkpt lat="50.52843" lon="5.2009">
        <ele>70.6</ele>
      </trkpt>
      <trkpt lat="50.52854" lon="5.20105">
        <ele>82.599998474121</ele>
      </trkpt>
      <trkpt lat="50.5286" lon="5.20124">
        <ele>81.199996948242</ele>
      </trkpt>
      <trkpt lat="50.52859" lon="5.20144">
        <ele>70.9</ele>
      </trkpt>
      <trkpt lat="50.52862" lon="5.20155">
        <ele>80.400001525879</ele>
      </trkpt>
      <trkpt lat="50.52869" lon="5.20198">
        <ele>80.199996948242</ele>
      </trkpt>
      <trkpt lat="50.52874" lon="5.20221">
        <ele>80.199996948242</ele>
      </trkpt>
      <trkpt lat="50.52881" lon="5.20254">
        <ele>80</ele>
      </trkpt>
      <trkpt lat="50.52888" lon="5.20287">
        <ele>80</ele>
      </trkpt>
      <trkpt lat="50.52891" lon="5.2031">
        <ele>80</ele>
      </trkpt>
      <trkpt lat="50.5289" lon="5.20334">
        <ele>68</ele>
      </trkpt>
      <trkpt lat="50.52883" lon="5.20361">
        <ele>68.4</ele>
      </trkpt>
      <trkpt lat="50.52878" lon="5.20382">
        <ele>68.8</ele>
      </trkpt>
      <trkpt lat="50.52878" lon="5.20399">
        <ele>69</ele>
      </trkpt>
      <trkpt lat="50.5288" lon="5.2041">
        <ele>79.800003051758</ele>
      </trkpt>
      <trkpt lat="50.52883" lon="5.20432">
        <ele>79.800003051758</ele>
      </trkpt>
      <trkpt lat="50.52888" lon="5.20467">
        <ele>80.199996948242</ele>
      </trkpt>
      <trkpt lat="50.52904" lon="5.20545">
        <ele>81.400001525879</ele>
      </trkpt>
      <trkpt lat="50.52911" lon="5.20582">
        <ele>74.4</ele>
      </trkpt>
      <trkpt lat="50.52919" lon="5.20638">
        <ele>72.7</ele>
      </trkpt>
      <trkpt lat="50.52933" lon="5.20731">
        <ele>74.2</ele>
      </trkpt>
      <trkpt lat="50.52941" lon="5.20797">
        <ele>75</ele>
      </trkpt>
      <trkpt lat="50.5295" lon="5.2088">
        <ele>81.199996948242</ele>
      </trkpt>
      <trkpt lat="50.52952" lon="5.20902">
        <ele>81.400001525879</ele>
      </trkpt>
      <trkpt lat="50.52959" lon="5.21">
        <ele>81.599998474121</ele>
      </trkpt>
      <trkpt lat="50.52963" lon="5.21087">
        <ele>81.400001525879</ele>
      </trkpt>
      <trkpt lat="50.52963" lon="5.21126">
        <ele>81.400001525879</ele>
      </trkpt>
      <trkpt lat="50.52963" lon="5.21216">
        <ele>81</ele>
      </trkpt>
      <trkpt lat="50.52962" lon="5.21229">
        <ele>81</ele>
      </trkpt>
      <trkpt lat="50.52958" lon="5.21332">
        <ele>80.400001525879</ele>
      </trkpt>
      <trkpt lat="50.52958" lon="5.21343">
        <ele>80.400001525879</ele>
      </trkpt>
      <trkpt lat="50.52959" lon="5.21366">
        <ele>80.400001525879</ele>
      </trkpt>
      <trkpt lat="50.52961" lon="5.21388">
        <ele>80.400001525879</ele>
      </trkpt>
      <trkpt lat="50.52961" lon="5.21399">
        <ele>80.400001525879</ele>
      </trkpt>
      <trkpt lat="50.52957" lon="5.21422">
        <ele>80.400001525879</ele>
      </trkpt>
      <trkpt lat="50.52953" lon="5.21445">
        <ele>80.400001525879</ele>
      </trkpt>
      <trkpt lat="50.52954" lon="5.21468">
        <ele>80.400001525879</ele>
      </trkpt>
      <trkpt lat="50.52958" lon="5.21492">
        <ele>80.400001525879</ele>
      </trkpt>
      <trkpt lat="50.52971" lon="5.21549">
        <ele>80.400001525879</ele>
      </trkpt>
      <trkpt lat="50.52979" lon="5.21583">
        <ele>80.400001525879</ele>
      </trkpt>
      <trkpt lat="50.52992" lon="5.21638">
        <ele>80</ele>
      </trkpt>
      <trkpt lat="50.53007" lon="5.21704">
        <ele>79.800003051758</ele>
      </trkpt>
      <trkpt lat="50.53026" lon="5.21776">
        <ele>79.599998474121</ele>
      </trkpt>
      <trkpt lat="50.53037" lon="5.21822">
        <ele>79.599998474121</ele>
      </trkpt>
      <trkpt lat="50.5304" lon="5.21831">
        <ele>79.599998474121</ele>
      </trkpt>
      <trkpt lat="50.53053" lon="5.2187">
        <ele>79.599998474121</ele>
      </trkpt>
      <trkpt lat="50.53064" lon="5.21907">
        <ele>74.8</ele>
      </trkpt>
      <trkpt lat="50.53068" lon="5.21912">
        <ele>80</ele>
      </trkpt>
      <trkpt lat="50.53071" lon="5.21924">
        <ele>80.199996948242</ele>
      </trkpt>
      <trkpt lat="50.53071" lon="5.21928">
        <ele>80.199996948242</ele>
      </trkpt>
      <trkpt lat="50.53072" lon="5.21933">
        <ele>80.199996948242</ele>
      </trkpt>
      <trkpt lat="50.53072" lon="5.2194">
        <ele>80.199996948242</ele>
      </trkpt>
      <trkpt lat="50.53072" lon="5.21942">
        <ele>80.199996948242</ele>
      </trkpt>
      <trkpt lat="50.53072" lon="5.21944">
        <ele>80.199996948242</ele>
      </trkpt>
      <trkpt lat="50.53067" lon="5.2195">
        <ele>80.199996948242</ele>
      </trkpt>
      <trkpt lat="50.5306" lon="5.21957">
        <ele>80.199996948242</ele>
      </trkpt>
      <trkpt lat="50.53057" lon="5.2196">
        <ele>80.199996948242</ele>
      </trkpt>
      <trkpt lat="50.53041" lon="5.21975">
        <ele>80.199996948242</ele>
      </trkpt>
      <trkpt lat="50.53022" lon="5.21993">
        <ele>77</ele>
      </trkpt>
      <trkpt lat="50.53007" lon="5.22008">
        <ele>78.9</ele>
      </trkpt>
      <trkpt lat="50.52989" lon="5.22026">
        <ele>80.199996948242</ele>
      </trkpt>
      <trkpt lat="50.52967" lon="5.22057">
        <ele>80.199996948242</ele>
      </trkpt>
      <trkpt lat="50.52934" lon="5.22105">
        <ele>80.599998474121</ele>
      </trkpt>
      <trkpt lat="50.52912" lon="5.22137">
        <ele>78.2</ele>
      </trkpt>
      <trkpt lat="50.52879" lon="5.2219">
        <ele>83.9</ele>
      </trkpt>
      <trkpt lat="50.52866" lon="5.2221">
        <ele>84.1</ele>
      </trkpt>
      <trkpt lat="50.5285" lon="5.22228">
        <ele>83.5</ele>
      </trkpt>
      <trkpt lat="50.52832" lon="5.22247">
        <ele>81.400001525879</ele>
      </trkpt>
      <trkpt lat="50.5282" lon="5.22255">
        <ele>81.4</ele>
      </trkpt>
      <trkpt lat="50.52805" lon="5.22271">
        <ele>81.5</ele>
      </trkpt>
      <trkpt lat="50.52781" lon="5.22298">
        <ele>81.400001525879</ele>
      </trkpt>
      <trkpt lat="50.52768" lon="5.22313">
        <ele>80.1</ele>
      </trkpt>
      <trkpt lat="50.52756" lon="5.22327">
        <ele>77.8</ele>
      </trkpt>
      <trkpt lat="50.52725" lon="5.22361">
        <ele>79.7</ele>
      </trkpt>
      <trkpt lat="50.52718" lon="5.22344">
        <ele>78.7</ele>
      </trkpt>
      <trkpt lat="50.52709" lon="5.22319">
        <ele>73.8</ele>
      </trkpt>
      <trkpt lat="50.52693" lon="5.22273">
        <ele>73.1</ele>
      </trkpt>
      <trkpt lat="50.52683" lon="5.22255">
        <ele>72.7</ele>
      </trkpt>
      <trkpt lat="50.52673" lon="5.22246">
        <ele>71.9</ele>
      </trkpt>
      <trkpt lat="50.52665" lon="5.22252">
        <ele>72</ele>
      </trkpt>
      <trkpt lat="50.52653" lon="5.22274">
        <ele>72.1</ele>
      </trkpt>
      <trkpt lat="50.52637" lon="5.22309">
        <ele>77.800003051758</ele>
      </trkpt>
      <trkpt lat="50.52617" lon="5.22342">
        <ele>77.800003051758</ele>
      </trkpt>
      <trkpt lat="50.52609" lon="5.2234">
        <ele>74</ele>
      </trkpt>
      <trkpt lat="50.52601" lon="5.22334">
        <ele>73</ele>
      </trkpt>
      <trkpt lat="50.52585" lon="5.22363">
        <ele>73.9</ele>
      </trkpt>
      <trkpt lat="50.52575" lon="5.22382">
        <ele>71.5</ele>
      </trkpt>
      <trkpt lat="50.52554" lon="5.22415">
        <ele>71.7</ele>
      </trkpt>
      <trkpt lat="50.52527" lon="5.22453">
        <ele>79.800003051758</ele>
      </trkpt>
      <trkpt lat="50.52515" lon="5.22469">
        <ele>79.800003051758</ele>
      </trkpt>
      <trkpt lat="50.52467" lon="5.22536">
        <ele>71.1</ele>
      </trkpt>
      <trkpt lat="50.5245" lon="5.22562">
        <ele>72</ele>
      </trkpt>
      <trkpt lat="50.52432" lon="5.22577">
        <ele>72.2</ele>
      </trkpt>
      <trkpt lat="50.52409" lon="5.2259">
        <ele>74</ele>
      </trkpt>
      <trkpt lat="50.52386" lon="5.22601">
        <ele>74.7</ele>
      </trkpt>
      <trkpt lat="50.52347" lon="5.22612">
        <ele>74.5</ele>
      </trkpt>
      <trkpt lat="50.52306" lon="5.22611">
        <ele>73.6</ele>
      </trkpt>
      <trkpt lat="50.5225" lon="5.226">
        <ele>71.6</ele>
      </trkpt>
      <trkpt lat="50.52234" lon="5.22593">
        <ele>72.5</ele>
      </trkpt>
      <trkpt lat="50.52194" lon="5.22579">
        <ele>82.400001525879</ele>
      </trkpt>
      <trkpt lat="50.52139" lon="5.22558">
        <ele>82.800003051758</ele>
      </trkpt>
      <trkpt lat="50.52125" lon="5.22555">
        <ele>83.199996948242</ele>
      </trkpt>
      <trkpt lat="50.5208" lon="5.22552">
        <ele>83.400001525879</ele>
      </trkpt>
      <trkpt lat="50.52053" lon="5.2255">
        <ele>83.800003051758</ele>
      </trkpt>
      <trkpt lat="50.52043" lon="5.22549">
        <ele>84</ele>
      </trkpt>
      <trkpt lat="50.52027" lon="5.22547">
        <ele>84</ele>
      </trkpt>
      <trkpt lat="50.52003" lon="5.22547">
        <ele>84</ele>
      </trkpt>
      <trkpt lat="50.51979" lon="5.22549">
        <ele>70.3</ele>
      </trkpt>
      <trkpt lat="50.51954" lon="5.22552">
        <ele>70</ele>
      </trkpt>
      <trkpt lat="50.51929" lon="5.2255">
        <ele>69.7</ele>
      </trkpt>
      <trkpt lat="50.51918" lon="5.2257">
        <ele>80.800003051758</ele>
      </trkpt>
      <trkpt lat="50.51912" lon="5.22597">
        <ele>80.800003051758</ele>
      </trkpt>
      <trkpt lat="50.51913" lon="5.22617">
        <ele>80.599998474121</ele>
      </trkpt>
      <trkpt lat="50.51915" lon="5.22626">
        <ele>80.599998474121</ele>
      </trkpt>
      <trkpt lat="50.51916" lon="5.22635">
        <ele>80.599998474121</ele>
      </trkpt>
      <trkpt lat="50.51919" lon="5.22664">
        <ele>80.599998474121</ele>
      </trkpt>
      <trkpt lat="50.51918" lon="5.22682">
        <ele>80.599998474121</ele>
      </trkpt>
      <trkpt lat="50.51917" lon="5.22691">
        <ele>80.599998474121</ele>
      </trkpt>
      <trkpt lat="50.51915" lon="5.22709">
        <ele>81</ele>
      </trkpt>
      <trkpt lat="50.51912" lon="5.22727">
        <ele>81.199996948242</ele>
      </trkpt>
      <trkpt lat="50.51909" lon="5.22746">
        <ele>82</ele>
      </trkpt>
      <trkpt lat="50.51906" lon="5.22764">
        <ele>83.199996948242</ele>
      </trkpt>
      <trkpt lat="50.51904" lon="5.22782">
        <ele>84</ele>
      </trkpt>
      <trkpt lat="50.51903" lon="5.228">
        <ele>84.199996948242</ele>
      </trkpt>
      <trkpt lat="50.51902" lon="5.2281">
        <ele>84.400001525879</ele>
      </trkpt>
      <trkpt lat="50.51903" lon="5.22866">
        <ele>84.599998474121</ele>
      </trkpt>
      <trkpt lat="50.51906" lon="5.22914">
        <ele>85</ele>
      </trkpt>
      <trkpt lat="50.51914" lon="5.22978">
        <ele>85</ele>
      </trkpt>
      <trkpt lat="50.51927" lon="5.23047">
        <ele>83.599998474121</ele>
      </trkpt>
      <trkpt lat="50.5193" lon="5.23059">
        <ele>83.199996948242</ele>
      </trkpt>
      <trkpt lat="50.51938" lon="5.23102">
        <ele>82.800003051758</ele>
      </trkpt>
      <trkpt lat="50.51941" lon="5.23113">
        <ele>82.800003051758</ele>
      </trkpt>
      <trkpt lat="50.5196" lon="5.23169">
        <ele>82.800003051758</ele>
      </trkpt>
      <trkpt lat="50.51974" lon="5.23212">
        <ele>83.800003051758</ele>
      </trkpt>
      <trkpt lat="50.51978" lon="5.23219">
        <ele>83.800003051758</ele>
      </trkpt>
      <trkpt lat="50.51984" lon="5.23231">
        <ele>78</ele>
      </trkpt>
      <trkpt lat="50.51992" lon="5.23237">
        <ele>84</ele>
      </trkpt>
      <trkpt lat="50.52001" lon="5.23249">
        <ele>84.199996948242</ele>
      </trkpt>
      <trkpt lat="50.52027" lon="5.23279">
        <ele>84.400001525879</ele>
      </trkpt>
      <trkpt lat="50.52037" lon="5.23292">
        <ele>84.599998474121</ele>
      </trkpt>
      <trkpt lat="50.52067" lon="5.23329">
        <ele>80.1</ele>
      </trkpt>
      <trkpt lat="50.52083" lon="5.23346">
        <ele>80.3</ele>
      </trkpt>
      <trkpt lat="50.52114" lon="5.23383">
        <ele>81.2</ele>
      </trkpt>
      <trkpt lat="50.52154" lon="5.23428">
        <ele>79.6</ele>
      </trkpt>
      <trkpt lat="50.5214" lon="5.23448">
        <ele>79.2</ele>
      </trkpt>
      <trkpt lat="50.52162" lon="5.23484">
        <ele>79</ele>
      </trkpt>
      <trkpt lat="50.52183" lon="5.23513">
        <ele>78.2</ele>
      </trkpt>
      <trkpt lat="50.52214" lon="5.23542">
        <ele>77.5</ele>
      </trkpt>
      <trkpt lat="50.52245" lon="5.23562">
        <ele>76.6</ele>
      </trkpt>
      <trkpt lat="50.52274" lon="5.23585">
        <ele>73.3</ele>
      </trkpt>
      <trkpt lat="50.52307" lon="5.23618">
        <ele>72.3</ele>
      </trkpt>
      <trkpt lat="50.5232" lon="5.2363">
        <ele>72.2</ele>
      </trkpt>
      <trkpt lat="50.52343" lon="5.23649">
        <ele>72</ele>
      </trkpt>
      <trkpt lat="50.52341" lon="5.23661">
        <ele>72</ele>
      </trkpt>
      <trkpt lat="50.52348" lon="5.23674">
        <ele>80.599998474121</ele>
      </trkpt>
      <trkpt lat="50.52357" lon="5.2368">
        <ele>72</ele>
      </trkpt>
      <trkpt lat="50.52368" lon="5.23676">
        <ele>72.3</ele>
      </trkpt>
      <trkpt lat="50.52387" lon="5.23688">
        <ele>72.4</ele>
      </trkpt>
      <trkpt lat="50.52431" lon="5.2372">
        <ele>73</ele>
      </trkpt>
      <trkpt lat="50.52468" lon="5.23748">
        <ele>72.7</ele>
      </trkpt>
      <trkpt lat="50.52514" lon="5.2378">
        <ele>72.4</ele>
      </trkpt>
      <trkpt lat="50.52554" lon="5.2381">
        <ele>72.5</ele>
      </trkpt>
      <trkpt lat="50.52604" lon="5.23843">
        <ele>79.400001525879</ele>
      </trkpt>
      <trkpt lat="50.52644" lon="5.23874">
        <ele>78.800003051758</ele>
      </trkpt>
      <trkpt lat="50.52665" lon="5.23889">
        <ele>71.5</ele>
      </trkpt>
      <trkpt lat="50.52687" lon="5.23903">
        <ele>78.599998474121</ele>
      </trkpt>
      <trkpt lat="50.52709" lon="5.23911">
        <ele>71.2</ele>
      </trkpt>
      <trkpt lat="50.52734" lon="5.23917">
        <ele>71</ele>
      </trkpt>
      <trkpt lat="50.5276" lon="5.23929">
        <ele>71.3</ele>
      </trkpt>
      <trkpt lat="50.52803" lon="5.23944">
        <ele>71.5</ele>
      </trkpt>
      <trkpt lat="50.52846" lon="5.2396">
        <ele>71.1</ele>
      </trkpt>
      <trkpt lat="50.52889" lon="5.23978">
        <ele>70.8</ele>
      </trkpt>
      <trkpt lat="50.52933" lon="5.23996">
        <ele>71</ele>
      </trkpt>
      <trkpt lat="50.52959" lon="5.24006">
        <ele>71</ele>
      </trkpt>
      <trkpt lat="50.52986" lon="5.24013">
        <ele>71.2</ele>
      </trkpt>
      <trkpt lat="50.5303" lon="5.24026">
        <ele>76.8</ele>
      </trkpt>
      <trkpt lat="50.5304" lon="5.24035">
        <ele>78.599998474121</ele>
      </trkpt>
      <trkpt lat="50.53053" lon="5.24049">
        <ele>78.800003051758</ele>
      </trkpt>
      <trkpt lat="50.53086" lon="5.24096">
        <ele>79</ele>
      </trkpt>
      <trkpt lat="50.53122" lon="5.24145">
        <ele>79.599998474121</ele>
      </trkpt>
      <trkpt lat="50.53128" lon="5.24152">
        <ele>80</ele>
      </trkpt>
      <trkpt lat="50.53146" lon="5.24179">
        <ele>80.400001525879</ele>
      </trkpt>
      <trkpt lat="50.53154" lon="5.24195">
        <ele>80.599998474121</ele>
      </trkpt>
      <trkpt lat="50.53155" lon="5.24205">
        <ele>80.800003051758</ele>
      </trkpt>
      <trkpt lat="50.53154" lon="5.24224">
        <ele>75</ele>
      </trkpt>
      <trkpt lat="50.53142" lon="5.24234">
        <ele>74</ele>
      </trkpt>
      <trkpt lat="50.53141" lon="5.24248">
        <ele>73.5</ele>
      </trkpt>
      <trkpt lat="50.53154" lon="5.24261">
        <ele>71.5</ele>
      </trkpt>
      <trkpt lat="50.53162" lon="5.24272">
        <ele>71.4</ele>
      </trkpt>
      <trkpt lat="50.53177" lon="5.24294">
        <ele>76.5</ele>
      </trkpt>
      <trkpt lat="50.53197" lon="5.24316">
        <ele>76.8</ele>
      </trkpt>
      <trkpt lat="50.53221" lon="5.24347">
        <ele>76.3</ele>
      </trkpt>
      <trkpt lat="50.5324" lon="5.24376">
        <ele>76.2</ele>
      </trkpt>
      <trkpt lat="50.5327" lon="5.2442">
        <ele>76.9</ele>
      </trkpt>
      <trkpt lat="50.5329" lon="5.2445">
        <ele>79</ele>
      </trkpt>
      <trkpt lat="50.53309" lon="5.24487">
        <ele>78.199996948242</ele>
      </trkpt>
      <trkpt lat="50.53314" lon="5.24496">
        <ele>78.199996948242</ele>
      </trkpt>
      <trkpt lat="50.53348" lon="5.24565">
        <ele>78.199996948242</ele>
      </trkpt>
      <trkpt lat="50.53352" lon="5.24575">
        <ele>78.199996948242</ele>
      </trkpt>
      <trkpt lat="50.53383" lon="5.24649">
        <ele>78.199996948242</ele>
      </trkpt>
      <trkpt lat="50.53395" lon="5.24683">
        <ele>78.199996948242</ele>
      </trkpt>
      <trkpt lat="50.53424" lon="5.24761">
        <ele>78.199996948242</ele>
      </trkpt>
      <trkpt lat="50.53439" lon="5.24807">
        <ele>78.199996948242</ele>
      </trkpt>
      <trkpt lat="50.53465" lon="5.24887">
        <ele>78.199996948242</ele>
      </trkpt>
      <trkpt lat="50.53476" lon="5.24922">
        <ele>78.199996948242</ele>
      </trkpt>
      <trkpt lat="50.535" lon="5.25007">
        <ele>78</ele>
      </trkpt>
      <trkpt lat="50.5351" lon="5.25044">
        <ele>78</ele>
      </trkpt>
      <trkpt lat="50.53534" lon="5.25129">
        <ele>78.199996948242</ele>
      </trkpt>
      <trkpt lat="50.53545" lon="5.25165">
        <ele>78.199996948242</ele>
      </trkpt>
      <trkpt lat="50.53568" lon="5.25248">
        <ele>78.199996948242</ele>
      </trkpt>
      <trkpt lat="50.53578" lon="5.25284">
        <ele>78.199996948242</ele>
      </trkpt>
      <trkpt lat="50.53603" lon="5.25368">
        <ele>78.199996948242</ele>
      </trkpt>
      <trkpt lat="50.5362" lon="5.25428">
        <ele>78.199996948242</ele>
      </trkpt>
      <trkpt lat="50.53643" lon="5.25513">
        <ele>78.400001525879</ele>
      </trkpt>
      <trkpt lat="50.53663" lon="5.25587">
        <ele>78.199996948242</ele>
      </trkpt>
      <trkpt lat="50.53683" lon="5.25674">
        <ele>77.599998474121</ele>
      </trkpt>
      <trkpt lat="50.53689" lon="5.25699">
        <ele>77.599998474121</ele>
      </trkpt>
      <trkpt lat="50.53707" lon="5.25789">
        <ele>77.599998474121</ele>
      </trkpt>
      <trkpt lat="50.53715" lon="5.25828">
        <ele>77.599998474121</ele>
      </trkpt>
      <trkpt lat="50.5372" lon="5.25854">
        <ele>77.599998474121</ele>
      </trkpt>
      <trkpt lat="50.53738" lon="5.25944">
        <ele>77.800003051758</ele>
      </trkpt>
      <trkpt lat="50.53743" lon="5.2597">
        <ele>77.800003051758</ele>
      </trkpt>
      <trkpt lat="50.53761" lon="5.26061">
        <ele>78</ele>
      </trkpt>
      <trkpt lat="50.53767" lon="5.26101">
        <ele>78</ele>
      </trkpt>
      <trkpt lat="50.53775" lon="5.26194">
        <ele>78</ele>
      </trkpt>
      <trkpt lat="50.53776" lon="5.26246">
        <ele>77</ele>
      </trkpt>
      <trkpt lat="50.53775" lon="5.2629">
        <ele>81.2</ele>
      </trkpt>
      <trkpt lat="50.53764" lon="5.26374">
        <ele>78.400001525879</ele>
      </trkpt>
      <trkpt lat="50.53752" lon="5.2646">
        <ele>78.599998474121</ele>
      </trkpt>
      <trkpt lat="50.53749" lon="5.26483">
        <ele>78.599998474121</ele>
      </trkpt>
      <trkpt lat="50.53746" lon="5.2655">
        <ele>78.400001525879</ele>
      </trkpt>
      <trkpt lat="50.53749" lon="5.26616">
        <ele>65.9</ele>
      </trkpt>
      <trkpt lat="50.53749" lon="5.26651">
        <ele>67.2</ele>
      </trkpt>
      <trkpt lat="50.53751" lon="5.26709">
        <ele>80.3</ele>
      </trkpt>
      <trkpt lat="50.53758" lon="5.26802">
        <ele>78</ele>
      </trkpt>
      <trkpt lat="50.53758" lon="5.26815">
        <ele>78</ele>
      </trkpt>
      <trkpt lat="50.53762" lon="5.26901">
        <ele>77.800003051758</ele>
      </trkpt>
      <trkpt lat="50.53762" lon="5.26939">
        <ele>77.800003051758</ele>
      </trkpt>
      <trkpt lat="50.53763" lon="5.27025">
        <ele>74.1</ele>
      </trkpt>
      <trkpt lat="50.53763" lon="5.27134">
        <ele>74.3</ele>
      </trkpt>
      <trkpt lat="50.53762" lon="5.27252">
        <ele>75.3</ele>
      </trkpt>
      <trkpt lat="50.53762" lon="5.27357">
        <ele>73.3</ele>
      </trkpt>
      <trkpt lat="50.53761" lon="5.27441">
        <ele>73.2</ele>
      </trkpt>
      <trkpt lat="50.5376" lon="5.27497">
        <ele>72.8</ele>
      </trkpt>
      <trkpt lat="50.53757" lon="5.27576">
        <ele>72.5</ele>
      </trkpt>
      <trkpt lat="50.53755" lon="5.27605">
        <ele>72.4</ele>
      </trkpt>
      <trkpt lat="50.53752" lon="5.27659">
        <ele>72.2</ele>
      </trkpt>
      <trkpt lat="50.5375" lon="5.27715">
        <ele>73.1</ele>
      </trkpt>
      <trkpt lat="50.53741" lon="5.27825">
        <ele>71.2</ele>
      </trkpt>
      <trkpt lat="50.53733" lon="5.27914">
        <ele>69.9</ele>
      </trkpt>
      <trkpt lat="50.53726" lon="5.2801">
        <ele>70.3</ele>
      </trkpt>
      <trkpt lat="50.53722" lon="5.28073">
        <ele>71</ele>
      </trkpt>
      <trkpt lat="50.53717" lon="5.28127">
        <ele>71.7</ele>
      </trkpt>
      <trkpt lat="50.53705" lon="5.28213">
        <ele>70.7</ele>
      </trkpt>
      <trkpt lat="50.53698" lon="5.28265">
        <ele>69.7</ele>
      </trkpt>
      <trkpt lat="50.53687" lon="5.28337">
        <ele>69.8</ele>
      </trkpt>
      <trkpt lat="50.53672" lon="5.28417">
        <ele>70</ele>
      </trkpt>
      <trkpt lat="50.53657" lon="5.28497">
        <ele>67.5</ele>
      </trkpt>
      <trkpt lat="50.53643" lon="5.28561">
        <ele>66.2</ele>
      </trkpt>
      <trkpt lat="50.53625" lon="5.2862">
        <ele>66.5</ele>
      </trkpt>
      <trkpt lat="50.53595" lon="5.28704">
        <ele>66.5</ele>
      </trkpt>
      <trkpt lat="50.5358" lon="5.28748">
        <ele>65.8</ele>
      </trkpt>
      <trkpt lat="50.53575" lon="5.28768">
        <ele>79.800003051758</ele>
      </trkpt>
      <trkpt lat="50.53565" lon="5.28834">
        <ele>67.2</ele>
      </trkpt>
      <trkpt lat="50.5356" lon="5.28863">
        <ele>67</ele>
      </trkpt>
      <trkpt lat="50.53551" lon="5.2893">
        <ele>78.400001525879</ele>
      </trkpt>
      <trkpt lat="50.5354" lon="5.2902">
        <ele>78.199996948242</ele>
      </trkpt>
      <trkpt lat="50.53526" lon="5.29099">
        <ele>67.9</ele>
      </trkpt>
      <trkpt lat="50.53521" lon="5.29121">
        <ele>68.3</ele>
      </trkpt>
      <trkpt lat="50.53506" lon="5.29208">
        <ele>78.199996948242</ele>
      </trkpt>
      <trkpt lat="50.53502" lon="5.29233">
        <ele>78.199996948242</ele>
      </trkpt>
      <trkpt lat="50.53486" lon="5.2932">
        <ele>78.199996948242</ele>
      </trkpt>
      <trkpt lat="50.53485" lon="5.29333">
        <ele>78.199996948242</ele>
      </trkpt>
      <trkpt lat="50.53484" lon="5.29359">
        <ele>78.199996948242</ele>
      </trkpt>
      <trkpt lat="50.53488" lon="5.29386">
        <ele>78.199996948242</ele>
      </trkpt>
      <trkpt lat="50.53497" lon="5.29402">
        <ele>67</ele>
      </trkpt>
      <trkpt lat="50.53506" lon="5.29412">
        <ele>67.4</ele>
      </trkpt>
      <trkpt lat="50.53537" lon="5.29406">
        <ele>68</ele>
      </trkpt>
      <trkpt lat="50.53564" lon="5.294">
        <ele>68.3</ele>
      </trkpt>
      <trkpt lat="50.53586" lon="5.29396">
        <ele>69.1</ele>
      </trkpt>
      <trkpt lat="50.53601" lon="5.29406">
        <ele>69.1</ele>
      </trkpt>
      <trkpt lat="50.53609" lon="5.2942">
        <ele>68</ele>
      </trkpt>
      <trkpt lat="50.53618" lon="5.29438">
        <ele>68.5</ele>
      </trkpt>
      <trkpt lat="50.5365" lon="5.29516">
        <ele>67.9</ele>
      </trkpt>
      <trkpt lat="50.53661" lon="5.29541">
        <ele>67.4</ele>
      </trkpt>
      <trkpt lat="50.53693" lon="5.29619">
        <ele>79</ele>
      </trkpt>
      <trkpt lat="50.53702" lon="5.2964">
        <ele>79.199996948242</ele>
      </trkpt>
      <trkpt lat="50.53711" lon="5.29661">
        <ele>79.199996948242</ele>
      </trkpt>
      <trkpt lat="50.53722" lon="5.29685">
        <ele>67</ele>
      </trkpt>
      <trkpt lat="50.5373" lon="5.2972">
        <ele>79.599998474121</ele>
      </trkpt>
      <trkpt lat="50.53739" lon="5.29786">
        <ele>79.599998474121</ele>
      </trkpt>
      <trkpt lat="50.53747" lon="5.29876">
        <ele>79.199996948242</ele>
      </trkpt>
      <trkpt lat="50.53756" lon="5.29962">
        <ele>79.199996948242</ele>
      </trkpt>
      <trkpt lat="50.53765" lon="5.30022">
        <ele>69.7</ele>
      </trkpt>
      <trkpt lat="50.53768" lon="5.30044">
        <ele>69.5</ele>
      </trkpt>
      <trkpt lat="50.53773" lon="5.30052">
        <ele>69</ele>
      </trkpt>
      <trkpt lat="50.53778" lon="5.30049">
        <ele>69.5</ele>
      </trkpt>
      <trkpt lat="50.53799" lon="5.30037">
        <ele>69.5</ele>
      </trkpt>
      <trkpt lat="50.53851" lon="5.30007">
        <ele>69.9</ele>
      </trkpt>
      <trkpt lat="50.53904" lon="5.29976">
        <ele>69.9</ele>
      </trkpt>
      <trkpt lat="50.53939" lon="5.29957">
        <ele>68.7</ele>
      </trkpt>
      <trkpt lat="50.5396" lon="5.29942">
        <ele>68.5</ele>
      </trkpt>
      <trkpt lat="50.53972" lon="5.29976">
        <ele>68.3</ele>
      </trkpt>
      <trkpt lat="50.5398" lon="5.3">
        <ele>79.199996948242</ele>
      </trkpt>
      <trkpt lat="50.53993" lon="5.30031">
        <ele>79.199996948242</ele>
      </trkpt>
      <trkpt lat="50.54003" lon="5.30053">
        <ele>79</ele>
      </trkpt>
      <trkpt lat="50.54013" lon="5.3007">
        <ele>68</ele>
      </trkpt>
      <trkpt lat="50.54028" lon="5.30106">
        <ele>68</ele>
      </trkpt>
      <trkpt lat="50.54034" lon="5.30144">
        <ele>68.5</ele>
      </trkpt>
      <trkpt lat="50.54043" lon="5.30183">
        <ele>68.7</ele>
      </trkpt>
      <trkpt lat="50.54047" lon="5.30225">
        <ele>78.800003051758</ele>
      </trkpt>
      <trkpt lat="50.54049" lon="5.30237">
        <ele>78.800003051758</ele>
      </trkpt>
      <trkpt lat="50.54053" lon="5.30274">
        <ele>79</ele>
      </trkpt>
      <trkpt lat="50.54064" lon="5.30364">
        <ele>79.199996948242</ele>
      </trkpt>
      <trkpt lat="50.54066" lon="5.30389">
        <ele>79.199996948242</ele>
      </trkpt>
      <trkpt lat="50.54078" lon="5.30474">
        <ele>79.199996948242</ele>
      </trkpt>
      <trkpt lat="50.54083" lon="5.3051">
        <ele>79.199996948242</ele>
      </trkpt>
      <trkpt lat="50.54096" lon="5.30598">
        <ele>79.199996948242</ele>
      </trkpt>
      <trkpt lat="50.5411" lon="5.3068">
        <ele>79.199996948242</ele>
      </trkpt>
      <trkpt lat="50.54114" lon="5.30707">
        <ele>79.199996948242</ele>
      </trkpt>
      <trkpt lat="50.54131" lon="5.30795">
        <ele>78.800003051758</ele>
      </trkpt>
      <trkpt lat="50.54133" lon="5.30807">
        <ele>78.800003051758</ele>
      </trkpt>
      <trkpt lat="50.54151" lon="5.3089">
        <ele>78.599998474121</ele>
      </trkpt>
      <trkpt lat="50.54156" lon="5.30913">
        <ele>78.599998474121</ele>
      </trkpt>
      <trkpt lat="50.54175" lon="5.30998">
        <ele>78.800003051758</ele>
      </trkpt>
      <trkpt lat="50.54178" lon="5.31011">
        <ele>78.800003051758</ele>
      </trkpt>
      <trkpt lat="50.542" lon="5.31098">
        <ele>79</ele>
      </trkpt>
      <trkpt lat="50.54206" lon="5.31121">
        <ele>78.800003051758</ele>
      </trkpt>
      <trkpt lat="50.5423" lon="5.31203">
        <ele>78.800003051758</ele>
      </trkpt>
      <trkpt lat="50.54236" lon="5.31225">
        <ele>78.800003051758</ele>
      </trkpt>
      <trkpt lat="50.5426" lon="5.31298">
        <ele>78.800003051758</ele>
      </trkpt>
      <trkpt lat="50.5427" lon="5.31333">
        <ele>79</ele>
      </trkpt>
      <trkpt lat="50.54279" lon="5.31368">
        <ele>79</ele>
      </trkpt>
      <trkpt lat="50.5429" lon="5.31401">
        <ele>79</ele>
      </trkpt>
      <trkpt lat="50.54298" lon="5.31424">
        <ele>79.199996948242</ele>
      </trkpt>
      <trkpt lat="50.54309" lon="5.31459">
        <ele>79.199996948242</ele>
      </trkpt>
      <trkpt lat="50.54325" lon="5.31515">
        <ele>79.199996948242</ele>
      </trkpt>
      <trkpt lat="50.5435" lon="5.31597">
        <ele>79</ele>
      </trkpt>
      <trkpt lat="50.54354" lon="5.31607">
        <ele>79</ele>
      </trkpt>
      <trkpt lat="50.54382" lon="5.31675">
        <ele>78.800003051758</ele>
      </trkpt>
      <trkpt lat="50.54394" lon="5.31705">
        <ele>78.800003051758</ele>
      </trkpt>
      <trkpt lat="50.54424" lon="5.31776">
        <ele>78.599998474121</ele>
      </trkpt>
      <trkpt lat="50.54429" lon="5.31786">
        <ele>78.599998474121</ele>
      </trkpt>
      <trkpt lat="50.54462" lon="5.31857">
        <ele>78.599998474121</ele>
      </trkpt>
      <trkpt lat="50.54472" lon="5.31877">
        <ele>78.599998474121</ele>
      </trkpt>
      <trkpt lat="50.54507" lon="5.31948">
        <ele>78.199996948242</ele>
      </trkpt>
      <trkpt lat="50.54517" lon="5.31967">
        <ele>78.199996948242</ele>
      </trkpt>
      <trkpt lat="50.54552" lon="5.32028">
        <ele>78</ele>
      </trkpt>
      <trkpt lat="50.54555" lon="5.32037">
        <ele>77.800003051758</ele>
      </trkpt>
      <trkpt lat="50.54564" lon="5.32068">
        <ele>77.800003051758</ele>
      </trkpt>
      <trkpt lat="50.54579" lon="5.32129">
        <ele>77.800003051758</ele>
      </trkpt>
      <trkpt lat="50.54592" lon="5.32177">
        <ele>68.5</ele>
      </trkpt>
      <trkpt lat="50.54606" lon="5.32169">
        <ele>68.6</ele>
      </trkpt>
      <trkpt lat="50.54605" lon="5.32217">
        <ele>78.599998474121</ele>
      </trkpt>
      <trkpt lat="50.54602" lon="5.32285">
        <ele>69.2</ele>
      </trkpt>
      <trkpt lat="50.54597" lon="5.32355">
        <ele>78.800003051758</ele>
      </trkpt>
      <trkpt lat="50.54594" lon="5.3241">
        <ele>78.800003051758</ele>
      </trkpt>
      <trkpt lat="50.54589" lon="5.32487">
        <ele>78.599998474121</ele>
      </trkpt>
      <trkpt lat="50.54585" lon="5.32558">
        <ele>78.400001525879</ele>
      </trkpt>
      <trkpt lat="50.54587" lon="5.32573">
        <ele>67</ele>
      </trkpt>
      <trkpt lat="50.54592" lon="5.32582">
        <ele>67.1</ele>
      </trkpt>
      <trkpt lat="50.54602" lon="5.32588">
        <ele>66.9</ele>
      </trkpt>
      <trkpt lat="50.54613" lon="5.32576">
        <ele>67.1</ele>
      </trkpt>
      <trkpt lat="50.54623" lon="5.32567">
        <ele>67.2</ele>
      </trkpt>
      <trkpt lat="50.54641" lon="5.32553">
        <ele>67.2</ele>
      </trkpt>
      <trkpt lat="50.54652" lon="5.32551">
        <ele>67.3</ele>
      </trkpt>
      <trkpt lat="50.54672" lon="5.32544">
        <ele>67.6</ele>
      </trkpt>
      <trkpt lat="50.54689" lon="5.32537">
        <ele>67.7</ele>
      </trkpt>
      <trkpt lat="50.54706" lon="5.32529">
        <ele>67.8</ele>
      </trkpt>
      <trkpt lat="50.54726" lon="5.32523">
        <ele>67.8</ele>
      </trkpt>
      <trkpt lat="50.54746" lon="5.32514">
        <ele>67.9</ele>
      </trkpt>
      <trkpt lat="50.54777" lon="5.32503">
        <ele>68.4</ele>
      </trkpt>
      <trkpt lat="50.54797" lon="5.32496">
        <ele>68.7</ele>
      </trkpt>
      <trkpt lat="50.54818" lon="5.32481">
        <ele>68.8</ele>
      </trkpt>
      <trkpt lat="50.54835" lon="5.32463">
        <ele>68.7</ele>
      </trkpt>
      <trkpt lat="50.54852" lon="5.3244">
        <ele>68.7</ele>
      </trkpt>
      <trkpt lat="50.54868" lon="5.32413">
        <ele>68.5</ele>
      </trkpt>
      <trkpt lat="50.54895" lon="5.32373">
        <ele>68.5</ele>
      </trkpt>
      <trkpt lat="50.54933" lon="5.32314">
        <ele>69</ele>
      </trkpt>
      <trkpt lat="50.54959" lon="5.32277">
        <ele>69.1</ele>
      </trkpt>
      <trkpt lat="50.54977" lon="5.32249">
        <ele>69.6</ele>
      </trkpt>
      <trkpt lat="50.55005" lon="5.32207">
        <ele>73.2</ele>
      </trkpt>
      <trkpt lat="50.55013" lon="5.3222">
        <ele>73</ele>
      </trkpt>
      <trkpt lat="50.55023" lon="5.32239">
        <ele>80.400001525879</ele>
      </trkpt>
      <trkpt lat="50.55027" lon="5.32246">
        <ele>80.400001525879</ele>
      </trkpt>
      <trkpt lat="50.55036" lon="5.32261">
        <ele>80.199996948242</ele>
      </trkpt>
      <trkpt lat="50.55057" lon="5.32297">
        <ele>80</ele>
      </trkpt>
      <trkpt lat="50.55076" lon="5.32331">
        <ele>80</ele>
      </trkpt>
      <trkpt lat="50.55098" lon="5.3237">
        <ele>74.6</ele>
      </trkpt>
      <trkpt lat="50.55119" lon="5.32405">
        <ele>74.9</ele>
      </trkpt>
      <trkpt lat="50.55145" lon="5.32451">
        <ele>72.6</ele>
      </trkpt>
      <trkpt lat="50.55173" lon="5.325">
        <ele>73.7</ele>
      </trkpt>
      <trkpt lat="50.55208" lon="5.32561">
        <ele>74.8</ele>
      </trkpt>
      <trkpt lat="50.55219" lon="5.32581">
        <ele>80</ele>
      </trkpt>
      <trkpt lat="50.55249" lon="5.32628">
        <ele>72.7</ele>
      </trkpt>
      <trkpt lat="50.5527" lon="5.32668">
        <ele>81.400001525879</ele>
      </trkpt>
      <trkpt lat="50.55282" lon="5.32694">
        <ele>81.599998474121</ele>
      </trkpt>
      <trkpt lat="50.55294" lon="5.32723">
        <ele>82.599998474121</ele>
      </trkpt>
      <trkpt lat="50.55313" lon="5.32774">
        <ele>83.400001525879</ele>
      </trkpt>
      <trkpt lat="50.5534" lon="5.32848">
        <ele>83.4</ele>
      </trkpt>
      <trkpt lat="50.55346" lon="5.3287">
        <ele>84.9</ele>
      </trkpt>
      <trkpt lat="50.55379" lon="5.32936">
        <ele>79.7</ele>
      </trkpt>
      <trkpt lat="50.55408" lon="5.32988">
        <ele>77.3</ele>
      </trkpt>
      <trkpt lat="50.55423" lon="5.33016">
        <ele>81.1</ele>
      </trkpt>
      <trkpt lat="50.55451" lon="5.33065">
        <ele>81.800003051758</ele>
      </trkpt>
      <trkpt lat="50.55473" lon="5.33106">
        <ele>80.4</ele>
      </trkpt>
      <trkpt lat="50.55504" lon="5.33164">
        <ele>80.2</ele>
      </trkpt>
      <trkpt lat="50.55522" lon="5.33197">
        <ele>82</ele>
      </trkpt>
      <trkpt lat="50.55543" lon="5.33222">
        <ele>83</ele>
      </trkpt>
      <trkpt lat="50.5559" lon="5.33275">
        <ele>81</ele>
      </trkpt>
      <trkpt lat="50.556" lon="5.33288">
        <ele>88.8</ele>
      </trkpt>
      <trkpt lat="50.55616" lon="5.33309">
        <ele>89</ele>
      </trkpt>
      <trkpt lat="50.55631" lon="5.33338">
        <ele>81.5</ele>
      </trkpt>
      <trkpt lat="50.55661" lon="5.33398">
        <ele>78</ele>
      </trkpt>
      <trkpt lat="50.55676" lon="5.33429">
        <ele>79.4</ele>
      </trkpt>
      <trkpt lat="50.55696" lon="5.33472">
        <ele>78.8</ele>
      </trkpt>
      <trkpt lat="50.55728" lon="5.33535">
        <ele>71</ele>
      </trkpt>
      <trkpt lat="50.55743" lon="5.33564">
        <ele>79.599998474121</ele>
      </trkpt>
      <trkpt lat="50.55771" lon="5.33628">
        <ele>71.8</ele>
      </trkpt>
      <trkpt lat="50.55792" lon="5.33671">
        <ele>71</ele>
      </trkpt>
      <trkpt lat="50.55829" lon="5.33745">
        <ele>68.7</ele>
      </trkpt>
      <trkpt lat="50.55877" lon="5.33849">
        <ele>73.9</ele>
      </trkpt>
      <trkpt lat="50.55893" lon="5.33886">
        <ele>73</ele>
      </trkpt>
      <trkpt lat="50.5591" lon="5.33917">
        <ele>70.4</ele>
      </trkpt>
      <trkpt lat="50.55927" lon="5.33942">
        <ele>79.199996948242</ele>
      </trkpt>
      <trkpt lat="50.55955" lon="5.33966">
        <ele>78.7</ele>
      </trkpt>
      <trkpt lat="50.55969" lon="5.33979">
        <ele>80</ele>
      </trkpt>
      <trkpt lat="50.5598" lon="5.33991">
        <ele>79.199996948242</ele>
      </trkpt>
      <trkpt lat="50.55993" lon="5.34009">
        <ele>79.199996948242</ele>
      </trkpt>
      <trkpt lat="50.56003" lon="5.34027">
        <ele>91</ele>
      </trkpt>
      <trkpt lat="50.56013" lon="5.34054">
        <ele>79</ele>
      </trkpt>
      <trkpt lat="50.56043" lon="5.34136">
        <ele>79</ele>
      </trkpt>
      <trkpt lat="50.56052" lon="5.34163">
        <ele>87.1</ele>
      </trkpt>
      <trkpt lat="50.56081" lon="5.34244">
        <ele>77.8</ele>
      </trkpt>
      <trkpt lat="50.56111" lon="5.34328">
        <ele>79.2</ele>
      </trkpt>
      <trkpt lat="50.5615" lon="5.34437">
        <ele>76.3</ele>
      </trkpt>
      <trkpt lat="50.56187" lon="5.34538">
        <ele>77.7</ele>
      </trkpt>
      <trkpt lat="50.56221" lon="5.34631">
        <ele>76</ele>
      </trkpt>
      <trkpt lat="50.56257" lon="5.34728">
        <ele>74.3</ele>
      </trkpt>
      <trkpt lat="50.56301" lon="5.34853">
        <ele>71.6</ele>
      </trkpt>
      <trkpt lat="50.56339" lon="5.3496">
        <ele>72.3</ele>
      </trkpt>
      <trkpt lat="50.56367" lon="5.35039">
        <ele>79.199996948242</ele>
      </trkpt>
      <trkpt lat="50.56398" lon="5.3515">
        <ele>70.1</ele>
      </trkpt>
      <trkpt lat="50.56423" lon="5.3524">
        <ele>67.1</ele>
      </trkpt>
      <trkpt lat="50.56448" lon="5.35324">
        <ele>79</ele>
      </trkpt>
      <trkpt lat="50.56473" lon="5.3541">
        <ele>79</ele>
      </trkpt>
      <trkpt lat="50.56481" lon="5.35434">
        <ele>79.199996948242</ele>
      </trkpt>
      <trkpt lat="50.56498" lon="5.35492">
        <ele>79.400001525879</ele>
      </trkpt>
      <trkpt lat="50.56518" lon="5.3556">
        <ele>79.400001525879</ele>
      </trkpt>
      <trkpt lat="50.56536" lon="5.35629">
        <ele>79.400001525879</ele>
      </trkpt>
      <trkpt lat="50.56562" lon="5.35712">
        <ele>79.400001525879</ele>
      </trkpt>
      <trkpt lat="50.56587" lon="5.35799">
        <ele>79.599998474121</ele>
      </trkpt>
      <trkpt lat="50.56614" lon="5.35893">
        <ele>72.8</ele>
      </trkpt>
      <trkpt lat="50.56627" lon="5.35944">
        <ele>72.7</ele>
      </trkpt>
      <trkpt lat="50.56648" lon="5.36017">
        <ele>81</ele>
      </trkpt>
      <trkpt lat="50.56674" lon="5.36111">
        <ele>77.7</ele>
      </trkpt>
      <trkpt lat="50.56684" lon="5.3615">
        <ele>78</ele>
      </trkpt>
      <trkpt lat="50.56693" lon="5.362">
        <ele>80.1</ele>
      </trkpt>
      <trkpt lat="50.5671" lon="5.3629">
        <ele>80</ele>
      </trkpt>
      <trkpt lat="50.56715" lon="5.36316">
        <ele>79.599998474121</ele>
      </trkpt>
      <trkpt lat="50.56733" lon="5.36404">
        <ele>79.199996948242</ele>
      </trkpt>
      <trkpt lat="50.56738" lon="5.36429">
        <ele>79</ele>
      </trkpt>
      <trkpt lat="50.56748" lon="5.36491">
        <ele>79</ele>
      </trkpt>
      <trkpt lat="50.56755" lon="5.36519">
        <ele>78.6</ele>
      </trkpt>
      <trkpt lat="50.56774" lon="5.36593">
        <ele>78.800003051758</ele>
      </trkpt>
      <trkpt lat="50.56787" lon="5.36645">
        <ele>78.800003051758</ele>
      </trkpt>
      <trkpt lat="50.56809" lon="5.36724">
        <ele>79.199996948242</ele>
      </trkpt>
      <trkpt lat="50.56828" lon="5.36798">
        <ele>79.599998474121</ele>
      </trkpt>
      <trkpt lat="50.56831" lon="5.36811">
        <ele>79.599998474121</ele>
      </trkpt>
      <trkpt lat="50.56845" lon="5.3686">
        <ele>79.800003051758</ele>
      </trkpt>
      <trkpt lat="50.56857" lon="5.36911">
        <ele>79.599998474121</ele>
      </trkpt>
      <trkpt lat="50.56879" lon="5.37005">
        <ele>78.7</ele>
      </trkpt>
      <trkpt lat="50.56889" lon="5.37048">
        <ele>78.1</ele>
      </trkpt>
      <trkpt lat="50.56908" lon="5.37123">
        <ele>74.3</ele>
      </trkpt>
      <trkpt lat="50.56919" lon="5.37164">
        <ele>76.3</ele>
      </trkpt>
      <trkpt lat="50.56932" lon="5.37206">
        <ele>80</ele>
      </trkpt>
      <trkpt lat="50.56944" lon="5.37243">
        <ele>79.5</ele>
      </trkpt>
      <trkpt lat="50.5696" lon="5.37287">
        <ele>79</ele>
      </trkpt>
      <trkpt lat="50.56966" lon="5.37309">
        <ele>79</ele>
      </trkpt>
      <trkpt lat="50.56991" lon="5.37383">
        <ele>76.5</ele>
      </trkpt>
      <trkpt lat="50.57024" lon="5.37479">
        <ele>84.2</ele>
      </trkpt>
      <trkpt lat="50.57046" lon="5.37543">
        <ele>80.9</ele>
      </trkpt>
      <trkpt lat="50.57063" lon="5.37591">
        <ele>77.6</ele>
      </trkpt>
      <trkpt lat="50.57094" lon="5.37683">
        <ele>81.5</ele>
      </trkpt>
      <trkpt lat="50.57124" lon="5.37773">
        <ele>78.5</ele>
      </trkpt>
      <trkpt lat="50.57137" lon="5.37805">
        <ele>78</ele>
      </trkpt>
      <trkpt lat="50.57151" lon="5.37832">
        <ele>80.199996948242</ele>
      </trkpt>
      <trkpt lat="50.57184" lon="5.37899">
        <ele>78.1</ele>
      </trkpt>
      <trkpt lat="50.57206" lon="5.37947">
        <ele>75.9</ele>
      </trkpt>
      <trkpt lat="50.57221" lon="5.37979">
        <ele>75.8</ele>
      </trkpt>
      <trkpt lat="50.57236" lon="5.38007">
        <ele>75</ele>
      </trkpt>
      <trkpt lat="50.5725" lon="5.38041">
        <ele>82.599998474121</ele>
      </trkpt>
      <trkpt lat="50.57254" lon="5.38052">
        <ele>82.400001525879</ele>
      </trkpt>
      <trkpt lat="50.57274" lon="5.38108">
        <ele>83.599998474121</ele>
      </trkpt>
      <trkpt lat="50.57286" lon="5.38141">
        <ele>84</ele>
      </trkpt>
      <trkpt lat="50.57299" lon="5.38173">
        <ele>84.599998474121</ele>
      </trkpt>
      <trkpt lat="50.57316" lon="5.38214">
        <ele>85.199996948242</ele>
      </trkpt>
      <trkpt lat="50.5733" lon="5.38242">
        <ele>85.400001525879</ele>
      </trkpt>
      <trkpt lat="50.5734" lon="5.38261">
        <ele>85.800003051758</ele>
      </trkpt>
      <trkpt lat="50.57364" lon="5.38308">
        <ele>86.199996948242</ele>
      </trkpt>
      <trkpt lat="50.57378" lon="5.38336">
        <ele>86.800003051758</ele>
      </trkpt>
      <trkpt lat="50.57398" lon="5.38371">
        <ele>87.400001525879</ele>
      </trkpt>
      <trkpt lat="50.57414" lon="5.38397">
        <ele>88</ele>
      </trkpt>
      <trkpt lat="50.57424" lon="5.38414">
        <ele>88.400001525879</ele>
      </trkpt>
      <trkpt lat="50.5744" lon="5.38441">
        <ele>89</ele>
      </trkpt>
      <trkpt lat="50.57472" lon="5.38495">
        <ele>90.400001525879</ele>
      </trkpt>
      <trkpt lat="50.57508" lon="5.38551">
        <ele>91.3</ele>
      </trkpt>
      <trkpt lat="50.57556" lon="5.38633">
        <ele>83.1</ele>
      </trkpt>
      <trkpt lat="50.57572" lon="5.38658">
        <ele>90.599998474121</ele>
      </trkpt>
      <trkpt lat="50.57609" lon="5.38728">
        <ele>90.400001525879</ele>
      </trkpt>
      <trkpt lat="50.57624" lon="5.38758">
        <ele>90.400001525879</ele>
      </trkpt>
      <trkpt lat="50.57659" lon="5.38829">
        <ele>89.800003051758</ele>
      </trkpt>
      <trkpt lat="50.57674" lon="5.38858">
        <ele>89.800003051758</ele>
      </trkpt>
      <trkpt lat="50.5771" lon="5.38922">
        <ele>89.599998474121</ele>
      </trkpt>
      <trkpt lat="50.57715" lon="5.38931">
        <ele>89.599998474121</ele>
      </trkpt>
      <trkpt lat="50.57756" lon="5.38999">
        <ele>89.800003051758</ele>
      </trkpt>
      <trkpt lat="50.57766" lon="5.39018">
        <ele>90</ele>
      </trkpt>
      <trkpt lat="50.57804" lon="5.39082">
        <ele>90.599998474121</ele>
      </trkpt>
      <trkpt lat="50.57814" lon="5.39099">
        <ele>91.199996948242</ele>
      </trkpt>
      <trkpt lat="50.5782" lon="5.39108">
        <ele>91.400001525879</ele>
      </trkpt>
      <trkpt lat="50.57853" lon="5.39164">
        <ele>91.599998474121</ele>
      </trkpt>
      <trkpt lat="50.57862" lon="5.39182">
        <ele>91.599998474121</ele>
      </trkpt>
      <trkpt lat="50.57868" lon="5.39204">
        <ele>92</ele>
      </trkpt>
      <trkpt lat="50.5787" lon="5.39228">
        <ele>83.2</ele>
      </trkpt>
      <trkpt lat="50.5787" lon="5.39257">
        <ele>77.2</ele>
      </trkpt>
      <trkpt lat="50.57869" lon="5.39324">
        <ele>75.4</ele>
      </trkpt>
      <trkpt lat="50.57872" lon="5.39349">
        <ele>72</ele>
      </trkpt>
      <trkpt lat="50.57876" lon="5.39368">
        <ele>71.7</ele>
      </trkpt>
      <trkpt lat="50.57885" lon="5.39392">
        <ele>92.400001525879</ele>
      </trkpt>
      <trkpt lat="50.57889" lon="5.39403">
        <ele>92.400001525879</ele>
      </trkpt>
      <trkpt lat="50.57903" lon="5.39435">
        <ele>92.199996948242</ele>
      </trkpt>
      <trkpt lat="50.57917" lon="5.39468">
        <ele>91.599998474121</ele>
      </trkpt>
      <trkpt lat="50.57922" lon="5.39479">
        <ele>91.400001525879</ele>
      </trkpt>
      <trkpt lat="50.57937" lon="5.39513">
        <ele>90</ele>
      </trkpt>
      <trkpt lat="50.57946" lon="5.39538">
        <ele>89</ele>
      </trkpt>
      <trkpt lat="50.5795" lon="5.39551">
        <ele>88.599998474121</ele>
      </trkpt>
      <trkpt lat="50.57954" lon="5.3958">
        <ele>87.800003051758</ele>
      </trkpt>
      <trkpt lat="50.57954" lon="5.39596">
        <ele>69.7</ele>
      </trkpt>
      <trkpt lat="50.57952" lon="5.39622">
        <ele>69.5</ele>
      </trkpt>
      <trkpt lat="50.57949" lon="5.3964">
        <ele>69.2</ele>
      </trkpt>
      <trkpt lat="50.57941" lon="5.39663">
        <ele>68.4</ele>
      </trkpt>
      <trkpt lat="50.5793" lon="5.39688">
        <ele>67.6</ele>
      </trkpt>
      <trkpt lat="50.57917" lon="5.39711">
        <ele>65.5</ele>
      </trkpt>
      <trkpt lat="50.57898" lon="5.39737">
        <ele>65.6</ele>
      </trkpt>
      <trkpt lat="50.5789" lon="5.39743">
        <ele>81.199996948242</ele>
      </trkpt>
      <trkpt lat="50.57879" lon="5.39743">
        <ele>65.4</ele>
      </trkpt>
      <trkpt lat="50.57868" lon="5.39754">
        <ele>65.7</ele>
      </trkpt>
      <trkpt lat="50.57867" lon="5.3977">
        <ele>65.8</ele>
      </trkpt>
      <trkpt lat="50.57873" lon="5.39779">
        <ele>79</ele>
      </trkpt>
      <trkpt lat="50.57883" lon="5.39785">
        <ele>66.1</ele>
      </trkpt>
      <trkpt lat="50.57892" lon="5.39807">
        <ele>66.4</ele>
      </trkpt>
      <trkpt lat="50.579" lon="5.39833">
        <ele>67</ele>
      </trkpt>
      <trkpt lat="50.57908" lon="5.39858">
        <ele>78</ele>
      </trkpt>
      <trkpt lat="50.5792" lon="5.39892">
        <ele>77.800003051758</ele>
      </trkpt>
      <trkpt lat="50.57924" lon="5.39903">
        <ele>77.800003051758</ele>
      </trkpt>
      <trkpt lat="50.5795" lon="5.39977">
        <ele>66.1</ele>
      </trkpt>
      <trkpt lat="50.57983" lon="5.40071">
        <ele>78</ele>
      </trkpt>
      <trkpt lat="50.58012" lon="5.40161">
        <ele>78</ele>
      </trkpt>
      <trkpt lat="50.58016" lon="5.40172">
        <ele>78</ele>
      </trkpt>
      <trkpt lat="50.58038" lon="5.40237">
        <ele>66.4</ele>
      </trkpt>
      <trkpt lat="50.58068" lon="5.40313">
        <ele>77.800003051758</ele>
      </trkpt>
      <trkpt lat="50.58096" lon="5.40389">
        <ele>77.599998474121</ele>
      </trkpt>
      <trkpt lat="50.58103" lon="5.4041">
        <ele>77.400001525879</ele>
      </trkpt>
      <trkpt lat="50.58124" lon="5.40464">
        <ele>77.400001525879</ele>
      </trkpt>
      <trkpt lat="50.58139" lon="5.40503">
        <ele>67</ele>
      </trkpt>
      <trkpt lat="50.58169" lon="5.40573">
        <ele>65.7</ele>
      </trkpt>
      <trkpt lat="50.58199" lon="5.40654">
        <ele>77.400001525879</ele>
      </trkpt>
      <trkpt lat="50.58233" lon="5.40747">
        <ele>77.800003051758</ele>
      </trkpt>
      <trkpt lat="50.58245" lon="5.40778">
        <ele>77.800003051758</ele>
      </trkpt>
      <trkpt lat="50.58274" lon="5.4086">
        <ele>78</ele>
      </trkpt>
      <trkpt lat="50.58282" lon="5.40879">
        <ele>78</ele>
      </trkpt>
      <trkpt lat="50.58315" lon="5.40959">
        <ele>78.199996948242</ele>
      </trkpt>
      <trkpt lat="50.58327" lon="5.40989">
        <ele>78.400001525879</ele>
      </trkpt>
      <trkpt lat="50.58358" lon="5.41059">
        <ele>79.400001525879</ele>
      </trkpt>
      <trkpt lat="50.58363" lon="5.41069">
        <ele>79.400001525879</ele>
      </trkpt>
      <trkpt lat="50.58395" lon="5.41137">
        <ele>80.199996948242</ele>
      </trkpt>
      <trkpt lat="50.584" lon="5.41147">
        <ele>80.199996948242</ele>
      </trkpt>
      <trkpt lat="50.58433" lon="5.4121">
        <ele>71</ele>
      </trkpt>
      <trkpt lat="50.58444" lon="5.41231">
        <ele>80.400001525879</ele>
      </trkpt>
      <trkpt lat="50.58481" lon="5.41293">
        <ele>80.400001525879</ele>
      </trkpt>
      <trkpt lat="50.58503" lon="5.41329">
        <ele>80.199996948242</ele>
      </trkpt>
      <trkpt lat="50.5854" lon="5.4139">
        <ele>67.8</ele>
      </trkpt>
      <trkpt lat="50.58553" lon="5.41409">
        <ele>67.8</ele>
      </trkpt>
      <trkpt lat="50.58593" lon="5.41479">
        <ele>67.8</ele>
      </trkpt>
      <trkpt lat="50.58601" lon="5.41491">
        <ele>78.800003051758</ele>
      </trkpt>
      <trkpt lat="50.58607" lon="5.41517">
        <ele>68</ele>
      </trkpt>
      <trkpt lat="50.58612" lon="5.41549">
        <ele>67.6</ele>
      </trkpt>
      <trkpt lat="50.58609" lon="5.41691">
        <ele>66.2</ele>
      </trkpt>
      <trkpt lat="50.58609" lon="5.41741">
        <ele>66</ele>
      </trkpt>
      <trkpt lat="50.58613" lon="5.41788">
        <ele>66</ele>
      </trkpt>
      <trkpt lat="50.58627" lon="5.41939">
        <ele>66</ele>
      </trkpt>
      <trkpt lat="50.58651" lon="5.4217">
        <ele>64</ele>
      </trkpt>
      <trkpt lat="50.58675" lon="5.42401">
        <ele>65</ele>
      </trkpt>
      <trkpt lat="50.58688" lon="5.42515">
        <ele>64</ele>
      </trkpt>
      <trkpt lat="50.58694" lon="5.42564">
        <ele>64</ele>
      </trkpt>
      <trkpt lat="50.58702" lon="5.42616">
        <ele>63</ele>
      </trkpt>
      <trkpt lat="50.58785" lon="5.42953">
        <ele>66</ele>
      </trkpt>
      <trkpt lat="50.58827" lon="5.43119">
        <ele>65</ele>
      </trkpt>
      <trkpt lat="50.58868" lon="5.43278">
        <ele>74</ele>
      </trkpt>
      <trkpt lat="50.58877" lon="5.43359">
        <ele>71</ele>
      </trkpt>
      <trkpt lat="50.58885" lon="5.43448">
        <ele>69</ele>
      </trkpt>
      <trkpt lat="50.58894" lon="5.43573">
        <ele>69.1</ele>
      </trkpt>
      <trkpt lat="50.58902" lon="5.43668">
        <ele>67.4</ele>
      </trkpt>
      <trkpt lat="50.58926" lon="5.43852">
        <ele>68</ele>
      </trkpt>
      <trkpt lat="50.5895" lon="5.44026">
        <ele>67.6</ele>
      </trkpt>
      <trkpt lat="50.58971" lon="5.44178">
        <ele>70</ele>
      </trkpt>
      <trkpt lat="50.58994" lon="5.44326">
        <ele>71</ele>
      </trkpt>
      <trkpt lat="50.59022" lon="5.44457">
        <ele>67</ele>
      </trkpt>
      <trkpt lat="50.59035" lon="5.44526">
        <ele>67</ele>
      </trkpt>
      <trkpt lat="50.59049" lon="5.44581">
        <ele>67</ele>
      </trkpt>
      <trkpt lat="50.59078" lon="5.44652">
        <ele>66</ele>
      </trkpt>
      <trkpt lat="50.59107" lon="5.44713">
        <ele>65</ele>
      </trkpt>
      <trkpt lat="50.59163" lon="5.44832">
        <ele>63.1</ele>
      </trkpt>
      <trkpt lat="50.59178" lon="5.4487">
        <ele>66</ele>
      </trkpt>
      <trkpt lat="50.59187" lon="5.44907">
        <ele>66</ele>
      </trkpt>
      <trkpt lat="50.59195" lon="5.44946">
        <ele>65</ele>
      </trkpt>
      <trkpt lat="50.59203" lon="5.44996">
        <ele>66</ele>
      </trkpt>
      <trkpt lat="50.59214" lon="5.45058">
        <ele>66</ele>
      </trkpt>
      <trkpt lat="50.59223" lon="5.45106">
        <ele>65.8</ele>
      </trkpt>
      <trkpt lat="50.59232" lon="5.45163">
        <ele>66</ele>
      </trkpt>
      <trkpt lat="50.59238" lon="5.45224">
        <ele>65</ele>
      </trkpt>
      <trkpt lat="50.59241" lon="5.45257">
        <ele>64</ele>
      </trkpt>
      <trkpt lat="50.5924" lon="5.45293">
        <ele>64</ele>
      </trkpt>
      <trkpt lat="50.59237" lon="5.45352">
        <ele>65</ele>
      </trkpt>
      <trkpt lat="50.59236" lon="5.45388">
        <ele>65</ele>
      </trkpt>
      <trkpt lat="50.59275" lon="5.45405">
        <ele>66</ele>
      </trkpt>
      <trkpt lat="50.59288" lon="5.45444">
        <ele>67</ele>
      </trkpt>
      <trkpt lat="50.59305" lon="5.45482">
        <ele>67</ele>
      </trkpt>
      <trkpt lat="50.59345" lon="5.45549">
        <ele>67.3</ele>
      </trkpt>
      <trkpt lat="50.5938" lon="5.45614">
        <ele>68</ele>
      </trkpt>
      <trkpt lat="50.594" lon="5.45669">
        <ele>68</ele>
      </trkpt>
      <trkpt lat="50.59441" lon="5.4578">
        <ele>66</ele>
      </trkpt>
      <trkpt lat="50.59482" lon="5.45883">
        <ele>67</ele>
      </trkpt>
      <trkpt lat="50.59563" lon="5.46083">
        <ele>68</ele>
      </trkpt>
      <trkpt lat="50.59635" lon="5.46278">
        <ele>67</ele>
      </trkpt>
      <trkpt lat="50.59717" lon="5.46489">
        <ele>67</ele>
      </trkpt>
      <trkpt lat="50.59749" lon="5.46569">
        <ele>68</ele>
      </trkpt>
      <trkpt lat="50.59765" lon="5.46604">
        <ele>67</ele>
      </trkpt>
      <trkpt lat="50.59781" lon="5.46631">
        <ele>67</ele>
      </trkpt>
      <trkpt lat="50.59813" lon="5.467">
        <ele>67</ele>
      </trkpt>
      <trkpt lat="50.59844" lon="5.46775">
        <ele>68</ele>
      </trkpt>
      <trkpt lat="50.59872" lon="5.4688">
        <ele>67</ele>
      </trkpt>
      <trkpt lat="50.59898" lon="5.47033">
        <ele>64</ele>
      </trkpt>
      <trkpt lat="50.59925" lon="5.47192">
        <ele>65</ele>
      </trkpt>
      <trkpt lat="50.59937" lon="5.47236">
        <ele>65</ele>
      </trkpt>
      <trkpt lat="50.59951" lon="5.47271">
        <ele>65</ele>
      </trkpt>
      <trkpt lat="50.59998" lon="5.47355">
        <ele>66</ele>
      </trkpt>
      <trkpt lat="50.60044" lon="5.47438">
        <ele>65</ele>
      </trkpt>
      <trkpt lat="50.60098" lon="5.47533">
        <ele>67</ele>
      </trkpt>
      <trkpt lat="50.6015" lon="5.47624">
        <ele>66</ele>
      </trkpt>
      <trkpt lat="50.60257" lon="5.47813">
        <ele>65</ele>
      </trkpt>
      <trkpt lat="50.6032" lon="5.47926">
        <ele>66.7</ele>
      </trkpt>
      <trkpt lat="50.60351" lon="5.4798">
        <ele>67</ele>
      </trkpt>
      <trkpt lat="50.60382" lon="5.48042">
        <ele>67</ele>
      </trkpt>
      <trkpt lat="50.60412" lon="5.48118">
        <ele>67</ele>
      </trkpt>
      <trkpt lat="50.60441" lon="5.48186">
        <ele>68</ele>
      </trkpt>
      <trkpt lat="50.60466" lon="5.48267">
        <ele>67.8</ele>
      </trkpt>
      <trkpt lat="50.6049" lon="5.48356">
        <ele>67</ele>
      </trkpt>
      <trkpt lat="50.6049" lon="5.48369">
        <ele>66.9</ele>
      </trkpt>
      <trkpt lat="50.60486" lon="5.48378">
        <ele>67</ele>
      </trkpt>
      <trkpt lat="50.60486" lon="5.48392">
        <ele>67</ele>
      </trkpt>
      <trkpt lat="50.60421" lon="5.48473">
        <ele>65</ele>
      </trkpt>
      <trkpt lat="50.60403" lon="5.48436">
        <ele>64.7</ele>
      </trkpt>
      <trkpt lat="50.60429" lon="5.48412">
        <ele>65.6</ele>
      </trkpt>
    </trkseg>
  </trk>
</gpx>